GFSMA_sfc_wetblb_000.txt.gz
Wetbulb
70.18 70.53 72.25 72.79 72.51 72.58 71.76 71.54 71.55 71.05 70.39 70.76 71.14 71.01 70.89 71.33 71.87 72.13 71.64 73.49 75.78 75.92 75.92 75.60 75.59 75.67 74.78 74.07 73.81 74.64 74.46 74.01 73.77 73.74 73.83 73.34 73.91 73.48 73.64 72.96 72.86 73.11 73.26
71.40 71.15 71.77 71.41 71.46 71.87 71.13 71.60 71.00 70.05 69.19 69.27 69.51 69.92 70.22 70.31 70.92 71.13 71.67 72.47 73.94 76.14 76.54 76.09 75.92 75.79 75.98 74.85 74.43 74.89 74.63 74.57 74.71 74.45 74.65 74.98 74.52 74.40 74.32 73.73 73.05 72.68 73.72
71.60 71.44 70.75 70.81 71.27 70.50 70.66 70.50 69.79 68.61 68.19 68.45 68.44 68.68 68.88 69.44 69.96 70.31 71.35 72.38 72.89 73.97 75.28 77.04 76.84 76.22 75.84 76.18 75.29 75.51 75.70 75.33 75.61 75.22 74.95 74.86 74.81 75.04 75.02 74.79 74.33 74.26 74.55
72.86 71.28 70.59 69.94 70.73 70.67 69.92 69.75 68.29 67.65 67.83 67.35 67.20 67.87 68.20 68.87 69.30 69.71 70.62 71.30 72.47 73.11 74.28 75.29 76.56 76.27 75.80 75.55 76.01 76.01 75.81 75.60 75.30 75.41 75.55 75.29 75.04 75.10 74.87 74.75 74.90 74.85 74.78
72.97 72.11 70.32 70.47 70.79 70.47 69.78 68.82 67.89 67.39 67.17 67.02 67.28 68.37 68.47 68.63 69.12 69.71 69.85 70.37 70.81 71.82 72.33 73.46 75.12 75.41 75.86 75.70 76.03 76.12 75.43 75.80 75.92 75.62 75.54 75.93 75.55 75.43 75.08 74.95 75.30 75.35 75.20
72.50 71.98 70.84 70.56 70.90 69.94 68.87 68.22 67.71 67.66 67.26 66.79 67.20 67.28 67.35 67.42 68.37 68.67 68.89 69.90 70.44 71.03 71.64 72.66 74.99 74.47 74.82 75.50 75.06 75.48 75.73 75.60 75.33 75.70 75.65 75.70 75.63 75.58 75.15 74.95 74.80 74.80 74.99
72.27 71.79 71.24 70.41 70.13 69.41 69.11 68.66 67.93 67.35 67.01 67.12 66.44 65.96 65.72 65.53 66.50 66.24 67.83 68.56 67.26 68.26 70.79 72.81 73.77 74.60 74.07 74.48 74.97 75.21 75.34 75.79 75.71 75.47 75.43 75.38 75.42 75.59 75.41 74.86 74.68 74.81 74.69
72.05 71.03 70.68 69.91 70.03 69.11 68.25 67.63 67.37 66.40 66.74 67.62 65.43 62.74 61.40 63.07 64.44 65.73 66.74 66.93 65.41 66.24 67.03 69.17 70.58 71.04 72.00 73.41 73.67 74.33 74.99 75.25 75.84 75.98 75.64 75.23 75.29 75.12 75.19 75.02 74.88 74.73 74.57
71.69 71.48 70.53 70.05 68.80 67.74 67.38 66.85 66.45 66.23 65.49 66.49 66.70 64.38 60.14 59.09 61.91 64.12 65.03 64.93 64.87 65.62 66.54 67.41 68.12 68.67 70.41 71.36 71.44 71.72 72.12 73.05 74.00 75.10 75.49 75.34 74.83 75.02 74.96 75.13 74.76 74.52 74.28
70.30 69.77 68.95 68.13 67.50 67.23 66.76 66.74 67.79 67.10 66.38 64.81 65.82 66.29 65.31 64.39 60.68 59.53 62.34 62.69 63.05 63.36 64.97 66.31 66.71 67.68 68.88 69.60 68.96 69.98 70.66 71.33 72.07 72.96 73.79 74.96 74.51 74.78 75.22 75.18 75.07 74.65 74.39
66.69 67.61 67.25 67.11 67.40 66.40 66.09 66.52 67.03 66.72 66.29 65.48 64.81 64.47 63.83 62.83 62.79 60.21 57.85 59.45 60.80 63.27 64.22 64.81 65.43 66.49 67.40 66.61 66.73 66.74 67.49 69.11 70.33 71.88 72.50 72.96 73.53 74.90 75.60 75.80 75.79 75.48 75.29
64.44 65.83 66.78 67.69 66.91 65.71 65.89 66.19 66.33 66.09 66.23 66.34 65.71 64.85 63.30 61.15 60.92 60.70 59.45 59.01 58.98 60.65 63.00 64.11 64.60 64.93 65.15 65.40 64.06 65.47 65.95 67.03 67.01 67.95 69.04 71.32 72.68 73.18 74.21 75.66 75.74 76.08 76.20
63.84 65.21 66.27 65.54 65.09 64.56 64.95 65.51 65.98 65.58 65.52 65.56 65.56 64.45 64.04 63.44 63.15 62.11 60.49 59.28 58.67 59.39 61.03 61.08 63.79 64.21 63.46 63.81 63.39 64.61 65.04 64.39 65.39 65.53 66.44 67.80 70.15 71.61 72.81 74.25 75.08 75.66 76.10
64.07 64.96 64.58 64.97 63.32 63.66 64.93 65.85 65.01 64.95 65.21 65.76 65.18 64.37 64.29 63.89 63.44 62.76 61.00 59.13 54.75 55.29 56.62 58.55 59.99 62.87 62.84 61.60 62.88 63.59 63.22 63.83 63.86 63.85 64.05 65.02 66.44 68.78 70.52 71.46 72.76 73.53 74.09
63.81 64.14 64.04 64.22 63.32 63.45 65.54 65.49 64.72 65.24 65.42 65.64 65.49 64.92 63.81 64.12 62.94 62.37 61.74 60.42 57.28 53.28 53.26 56.58 57.49 60.57 60.59 61.06 61.61 62.80 63.06 63.11 63.52 63.43 63.31 63.71 64.59 66.42 68.48 69.37 69.68 70.47 71.68
63.54 63.69 63.85 63.68 63.68 63.89 65.01 65.05 64.27 64.68 64.85 64.61 64.50 64.34 64.60 64.47 63.18 61.93 60.48 60.30 58.67 56.91 54.55 56.68 58.00 58.91 60.45 60.82 61.92 62.77 62.37 62.46 62.39 62.37 62.63 63.04 63.75 64.29 66.27 67.88 68.37 68.49 69.09
63.05 63.50 63.50 63.54 63.85 63.78 64.57 64.04 63.95 64.58 64.52 64.76 64.76 64.36 64.39 64.41 63.23 61.61 60.99 60.25 58.96 57.73 55.48 58.68 58.26 60.19 60.29 61.13 61.42 61.74 61.74 61.76 61.59 61.94 62.34 62.23 62.22 62.67 63.79 65.69 66.81 67.12 67.49
62.87 63.57 63.79 63.94 64.38 64.73 64.47 63.90 63.81 65.05 64.34 64.21 64.50 64.08 63.88 63.60 63.12 62.50 60.39 60.46 60.12 59.22 57.81 57.45 59.92 59.24 59.73 61.61 61.39 60.70 60.64 60.83 61.37 61.55 61.34 61.48 61.61 61.93 62.40 62.82 64.32 64.84 64.55
62.81 63.21 64.01 63.71 63.51 63.39 62.70 62.94 63.75 64.08 64.04 64.06 64.10 63.66 63.55 62.67 62.09 61.57 60.94 60.38 60.51 60.26 59.02 57.85 57.89 59.99 59.86 60.90 59.92 60.63 60.31 60.31 60.68 61.18 61.04 60.73 60.90 61.54 61.58 61.23 62.12 61.96 60.53
63.20 63.13 63.22 63.37 62.97 62.38 62.65 63.27 63.59 63.62 63.51 63.59 64.25 64.15 63.16 62.21 62.02 62.25 61.55 61.30 60.86 59.87 59.67 58.07 57.87 58.61 59.19 60.55 59.15 57.49 56.83 58.76 58.58 59.83 60.55 60.26 60.83 61.58 61.56 61.10 61.43 62.24 59.68
63.72 63.63 63.15 62.85 63.08 62.80 62.97 63.71 64.01 63.70 63.55 63.94 64.52 63.75 62.87 62.54 62.65 62.58 62.28 61.96 60.12 59.40 59.20 58.10 57.26 57.84 57.88 58.13 57.36 58.11 56.33 57.36 58.29 58.83 58.29 59.06 59.97 61.11 62.38 62.51 64.22 64.54 62.35
63.31 63.40 62.67 63.21 62.82 63.10 61.63 62.30 64.38 64.09 64.41 63.77 62.98 62.39 61.15 60.81 61.24 61.10 61.70 62.39 62.14 60.62 59.57 58.47 57.75 57.08 58.00 58.50 58.27 56.45 56.06 54.91 53.64 59.04 57.93 56.99 59.42 58.58 61.11 61.53 62.45 64.27 62.91
62.92 62.52 62.89 62.98 62.96 64.02 60.15 60.30 62.56 64.52 62.89 61.74 61.48 60.88 59.94 60.90 61.31 60.04 59.50 59.82 60.84 60.89 61.25 61.53 57.95 58.08 58.01 58.58 58.30 56.55 55.95 54.37 54.73 56.02 56.12 54.18 57.11 56.46 60.60 62.12 60.75 60.85 62.29
62.38 62.72 62.78 63.13 62.89 63.34 59.28 58.91 61.25 63.94 62.97 61.63 60.46 59.80 59.63 59.69 59.00 59.07 59.27 59.30 58.67 58.21 58.34 57.77 58.28 58.21 58.55 59.04 58.60 58.05 55.95 55.90 56.16 56.26 56.52 52.94 56.40 55.86 59.47 61.34 60.60 61.32 61.69
63.30 62.87 63.59 63.44 62.83 62.99 58.33 58.10 59.76 62.82 61.97 61.24 60.02 58.74 57.69 58.82 57.01 56.01 57.73 56.95 56.16 56.35 56.54 56.26 56.26 56.01 55.93 55.84 56.64 56.47 54.48 53.75 52.17 53.09 55.95 54.10 54.85 55.48 57.36 58.81 61.25 61.32 60.51
63.77 64.07 63.45 62.77 60.46 62.48 58.09 57.82 58.64 61.48 60.15 58.46 57.86 58.38 56.06 55.39 53.45 52.57 55.60 54.59 54.41 54.77 54.26 54.44 54.90 55.36 55.89 56.24 56.48 57.70 57.13 53.28 52.20 51.48 55.39 53.56 54.51 55.69 54.95 59.08 60.79 63.66 67.62

GFSMA_sfc_wetblb_003.txt.gz
Wetbulb
75.88 76.20 76.09 76.83 77.26 76.99 76.49 76.04 75.26 74.46 73.85 73.11 73.31 72.87 72.54 73.09 73.46 73.72 74.64 74.55 74.42 75.26 75.79 75.97 75.85 75.56 74.96 74.42 74.77 75.12 74.63 74.51 73.95 74.61 74.04 74.39 74.10 73.80 73.55 72.95 73.03 72.86 72.77
76.45 77.55 75.92 76.68 76.49 76.50 75.98 75.78 74.79 73.77 72.83 72.93 72.17 72.48 72.04 72.13 72.69 73.08 73.22 74.76 73.57 74.38 75.56 76.21 76.24 75.76 75.62 75.42 74.72 74.30 75.45 75.64 75.59 74.79 75.09 75.15 74.69 74.56 74.06 73.56 73.41 72.89 73.56
77.25 77.30 77.15 76.44 76.23 76.03 75.36 74.90 74.34 74.07 72.65 72.38 71.83 71.72 72.17 72.25 71.91 72.91 73.07 73.61 74.89 74.15 74.77 75.48 76.99 76.91 75.71 75.51 75.51 75.82 75.87 75.51 75.86 75.61 75.14 75.04 75.10 75.07 74.84 74.72 74.75 74.16 73.96
77.92 77.72 77.50 77.44 75.79 75.26 74.74 74.31 73.49 72.46 72.89 72.04 71.26 71.63 71.66 71.47 72.49 72.79 73.30 73.34 73.16 73.69 75.07 75.04 75.14 76.52 76.86 74.81 75.27 75.44 75.48 75.47 75.95 76.03 75.50 75.48 75.45 75.43 75.16 75.13 75.24 74.71 74.63
76.73 77.57 77.66 76.97 75.57 74.65 75.08 74.18 73.49 72.84 71.68 71.31 70.93 70.99 70.90 70.86 72.07 71.95 72.38 73.27 73.75 73.82 73.59 75.78 74.98 74.84 75.54 75.56 76.25 75.49 75.81 75.62 74.87 75.43 75.98 75.96 75.21 75.33 75.04 75.11 74.91 74.86 74.94
76.54 76.19 75.80 75.45 74.86 74.79 74.45 73.69 72.99 73.17 71.97 71.42 70.03 69.59 70.81 71.40 70.88 71.29 71.35 71.07 69.96 72.71 73.94 74.84 75.39 75.83 74.86 75.00 75.12 75.70 75.93 75.60 75.22 75.45 75.31 75.34 75.76 75.54 75.39 75.03 74.93 74.88 75.23
76.55 76.55 76.38 75.09 74.87 73.80 73.89 73.34 73.05 71.81 71.24 72.37 69.63 68.35 70.17 70.53 69.24 69.96 69.94 67.62 66.96 68.55 70.54 72.29 73.70 74.50 75.33 74.76 74.74 74.88 75.12 75.72 75.80 75.64 75.38 75.34 75.34 75.41 75.30 74.95 74.72 74.80 74.93
76.63 76.33 75.64 74.30 73.96 72.70 72.97 72.50 72.10 70.65 70.99 72.21 68.77 67.87 64.06 66.66 69.59 68.49 67.43 64.43 66.04 66.55 67.36 69.71 70.56 71.87 72.99 73.85 73.57 72.57 72.97 73.47 74.18 75.33 75.46 74.81 74.76 75.01 74.88 74.88 74.62 74.76 74.74
76.42 75.84 75.16 74.27 73.81 72.71 70.61 71.94 71.28 70.60 68.67 71.06 70.47 67.50 63.42 62.34 64.28 68.36 67.67 65.50 65.41 65.10 66.16 67.90 69.22 70.06 69.72 69.10 70.01 70.58 70.63 72.24 73.12 73.57 74.11 74.93 74.66 74.39 74.64 74.62 74.35 74.58 74.54
75.48 75.15 74.78 73.36 73.18 71.98 72.30 71.98 71.68 71.95 71.26 68.45 70.09 70.36 69.53 67.67 62.71 61.91 66.08 65.75 65.17 63.74 65.28 65.35 66.53 67.68 67.30 66.28 66.83 67.61 68.29 69.11 69.66 70.60 72.47 73.69 73.84 74.41 74.71 74.69 74.29 74.22 74.50
75.23 73.93 73.19 72.79 72.65 71.79 72.01 70.98 71.84 71.46 70.83 69.19 68.23 68.76 68.26 67.71 67.35 63.36 59.26 61.73 64.68 65.85 64.94 64.79 65.80 66.00 66.22 65.80 65.56 67.00 66.95 67.40 66.87 67.50 68.06 69.38 70.90 73.04 73.85 74.08 74.93 74.99 74.73
72.78 72.38 71.87 72.43 73.00 72.44 71.17 70.35 71.11 70.45 70.23 69.83 69.44 68.58 65.96 63.95 63.93 62.98 61.33 61.85 61.77 63.60 64.71 65.12 64.83 65.41 65.39 64.98 64.22 65.21 65.99 65.57 65.53 65.44 65.73 66.46 67.24 68.96 71.46 73.34 74.04 74.89 75.56
71.41 70.65 71.41 71.83 71.78 72.12 70.64 70.65 70.58 70.30 69.91 68.90 69.93 67.72 67.83 66.41 66.64 65.59 63.77 62.27 61.67 63.21 63.97 65.07 64.89 65.43 65.39 65.44 65.35 64.70 66.21 65.70 65.64 65.04 65.15 64.86 65.18 66.23 67.16 69.61 71.51 73.37 74.27
71.84 71.49 71.14 71.58 71.94 70.63 69.81 70.12 68.93 68.57 69.82 69.05 69.81 69.81 67.64 67.72 67.54 66.76 65.14 63.28 60.78 61.48 62.31 63.24 64.43 64.59 65.19 65.38 65.55 65.00 65.79 64.85 64.71 64.15 64.14 64.38 64.61 64.89 65.55 66.58 68.46 70.69 72.25
71.00 70.73 70.80 70.99 70.52 68.82 69.33 70.19 67.86 68.43 69.27 69.54 69.53 69.97 68.67 68.09 68.15 67.83 67.37 65.76 62.95 59.26 60.31 62.61 61.89 65.49 65.53 65.85 66.25 66.60 65.98 64.81 64.34 64.02 63.48 63.11 63.64 64.45 65.19 65.74 66.46 68.11 69.58
70.97 70.60 70.46 70.01 69.61 68.82 68.71 69.99 68.59 68.86 68.84 68.00 68.24 69.34 69.28 68.46 68.59 69.28 67.96 66.60 65.21 62.37 59.77 62.59 62.97 65.04 66.17 65.80 66.02 65.96 66.23 64.53 64.36 63.40 63.09 62.52 63.02 63.85 64.06 64.37 64.92 65.86 67.47
70.66 70.07 70.09 69.41 69.26 69.03 69.38 69.27 69.48 68.63 67.96 68.52 69.38 69.11 69.09 69.84 67.82 67.61 67.66 67.13 65.11 64.15 61.17 62.38 63.75 65.72 65.48 65.58 66.07 66.73 66.31 65.94 64.93 63.35 63.16 62.74 62.28 62.34 62.85 63.06 63.37 63.99 64.94
70.00 70.05 69.83 69.51 69.39 69.34 69.66 69.24 68.49 67.25 67.68 67.69 67.95 68.69 68.19 67.91 68.38 68.42 66.92 66.80 65.47 65.94 63.19 61.77 64.10 63.87 64.96 65.91 65.81 65.55 65.21 65.09 64.82 63.53 62.34 61.60 61.28 61.32 61.38 61.38 61.47 61.89 62.26
67.59 68.57 68.90 68.80 68.95 69.30 69.72 69.97 69.17 68.04 68.24 68.16 68.15 68.16 68.15 68.29 67.79 66.44 66.76 65.53 64.90 66.24 64.74 62.20 61.51 63.27 63.67 64.66 64.37 65.20 64.99 65.00 64.48 63.54 61.80 61.28 61.30 61.13 60.61 59.83 59.56 59.63 59.24
66.90 66.88 68.00 69.30 69.11 69.51 69.28 68.70 67.78 67.79 68.34 68.20 68.63 68.61 68.57 68.10 67.42 67.10 66.16 66.20 65.79 64.89 64.37 62.77 61.83 61.75 62.41 64.71 63.66 61.91 61.35 62.75 62.13 63.04 62.82 61.76 61.76 61.61 61.20 59.92 59.77 60.19 58.51
65.62 65.60 66.43 68.15 68.75 68.22 67.69 67.95 68.09 68.10 68.71 68.60 68.84 69.34 69.21 68.34 65.49 64.97 64.38 65.58 65.48 63.91 62.48 61.38 60.66 60.97 60.83 60.87 61.02 61.66 60.72 61.36 62.37 62.49 61.46 61.75 61.99 61.99 62.22 61.42 62.65 62.77 61.17
65.09 66.36 66.66 66.49 67.15 66.53 62.97 62.57 66.34 68.25 68.85 68.95 68.20 68.67 68.90 65.39 64.61 62.54 62.23 62.62 63.50 63.60 63.21 61.80 60.22 60.51 62.09 61.76 61.82 61.18 60.33 58.89 56.84 62.43 61.50 60.44 61.38 59.98 61.83 62.84 61.35 60.87 60.53
64.66 65.80 66.87 66.06 67.62 67.56 61.69 61.24 63.42 67.86 68.33 68.35 67.57 67.53 67.11 65.82 63.90 65.00 62.45 60.93 61.01 60.93 61.89 63.79 61.39 61.32 61.52 62.28 62.36 60.17 59.44 58.22 57.52 60.56 60.50 59.04 60.08 59.91 61.02 61.57 59.95 59.70 59.36
65.32 67.15 67.48 68.04 67.67 68.29 60.16 59.18 61.66 67.21 66.24 67.21 67.41 67.36 66.56 65.96 65.25 62.61 62.88 62.41 63.04 63.84 64.00 62.85 62.70 62.38 62.33 61.95 60.73 59.69 59.06 58.24 59.17 60.03 61.56 56.64 59.11 57.83 59.17 61.07 59.58 59.59 59.15
66.91 67.08 66.71 67.17 67.45 67.54 58.96 58.51 62.00 65.33 65.24 64.01 66.60 66.58 64.68 63.91 59.15 56.55 59.51 60.67 61.64 61.78 59.82 57.02 56.42 55.64 55.42 55.58 56.66 57.48 55.78 56.58 55.99 57.46 59.26 54.37 54.85 54.64 56.13 57.42 60.60 60.07 58.70
66.22 66.40 66.76 67.82 64.10 67.01 57.32 57.30 61.73 62.55 63.17 62.79 65.40 63.49 57.23 59.25 54.10 53.98 59.60 60.60 59.51 60.17 59.41 59.12 59.07 58.48 58.21 58.74 56.94 59.15 56.81 54.23 55.10 54.12 56.07 53.29 53.87 54.58 53.01 57.34 60.09 62.72 63.69

GFSMA_sfc_wetblb_006.txt.gz
Wetbulb
78.00 77.21 77.73 77.33 76.69 78.00 77.96 76.42 76.49 76.08 75.48 74.99 74.54 73.48 72.27 72.23 73.00 73.06 73.78 75.17 73.61 74.26 75.65 75.91 75.71 75.85 75.30 74.92 75.32 75.10 74.90 74.23 73.67 73.56 73.51 73.90 73.91 74.13 73.38 72.93 72.91 73.56 73.22
78.58 76.15 76.56 76.29 76.10 76.96 77.36 76.57 76.06 75.43 75.05 74.42 73.00 72.81 72.05 71.59 72.42 73.34 72.91 74.51 74.19 73.47 74.56 76.11 76.24 76.05 75.70 75.50 74.60 75.02 75.68 75.57 75.66 74.64 75.02 75.45 75.19 75.02 73.92 73.32 73.35 73.43 73.62
77.79 77.14 76.49 75.79 75.76 78.41 76.96 76.44 76.65 75.78 74.39 73.74 72.45 71.67 72.23 72.34 72.23 72.55 73.03 72.75 74.72 75.05 74.63 74.80 76.35 76.83 76.55 75.67 75.64 75.61 75.48 75.86 76.20 75.75 75.76 75.64 75.59 75.09 75.05 74.83 74.33 74.25 74.41
77.86 77.48 76.28 75.47 76.60 75.89 75.97 75.64 75.12 73.87 72.93 71.94 71.02 71.22 71.60 71.92 72.15 72.59 73.30 73.37 72.88 72.15 75.49 75.40 74.60 75.89 76.75 75.41 75.42 75.23 75.51 75.58 75.74 75.89 76.04 75.64 75.59 75.42 75.58 75.30 75.40 75.30 74.83
77.54 77.23 76.16 75.84 76.83 75.44 76.27 75.54 74.07 73.54 71.02 70.29 69.91 69.80 71.51 71.66 72.29 71.74 73.01 74.67 73.98 73.87 72.45 75.46 74.21 74.21 74.64 75.23 76.32 76.26 76.13 75.69 75.16 75.32 75.64 75.75 75.75 75.30 75.00 75.10 75.18 75.25 75.25
77.54 77.15 76.18 76.18 76.22 75.87 74.59 74.73 73.68 72.82 71.75 70.21 68.88 68.79 71.68 72.87 72.48 72.29 72.40 71.78 71.47 73.30 73.99 75.34 75.29 75.26 74.02 73.68 74.70 76.27 76.49 75.65 75.69 75.17 74.82 75.27 75.40 75.70 75.33 75.10 75.08 75.05 75.00
77.74 77.60 75.99 76.31 76.29 75.03 74.66 73.78 72.01 71.16 68.89 72.32 68.26 69.36 70.00 71.27 71.35 72.49 71.21 68.09 68.81 69.93 71.86 73.69 74.18 74.56 75.62 74.12 73.98 74.05 74.33 75.01 75.69 75.79 75.52 74.90 74.85 75.03 75.13 75.02 74.84 75.04 75.07
78.18 77.03 76.96 76.22 76.37 73.71 73.89 72.11 71.63 69.28 69.88 71.42 67.77 67.19 64.64 67.27 69.09 69.75 68.92 66.57 66.94 67.60 68.72 70.48 72.12 73.62 74.10 74.13 72.99 72.22 71.72 72.68 73.43 74.00 75.01 75.18 75.08 74.68 74.43 74.42 74.30 74.75 74.91
78.18 77.72 77.26 76.02 75.13 72.04 69.81 72.25 71.70 70.01 67.61 71.43 70.66 67.17 63.55 63.19 64.62 67.87 68.36 67.00 66.96 66.17 67.13 68.21 69.58 70.03 70.01 70.12 71.26 70.56 68.71 69.53 70.69 72.12 73.38 73.80 74.25 74.65 74.70 74.43 74.07 74.11 74.35
77.94 77.61 76.63 75.10 72.94 71.38 72.49 71.72 72.07 70.76 70.38 68.22 69.66 69.86 69.93 68.53 63.23 63.09 66.30 66.58 68.36 67.24 66.89 66.41 67.30 68.23 68.87 67.86 68.24 67.23 67.45 66.94 66.96 67.81 68.70 69.89 71.03 72.61 73.88 74.55 74.25 74.07 74.08
77.68 75.99 76.43 73.80 72.53 71.33 72.70 72.82 71.70 71.05 70.59 68.29 67.85 68.73 69.55 67.56 68.73 63.76 60.73 64.35 67.02 67.44 68.19 68.32 66.96 67.46 67.98 68.65 67.65 66.58 65.75 65.64 65.42 65.70 65.87 66.34 67.38 68.56 70.51 72.51 74.15 74.15 74.33
75.51 76.28 75.88 74.14 72.91 72.04 72.32 71.85 71.35 70.77 70.33 69.78 69.04 69.56 66.40 65.03 64.93 63.93 61.87 63.13 63.39 65.46 67.50 66.96 67.28 66.40 67.07 67.85 65.43 64.18 64.50 65.67 64.66 64.49 64.44 65.02 65.64 66.34 67.48 68.50 70.33 72.66 73.90
72.82 74.68 75.84 73.91 71.97 73.16 72.43 71.73 71.10 70.26 70.15 69.36 69.88 67.96 68.44 67.13 66.79 65.38 63.98 62.90 62.59 65.04 65.82 67.60 68.15 66.95 66.41 66.88 67.20 64.81 67.62 66.46 65.69 65.34 64.86 64.49 64.49 64.89 65.52 66.31 67.40 68.93 71.18
72.21 74.11 75.31 73.72 72.80 72.34 72.15 70.94 69.29 69.14 69.98 69.18 69.51 69.89 67.81 67.76 67.07 66.43 64.92 64.01 62.38 63.20 64.93 66.85 67.48 67.18 66.72 66.77 67.65 66.02 67.68 65.56 64.97 64.36 64.08 64.75 64.29 64.08 64.53 64.95 65.49 65.88 66.65
72.44 74.40 74.34 73.11 71.82 72.18 71.10 70.73 68.60 69.25 69.05 69.26 68.90 69.35 68.73 67.03 66.84 67.05 67.11 66.69 64.33 60.50 60.72 64.19 63.94 67.51 67.04 67.16 68.31 67.99 68.02 66.79 64.99 64.13 63.76 63.49 63.79 64.07 64.29 64.42 64.93 65.13 65.47
75.33 73.91 73.33 71.76 71.47 71.11 70.38 70.64 69.34 69.70 69.13 67.12 66.50 68.11 69.05 67.73 67.86 67.87 67.61 66.89 66.11 64.02 60.92 63.80 64.20 66.36 67.62 67.46 68.39 68.04 67.99 67.01 65.88 64.86 64.01 63.05 63.40 63.92 64.09 64.22 64.33 64.49 64.73
75.01 73.57 72.86 71.27 71.03 70.22 70.24 70.12 69.98 68.84 68.08 68.15 68.02 68.62 69.07 70.42 68.12 66.76 66.84 66.32 65.38 64.88 62.27 63.50 64.65 67.11 67.83 67.81 67.88 68.44 68.18 67.83 67.30 65.10 64.15 63.33 62.75 62.75 63.02 62.91 62.83 63.18 63.31
73.96 73.08 71.92 70.97 71.20 70.35 70.30 70.01 68.97 68.24 67.67 67.20 67.77 68.62 68.82 68.39 69.41 69.45 67.42 68.19 66.80 66.89 64.17 63.90 65.66 64.95 67.54 67.87 67.35 67.62 66.97 66.66 66.82 65.66 63.55 62.50 61.91 61.41 61.22 60.99 61.13 61.11 61.10
71.50 70.11 69.81 70.17 70.62 69.90 70.18 70.45 70.14 69.50 68.42 67.99 68.44 68.46 68.53 68.82 68.53 67.62 67.65 66.11 65.54 65.49 65.74 63.58 63.33 65.10 64.97 65.48 66.16 67.32 67.57 67.94 65.92 65.50 63.01 62.51 61.77 61.36 60.77 60.05 59.56 58.83 57.81
70.07 68.21 68.70 69.08 69.00 70.37 70.29 70.17 69.71 69.74 68.52 67.61 68.70 68.74 68.97 68.98 68.28 68.15 67.24 67.62 67.29 65.82 66.10 63.35 63.13 62.94 63.37 65.12 64.77 62.27 62.65 64.11 63.45 64.68 65.02 63.08 62.95 62.91 62.26 60.32 59.65 59.54 57.32
69.93 66.13 67.93 67.02 68.95 69.78 67.99 69.80 69.42 68.53 68.13 68.29 69.05 69.18 69.64 69.45 66.91 66.76 66.44 68.00 67.20 64.99 63.10 62.10 61.78 61.63 60.12 60.64 62.56 62.83 61.72 62.68 64.41 64.81 63.49 63.08 62.52 63.74 64.40 62.68 63.34 62.71 60.19
68.83 67.97 66.63 66.52 67.10 67.94 63.84 63.65 67.27 68.52 68.80 68.91 68.58 69.69 70.18 68.34 67.16 64.41 63.43 62.99 63.84 64.16 63.14 61.51 61.07 61.11 63.18 63.13 63.69 62.28 61.69 60.33 59.02 64.35 63.06 60.73 63.35 63.07 63.65 63.91 62.21 60.82 59.48
68.83 68.72 68.43 67.61 67.47 69.23 62.12 62.14 63.86 67.96 68.57 68.96 69.75 69.55 68.30 66.28 66.29 68.20 64.48 62.12 61.89 61.09 61.08 63.84 62.85 62.83 63.47 64.34 63.72 62.28 61.89 60.81 59.66 61.05 61.90 59.95 62.79 61.43 63.32 62.79 60.40 59.97 58.63
68.37 69.07 69.56 68.97 68.49 69.23 62.07 60.92 63.45 68.65 69.43 70.10 69.52 68.65 67.86 65.79 66.34 66.97 66.89 65.69 65.08 65.42 65.82 64.79 64.73 63.98 64.07 63.89 62.21 61.23 60.59 60.52 60.69 61.35 63.47 59.15 61.60 60.03 62.35 62.84 60.01 59.02 58.03
69.02 69.75 70.24 69.77 69.30 69.64 58.71 58.78 63.00 68.64 68.80 68.78 67.03 67.16 66.44 66.48 61.76 58.60 63.42 63.55 64.09 64.30 61.89 58.98 57.63 56.71 56.02 55.82 57.23 59.39 58.60 57.35 57.10 58.67 61.86 60.18 59.54 59.36 60.09 58.90 59.95 58.94 57.68
69.70 69.12 69.29 69.78 66.62 70.14 57.54 57.05 61.34 67.98 67.74 66.14 64.72 65.74 60.06 62.27 55.83 55.54 61.50 62.56 61.55 62.47 62.89 62.25 62.08 60.69 58.87 60.94 57.66 60.45 58.44 55.87 56.19 56.54 60.85 58.80 58.36 56.69 52.77 56.57 58.51 59.79 59.10

GFSMA_sfc_wetblb_009.txt.gz
Wetbulb
78.06 77.33 77.75 76.21 77.14 77.20 75.61 76.22 76.19 75.75 75.51 75.05 74.08 73.37 72.37 71.48 71.11 71.22 72.97 76.24 75.24 74.64 76.06 76.16 75.90 75.94 75.74 75.42 75.75 75.51 75.13 74.35 73.57 73.52 73.97 73.42 73.76 73.93 74.05 73.74 73.01 73.04 73.43
77.83 76.47 78.07 75.99 76.40 76.48 77.33 76.76 76.34 75.38 75.43 74.42 73.82 72.74 71.80 71.85 72.21 72.25 71.79 75.45 75.85 75.45 75.20 76.39 76.43 75.86 75.82 75.70 75.40 75.60 75.59 75.41 74.49 74.00 74.14 74.91 74.94 74.40 74.19 73.59 73.19 73.09 73.60
77.71 78.08 76.73 76.54 75.70 77.87 77.33 76.98 75.86 77.06 73.55 72.82 71.82 71.17 71.23 71.79 71.67 72.32 71.94 71.48 74.95 76.08 75.54 75.94 77.24 77.16 76.94 76.11 75.58 75.58 76.16 76.04 75.93 76.08 75.82 75.75 75.52 75.70 75.47 74.97 74.30 74.33 74.44
78.48 78.42 76.16 75.34 76.59 76.95 76.77 76.48 75.26 71.50 71.68 70.82 70.28 70.44 70.79 71.24 72.19 71.91 72.69 71.94 71.79 72.37 76.17 76.47 75.47 75.93 76.14 75.41 75.74 76.05 75.88 75.49 76.00 76.19 76.09 76.06 76.03 75.89 75.51 75.56 75.36 75.21 75.01
78.88 77.56 76.31 76.64 77.52 76.60 75.77 75.02 74.39 73.48 70.60 70.02 69.35 69.07 70.67 71.13 71.27 71.26 71.34 72.45 73.16 73.15 72.38 75.93 76.21 75.21 75.08 75.56 75.98 75.30 75.63 75.93 75.13 75.35 75.53 76.09 75.94 75.79 75.51 75.59 75.52 75.37 75.29
78.45 77.84 76.60 77.24 76.93 75.31 74.97 73.84 73.97 72.28 70.98 70.20 68.72 67.59 70.75 71.53 71.07 70.90 71.13 70.52 70.96 72.18 73.09 73.94 75.20 74.51 75.16 74.64 73.94 75.34 76.14 75.99 75.71 75.61 75.31 75.34 75.54 75.54 75.59 75.14 75.14 75.24 75.34
78.93 77.56 76.73 76.80 76.57 76.08 75.29 73.67 71.90 71.66 69.37 71.34 68.15 69.11 69.24 70.49 70.53 70.81 69.30 68.39 68.91 69.39 71.31 72.55 73.14 74.08 75.05 74.41 74.07 74.24 74.24 74.28 74.51 74.91 75.39 75.14 75.04 75.19 75.29 75.05 75.13 75.13 75.31
78.62 77.75 78.19 76.39 76.73 74.01 73.89 72.44 71.62 69.21 69.18 70.78 67.43 66.77 64.74 67.63 71.02 68.76 68.20 67.46 67.55 67.88 68.90 70.74 72.26 73.10 73.82 73.29 73.19 70.71 70.38 71.96 73.09 73.60 73.63 73.62 74.64 74.89 74.86 74.72 74.81 74.78 74.96
78.10 78.40 77.48 77.17 76.16 73.61 68.69 72.55 71.76 70.42 67.64 70.22 71.04 67.20 63.87 63.17 66.30 68.82 68.78 67.26 67.65 66.83 67.71 68.98 69.77 69.76 70.08 70.45 71.99 69.44 68.01 68.18 68.96 69.58 70.83 71.91 72.72 73.64 74.36 74.63 74.35 74.49 74.45
77.70 77.87 77.74 75.65 75.05 71.54 74.40 72.17 71.07 70.94 70.55 68.48 68.94 68.88 69.34 68.13 63.69 62.73 67.59 67.35 67.49 66.97 67.78 67.19 67.33 68.68 68.65 67.83 68.76 67.31 66.55 66.23 66.23 66.73 67.03 67.27 67.98 69.58 71.07 72.63 74.23 74.20 74.21
77.05 76.11 76.15 75.12 73.37 70.45 73.12 72.89 71.61 71.62 71.14 68.37 67.96 67.46 69.96 66.78 67.66 63.31 61.43 64.03 66.89 67.41 67.45 67.35 67.07 66.56 67.77 67.80 67.17 66.40 65.84 65.63 65.20 65.28 65.84 66.14 66.64 67.35 68.09 68.95 70.69 72.31 74.29
75.61 76.25 75.08 75.06 73.84 72.42 72.64 72.10 72.20 71.52 71.06 70.76 69.37 69.19 66.81 65.02 64.85 64.31 62.42 64.15 63.72 65.73 67.21 68.19 67.45 68.01 66.98 67.11 66.59 66.54 65.13 65.65 65.69 64.93 64.67 64.96 65.60 66.07 66.58 67.30 67.89 68.81 70.17
73.48 77.03 76.61 75.34 73.17 73.51 73.04 72.79 72.40 71.73 70.62 69.49 70.49 68.60 70.23 67.65 67.13 65.41 63.96 63.11 62.93 65.31 66.81 68.11 69.86 69.28 67.53 67.48 67.34 66.24 67.86 67.60 66.83 65.69 65.28 64.75 64.95 65.10 65.29 65.46 65.94 66.75 67.47
74.02 78.03 75.58 75.01 73.92 72.92 72.75 72.72 70.15 69.37 71.55 69.68 69.60 71.18 68.19 68.63 68.21 66.39 64.95 64.89 62.73 62.35 65.31 69.37 68.39 68.49 67.98 67.67 69.03 66.72 67.56 69.19 67.12 65.02 64.36 64.57 65.05 64.77 64.60 64.72 64.79 65.22 65.49
74.16 74.72 75.31 74.57 73.64 72.29 72.77 72.29 69.19 70.98 70.40 70.41 70.63 71.23 69.00 67.75 67.15 66.72 66.91 69.09 65.24 60.26 61.51 65.43 64.84 69.63 68.44 67.45 68.67 68.23 68.21 67.94 66.51 64.60 64.37 64.13 64.28 64.92 64.91 65.05 64.91 65.14 64.98
77.59 76.25 75.68 74.50 73.24 73.23 73.21 72.85 71.44 71.65 70.69 68.98 67.54 71.04 71.04 67.79 68.29 67.52 67.96 66.85 65.78 63.50 60.30 64.28 65.14 68.55 69.89 67.71 68.93 68.58 67.96 68.07 66.64 65.85 65.04 64.17 64.12 64.55 64.73 64.81 64.65 64.41 64.63
78.43 76.77 76.26 75.02 72.90 72.15 72.25 72.68 71.70 70.69 70.54 70.86 70.83 69.21 70.11 71.46 67.69 67.05 66.69 66.49 64.78 65.15 61.85 64.37 65.39 68.00 71.16 70.22 69.23 69.64 68.97 69.46 67.89 65.74 65.42 64.60 63.54 63.57 63.71 63.71 63.59 63.48 63.51
78.61 76.97 75.99 74.37 72.97 70.74 68.71 71.92 70.26 70.17 68.63 68.34 68.73 70.09 69.11 68.25 71.39 71.67 67.51 70.56 68.92 68.57 64.67 65.13 66.17 65.32 68.22 69.94 70.84 70.64 68.28 66.78 67.47 65.88 65.14 64.17 62.94 62.29 62.05 62.07 61.70 61.42 61.03
78.32 75.98 75.63 74.31 72.25 72.16 72.24 72.30 71.92 69.30 69.65 69.62 69.73 70.11 69.59 70.69 70.79 68.76 69.85 67.57 67.07 67.43 67.12 63.43 63.30 64.46 64.31 63.54 65.92 69.37 67.56 66.74 66.47 65.87 63.69 62.88 62.43 62.19 61.35 60.34 59.56 58.96 57.93
78.31 75.81 74.98 73.42 72.59 71.89 71.81 71.64 71.48 71.13 71.32 70.76 70.69 70.60 70.51 70.12 70.13 70.42 69.35 70.21 68.84 67.00 66.36 64.61 63.55 63.30 64.64 65.67 66.62 63.58 63.05 62.72 63.00 65.59 65.79 63.76 63.93 63.84 61.89 60.40 59.78 59.65 57.32
77.77 75.43 74.53 72.49 71.95 70.66 70.08 71.34 70.69 69.86 70.09 69.88 69.90 69.73 70.41 70.20 68.01 67.99 68.42 67.75 68.79 66.00 64.66 63.36 62.88 63.16 63.13 63.04 62.68 63.99 63.38 63.62 62.59 65.17 64.39 65.62 65.46 65.56 64.82 63.15 63.47 62.72 60.19
76.29 74.95 72.17 70.26 69.07 68.21 64.51 64.80 69.08 68.58 71.23 70.25 69.36 70.77 70.96 68.77 67.73 65.24 64.86 64.24 64.24 65.67 65.14 62.32 62.36 61.90 63.49 63.92 63.21 62.49 62.90 61.22 58.46 64.89 63.87 62.95 63.84 62.90 63.78 65.18 63.68 61.64 60.01
74.91 73.32 71.16 68.24 67.96 70.15 62.51 62.73 64.63 69.06 69.75 70.41 71.03 70.16 69.25 68.76 67.45 67.68 65.22 63.20 62.76 62.14 61.98 65.10 64.16 63.83 63.60 64.84 64.78 63.87 63.23 61.48 59.93 61.43 62.15 59.74 62.64 62.60 65.15 64.18 61.10 59.95 58.95
73.69 72.13 70.30 69.84 70.40 70.74 62.48 61.16 64.29 69.07 69.74 69.58 71.23 71.50 71.19 70.44 69.10 67.91 67.38 65.05 65.53 67.56 66.98 65.05 65.21 65.73 65.94 65.27 63.26 62.39 62.34 61.82 61.36 62.39 63.49 58.78 62.03 62.19 63.82 65.22 61.08 59.92 58.92
72.48 70.48 69.54 68.92 69.97 71.30 59.95 59.37 63.73 68.95 68.34 70.30 71.16 71.40 70.34 69.16 64.97 60.78 64.94 63.06 63.23 64.46 63.87 61.31 60.34 58.44 57.05 56.94 58.35 59.86 58.15 57.09 56.23 58.06 61.14 59.91 60.44 60.55 62.50 61.88 62.83 60.21 57.44
71.97 70.93 69.46 69.89 67.88 71.07 58.51 57.72 62.58 66.52 66.95 68.24 69.27 70.75 62.26 64.36 57.32 57.31 63.40 62.82 63.10 64.09 64.36 64.29 64.07 61.22 59.29 61.12 57.48 60.61 60.38 57.87 57.25 56.48 60.77 58.68 58.59 58.68 56.51 60.61 60.74 59.50 58.06

GFSMA_sfc_wetblb_012.txt.gz
Wetbulb
76.38 73.36 77.61 78.03 76.29 73.98 76.41 77.33 75.66 76.24 76.24 75.19 74.13 73.59 71.18 71.09 71.41 70.55 74.41 76.39 76.33 76.06 76.58 76.51 76.15 76.21 76.27 75.67 75.69 75.57 75.24 74.36 73.72 74.16 74.64 74.85 75.02 74.68 74.45 74.46 74.29 74.10 73.60
79.11 78.09 78.68 76.60 75.22 75.74 78.09 76.28 76.36 76.14 76.19 75.00 74.36 72.73 71.51 71.54 72.27 72.30 71.67 75.14 76.76 76.36 77.23 76.45 76.83 76.57 76.06 75.77 75.95 76.00 75.64 75.72 75.25 74.57 74.55 74.81 74.58 75.02 75.06 75.16 74.57 74.03 73.91
79.72 79.64 77.83 77.87 77.02 76.13 77.00 76.19 74.97 76.52 72.28 73.82 72.98 71.70 71.68 71.63 72.16 71.52 71.55 72.14 74.97 76.87 76.98 77.44 76.75 76.62 76.74 75.78 75.96 76.31 76.80 75.84 75.96 75.66 75.18 74.98 75.37 75.37 75.48 75.32 74.71 74.18 74.11
79.49 80.32 77.63 73.58 76.37 74.88 76.67 74.70 75.05 74.74 70.70 71.32 70.76 71.62 70.50 71.52 71.52 71.67 71.55 70.59 73.11 73.72 76.09 76.80 76.70 76.39 76.10 75.89 75.74 76.25 75.67 75.72 76.38 76.20 75.87 75.63 75.85 75.98 75.81 75.35 75.25 74.95 74.75
79.66 77.42 77.36 74.90 77.58 77.48 75.98 75.49 74.35 74.16 72.12 70.77 69.22 70.22 70.85 70.94 71.05 70.26 71.29 70.84 71.40 72.89 73.55 75.26 75.82 76.11 75.99 75.44 75.76 76.51 75.98 75.54 75.25 75.50 75.75 75.73 75.76 75.51 75.53 75.28 75.30 75.38 75.25
78.36 77.77 77.36 78.56 78.34 77.29 72.94 75.46 72.22 71.99 71.43 70.33 69.46 68.28 70.52 70.84 70.46 71.30 69.39 70.04 70.06 71.33 73.18 72.82 73.93 74.11 75.32 74.03 74.14 75.02 75.62 76.18 75.54 75.55 75.30 75.05 75.10 75.28 75.25 75.25 75.22 75.04 75.12
79.61 79.51 78.06 77.43 76.07 76.15 71.26 73.01 73.29 71.15 71.00 71.37 69.60 68.27 69.43 70.35 70.50 70.39 67.96 67.74 68.24 69.39 70.64 70.85 71.92 73.12 73.54 74.53 73.86 73.81 74.06 74.03 74.12 75.46 75.17 75.08 75.05 74.95 74.75 74.72 75.03 75.03 75.04
79.41 77.27 77.47 77.13 75.78 75.47 74.28 73.07 72.41 70.62 70.17 71.84 67.92 67.54 63.88 66.32 68.22 67.00 67.58 66.41 66.62 67.74 68.98 70.37 71.23 70.78 72.74 72.53 71.01 70.58 70.64 71.69 72.95 73.39 73.85 74.36 74.28 74.80 74.65 74.31 74.33 74.74 74.92
77.81 75.62 77.58 77.49 76.88 74.81 72.94 73.24 72.71 71.92 68.30 71.08 70.56 67.89 64.29 62.29 65.78 68.11 67.93 66.43 66.91 66.35 67.40 69.04 68.84 68.66 68.39 70.94 69.60 67.33 67.33 68.02 68.37 69.59 70.30 71.02 71.48 72.51 73.50 73.25 74.33 74.26 74.20
78.45 78.74 78.04 77.43 76.27 74.21 74.55 73.22 72.73 71.00 71.84 68.12 69.64 69.47 69.14 67.53 63.53 62.75 67.31 66.85 67.23 66.58 66.94 66.49 67.74 68.30 67.29 68.49 68.38 67.48 67.29 66.77 66.19 66.08 66.33 67.12 67.66 68.33 69.45 71.23 72.68 73.43 74.01
78.03 77.25 77.94 76.97 74.97 73.01 74.93 73.05 72.24 71.40 71.78 70.05 68.22 69.15 69.30 68.37 67.64 62.96 61.19 63.99 66.32 66.80 67.37 67.12 65.73 66.39 67.77 66.70 66.67 66.87 67.73 66.76 65.71 64.56 64.60 65.09 65.67 66.48 67.03 67.63 68.57 69.73 71.38
76.58 78.03 76.50 75.96 74.94 73.22 73.93 73.15 73.31 72.89 71.13 71.58 70.32 70.03 68.44 66.48 64.08 65.21 63.45 63.04 63.02 65.33 66.99 66.58 67.43 67.42 66.51 67.55 68.21 68.38 67.92 66.89 66.64 66.24 65.61 64.45 65.04 65.46 65.95 66.35 66.70 67.14 67.83
74.93 76.16 76.20 75.03 74.00 74.04 74.90 73.68 73.31 73.10 71.53 70.42 71.40 69.30 68.22 67.56 67.97 66.88 64.59 63.22 62.61 65.21 65.76 67.31 67.86 68.33 67.63 66.73 66.27 68.53 68.47 67.71 67.08 66.12 65.75 65.47 64.90 64.99 65.22 65.17 65.43 65.79 66.34
74.42 75.12 75.02 74.53 74.77 73.24 73.19 73.21 72.08 70.25 71.23 70.66 69.53 70.42 69.32 68.85 68.65 66.32 65.80 64.37 61.49 62.67 63.61 65.81 67.41 67.16 68.34 67.85 68.32 68.83 66.34 68.10 67.86 66.23 65.31 65.13 65.26 65.39 65.31 64.97 64.80 64.68 64.76
77.36 74.63 74.57 75.14 73.91 73.17 73.31 73.81 70.24 69.98 71.86 71.70 71.04 70.15 69.17 68.05 68.08 68.23 68.01 66.39 63.83 59.79 60.94 63.67 64.28 67.71 66.43 65.37 67.62 66.80 67.61 68.42 68.78 66.52 64.85 64.64 64.83 65.22 65.46 65.59 65.62 65.60 65.47
76.25 75.49 75.08 74.57 73.67 72.77 71.48 72.16 69.74 71.60 70.00 70.27 69.77 69.73 69.25 68.95 68.77 68.42 66.46 66.31 65.95 63.22 60.47 64.45 64.46 66.19 67.45 67.81 68.85 66.76 67.42 68.08 67.09 65.74 64.70 64.22 64.48 65.14 65.26 65.32 65.07 64.85 65.11
76.18 75.58 74.94 74.00 73.41 72.12 72.23 71.48 70.52 69.34 69.47 69.29 69.30 69.59 68.93 70.15 68.42 67.64 68.81 67.57 65.52 64.68 62.17 62.60 64.63 65.52 65.59 65.83 66.66 67.37 68.91 67.27 66.68 66.49 65.39 65.16 64.52 64.45 64.46 64.45 64.30 64.33 64.23
77.03 75.48 75.20 74.10 73.18 70.97 71.91 70.01 68.90 68.76 69.86 68.88 68.76 68.94 68.15 68.38 69.17 69.30 68.73 67.34 67.09 67.52 64.40 62.60 64.58 64.67 66.19 67.73 68.02 65.99 67.34 66.71 65.66 66.35 65.82 64.51 63.76 63.26 62.86 62.49 62.21 62.08 61.97
76.68 75.05 74.98 73.95 72.97 70.63 71.17 70.08 69.37 69.44 69.36 67.74 68.42 68.32 67.56 68.53 69.10 68.65 68.42 67.35 66.69 66.60 66.56 63.54 62.63 64.25 64.34 63.96 63.51 64.69 64.39 65.95 67.33 66.72 64.35 63.43 63.07 62.78 61.90 61.01 60.32 59.31 58.42
76.70 76.25 74.70 73.96 73.33 71.08 70.37 69.68 70.14 69.98 69.56 68.42 69.76 69.34 68.64 67.66 68.88 68.66 67.82 68.45 67.75 66.95 65.39 62.31 62.71 63.21 64.27 64.67 64.90 62.37 61.89 64.28 63.63 64.67 65.55 63.92 63.80 63.75 62.68 60.91 60.24 60.06 57.62
77.77 77.22 75.62 74.22 73.81 71.32 70.33 70.50 70.52 70.00 69.54 68.25 70.47 69.37 69.56 70.17 68.69 68.29 68.87 67.59 67.79 65.84 63.54 60.86 59.44 60.79 61.23 60.92 60.82 61.48 60.75 61.64 61.98 63.14 62.74 61.77 61.78 62.22 61.95 62.27 63.31 63.36 60.64
78.16 77.21 75.73 73.77 72.81 70.96 65.47 65.78 69.63 69.81 69.93 68.04 68.85 69.86 69.51 68.49 67.18 65.46 64.26 64.62 66.66 65.31 62.60 61.12 59.86 59.17 60.78 61.82 62.49 61.51 60.54 59.02 57.67 62.30 61.49 59.37 60.94 60.24 60.31 60.39 61.80 61.34 60.27
77.86 76.63 75.95 73.57 71.85 70.91 62.95 62.86 66.28 69.55 67.67 68.00 70.03 69.38 68.93 67.74 68.43 68.90 64.75 63.79 63.65 62.92 62.97 61.99 60.22 60.99 61.60 62.60 62.39 60.86 60.49 59.91 58.07 59.76 59.12 56.44 59.13 58.66 60.76 62.31 61.43 60.89 59.88
77.01 75.93 74.23 71.35 70.25 69.29 63.17 61.96 63.76 66.77 67.06 68.28 69.37 69.70 68.59 67.47 68.93 68.34 67.81 67.14 65.37 64.81 64.58 63.73 62.51 62.65 63.70 64.18 63.13 61.29 59.46 58.74 58.91 59.20 59.53 55.92 58.89 57.54 59.63 61.29 61.13 60.27 58.48
74.50 73.28 71.44 68.81 68.09 69.46 61.96 59.71 61.82 66.45 65.91 67.34 69.12 68.28 68.31 68.59 64.90 60.80 66.34 65.24 63.81 65.10 64.33 60.92 62.27 60.71 59.05 57.37 58.87 59.44 57.06 55.77 55.07 56.34 59.36 57.02 57.21 57.71 58.64 57.41 58.75 59.66 58.23
72.80 72.32 69.52 68.87 66.40 69.28 61.38 58.79 60.31 67.15 66.15 67.34 69.00 68.36 62.67 65.97 60.01 58.63 64.69 64.09 62.68 63.30 64.36 64.19 63.78 61.27 59.01 59.81 58.16 58.71 58.36 55.79 55.80 55.65 58.42 56.77 55.26 54.33 50.92 55.56 58.57 59.61 59.34

GFSMA_sfc_wetblb_015.txt.gz
Wetbulb
71.35 71.31 71.28 72.18 71.19 69.82 72.24 72.84 72.24 72.97 71.74 71.50 71.45 70.42 66.56 66.93 67.52 72.21 72.51 76.81 76.31 76.95 77.52 76.61 76.21 76.21 75.87 75.51 75.64 75.32 74.97 74.04 73.95 74.38 74.37 74.23 74.24 74.45 74.58 73.72 73.91 74.03 74.11
73.37 72.46 72.91 72.30 73.43 72.99 74.16 73.33 72.06 71.44 72.85 71.48 71.85 71.77 66.77 68.95 68.30 68.36 72.53 73.24 75.95 75.92 76.83 77.13 76.58 76.17 76.47 75.84 75.93 75.83 75.76 75.13 74.46 73.86 74.68 75.33 74.90 74.79 74.99 74.21 74.11 73.73 73.97
73.64 73.10 72.45 72.76 72.09 73.57 73.50 70.85 72.61 71.17 69.60 71.12 69.09 68.41 67.54 67.56 67.51 67.16 67.85 72.10 73.47 75.63 77.10 76.56 76.42 76.24 76.63 76.06 75.77 76.10 76.40 76.23 75.79 75.31 74.97 74.80 75.01 74.93 75.38 75.06 75.06 74.78 74.36
74.21 73.77 73.19 70.87 72.75 71.19 72.68 71.77 72.39 69.93 69.24 68.47 64.91 65.99 64.00 67.07 68.18 67.81 68.94 70.49 72.36 72.77 75.09 76.09 76.17 75.78 76.14 75.37 76.08 75.98 75.92 76.34 76.14 76.11 75.89 75.64 75.51 75.79 75.69 75.59 75.27 74.94 74.67
75.43 73.05 73.47 72.39 72.38 72.46 70.87 70.61 69.12 69.67 66.37 64.74 64.89 64.22 65.43 66.38 68.52 69.63 68.37 68.20 69.25 71.35 72.48 74.97 75.28 75.39 74.85 74.69 74.88 75.35 75.72 76.28 75.91 76.04 75.79 75.82 75.62 75.62 75.24 75.34 75.29 75.34 75.21
75.43 73.72 72.37 72.61 72.96 71.81 70.52 69.69 69.48 67.82 65.52 65.28 67.32 64.95 64.68 65.15 64.68 66.71 67.48 66.54 66.09 72.08 71.62 71.37 72.13 72.67 75.26 74.59 73.34 75.26 75.29 75.73 75.76 75.76 75.14 74.84 75.22 75.36 75.59 75.36 75.23 75.11 74.70
74.59 74.02 73.26 72.69 73.66 71.54 69.55 70.58 67.92 64.39 64.90 65.45 62.54 63.66 64.46 67.09 64.76 62.78 62.92 62.47 63.66 66.66 69.90 70.41 71.09 72.25 72.32 74.34 74.24 73.64 74.32 73.36 73.64 74.81 74.64 74.24 74.19 73.97 74.29 74.82 74.81 75.16 75.22
74.94 73.17 72.91 72.25 72.67 70.99 68.71 66.34 65.03 64.11 65.12 66.04 61.15 61.31 60.68 64.16 65.31 63.92 62.05 61.93 62.59 64.85 66.75 67.80 66.98 70.20 70.73 69.64 69.26 70.93 71.07 71.40 72.21 73.32 73.72 73.66 73.76 73.93 74.01 73.84 73.31 73.46 74.53
75.24 73.22 73.75 72.71 70.91 68.42 67.39 66.27 65.71 64.99 62.42 66.26 64.24 61.90 58.40 57.82 63.18 63.45 63.50 61.21 62.25 61.05 63.61 65.39 64.93 64.77 69.50 67.39 66.88 66.49 68.02 68.64 68.16 68.38 68.93 69.36 69.75 70.23 71.32 72.64 73.28 73.41 73.47
74.27 73.74 73.37 73.19 70.75 69.24 68.10 66.45 67.00 64.27 65.54 62.27 65.52 64.67 62.76 60.88 58.27 59.50 63.53 62.02 63.43 61.85 61.21 62.63 64.16 63.54 67.35 67.49 67.05 66.49 67.85 67.92 67.13 66.02 65.81 66.39 67.11 67.55 67.98 68.91 70.51 71.36 71.73
74.47 74.93 73.73 72.59 68.76 66.68 68.53 67.54 65.66 64.49 65.81 65.08 63.47 64.44 64.66 62.73 61.63 57.08 56.08 60.91 64.05 63.65 64.02 60.93 63.36 63.09 63.54 64.39 62.60 65.15 68.02 67.02 66.92 66.13 65.12 64.71 65.18 65.98 66.81 67.29 67.68 68.57 69.29
73.43 74.48 73.77 70.31 68.35 66.83 67.75 66.88 66.50 66.30 65.34 65.24 63.80 63.84 63.30 60.12 59.83 58.97 57.35 56.73 58.43 61.69 62.94 64.67 62.80 61.60 63.48 64.08 65.97 67.46 68.58 67.39 66.32 66.10 65.91 64.94 64.71 64.76 65.05 65.74 65.84 66.16 66.71
71.68 72.87 72.10 69.87 68.25 67.15 68.87 68.16 67.92 65.86 65.18 64.28 64.51 63.21 63.94 62.55 61.64 60.59 57.80 57.62 57.02 59.95 62.43 64.56 63.55 62.70 63.26 63.17 64.72 67.57 68.81 67.26 66.39 65.71 65.55 65.68 65.94 65.75 65.49 65.34 65.33 65.36 65.41
72.56 72.50 71.78 70.21 68.98 67.39 70.05 68.85 67.43 66.25 66.39 65.05 63.83 63.78 63.80 63.12 63.29 61.11 61.62 58.61 55.62 57.17 58.25 58.96 65.10 63.74 64.39 62.84 64.46 69.21 64.54 66.97 66.68 66.03 65.19 65.23 65.69 66.30 66.60 66.35 65.91 65.52 65.26
72.12 72.34 71.96 70.46 69.62 68.32 67.30 68.33 67.14 65.39 66.00 65.47 63.20 63.53 62.94 62.75 62.93 63.08 61.63 60.77 57.80 54.57 55.36 58.73 59.67 63.83 63.88 63.24 65.53 64.65 62.15 66.82 67.40 66.72 65.32 64.53 65.04 65.79 66.12 66.40 66.20 66.12 66.12
72.31 71.71 72.01 70.98 70.97 68.80 68.31 68.66 65.84 66.78 65.38 65.99 65.47 64.68 63.55 63.14 63.70 63.38 62.49 60.78 60.92 58.45 56.09 59.57 59.44 61.03 63.04 64.62 66.32 65.03 63.30 67.31 67.00 66.42 65.18 63.99 64.15 65.01 65.61 65.90 65.62 65.48 65.50
71.80 71.66 71.79 71.64 70.19 69.24 69.22 68.41 65.69 65.43 66.48 64.15 64.89 63.62 64.97 64.16 63.00 62.12 63.71 62.30 60.36 59.85 57.43 57.90 59.89 61.07 61.87 60.83 62.35 63.89 65.29 64.78 63.92 65.50 65.01 64.43 63.67 64.00 64.54 65.06 64.96 64.79 64.60
72.72 72.73 71.95 71.44 70.41 69.53 68.47 68.33 65.99 66.00 64.78 65.57 64.72 63.82 63.32 65.53 63.17 62.83 64.93 63.12 62.81 62.57 59.63 57.61 60.26 60.44 60.71 62.29 63.15 63.40 63.99 65.60 64.50 66.20 65.60 64.70 63.63 63.23 63.17 62.97 63.01 62.97 62.62
73.38 72.65 72.50 71.09 70.56 69.89 68.46 68.46 66.75 64.78 65.79 65.54 65.35 65.10 64.23 64.34 62.40 64.16 64.89 64.36 62.66 63.27 62.10 60.33 59.35 61.03 61.54 60.97 59.78 60.30 60.64 61.14 64.31 66.36 64.01 63.35 62.99 62.61 61.99 61.17 60.64 60.05 58.89
74.41 71.76 71.97 71.61 70.90 70.01 68.41 68.25 66.54 65.36 65.79 66.02 65.44 65.72 65.66 64.51 63.87 64.62 64.74 64.09 64.07 62.62 61.47 60.01 59.39 59.81 60.32 61.47 61.29 60.00 59.25 59.57 60.01 63.88 64.60 63.89 63.45 63.56 63.03 61.06 60.52 60.40 57.95
74.61 73.48 71.60 71.65 71.19 69.50 68.57 66.99 67.07 66.43 66.06 65.64 65.65 66.78 66.54 67.01 66.65 65.27 64.97 63.65 64.27 63.17 61.68 59.68 57.56 56.21 57.40 57.46 58.58 58.87 58.62 59.07 59.45 60.11 59.74 59.35 59.23 58.51 58.73 60.29 63.05 63.58 60.82
74.83 73.58 72.81 71.71 70.75 71.15 66.00 65.99 67.47 67.08 66.93 66.06 65.45 67.55 66.49 67.55 67.19 66.08 65.93 65.40 65.40 63.28 60.71 58.59 57.17 56.83 57.34 58.47 58.91 58.55 58.00 56.72 55.37 59.50 57.04 57.49 58.32 56.91 57.08 57.56 60.64 60.63 59.65
75.34 74.92 74.08 72.43 70.94 71.23 64.81 63.84 66.54 67.28 66.57 66.57 66.73 67.24 67.06 67.12 65.94 64.86 63.94 63.61 63.25 63.19 62.44 60.00 58.25 57.87 57.23 58.42 59.12 57.29 56.76 56.58 55.90 58.69 54.38 53.84 55.16 54.31 57.18 58.86 60.07 59.71 58.93
75.21 75.20 74.18 71.89 71.21 69.22 62.83 62.44 64.29 65.55 65.33 65.54 67.19 67.34 65.75 65.52 64.88 66.20 64.52 63.26 62.65 63.26 62.55 61.85 59.87 60.82 60.06 60.88 60.75 59.52 58.03 55.82 54.85 55.92 55.64 52.50 55.11 54.09 55.09 56.11 59.35 59.29 58.15
75.09 73.99 72.11 69.89 68.07 67.18 61.34 60.80 61.93 63.96 64.24 64.09 66.27 66.63 65.70 65.39 63.18 60.29 63.81 63.36 63.29 62.49 62.84 60.67 61.41 61.34 59.45 59.05 59.70 56.78 54.48 52.11 51.27 51.85 54.27 53.22 54.67 52.80 53.63 52.45 53.58 57.29 56.43
71.66 71.95 69.25 68.32 65.28 66.68 60.33 59.10 59.71 63.61 63.38 62.61 63.45 65.95 62.98 64.24 59.46 59.46 63.43 62.03 60.15 60.13 59.84 59.53 58.83 58.70 57.36 56.94 57.92 55.81 57.60 52.30 51.67 51.48 55.00 53.16 50.71 49.58 48.86 49.21 51.34 54.69 56.47

GFSMA_sfc_wetblb_018.txt.gz
Wetbulb
70.17 70.55 70.89 71.84 71.47 70.07 70.88 71.16 71.73 71.86 71.96 71.09 71.98 70.02 66.50 67.67 70.89 71.06 70.61 74.92 75.09 76.60 76.70 76.30 75.86 75.31 75.29 75.74 75.15 75.27 74.79 73.58 73.22 73.83 74.07 74.08 73.96 73.46 73.23 73.23 73.26 73.16 73.20
70.77 69.99 70.19 71.55 71.03 70.56 69.48 71.86 70.91 70.38 70.87 69.45 69.83 70.28 69.41 66.58 69.48 70.71 71.05 72.40 75.81 76.17 76.79 76.51 75.99 75.95 75.74 75.57 75.46 75.44 75.13 74.46 73.73 74.10 74.54 74.90 74.98 74.33 73.22 73.64 73.67 73.77 73.55
71.96 72.11 71.95 71.29 71.14 72.01 72.61 70.39 70.74 70.73 68.01 68.82 65.84 66.14 65.88 66.55 67.84 68.99 71.05 71.05 72.77 76.18 76.24 76.98 76.73 76.34 75.64 75.59 75.62 75.82 75.53 75.78 75.14 74.37 74.52 74.84 74.74 74.33 74.51 74.66 74.05 74.21 74.24
73.42 72.00 72.39 70.42 71.41 71.50 71.53 70.37 70.30 68.90 67.15 64.60 62.26 63.15 63.58 66.09 67.43 66.29 67.41 69.62 71.42 72.10 74.86 75.72 75.73 75.86 75.52 75.03 75.19 75.37 75.32 75.61 75.41 75.11 74.99 74.69 73.95 74.66 74.74 75.14 74.69 74.97 74.79
74.04 72.40 72.00 71.57 70.70 72.34 70.30 70.08 68.94 68.48 65.22 63.09 64.12 62.73 64.17 64.02 67.36 68.59 66.95 69.92 70.26 71.34 71.42 74.58 74.92 75.31 74.68 73.85 74.43 75.28 75.36 75.38 75.29 75.04 75.02 74.97 75.29 75.09 74.86 74.98 75.13 74.96 74.86
74.09 71.71 71.79 71.82 71.33 70.45 69.80 68.72 67.26 66.38 64.15 64.30 66.90 63.99 63.43 62.98 65.22 65.43 63.65 66.31 70.22 71.02 70.60 70.34 72.13 72.09 74.70 75.25 74.47 74.24 74.62 74.97 74.65 74.41 74.81 74.14 74.62 74.61 74.71 75.08 74.82 74.75 74.52
74.29 72.16 71.62 71.97 71.76 70.59 68.64 68.14 66.66 62.87 62.99 64.23 60.19 61.83 63.73 64.22 61.89 61.61 61.13 63.64 66.63 68.06 69.76 69.83 70.69 72.28 72.72 73.56 73.39 73.64 74.31 73.64 73.62 73.46 74.53 74.14 74.02 73.92 73.67 73.47 73.41 74.27 74.56
73.45 72.83 72.18 71.36 71.31 68.59 67.34 65.03 63.48 62.51 63.46 63.50 59.61 59.79 58.90 62.84 62.76 62.33 59.86 63.90 64.35 66.38 67.34 68.43 69.32 70.02 69.24 68.57 69.49 71.83 71.79 72.04 72.39 72.43 72.53 72.52 72.69 72.96 72.78 73.06 73.37 73.63 73.74
73.74 73.10 72.00 71.66 70.72 69.48 66.90 64.91 64.25 62.82 60.78 63.59 62.01 60.52 57.16 57.21 61.96 62.91 60.41 60.38 60.61 61.40 63.62 64.03 67.34 68.95 68.21 66.37 67.23 67.23 69.10 69.84 69.42 68.85 68.63 68.74 68.80 69.17 69.82 70.95 71.52 71.64 72.64
73.65 72.54 72.37 71.59 67.84 68.12 65.80 65.19 66.03 64.30 62.76 60.89 63.84 63.31 60.89 59.75 57.53 57.12 61.00 59.43 60.13 60.03 61.17 62.86 62.70 66.34 67.47 65.82 65.60 66.01 68.13 67.96 68.11 66.48 65.94 65.84 66.23 66.64 67.10 67.72 69.30 70.02 70.67
73.37 73.02 72.35 71.48 67.70 67.22 66.51 65.50 64.59 63.66 64.74 62.78 62.00 62.68 61.74 61.16 57.29 55.75 55.99 57.96 61.24 60.88 59.93 59.91 62.75 62.68 67.00 65.65 63.44 64.88 68.31 67.51 67.58 66.66 65.17 64.35 64.51 64.96 65.36 65.91 66.30 66.76 67.43
73.16 72.90 73.00 71.20 67.19 66.45 67.02 65.44 64.21 63.41 64.45 64.62 63.07 63.21 61.78 57.96 58.26 56.75 55.58 55.51 56.50 59.97 60.90 61.52 60.75 61.62 63.12 65.04 65.44 66.20 68.80 67.32 66.88 66.95 66.88 65.99 65.40 65.31 65.22 65.46 65.44 65.63 65.89
71.08 72.24 71.62 68.88 67.02 65.16 66.26 65.72 65.29 64.81 63.61 63.20 61.04 61.40 62.37 61.12 60.54 58.16 55.41 55.95 55.09 57.95 59.23 61.63 63.15 61.03 62.46 62.58 63.97 67.63 69.14 67.14 66.76 65.79 65.76 66.44 67.05 66.82 66.14 66.30 66.18 66.10 65.92
72.54 72.64 71.51 69.67 67.06 66.47 66.97 66.13 65.45 64.76 64.36 62.89 63.90 62.74 61.93 61.77 61.35 59.36 57.80 57.10 54.17 55.38 56.69 56.93 61.74 62.69 62.55 61.95 63.91 69.62 64.37 66.61 66.39 65.34 64.97 65.48 65.93 66.51 67.47 67.80 67.51 66.96 66.28
72.43 72.20 71.64 69.38 67.47 65.92 68.05 66.81 65.51 64.47 65.49 63.59 62.36 61.60 62.35 61.00 61.75 61.38 60.99 58.47 56.02 52.86 53.75 57.13 58.49 61.43 62.61 63.03 64.91 65.50 62.73 65.25 66.57 65.88 64.93 64.53 65.14 65.79 66.46 67.04 67.07 67.03 66.93
72.01 71.50 70.79 69.31 67.99 66.42 66.83 66.85 65.64 64.78 63.86 64.34 63.83 61.73 61.61 61.26 61.54 61.81 61.13 59.25 58.09 55.70 53.53 57.40 58.55 58.50 60.32 63.06 64.31 65.01 62.76 65.56 65.91 65.84 65.30 64.38 64.53 65.03 65.75 66.12 66.14 66.10 66.06
71.07 71.37 70.80 69.45 68.43 67.21 66.03 67.23 64.98 65.14 63.37 63.41 64.33 63.63 62.95 62.25 61.78 60.90 61.95 60.63 58.75 60.35 57.49 57.23 58.30 59.06 61.65 61.17 60.92 61.19 63.77 62.31 63.10 64.92 64.99 64.67 63.99 64.10 64.54 64.91 64.96 65.13 65.40
71.12 71.32 71.00 69.82 69.21 68.45 67.32 66.47 65.56 65.41 64.76 63.17 62.95 63.14 62.43 64.04 62.60 61.69 61.42 61.21 60.55 61.12 58.27 56.50 57.96 59.34 59.38 60.19 61.82 62.60 63.04 63.84 62.48 65.14 64.46 64.10 63.66 63.44 63.13 62.83 62.74 62.88 62.77
71.35 71.05 70.77 70.47 69.18 69.10 67.70 67.30 66.58 65.26 64.20 64.74 64.21 62.89 62.58 62.00 62.03 62.65 62.74 61.28 62.10 62.02 61.70 59.44 58.38 59.24 59.54 59.99 59.85 59.23 59.48 60.40 62.56 65.61 63.81 63.03 62.64 62.32 61.60 60.65 59.87 59.06 58.30
71.43 71.09 70.77 70.47 70.45 69.21 68.07 67.66 67.00 65.43 64.82 64.28 64.60 64.76 63.66 63.58 63.49 62.55 63.41 62.07 62.35 62.92 60.84 60.51 59.37 58.32 58.89 59.64 59.38 59.02 57.94 58.33 58.49 62.10 63.40 62.75 63.27 63.17 61.75 60.20 60.26 60.74 58.15
73.12 71.59 70.93 70.62 69.97 69.77 69.03 67.68 67.03 65.87 65.21 64.62 64.60 64.61 64.87 65.99 65.89 64.03 63.75 62.74 61.98 62.45 61.40 60.77 58.63 57.36 56.77 56.09 56.38 57.43 57.31 57.69 58.05 58.63 57.38 57.83 57.17 56.24 56.47 58.55 60.40 62.29 60.49
73.17 71.80 70.67 70.50 69.80 69.89 66.30 65.38 67.41 66.75 65.96 65.14 64.21 64.03 64.76 66.81 66.06 64.49 64.23 64.31 64.18 62.38 60.26 59.79 59.61 57.50 57.93 56.38 57.21 57.52 56.52 54.92 53.80 57.46 56.02 55.63 54.96 54.88 55.42 55.69 59.72 60.16 59.27
73.00 72.42 70.86 70.56 69.88 70.41 64.43 63.72 65.96 66.49 66.54 66.29 64.61 64.38 65.11 67.44 65.34 65.68 63.94 63.72 62.28 62.39 63.75 63.30 61.73 59.42 57.17 57.53 57.17 56.30 55.82 55.32 54.66 57.75 54.08 52.14 53.42 53.11 55.41 56.86 59.17 59.39 58.32
73.43 73.36 72.31 71.32 71.06 70.76 64.06 62.06 65.14 67.68 66.99 66.80 66.53 65.60 65.56 66.09 64.82 64.03 63.75 62.19 61.81 63.09 63.39 63.06 61.67 61.70 59.76 59.56 58.97 58.88 57.83 55.62 54.64 55.26 54.37 51.32 52.98 53.23 54.99 55.24 58.07 58.85 58.14
74.37 74.19 74.29 72.36 71.39 70.45 61.10 60.31 63.79 66.40 66.16 66.05 66.00 66.65 65.51 64.47 61.66 60.81 63.64 61.68 62.49 63.42 62.81 60.20 60.33 59.66 58.84 58.19 59.24 57.40 55.84 52.75 51.56 51.84 52.88 52.31 52.49 51.75 52.14 52.11 52.68 56.19 55.84
74.58 74.73 72.88 72.03 68.72 66.78 58.15 58.47 62.40 64.53 63.79 63.86 63.98 64.56 61.81 64.13 59.56 58.07 63.01 61.92 61.01 60.85 60.65 60.12 57.85 57.99 57.91 57.43 58.03 57.43 55.41 52.17 51.47 51.65 53.20 52.25 51.05 49.52 48.05 47.62 48.78 50.16 52.45

GFSMA_sfc_wetblb_021.txt.gz
Wetbulb
70.03 70.34 69.93 70.36 70.66 70.04 69.94 69.69 70.25 70.82 70.90 70.44 70.05 68.54 65.64 69.36 69.91 70.05 69.74 74.08 75.43 75.94 75.42 75.01 75.69 75.00 74.93 75.01 74.87 74.41 74.73 74.29 73.40 73.90 73.01 73.89 73.40 72.68 72.30 72.61 72.71 72.61 72.56
69.97 69.73 69.57 70.05 70.61 70.52 68.96 69.77 70.76 69.94 70.39 68.59 69.17 68.44 68.54 65.35 69.54 70.15 69.79 70.73 75.35 76.04 76.52 75.15 75.22 75.34 74.89 75.50 75.00 74.88 74.61 74.02 73.19 73.39 74.20 74.29 74.46 73.70 72.86 72.91 73.48 73.63 73.54
70.44 69.94 69.64 70.68 70.92 71.08 70.78 70.65 69.49 69.48 67.81 66.17 65.32 64.59 65.06 65.83 69.61 69.55 69.84 70.14 71.69 75.68 76.56 76.42 75.85 75.35 74.92 74.93 75.35 75.29 74.82 75.07 74.38 74.02 74.58 74.39 74.30 74.12 74.05 73.63 73.84 73.69 73.60
71.54 70.64 70.78 70.55 70.27 71.11 70.82 69.40 69.50 68.04 65.81 65.02 63.56 62.65 62.52 65.58 65.99 67.56 69.12 70.00 70.46 71.13 73.71 75.81 75.94 75.69 74.71 74.33 74.05 75.05 75.63 74.84 74.62 75.24 74.77 73.99 73.91 74.50 74.38 74.60 74.28 74.26 73.96
72.94 71.54 71.64 70.22 70.37 70.18 70.00 69.59 67.88 67.26 64.16 62.55 63.92 61.90 63.50 63.30 66.87 67.19 66.10 69.51 70.14 70.89 70.58 74.39 74.35 75.41 74.53 74.07 74.26 75.29 74.51 74.86 75.18 74.90 74.73 74.68 74.58 74.50 74.55 74.70 74.75 74.62 74.62
73.28 71.77 71.13 70.97 70.01 70.04 69.10 67.99 66.80 65.37 62.96 63.22 65.95 62.67 62.96 62.49 64.43 63.68 63.14 68.51 68.99 70.36 69.85 69.75 71.01 71.73 74.36 73.83 74.64 74.23 74.38 74.78 74.19 74.52 74.65 74.83 74.55 74.45 74.30 74.27 74.41 74.39 74.31
73.35 71.08 70.57 71.15 70.37 69.32 68.50 67.34 66.09 62.74 61.31 62.87 59.05 59.59 62.68 61.63 61.03 60.29 62.14 67.36 67.79 68.76 68.86 68.87 69.88 71.24 72.49 74.28 74.32 73.40 72.78 73.01 73.32 73.81 73.33 73.01 73.66 74.08 74.00 73.70 73.35 73.94 74.19
73.25 71.67 70.76 70.94 70.81 69.57 67.61 66.58 63.01 61.67 62.36 62.23 59.00 58.42 57.85 61.29 60.61 60.43 59.96 65.69 66.30 67.63 68.14 68.97 69.32 69.63 69.34 68.98 70.21 72.34 72.76 73.05 73.10 72.63 71.92 71.76 71.96 72.76 72.72 72.60 72.93 73.38 73.52
72.76 73.17 71.49 71.06 70.43 68.24 66.63 64.18 63.30 62.07 60.18 62.85 60.81 59.92 56.95 56.35 58.82 60.29 58.97 62.16 63.12 63.84 64.28 66.29 68.19 68.09 66.77 65.90 67.55 68.15 70.27 71.13 70.49 69.87 69.32 68.67 68.63 68.64 68.98 69.51 70.59 70.95 71.46
72.94 72.44 71.83 71.11 69.93 69.54 66.59 64.55 64.46 62.30 61.44 61.65 62.69 62.02 59.59 59.45 56.36 54.79 59.19 58.74 58.81 59.49 61.81 62.17 65.39 67.74 67.26 65.32 65.64 65.82 68.63 68.73 68.80 66.70 65.92 65.83 66.14 66.21 66.58 67.12 67.76 69.30 69.61
72.18 72.49 71.66 70.79 67.41 67.73 66.25 64.92 64.06 63.85 62.59 60.61 60.96 60.70 60.11 59.84 55.98 56.01 54.06 56.96 59.71 59.58 58.90 61.48 61.66 62.64 67.49 65.47 63.07 63.68 68.05 67.44 67.77 67.37 65.94 64.71 64.78 64.90 65.16 65.70 66.06 66.28 66.75
71.84 71.79 71.73 70.97 68.08 66.38 65.67 64.91 64.28 63.11 64.26 63.36 62.76 62.60 60.93 56.97 57.72 55.56 54.94 55.33 56.10 58.34 60.12 60.03 59.40 61.38 63.80 65.88 66.35 65.97 68.91 67.93 67.01 67.10 67.15 67.10 65.90 65.70 65.62 65.45 65.71 65.88 66.07
70.89 71.20 71.43 70.39 67.25 65.96 66.36 65.08 63.44 62.50 63.58 63.02 61.59 61.43 61.67 60.18 59.34 57.45 54.54 54.79 54.59 56.44 58.19 59.18 60.68 60.39 61.77 63.16 64.83 68.71 68.88 67.96 66.85 66.17 65.97 66.51 67.40 67.44 67.02 67.19 67.36 67.42 67.19
72.10 72.39 71.93 71.29 68.23 65.25 66.09 64.92 63.87 63.61 63.32 62.46 61.37 61.37 61.70 60.96 59.78 58.50 56.32 56.53 53.93 54.34 55.89 56.86 59.32 61.46 60.39 60.91 63.65 67.65 65.16 67.65 66.54 65.84 65.34 65.57 66.20 67.00 67.66 68.17 68.10 68.08 67.89
72.04 71.79 72.19 70.96 68.39 65.95 65.60 65.10 64.01 63.67 63.78 62.27 61.85 62.66 61.34 60.64 61.40 60.63 60.10 57.15 55.19 52.18 52.81 56.00 57.66 59.07 61.47 60.88 63.03 63.89 65.19 65.09 66.42 65.81 65.09 64.65 65.19 65.88 66.73 67.14 67.47 67.62 67.70
71.51 71.09 71.83 70.50 68.65 66.19 66.39 65.61 64.06 63.65 64.06 63.13 62.35 60.89 60.63 60.30 60.34 60.96 59.52 57.99 56.40 54.82 53.13 55.77 58.09 57.41 58.96 61.69 62.58 64.47 63.59 66.17 65.45 65.37 65.05 64.70 64.92 65.38 65.90 66.25 66.37 66.63 66.73
71.21 71.03 71.16 70.20 68.45 66.44 65.85 66.20 65.04 64.49 62.91 63.17 63.24 62.01 60.86 60.84 60.24 60.86 60.71 59.55 58.25 57.26 55.03 56.88 57.97 58.21 59.28 60.60 60.71 59.94 61.48 61.85 61.76 64.21 64.72 64.50 64.22 64.57 64.88 65.08 65.03 65.18 65.36
71.25 70.98 70.76 69.81 68.84 67.39 65.58 66.34 65.39 65.86 64.04 62.05 62.40 62.65 62.49 63.31 61.10 60.66 60.12 60.35 59.75 58.03 57.17 55.24 56.90 58.27 58.90 59.19 59.58 60.51 61.79 62.85 61.46 63.84 63.87 63.34 63.02 62.88 62.87 62.94 62.91 62.82 62.44
70.80 70.84 70.54 70.02 68.87 67.81 66.46 65.56 66.10 65.38 65.16 64.28 62.76 62.48 62.55 61.86 60.59 62.30 61.19 60.78 61.81 61.13 59.85 57.92 57.29 58.47 58.90 59.09 59.14 58.91 59.08 59.84 61.51 64.58 62.99 62.85 62.45 62.37 61.78 60.37 59.49 58.77 57.60
70.76 70.45 70.41 70.29 69.51 68.91 67.98 66.99 65.84 65.43 64.88 64.91 64.99 63.69 62.76 62.45 61.44 62.15 62.43 62.09 61.10 61.74 59.54 59.12 58.36 58.78 58.61 59.39 59.08 57.75 57.68 57.63 58.08 61.25 62.72 62.13 61.98 62.31 61.27 59.55 59.31 59.88 57.92
72.06 70.54 69.93 69.88 69.95 69.10 68.89 67.51 66.93 65.94 65.43 64.92 64.00 64.69 63.96 64.24 64.90 64.02 61.92 61.28 62.61 60.60 60.35 59.29 58.31 58.64 59.05 58.43 58.07 58.29 56.90 57.49 57.79 58.55 57.54 57.20 56.84 55.24 55.02 57.84 59.00 60.67 59.05
71.79 70.69 69.97 69.47 69.09 69.85 66.16 65.51 67.36 66.84 66.19 65.16 63.67 64.61 65.30 65.88 65.52 64.35 63.79 63.68 63.73 61.40 60.04 58.43 59.37 58.65 58.53 59.05 58.44 58.18 56.12 54.74 54.46 57.15 55.41 55.82 55.38 54.13 54.24 54.63 58.92 59.74 59.08
72.06 70.54 70.45 69.95 69.27 69.39 64.48 64.13 66.16 67.30 65.76 65.28 65.72 65.68 65.41 65.72 64.94 65.39 63.50 63.08 63.15 62.88 62.70 60.53 58.90 59.90 60.11 60.77 59.31 56.44 55.76 55.00 54.58 56.52 55.52 53.54 53.13 53.00 54.74 55.73 58.71 59.11 58.63
72.06 71.81 70.45 70.17 70.14 70.14 63.42 62.04 64.72 67.61 66.72 66.41 66.26 65.83 65.17 64.83 64.84 64.20 64.02 62.54 61.86 62.16 63.20 62.58 61.81 62.44 61.97 61.95 59.42 58.14 57.40 55.32 54.94 56.04 54.67 51.36 52.80 52.50 54.20 54.73 57.82 58.48 57.90
72.07 72.12 71.71 70.81 70.69 70.11 61.41 60.43 62.53 67.49 66.67 66.61 66.68 66.88 65.78 64.06 62.40 60.91 63.72 62.71 60.83 61.40 62.13 60.33 61.10 59.86 59.07 58.51 58.93 57.00 56.12 53.64 51.82 51.82 52.80 51.67 51.73 51.49 52.03 52.69 54.18 57.18 56.57
73.71 72.95 72.48 72.49 68.54 70.59 59.50 58.49 63.31 66.96 65.90 66.13 65.52 65.62 62.54 63.98 59.03 58.13 64.29 62.58 60.34 61.52 60.30 59.63 58.96 57.07 56.58 55.72 57.86 56.98 55.24 52.39 49.95 49.46 51.87 51.18 50.08 49.79 48.03 48.08 47.50 49.18 48.95

GFSMA_sfc_wetblb_024.txt.gz
Wetbulb
71.34 72.24 71.90 71.57 72.31 72.37 71.59 71.53 72.29 72.55 73.12 72.16 71.81 69.51 69.33 70.60 71.03 70.91 71.61 72.94 74.47 75.13 74.55 74.73 75.62 75.02 74.56 74.66 74.78 74.09 74.18 73.88 73.66 73.70 72.95 73.38 73.25 72.82 72.26 72.12 72.38 72.74 72.11
71.64 71.61 71.36 71.59 72.03 72.22 71.68 72.04 72.58 72.05 71.53 69.69 70.07 70.82 70.78 68.63 70.95 71.56 71.77 71.47 74.95 75.15 75.10 75.08 74.50 75.38 74.76 74.70 74.59 74.82 74.41 74.76 73.92 73.42 73.67 74.47 73.46 73.20 72.78 72.50 72.96 73.08 73.29
72.13 71.74 70.95 71.26 72.25 72.72 72.84 72.41 71.75 72.06 69.84 67.88 66.60 67.40 68.09 68.66 69.40 71.75 71.86 71.61 72.89 74.02 75.34 74.98 74.95 74.20 74.54 74.99 74.95 74.82 74.86 74.81 74.14 73.45 74.26 74.07 74.15 74.07 74.00 73.51 72.97 73.49 73.53
72.78 71.95 71.37 72.11 72.60 73.02 72.74 71.63 71.83 70.94 68.46 66.20 66.70 65.98 66.64 68.57 69.17 71.15 71.42 72.08 72.30 72.75 73.92 74.89 75.15 75.65 74.35 73.87 74.11 74.95 74.87 74.79 74.38 75.15 74.95 74.22 73.89 74.08 73.81 74.19 73.96 74.24 73.74
73.40 71.97 72.00 72.64 72.05 72.19 71.50 71.53 70.19 69.71 66.73 66.12 67.10 65.86 66.56 66.86 67.98 68.64 69.00 70.65 71.31 72.86 72.37 74.15 74.51 74.91 73.82 73.77 74.07 73.84 73.70 74.35 75.18 75.21 75.16 75.01 74.96 74.78 74.64 74.86 74.66 74.48 74.63
73.69 72.75 72.49 72.43 71.78 71.68 70.82 70.33 69.96 67.65 66.31 66.18 65.15 65.24 65.86 65.74 67.60 67.30 67.26 70.33 71.54 72.54 72.33 72.51 73.63 73.71 74.16 73.99 74.14 73.56 73.30 73.75 74.56 74.83 74.91 74.49 74.86 74.64 74.34 74.11 74.45 74.45 74.20
73.67 73.14 72.39 72.38 71.43 71.61 71.22 70.16 68.44 66.99 64.98 65.17 63.66 64.15 65.34 64.21 63.91 63.97 68.33 70.50 71.43 71.75 71.43 71.49 72.19 72.78 73.55 73.70 73.75 72.98 72.90 73.07 73.55 73.53 74.15 73.69 73.66 73.39 72.97 73.18 72.79 73.17 73.44
73.56 73.08 72.22 72.01 71.87 71.58 70.42 69.49 67.51 64.91 64.71 64.48 62.88 61.83 61.89 63.78 64.22 63.54 65.86 67.99 69.28 70.52 70.58 71.29 72.28 72.37 72.15 72.33 72.73 72.59 73.17 73.40 73.11 72.72 72.52 72.15 72.22 72.24 72.13 72.01 71.44 72.02 72.83
73.66 73.52 72.33 72.38 72.09 71.60 70.01 68.70 66.67 65.65 64.31 65.80 64.00 63.59 60.50 60.38 62.02 63.56 63.74 64.64 66.90 67.81 68.11 69.84 70.80 70.77 69.98 69.61 69.43 69.86 70.45 71.31 70.56 69.84 69.31 69.03 68.91 69.06 68.91 69.39 70.11 70.23 70.39
73.46 73.67 73.14 72.51 72.13 71.28 69.30 68.25 66.76 65.55 65.17 65.25 65.11 63.75 63.23 63.53 60.80 59.88 63.21 63.07 63.40 64.49 65.89 66.63 69.28 70.31 69.81 68.76 67.02 66.27 68.85 68.63 69.02 66.75 65.99 65.74 65.86 66.31 66.91 67.44 68.40 68.86 69.28
72.65 73.22 73.21 72.61 71.81 71.11 70.56 68.29 66.76 66.41 65.05 65.03 64.43 63.33 63.10 61.70 60.45 60.34 58.98 61.35 63.12 64.00 63.44 65.60 65.72 67.33 70.08 68.84 67.32 65.43 68.00 67.60 67.76 68.05 66.61 64.60 64.61 64.62 64.97 65.47 66.23 66.70 66.87
72.25 72.85 72.97 72.58 71.66 69.90 69.94 68.50 67.49 66.92 66.62 65.62 65.20 65.25 64.15 62.31 61.25 59.82 59.60 59.91 60.78 63.07 64.05 63.95 64.07 65.50 66.38 69.52 68.32 67.13 67.55 68.45 67.45 67.35 67.36 67.43 66.33 66.39 66.63 66.73 66.78 67.11 67.09
72.06 72.10 72.39 71.91 70.88 69.26 69.08 67.85 67.02 66.26 66.66 65.94 65.64 65.29 64.66 63.52 62.55 61.24 60.16 59.05 60.18 60.87 62.59 63.55 64.90 64.48 65.12 66.68 69.08 69.77 69.20 68.16 67.43 66.57 66.39 66.49 67.36 67.93 67.45 67.82 67.99 68.25 68.28
72.47 73.19 72.57 72.45 71.47 69.61 68.84 67.83 66.41 65.51 66.34 66.22 65.26 64.84 64.72 64.29 63.40 62.21 61.32 61.01 59.38 59.46 60.62 63.67 63.40 65.84 65.91 65.36 66.20 68.26 69.24 67.22 67.28 65.98 65.61 65.67 66.14 66.61 67.93 68.41 68.33 68.60 68.46
72.74 73.06 72.91 72.58 71.64 69.29 68.82 67.94 66.30 66.07 65.99 65.63 65.52 65.37 64.70 64.07 64.52 63.59 62.40 62.14 61.48 58.17 58.79 61.99 62.36 63.93 65.74 65.48 65.48 67.12 68.33 66.89 66.38 66.30 65.19 64.95 65.43 65.83 66.54 67.10 67.43 67.60 68.02
72.61 72.69 72.89 72.58 71.29 69.45 68.23 67.87 66.83 66.39 66.24 65.32 64.80 64.80 64.67 63.98 64.16 64.00 63.31 62.86 60.95 61.10 59.19 60.86 62.48 63.38 64.18 65.28 65.41 67.52 66.75 66.44 66.27 65.21 65.04 64.73 64.98 65.59 65.99 66.25 66.49 66.73 66.85
71.84 72.36 72.77 72.20 71.15 69.38 68.48 67.35 66.88 66.59 66.03 65.97 65.84 64.40 64.05 64.80 63.55 63.63 63.51 62.82 61.54 60.83 60.44 61.86 62.17 63.38 64.20 65.50 65.83 65.79 65.42 65.91 65.87 64.16 64.47 64.40 64.13 64.48 65.09 65.33 65.20 65.18 65.44
71.90 72.04 72.28 72.16 71.32 69.65 68.76 68.06 66.84 67.02 66.11 65.44 65.72 65.27 64.71 63.82 64.07 64.05 63.14 63.83 62.84 62.94 62.16 62.34 61.93 62.66 63.74 64.56 65.10 65.47 65.26 65.58 66.01 64.64 63.60 63.26 63.04 62.75 62.50 62.36 62.23 62.33 61.82
71.81 72.05 71.97 71.59 71.01 70.11 68.26 68.51 68.28 67.41 67.00 66.53 66.08 65.81 65.30 64.69 64.31 64.05 64.15 63.51 63.51 63.12 63.58 62.10 62.66 62.64 63.37 63.52 64.24 64.26 64.28 64.68 64.67 64.89 63.03 62.69 62.40 62.25 61.47 60.14 58.95 58.09 57.21
71.73 71.78 71.80 71.72 71.09 70.51 69.35 68.39 68.19 67.90 67.45 67.36 66.96 66.20 65.78 65.12 64.40 64.45 64.70 65.02 64.88 64.36 63.96 62.96 62.45 62.93 62.83 62.91 63.01 62.07 61.95 62.94 62.37 63.95 64.55 62.95 62.44 62.42 61.28 59.36 59.20 59.54 57.71
72.00 71.78 71.66 71.56 71.41 70.54 69.91 69.12 68.13 67.70 67.45 67.25 67.06 66.53 66.23 66.01 65.62 64.77 64.64 65.12 65.49 63.87 64.31 63.30 62.36 62.31 62.01 61.78 61.74 61.23 59.43 60.28 61.62 62.52 63.20 63.48 62.50 62.51 62.63 60.23 60.61 61.05 59.11
72.38 71.72 71.35 71.29 70.89 70.85 66.58 65.51 68.42 68.20 67.81 67.22 65.91 66.71 67.30 66.35 65.62 63.87 63.61 63.74 65.12 64.23 64.12 63.33 62.29 61.83 62.23 63.03 62.01 60.14 59.55 58.58 58.72 62.65 61.69 61.61 61.71 61.89 62.79 61.49 59.98 59.52 58.96
72.13 71.33 71.21 71.02 70.88 71.28 63.78 64.02 66.04 69.06 68.45 67.76 67.02 66.11 65.55 66.84 65.86 66.74 63.69 63.01 63.07 62.73 63.80 64.53 63.47 60.76 61.78 64.27 62.55 59.40 58.35 60.12 59.88 61.64 60.60 59.66 61.61 60.44 61.94 60.97 58.94 58.86 58.33
71.44 71.49 71.20 71.01 70.94 70.70 62.98 62.21 64.95 69.46 68.70 68.05 67.65 66.82 66.80 66.97 66.51 65.87 65.87 65.69 65.27 65.73 64.63 64.02 65.89 64.25 63.51 64.84 63.10 62.33 62.18 61.25 60.95 61.40 60.68 57.45 60.50 58.54 60.30 60.58 58.67 58.42 57.70
71.95 71.80 71.93 71.23 70.98 71.04 61.49 60.45 63.63 68.74 68.06 67.63 67.58 67.25 67.11 66.98 62.57 61.25 66.31 65.48 65.35 64.08 61.49 60.86 60.73 59.95 60.07 59.68 62.37 62.07 59.13 58.01 58.06 58.05 58.60 57.89 58.23 57.24 58.34 58.72 59.76 57.59 55.78
72.62 72.62 71.96 71.68 69.23 71.55 59.77 59.42 63.19 68.93 67.81 67.22 67.40 67.56 62.74 65.71 59.06 58.18 66.65 66.60 64.98 63.41 63.67 63.53 62.83 60.57 59.48 58.86 58.82 62.48 60.45 57.13 56.46 55.53 58.16 56.47 56.70 56.24 52.53 56.73 55.62 56.86 57.17

GFSMA_sfc_wetblb_027.txt.gz
Wetbulb
75.30 76.52 77.33 76.22 76.25 76.97 75.96 76.18 77.37 76.76 75.16 74.24 73.20 74.40 73.94 74.28 74.83 75.13 74.87 73.11 74.31 74.52 74.02 74.22 74.89 75.22 74.52 74.48 74.34 73.40 73.96 73.27 73.41 73.22 73.63 73.47 73.52 73.32 73.03 72.15 72.16 72.66 72.40
76.05 76.63 76.89 76.01 75.75 76.97 76.67 75.80 76.35 75.91 72.07 71.74 72.32 74.67 74.62 74.23 74.57 74.83 74.93 74.21 73.20 74.57 74.12 74.05 74.37 74.99 74.60 74.81 74.62 74.60 74.47 74.27 74.24 73.57 73.98 73.39 73.65 73.44 72.79 72.37 72.61 73.13 73.03
76.43 76.73 76.24 75.61 75.97 77.54 76.80 75.71 75.58 76.79 73.40 70.67 69.68 73.15 73.50 72.23 73.19 74.26 75.29 75.47 74.37 73.69 74.48 74.24 74.18 74.31 74.99 74.93 74.79 75.05 74.41 74.92 74.80 74.05 73.80 73.66 73.83 73.94 73.86 73.86 73.19 73.01 73.63
76.78 76.82 76.10 75.74 77.31 77.23 77.42 76.73 76.84 75.93 74.47 69.34 69.95 71.42 72.82 72.64 72.29 74.39 75.39 75.44 75.63 74.79 73.85 74.67 74.35 73.94 73.79 73.92 74.60 75.03 74.59 73.70 74.64 74.67 74.84 74.33 74.00 74.49 74.28 74.50 74.13 74.00 73.95
76.80 76.47 76.20 76.42 77.58 76.80 76.57 76.36 75.86 74.78 72.53 71.17 71.51 71.68 71.90 71.71 70.63 72.20 73.32 74.69 75.15 75.48 75.36 73.18 74.69 74.33 73.84 73.81 73.14 73.43 73.90 74.73 75.10 74.70 74.71 74.63 74.68 74.73 74.93 75.01 74.59 74.61 74.59
76.83 76.83 76.27 76.80 76.83 75.85 75.62 75.72 75.53 73.77 72.18 71.82 69.83 70.25 70.95 72.09 73.17 72.29 72.88 74.16 75.32 75.14 75.61 75.42 75.27 74.44 74.08 73.01 73.12 72.82 73.14 73.51 73.96 74.19 74.30 74.86 75.11 74.81 74.73 74.39 74.23 74.51 74.41
77.10 77.23 76.39 76.86 76.33 75.14 75.72 75.65 74.19 72.35 71.13 71.61 69.50 69.50 69.62 70.70 69.93 70.96 73.98 73.09 74.07 74.35 74.35 75.11 75.45 75.63 74.70 73.27 73.53 72.98 73.53 73.46 72.99 72.71 72.87 73.62 73.74 73.46 73.17 73.17 73.09 72.70 72.99
77.31 77.18 77.15 76.52 76.45 75.14 75.59 75.02 73.72 71.38 70.63 71.50 68.88 68.84 65.25 67.59 69.18 69.32 72.89 72.42 72.87 72.86 71.74 72.16 74.56 75.03 74.55 74.16 73.36 72.30 73.01 73.49 73.25 73.01 72.54 71.98 71.90 72.00 71.73 71.42 70.99 71.16 71.32
77.47 77.51 77.47 76.86 76.69 76.16 74.85 75.20 73.42 71.92 69.39 71.14 69.65 68.42 64.52 63.43 67.51 69.03 70.30 71.97 72.44 72.27 71.51 71.99 72.70 73.52 73.85 72.35 70.29 69.63 70.31 71.40 69.97 68.92 68.52 68.22 68.15 68.32 68.68 68.92 69.64 70.04 70.01
77.22 77.42 77.45 76.89 76.88 76.06 76.00 75.22 73.50 72.24 70.72 68.63 69.38 69.63 69.46 69.30 64.99 63.74 67.71 69.90 71.01 70.35 71.41 71.53 72.03 72.28 73.58 72.11 68.35 66.67 66.88 68.28 68.09 66.66 66.23 66.19 66.20 66.61 66.88 67.07 67.72 68.55 68.95
77.16 77.13 77.54 77.13 76.90 76.05 76.34 75.19 73.12 72.26 70.69 69.62 69.46 68.27 68.60 68.37 68.66 66.38 63.73 65.41 68.55 69.34 69.74 69.96 70.78 71.56 72.07 71.99 71.10 68.83 67.55 68.61 68.37 66.35 65.33 64.87 64.99 65.25 65.58 65.80 66.09 66.64 66.78
75.82 76.70 77.08 77.45 77.47 76.70 76.37 75.54 74.40 73.17 71.91 70.60 70.50 69.88 67.93 66.86 65.80 66.10 65.36 66.08 65.56 67.34 68.33 68.82 69.22 69.81 70.32 71.45 71.20 70.63 67.49 68.48 67.80 67.87 67.65 66.95 66.80 67.33 67.55 67.66 67.85 68.12 68.04
74.46 76.22 76.88 76.71 76.30 76.71 76.43 75.74 74.52 73.24 72.30 70.96 71.41 69.86 70.16 68.73 68.72 67.04 66.04 66.04 64.96 66.63 67.63 68.99 69.37 69.71 69.41 70.21 71.23 70.83 70.55 68.42 68.05 67.26 67.06 66.95 67.28 67.30 67.81 68.11 68.20 68.45 68.83
74.87 77.34 76.87 77.05 76.97 76.71 76.01 75.03 74.08 72.98 72.52 71.64 71.65 71.01 70.08 70.00 69.30 68.49 67.25 65.83 64.13 64.71 66.35 67.22 68.51 69.51 70.68 69.99 70.97 69.86 70.75 68.20 67.79 67.00 66.31 66.30 66.54 67.00 67.68 68.37 68.69 68.71 68.36
75.52 76.54 77.22 77.01 77.17 76.53 75.90 74.98 73.08 72.46 71.72 71.72 71.50 71.21 69.87 69.95 69.94 68.98 67.84 67.30 65.11 61.76 62.74 66.68 65.96 69.93 70.58 71.11 70.44 70.58 71.03 69.15 67.24 66.64 66.09 65.76 65.90 66.24 66.82 67.36 67.58 67.74 68.19
76.78 76.67 76.85 77.10 76.95 76.49 75.89 75.19 74.01 73.08 71.73 71.01 70.47 70.87 70.55 69.95 69.72 69.64 69.03 68.35 67.12 65.62 63.00 66.71 66.83 68.98 70.24 70.60 69.53 70.92 70.45 67.96 67.02 66.24 65.54 64.88 65.21 65.74 66.15 66.60 66.78 66.82 67.00
76.90 76.71 76.72 76.53 76.47 76.21 75.64 74.87 74.52 73.33 71.93 71.86 70.96 70.52 70.46 71.16 69.10 68.91 69.05 68.43 67.56 66.69 64.56 66.44 67.90 69.86 68.81 69.10 69.16 70.66 69.93 70.29 69.55 65.37 65.06 64.68 64.37 64.68 65.32 65.36 65.32 65.23 65.28
76.59 77.11 76.86 76.51 76.19 76.16 75.85 74.73 74.23 73.41 72.12 71.50 71.29 70.64 70.09 69.22 69.69 69.88 68.56 69.14 68.38 68.41 66.02 66.58 68.07 67.48 68.28 69.52 70.12 70.00 69.17 68.77 69.43 66.79 64.76 64.55 63.95 63.80 63.47 63.17 62.64 62.35 61.66
76.41 76.08 76.76 76.60 76.00 75.72 75.51 74.96 74.80 74.04 72.85 72.62 71.93 70.96 70.50 70.25 69.01 68.06 68.30 67.71 67.70 68.20 67.81 66.26 65.94 68.23 68.22 68.55 68.57 69.31 69.42 68.95 68.38 66.54 63.37 63.59 63.34 62.94 62.53 61.37 60.54 59.01 57.60
76.22 76.41 76.81 76.95 76.47 75.65 75.55 74.84 74.47 74.37 73.52 72.97 72.60 71.67 71.08 70.49 69.75 68.86 68.34 68.88 68.75 67.87 67.89 66.39 66.33 66.28 66.97 68.63 67.87 66.41 66.09 67.07 66.11 65.77 66.32 64.24 64.15 63.91 62.59 60.34 59.71 59.82 57.99
76.10 76.44 76.59 76.70 76.52 75.55 74.80 74.80 74.60 74.03 73.64 73.09 72.95 72.17 71.63 70.86 68.17 68.07 68.60 69.63 69.95 67.91 67.04 66.56 66.00 66.11 65.68 65.01 63.15 66.02 64.96 64.99 65.73 65.55 65.24 66.57 66.74 66.08 65.81 61.93 62.12 61.91 59.89
75.87 76.45 76.22 76.36 76.19 75.01 68.81 67.47 72.78 73.87 73.66 73.81 73.00 72.64 72.33 69.08 67.57 64.53 64.63 65.96 69.45 69.08 68.40 66.67 66.35 65.81 66.97 64.06 65.67 65.37 64.72 63.64 61.75 64.98 63.89 64.39 66.46 65.50 66.01 66.25 63.41 60.98 59.36
75.87 75.74 75.82 76.06 75.87 76.18 64.87 64.77 67.09 74.67 73.62 73.91 73.66 73.39 71.93 71.01 67.98 69.03 64.41 63.40 63.91 64.17 65.83 69.61 67.77 67.91 66.69 65.88 66.66 65.95 65.50 64.37 63.54 66.77 65.50 63.17 65.72 64.19 64.77 64.46 60.92 59.74 58.60
75.44 75.50 75.52 75.77 75.75 75.66 63.48 62.68 65.78 74.20 74.48 74.43 74.25 73.59 72.75 72.07 70.50 69.55 70.65 68.59 68.21 67.74 67.67 67.95 69.54 69.76 67.92 68.62 67.57 67.84 67.23 66.60 66.16 66.13 66.48 60.86 62.71 61.80 63.00 62.56 60.14 59.40 58.17
75.44 75.49 75.97 75.84 75.38 75.83 61.71 61.33 65.14 72.92 74.02 74.19 74.30 73.76 72.80 72.15 66.34 62.48 69.91 69.17 68.09 68.59 63.97 61.72 62.77 61.61 60.80 61.40 64.38 66.97 64.81 62.93 61.51 62.04 63.91 60.72 60.81 60.06 60.35 60.20 60.59 58.82 56.19
75.22 75.44 75.65 76.03 72.30 75.70 61.03 59.75 64.37 73.58 73.41 72.82 73.87 73.22 63.79 69.29 60.06 59.03 69.39 69.82 68.80 69.27 69.16 67.75 66.70 62.51 62.59 63.36 60.13 67.30 65.12 60.96 59.39 58.50 62.44 58.40 58.36 58.03 54.75 57.42 58.45 57.75 57.34

GFSMA_sfc_wetblb_030.txt.gz
Wetbulb
78.21 78.39 78.00 78.19 77.84 78.47 76.81 76.94 75.81 75.44 76.56 74.29 75.39 73.72 72.60 72.76 73.57 74.11 74.12 74.03 74.02 73.93 73.90 74.58 75.26 74.70 74.87 74.63 74.41 74.09 73.61 72.19 73.02 73.30 73.42 73.35 73.16 73.26 72.99 72.12 71.87 72.22 72.44
78.65 78.62 77.70 77.86 78.26 78.74 78.46 77.33 76.42 75.90 76.03 74.17 73.97 74.16 71.92 72.56 72.92 73.77 73.56 74.48 74.30 74.54 73.95 74.39 74.71 75.20 75.03 74.70 74.44 74.36 73.86 74.12 73.90 73.77 73.50 73.27 73.71 73.55 73.04 72.57 72.38 72.74 72.96
78.27 78.76 78.77 76.68 78.31 78.53 77.46 77.65 77.02 77.12 73.43 73.63 73.13 72.13 72.67 72.79 72.71 72.57 74.76 74.35 73.89 74.19 74.36 73.87 74.58 74.78 75.16 74.86 75.12 75.13 74.91 74.76 74.51 74.76 73.77 74.32 73.56 74.09 73.85 73.80 73.51 72.96 73.15
78.26 78.59 78.05 76.97 78.58 78.53 77.96 76.85 75.70 74.80 73.67 73.20 72.25 73.36 72.87 72.51 73.32 73.08 73.59 75.19 74.90 73.51 74.12 73.73 73.59 74.24 74.05 74.51 74.88 74.78 74.94 74.95 74.64 74.56 74.39 74.16 73.72 74.40 74.51 73.97 73.89 74.18 73.90
77.84 78.42 77.91 77.70 79.31 78.58 77.09 77.22 75.84 75.95 73.06 72.60 71.83 72.84 72.33 71.89 72.43 71.35 72.35 74.29 74.27 74.16 74.00 73.75 73.65 73.40 73.32 73.65 73.65 73.65 74.22 74.77 75.03 74.69 74.55 74.53 74.86 74.71 74.24 74.61 74.46 74.29 74.09
77.78 78.47 77.73 78.09 77.15 77.98 76.84 76.66 75.36 75.83 74.43 73.02 70.24 69.88 72.38 72.05 72.56 72.20 71.61 72.15 73.98 74.12 74.22 75.28 74.75 73.51 73.76 73.06 73.10 72.80 72.88 73.32 73.70 73.67 73.71 74.02 74.56 74.57 74.79 73.97 74.04 74.22 74.39
78.82 79.42 77.86 77.74 77.96 76.97 76.97 76.19 75.46 74.46 72.81 74.17 68.82 69.52 70.44 71.13 71.37 72.24 72.51 71.10 71.84 72.70 72.47 73.41 73.98 74.65 73.63 74.02 73.54 72.90 73.36 73.36 73.17 72.91 73.38 73.13 73.06 73.07 72.85 73.17 72.90 73.12 72.15
79.37 79.05 79.33 78.53 78.24 77.26 77.30 76.82 76.13 74.36 73.51 71.17 69.34 69.20 65.56 67.58 69.42 71.56 71.65 70.97 70.85 70.87 70.52 72.19 74.34 74.61 74.48 74.49 73.23 72.22 73.38 73.60 73.50 73.14 72.24 71.54 71.59 71.61 71.39 71.22 70.70 70.90 70.61
79.12 79.70 79.28 77.62 78.76 77.91 76.29 77.04 76.33 74.58 71.48 70.71 72.07 69.44 65.52 65.20 66.79 69.38 71.37 71.01 71.37 70.47 70.45 71.66 71.96 73.28 73.99 71.05 70.52 70.11 70.50 71.30 68.78 68.22 67.86 67.66 68.04 68.31 68.53 68.75 68.68 68.66 68.74
78.90 79.06 79.25 78.81 79.33 77.71 78.01 78.43 76.73 75.68 74.35 69.25 70.55 70.79 72.14 71.61 65.95 65.10 68.92 70.18 70.83 70.41 71.22 71.07 71.06 71.70 72.11 71.17 68.95 68.61 68.47 68.74 67.71 67.23 67.04 67.23 66.97 67.00 67.00 66.91 67.10 67.22 67.37
78.99 78.58 79.23 79.37 79.09 78.22 78.14 78.33 76.85 76.17 74.42 70.53 69.53 69.62 70.44 69.30 70.35 66.85 65.53 67.03 69.97 70.17 70.73 70.85 71.42 71.33 71.95 71.84 71.34 69.11 68.12 67.53 66.48 66.22 65.69 65.81 66.40 66.67 66.85 66.72 66.42 66.63 66.64
77.51 78.60 78.83 79.36 79.47 79.00 78.43 78.31 77.93 76.75 75.76 73.39 70.87 71.40 68.87 67.48 67.33 67.35 66.17 67.71 67.49 69.40 70.16 70.30 70.63 70.90 71.34 71.65 73.07 69.69 69.43 68.90 68.28 67.47 66.51 66.24 66.33 67.00 67.37 67.36 67.74 67.93 68.09
75.31 78.65 78.85 78.75 78.38 79.48 79.03 78.82 78.26 76.91 76.33 74.28 73.14 70.64 70.88 70.22 70.24 68.41 67.01 67.61 66.20 68.65 68.85 69.85 70.44 70.70 70.72 71.29 71.96 71.33 70.44 68.58 68.41 67.99 67.82 67.42 67.09 67.18 67.55 68.11 68.46 68.61 68.66
76.54 78.02 78.10 78.59 78.79 78.88 78.91 78.78 77.90 76.90 76.44 75.11 74.05 73.30 70.50 71.07 71.14 69.96 68.27 67.49 65.41 66.01 67.40 68.91 70.01 70.19 70.54 71.19 72.09 72.27 71.13 69.29 68.71 68.14 67.80 67.52 67.28 67.48 68.09 68.55 68.77 68.93 68.92
77.01 77.62 77.86 78.18 78.52 78.75 78.86 78.81 77.17 76.89 75.83 75.26 73.82 73.81 71.85 70.59 71.49 70.79 70.09 69.02 66.64 63.65 64.52 68.44 66.82 71.00 71.23 71.31 72.34 72.16 72.09 70.38 69.09 67.86 66.99 66.38 66.77 66.96 67.22 67.56 67.90 68.05 68.26
79.25 78.15 77.78 77.96 78.17 78.62 78.88 78.91 77.50 77.40 76.22 74.67 73.41 73.12 73.28 70.88 71.37 70.94 70.27 69.56 68.76 66.62 64.35 69.37 68.16 70.65 71.36 71.01 70.52 71.92 71.77 69.81 68.43 67.27 66.61 65.86 65.93 66.20 66.28 66.65 66.97 66.93 66.98
80.18 78.93 79.28 78.02 77.76 78.32 78.83 78.60 78.62 77.55 76.39 75.45 74.80 73.31 73.15 74.06 70.26 69.93 70.51 69.84 69.18 68.54 65.69 67.61 69.54 71.31 71.92 71.36 70.72 71.00 71.48 70.88 70.13 67.12 66.54 65.79 65.22 65.37 65.76 65.86 65.77 65.44 65.31
79.89 80.23 79.70 79.01 78.48 77.92 78.70 78.03 77.59 76.94 76.35 75.45 75.19 74.42 72.83 72.16 72.66 72.11 70.03 73.04 71.07 71.10 67.28 68.57 70.40 69.34 70.78 71.97 71.74 71.87 70.36 69.93 69.91 67.17 66.41 65.58 64.97 64.95 64.60 64.42 63.96 63.47 62.82
79.95 78.42 79.37 79.78 78.89 78.40 78.46 78.05 77.80 77.61 76.90 76.54 75.91 75.14 73.92 72.42 71.89 71.16 70.90 70.15 69.55 69.49 69.80 67.31 67.20 69.50 69.59 70.52 70.54 71.47 71.12 71.43 70.06 68.16 64.50 64.60 64.13 63.99 63.50 62.66 61.79 60.57 58.51
79.82 79.72 79.57 80.24 79.54 78.75 78.10 77.69 77.33 77.41 77.62 76.80 76.79 76.14 75.12 73.81 72.58 72.05 70.92 70.91 70.56 69.19 69.81 67.95 67.34 67.24 68.70 70.67 69.30 67.26 68.00 69.77 68.63 69.18 68.28 65.33 65.60 65.01 63.91 62.25 61.13 60.62 58.20
79.67 79.92 79.73 80.03 80.09 78.35 77.22 78.67 78.52 77.45 77.68 77.05 76.90 76.66 76.01 74.36 70.02 70.85 71.53 71.67 73.23 69.89 67.51 67.45 67.35 67.27 67.30 67.38 67.68 67.85 66.74 66.78 69.21 69.29 68.36 68.12 67.70 67.40 67.63 62.69 64.33 63.90 60.72
79.47 79.69 79.20 79.56 79.40 77.85 70.64 68.28 75.34 77.49 78.42 78.09 77.03 76.52 76.45 71.88 70.34 66.09 65.88 66.53 70.56 71.81 71.12 67.47 67.28 67.63 70.26 69.10 68.86 67.35 66.41 65.59 63.85 69.30 67.83 66.93 68.13 67.26 67.56 67.61 64.05 61.65 60.57
79.44 79.18 79.19 79.37 79.19 79.49 66.71 65.67 68.62 77.37 78.27 78.00 78.01 77.30 76.09 75.74 72.01 73.65 66.11 64.49 64.96 65.28 67.08 72.10 69.97 70.39 70.25 71.76 71.62 68.84 68.57 67.24 66.11 67.91 68.39 65.67 67.10 65.75 66.83 66.10 61.79 60.72 59.73
78.73 78.79 78.93 79.36 79.27 79.35 65.86 63.34 66.95 76.79 78.49 78.39 78.28 77.86 78.23 77.71 75.53 73.87 73.61 70.17 70.02 70.45 70.15 69.85 70.91 71.12 73.15 71.95 71.47 69.98 69.88 68.94 68.61 68.07 69.74 63.47 65.45 63.01 64.67 64.71 62.03 60.06 58.95
78.23 78.40 78.25 79.13 79.31 79.22 63.80 61.48 66.64 76.04 76.46 78.45 78.32 78.16 77.97 77.51 69.94 64.11 73.43 72.79 71.92 71.58 65.30 62.27 63.27 63.12 64.09 62.51 66.18 68.94 66.57 66.64 65.13 64.49 67.10 64.03 62.40 61.73 62.62 62.21 62.82 60.11 56.45
77.70 77.23 77.57 78.89 74.74 79.19 64.02 59.71 66.10 75.30 75.61 75.59 78.18 78.70 66.52 74.40 62.64 60.41 71.96 72.52 71.41 71.92 71.61 68.57 67.18 65.61 63.96 65.45 61.73 68.49 67.67 64.84 63.76 61.20 65.26 62.06 60.09 60.09 57.95 60.74 60.19 59.92 59.62

GFSMA_sfc_wetblb_033.txt.gz
Wetbulb
77.37 75.87 76.68 75.87 76.36 76.16 76.20 76.62 75.88 75.95 75.46 74.37 74.66 74.55 72.05 71.07 71.93 72.44 72.92 74.24 74.22 74.14 74.82 75.19 75.18 74.89 74.96 74.74 74.40 74.20 72.95 72.41 73.36 73.63 73.45 73.39 73.09 72.90 72.65 72.01 71.77 72.14 72.80
77.54 76.33 76.50 75.74 76.47 76.19 74.72 76.16 76.11 74.46 74.16 74.41 73.36 73.77 72.10 72.37 72.46 73.65 73.00 74.03 75.28 74.81 74.44 74.58 75.53 75.55 74.97 74.92 74.99 74.28 74.03 73.98 73.40 73.20 73.34 73.38 73.49 73.30 72.75 72.43 71.87 72.35 72.92
78.36 78.94 76.52 75.63 76.60 77.56 77.34 76.77 76.49 75.53 73.62 72.62 72.71 71.13 71.57 72.22 71.59 72.24 73.40 72.81 74.03 75.50 74.80 74.52 74.87 75.48 75.62 75.04 75.05 74.90 74.63 74.55 74.24 74.36 74.16 73.70 73.53 73.73 73.65 73.46 73.79 73.10 72.86
78.85 79.19 76.84 76.42 76.60 77.63 76.35 76.02 74.96 73.88 73.31 71.74 71.28 71.23 72.21 71.73 72.57 71.64 72.99 73.43 73.59 72.68 75.11 75.13 74.55 74.70 74.59 74.28 74.89 74.67 75.05 74.99 74.83 74.70 74.52 74.27 73.73 73.87 74.54 74.20 73.54 73.72 73.92
78.10 78.65 74.16 74.54 79.20 76.71 75.95 75.14 73.72 74.70 71.19 71.00 70.97 71.09 71.45 70.73 73.20 71.11 71.85 72.27 73.74 72.62 72.53 75.26 75.22 74.51 74.17 74.08 73.89 73.75 74.43 74.51 74.80 74.79 74.38 74.56 74.32 74.55 74.66 74.66 74.31 74.49 74.19
78.09 78.69 77.60 78.03 77.55 76.87 75.26 74.00 75.69 73.61 73.14 71.11 69.87 69.22 70.95 71.78 71.83 71.74 71.10 73.26 72.12 72.40 73.07 74.78 73.56 73.33 74.93 74.31 73.53 72.89 72.70 72.90 73.27 73.56 73.40 73.66 73.64 74.43 74.59 74.67 74.54 74.52 74.39
78.52 79.17 77.95 78.85 77.49 77.45 76.64 76.14 75.32 74.28 73.11 71.68 69.12 68.92 69.96 70.77 70.95 70.59 71.21 71.30 71.69 70.82 71.96 72.66 73.79 72.97 72.70 74.83 73.71 73.06 73.28 73.15 73.20 73.30 73.54 73.36 72.98 72.81 72.65 72.97 72.85 73.12 73.37
78.84 79.07 79.74 77.53 78.49 74.97 77.09 76.76 75.77 73.17 71.45 70.50 69.95 68.13 65.56 67.33 69.11 70.22 70.12 70.00 70.78 70.16 70.24 71.51 72.42 74.66 73.11 72.18 72.96 73.12 73.87 73.98 73.91 73.02 71.82 71.45 71.59 71.60 71.22 70.68 70.68 71.17 70.65
78.82 80.51 79.19 78.34 78.94 78.39 78.13 77.20 76.05 75.27 70.87 69.74 73.45 70.06 66.70 63.95 66.36 68.96 70.10 70.44 71.13 69.55 70.13 71.30 71.84 72.44 73.17 70.25 70.69 70.57 71.52 71.43 70.08 68.62 68.11 68.22 68.65 68.48 68.37 68.29 68.25 68.30 68.54
78.77 79.05 79.04 78.30 79.34 77.80 77.85 77.37 76.62 76.36 75.07 70.05 69.76 71.09 73.21 71.97 66.14 65.05 69.38 70.06 70.65 70.18 70.71 70.71 71.05 71.41 72.04 70.91 70.17 70.55 70.26 70.59 70.38 69.28 68.43 67.99 67.84 67.40 67.05 66.74 66.64 66.53 66.45
79.39 78.19 80.00 79.50 79.51 78.27 80.23 78.00 78.06 77.19 74.71 72.60 69.81 69.22 70.77 69.10 70.72 68.06 64.65 68.17 69.52 70.13 71.13 70.87 71.41 71.20 71.98 71.66 69.97 68.85 70.31 70.02 69.80 69.43 68.07 67.61 67.45 67.41 67.41 67.21 67.01 67.19 67.22
77.94 80.21 79.25 80.72 80.76 79.97 78.84 78.42 79.01 77.76 76.79 75.24 72.06 71.39 69.46 68.33 68.14 67.68 66.71 68.90 68.38 69.90 70.10 70.86 70.86 70.81 71.53 71.74 71.43 70.10 70.13 69.53 69.61 69.27 67.93 67.34 67.33 67.64 67.73 67.65 67.98 68.48 68.84
74.90 78.56 80.38 80.33 78.53 80.78 79.60 80.39 80.05 78.53 77.07 75.70 75.59 71.37 71.03 70.53 70.64 69.09 67.67 67.57 66.93 68.53 69.26 69.87 70.46 70.94 70.74 71.46 71.64 70.77 70.52 69.17 68.71 68.56 68.89 68.91 68.12 67.87 67.87 68.17 68.76 69.14 69.41
75.62 80.06 80.43 80.11 79.85 80.19 79.57 80.87 78.46 77.71 78.29 76.02 75.65 75.15 71.92 71.56 71.30 70.55 68.89 67.54 66.02 66.54 68.02 69.54 70.47 70.42 71.10 71.21 71.89 72.45 70.78 68.78 68.33 68.24 68.05 67.77 67.92 68.26 68.87 69.09 69.03 68.67 68.76
76.43 79.86 80.36 79.95 80.07 79.93 80.59 80.84 77.44 78.84 78.62 76.91 76.48 75.95 73.03 71.06 71.66 71.30 70.43 69.57 67.49 64.58 65.75 69.51 67.76 73.55 70.89 71.45 72.27 71.86 72.02 69.30 69.37 68.54 67.64 67.36 67.54 67.72 68.06 68.42 68.28 68.42 68.65
80.57 80.88 79.50 79.52 79.63 80.16 80.32 80.89 78.85 79.72 78.87 76.08 74.14 76.45 75.73 71.54 72.25 71.51 70.65 70.10 69.20 67.08 64.85 68.82 69.30 71.11 72.26 70.63 71.49 71.72 71.45 70.69 69.84 68.58 67.66 66.79 66.63 66.82 67.10 67.04 67.15 67.43 67.49
81.60 80.09 80.74 79.91 79.74 79.66 80.27 80.39 79.65 79.61 78.59 78.14 77.20 76.96 75.85 76.80 70.88 70.53 70.75 70.39 69.50 69.12 66.06 67.62 69.73 73.53 73.33 72.34 71.78 72.44 71.91 72.75 70.24 67.03 67.23 66.92 66.35 66.20 66.24 66.38 66.43 66.19 65.76
81.01 81.28 80.94 80.56 79.97 79.62 79.96 80.01 79.09 77.51 78.81 77.27 76.54 76.85 75.26 72.89 75.48 75.54 71.17 75.17 71.84 73.28 68.39 72.70 72.15 70.67 72.41 74.48 74.17 74.60 71.25 70.06 71.00 67.42 67.91 66.97 66.19 65.66 65.22 65.19 65.07 64.31 63.74
81.20 80.93 80.72 80.85 80.16 79.69 79.78 80.35 79.98 79.35 79.24 78.66 78.15 77.64 76.41 75.63 75.29 72.12 72.46 71.18 70.27 71.00 71.09 68.37 67.95 69.89 70.68 71.30 72.17 73.67 73.67 73.23 71.06 67.57 66.14 65.39 64.66 64.42 64.01 63.39 62.25 61.31 60.05
80.79 80.63 80.69 80.64 80.69 80.32 80.01 79.97 79.69 79.47 79.24 79.02 78.79 78.61 77.93 76.63 75.13 75.19 73.96 73.58 73.11 71.20 70.65 68.68 68.06 67.71 68.94 72.61 70.60 68.56 68.40 70.22 69.64 69.59 68.89 66.99 67.99 65.33 63.88 62.45 62.26 61.88 58.99
80.82 81.00 80.53 80.56 80.95 80.52 79.16 79.57 79.30 79.10 79.15 79.11 79.14 79.05 78.76 76.88 72.24 73.20 73.07 73.42 73.42 70.95 67.69 67.86 67.72 68.03 67.51 68.52 69.25 69.33 68.64 68.16 70.35 68.89 69.41 69.14 70.25 68.82 67.69 63.71 65.69 63.96 61.58
80.80 80.75 80.46 80.27 79.95 79.77 71.72 69.01 76.41 79.04 79.27 79.12 78.51 79.07 79.02 73.61 72.05 67.76 67.36 68.10 72.63 73.82 72.41 69.79 69.02 68.90 73.04 71.73 70.06 68.61 68.44 66.22 64.91 70.28 69.17 67.95 70.95 69.20 68.26 68.03 64.81 65.04 62.73
80.70 80.39 80.22 80.48 80.10 80.43 67.97 66.23 68.83 79.10 79.17 78.84 79.24 79.06 78.46 76.82 74.33 75.30 67.05 66.10 65.90 65.85 68.72 74.28 72.13 72.09 73.55 74.27 74.44 70.90 71.14 69.60 67.33 69.25 69.54 66.24 68.29 66.94 67.33 64.97 63.16 62.78 60.44
80.25 80.25 80.14 80.48 80.28 80.32 67.89 63.75 66.70 77.48 78.60 78.79 79.01 79.20 78.93 77.92 77.69 76.46 75.71 72.67 72.41 72.24 71.67 70.99 73.26 74.05 74.50 75.07 72.64 72.80 72.14 71.36 70.44 69.02 71.34 64.17 67.15 65.29 65.24 65.33 63.56 61.07 59.38
80.11 79.85 80.29 80.42 80.16 80.14 66.01 63.11 65.62 76.46 77.16 77.69 78.48 79.38 79.33 79.21 71.97 66.41 76.12 74.94 73.35 72.53 66.60 64.71 64.60 64.78 65.94 64.85 68.37 70.91 68.01 67.56 65.84 66.03 69.42 65.71 65.13 62.60 63.13 63.16 64.41 60.58 60.04
79.68 79.40 79.64 80.24 76.19 79.99 68.18 62.14 65.03 76.65 76.28 76.53 77.85 78.90 68.38 76.29 66.57 62.42 75.26 75.23 73.02 72.54 72.41 69.78 67.29 65.35 66.17 65.38 63.15 71.04 69.20 65.58 65.20 63.11 68.76 64.30 63.18 61.38 58.48 62.03 62.23 61.93 61.73

GFSMA_sfc_wetblb_036.txt.gz
Wetbulb
74.64 74.57 75.45 73.13 76.06 74.85 73.85 74.47 75.57 74.05 76.07 73.84 73.54 73.39 71.23 69.96 72.13 71.02 72.33 75.81 75.56 76.36 75.93 75.59 74.96 74.84 74.59 74.66 73.80 73.64 72.07 73.02 73.57 73.25 73.36 73.20 73.03 73.13 72.62 72.00 71.52 71.71 72.51
76.23 76.76 77.79 75.28 75.59 74.94 73.84 75.85 77.74 75.97 71.89 73.99 73.77 73.95 70.90 72.59 71.30 71.27 72.22 73.94 75.80 75.90 76.28 76.07 75.52 75.15 74.77 74.81 74.73 73.86 74.19 72.53 72.61 73.14 73.14 73.31 73.69 73.28 73.24 72.89 72.29 72.15 72.83
79.07 74.71 77.68 76.86 77.34 78.53 78.19 77.88 73.56 74.65 72.75 72.04 73.13 73.40 72.13 70.12 72.60 70.91 71.54 71.73 74.19 76.07 76.12 76.07 76.40 76.43 75.30 74.85 74.92 74.99 74.67 74.90 74.39 74.47 74.83 74.17 74.38 74.19 74.03 73.93 73.93 73.94 73.56
80.99 80.61 76.92 75.26 74.18 75.49 77.68 73.33 75.94 72.97 73.15 72.78 71.46 70.54 71.00 72.04 71.96 72.02 71.78 72.36 72.76 72.80 75.31 76.22 76.22 75.95 74.81 75.05 74.86 74.82 74.86 75.05 75.32 75.35 74.98 75.01 74.57 74.77 74.86 75.17 74.59 74.39 74.49
79.52 79.79 76.74 73.87 77.78 78.06 76.38 76.24 75.49 72.76 72.87 72.32 69.13 71.83 72.28 68.27 69.96 70.37 72.00 72.38 73.07 71.75 71.87 75.56 75.84 75.92 74.92 74.66 74.51 74.66 74.77 75.67 75.43 75.36 75.40 75.18 75.04 74.94 74.92 74.77 74.64 74.77 74.59
79.02 79.41 77.44 77.93 78.74 77.59 75.36 75.54 76.31 74.93 73.64 72.07 68.60 69.90 69.25 71.17 69.80 71.68 70.94 71.74 72.82 72.59 71.72 72.32 73.89 73.55 75.47 75.55 75.04 73.94 73.50 73.91 73.73 73.35 74.24 74.23 74.24 74.52 74.42 74.44 74.22 74.32 74.07
79.48 80.33 78.14 73.92 77.72 77.39 77.38 77.21 76.01 73.23 71.66 71.90 71.18 70.03 70.46 70.54 70.02 69.32 70.11 69.72 70.99 71.29 71.32 73.26 73.03 72.08 73.57 75.15 74.63 74.78 73.52 73.50 74.27 74.22 73.63 73.89 73.19 73.21 73.62 73.32 72.77 72.98 73.50
80.27 79.76 78.86 78.03 79.07 73.99 77.64 77.15 76.40 73.45 72.75 71.79 70.65 67.67 65.75 67.94 67.99 68.65 70.48 69.54 70.49 70.15 69.61 72.76 72.06 73.23 72.18 72.06 72.93 74.74 75.12 74.66 73.87 73.01 72.15 72.15 71.98 71.69 71.22 71.12 71.12 71.34 71.34
78.97 79.23 79.15 78.27 78.12 77.52 75.83 76.39 76.41 76.64 71.58 71.17 74.16 70.85 64.41 62.39 67.13 69.34 69.38 68.99 69.96 68.89 69.38 71.48 72.06 73.35 72.10 68.91 71.64 72.31 72.96 72.13 71.16 68.76 68.43 69.41 70.02 69.73 69.43 69.37 69.16 69.05 69.17
78.40 78.42 78.47 79.32 79.16 77.76 77.08 77.53 77.96 77.26 75.27 69.52 70.86 72.12 73.03 71.82 66.17 63.01 69.18 69.11 70.27 68.76 70.40 69.59 70.28 71.11 72.13 69.20 70.43 70.49 70.58 70.27 70.89 70.19 68.78 68.43 69.33 68.77 67.81 68.02 68.73 68.99 69.34
78.73 78.93 78.51 79.56 79.52 78.91 78.08 77.21 78.37 77.48 76.78 74.24 70.70 70.18 71.29 71.23 71.03 68.53 64.84 66.87 69.27 70.00 70.46 70.60 70.31 69.78 71.52 68.51 66.56 68.12 70.17 69.86 69.94 70.46 70.68 69.95 69.24 68.45 67.90 67.53 67.56 67.70 69.28
77.58 79.29 78.95 78.59 79.37 79.02 78.68 77.82 78.76 78.52 77.42 76.55 74.14 72.43 70.05 68.48 68.45 68.03 67.10 66.53 67.11 69.31 70.40 69.97 70.48 70.58 71.17 70.22 69.19 69.63 70.14 69.69 69.46 69.21 69.01 69.84 70.26 69.92 68.36 67.97 68.13 68.61 69.65
76.30 77.35 78.93 78.74 77.92 78.45 79.03 78.97 78.30 78.65 77.68 76.54 75.36 73.45 73.03 72.35 71.77 70.57 68.36 67.34 66.62 68.37 69.33 70.37 70.97 70.90 71.20 72.11 70.51 69.01 70.44 69.19 68.73 68.41 68.40 68.71 69.30 69.64 69.89 69.60 69.16 69.16 69.27
75.46 78.16 77.68 78.38 78.26 77.97 78.36 79.72 78.88 77.90 77.57 76.50 76.78 74.71 73.12 73.15 72.67 71.28 69.48 68.93 65.82 66.55 68.55 67.99 69.95 71.41 71.32 71.06 68.93 70.55 67.74 68.24 67.70 67.13 67.13 67.63 67.78 68.34 68.99 69.43 69.77 69.72 69.27
77.23 79.30 77.94 78.13 77.87 78.42 78.83 79.25 77.30 77.71 78.32 76.79 75.88 75.97 73.97 72.89 73.11 72.32 71.78 70.33 68.28 64.90 66.21 69.18 67.74 70.35 71.77 70.74 70.51 69.43 69.73 67.72 67.84 67.42 66.78 66.88 67.16 67.54 67.84 68.32 68.56 68.72 68.51
77.25 80.54 78.13 77.80 78.15 77.91 79.02 78.56 77.87 78.27 77.36 76.65 75.44 74.54 74.10 71.69 71.63 72.83 71.65 71.28 70.11 67.86 64.89 68.87 69.37 70.09 69.93 71.67 71.31 71.43 71.20 69.65 67.97 68.17 67.26 66.62 66.95 67.23 67.27 67.48 67.52 67.35 67.45
80.27 77.77 79.15 77.88 77.97 77.94 78.15 78.17 77.34 77.23 77.58 76.70 75.08 74.81 73.57 73.62 73.04 72.08 71.62 71.35 70.70 69.80 66.67 67.88 71.22 72.62 71.39 70.03 69.51 71.02 70.70 70.46 68.89 67.23 67.06 67.16 66.82 66.59 66.67 66.60 66.40 66.34 66.12
78.36 80.02 78.92 78.23 78.06 77.67 77.93 77.54 77.10 76.21 77.05 76.09 75.28 74.26 74.08 73.35 73.37 73.77 73.66 70.82 70.37 71.41 69.30 68.35 69.61 70.85 71.30 71.32 71.71 71.57 70.07 69.42 69.78 68.65 66.75 66.13 65.77 65.51 65.10 65.32 65.43 64.96 63.86
78.97 78.43 79.34 78.81 77.67 77.48 77.53 77.69 77.42 77.18 75.40 76.96 76.53 75.32 74.55 73.51 72.55 71.19 71.76 71.13 71.06 71.45 71.77 68.38 68.15 70.68 71.39 72.04 70.80 71.12 71.56 70.61 71.25 67.93 65.38 65.13 65.15 64.56 63.82 63.51 62.55 61.74 60.44
78.23 78.61 78.50 78.32 78.72 77.91 77.76 77.54 77.49 77.70 77.01 76.56 77.23 76.64 75.96 74.55 72.62 72.58 71.55 70.58 71.27 70.51 69.38 69.08 68.30 67.65 69.85 70.48 70.24 68.65 68.37 69.81 68.84 69.76 67.44 66.04 65.19 64.82 64.02 62.24 61.94 61.74 59.33
78.14 78.52 78.44 78.47 78.38 78.66 78.14 77.39 77.42 77.62 77.25 76.46 76.71 77.44 76.87 75.77 72.31 71.93 71.99 71.96 69.85 69.85 69.11 67.10 66.30 67.33 67.56 68.26 67.48 68.44 66.50 66.81 68.54 69.21 67.41 66.60 66.48 65.59 64.63 63.52 64.55 64.53 61.97
78.62 78.48 78.30 78.09 78.13 78.44 72.13 69.82 75.18 77.29 77.57 76.91 76.37 76.91 77.20 73.67 72.28 68.68 68.27 68.92 71.12 69.11 67.46 66.23 66.42 66.42 67.22 68.70 70.34 67.87 66.84 65.84 64.35 69.38 66.83 67.04 68.89 67.92 67.67 67.92 66.37 65.81 63.64
78.72 78.28 78.43 78.47 77.72 78.07 68.65 67.48 69.23 77.14 76.76 76.87 76.68 76.68 76.87 77.04 73.42 73.89 67.65 66.94 66.78 67.23 68.34 69.35 68.60 69.70 70.80 71.12 70.87 69.34 68.75 68.09 66.26 68.46 67.48 64.83 67.87 65.76 67.75 63.27 62.74 62.85 63.29
78.45 78.21 78.38 78.57 78.33 78.13 68.19 65.15 67.25 75.79 76.57 76.78 77.02 76.81 76.71 76.55 75.94 75.16 73.09 70.34 70.23 69.87 69.14 70.08 71.57 70.91 72.45 72.56 72.06 71.58 70.07 69.57 69.45 68.99 68.77 63.09 66.44 65.18 64.63 62.52 61.79 61.70 60.68
78.38 78.68 78.59 78.61 78.24 78.21 66.40 64.24 65.37 74.45 75.38 75.79 76.79 77.25 76.88 76.55 72.11 66.27 74.55 71.98 70.41 70.39 66.53 64.25 65.30 67.13 65.92 66.31 70.55 70.09 68.42 66.78 65.23 65.62 67.92 65.27 65.01 63.68 62.08 62.49 60.36 60.12 58.40
78.67 78.83 78.57 78.90 75.25 78.25 68.71 62.62 64.74 75.57 74.62 74.76 75.69 76.74 68.23 74.62 67.46 61.79 73.59 73.57 71.23 70.55 70.90 69.51 67.12 64.30 64.43 64.92 64.92 69.97 68.72 65.68 64.61 63.93 67.26 64.65 63.75 61.42 57.05 60.70 61.08 57.70 56.97

GFSMA_sfc_wetblb_039.txt.gz
Wetbulb
72.75 72.77 73.60 71.46 71.96 72.39 72.40 73.08 71.87 72.24 71.01 71.09 70.04 69.75 70.13 69.52 70.81 72.30 72.32 76.56 76.29 76.51 76.23 75.25 74.84 74.45 73.99 73.56 73.28 72.72 73.37 73.53 73.66 73.53 73.70 73.37 73.37 73.41 72.38 71.96 71.64 71.74 72.37
73.39 72.28 73.79 73.14 73.33 72.21 71.08 71.29 72.74 71.84 70.10 70.15 68.92 70.71 69.68 69.48 69.41 71.27 71.65 73.07 76.38 76.34 76.01 75.98 75.14 75.18 74.91 75.03 74.38 74.11 73.08 72.29 73.02 73.34 73.18 74.49 74.45 73.86 73.38 73.08 72.50 72.03 72.82
73.05 72.55 71.86 72.81 73.12 72.80 71.77 72.63 69.19 72.07 70.13 70.26 67.94 69.37 67.31 69.40 69.67 70.71 71.43 71.77 73.92 76.54 76.53 76.67 76.65 76.31 75.45 75.00 75.06 74.61 74.37 74.94 73.95 74.14 74.63 74.56 74.61 74.44 74.26 74.04 73.71 73.28 73.87
74.92 72.96 72.65 72.93 72.45 73.21 73.87 72.37 72.68 70.08 69.57 69.86 67.99 68.51 67.76 67.84 68.92 70.04 70.60 71.17 72.02 73.02 75.89 76.57 76.46 75.84 75.34 75.07 75.30 74.84 75.38 75.46 75.44 75.40 75.07 74.62 74.23 74.95 74.82 75.03 74.35 74.60 74.20
75.36 74.01 72.72 72.80 72.65 73.42 72.22 71.37 71.45 69.92 69.55 69.20 68.03 68.42 68.02 67.25 69.28 70.74 69.32 70.31 71.01 71.48 71.53 75.44 75.72 75.52 74.92 74.52 74.80 74.39 75.01 75.34 75.53 75.48 75.15 74.95 74.63 74.75 74.48 74.25 74.15 74.08 74.15
75.01 74.33 73.11 72.24 73.67 71.97 71.67 70.25 69.34 68.92 68.67 66.80 67.42 68.97 66.00 66.83 67.36 69.03 70.06 71.61 70.34 70.21 70.83 71.69 72.59 72.82 74.81 75.70 75.71 75.08 74.67 74.42 75.42 74.87 74.27 74.73 74.60 74.33 74.25 73.62 73.95 73.83 73.68
74.95 74.32 73.92 73.09 73.46 71.67 71.94 71.85 69.73 69.95 67.37 65.01 63.94 64.68 64.27 64.86 67.08 68.24 68.51 69.66 70.00 69.31 69.66 70.06 70.73 71.47 72.68 75.16 74.68 75.17 74.52 74.43 74.53 74.12 73.83 74.13 73.78 73.63 73.50 72.94 72.68 72.63 72.53
75.00 74.70 73.90 72.77 73.55 72.11 72.40 71.59 70.41 69.16 68.76 65.28 65.67 64.41 60.43 62.28 64.84 66.34 66.64 69.17 67.79 68.65 69.18 70.51 70.05 70.33 71.11 71.04 71.82 74.94 75.25 74.93 73.95 73.04 72.63 72.29 71.90 71.45 71.25 70.93 71.00 70.88 70.69
75.57 74.90 74.43 74.06 73.72 71.62 71.72 71.87 70.94 70.40 64.00 66.06 68.05 65.87 60.58 58.75 60.82 65.67 64.14 64.50 65.94 64.81 67.87 70.35 70.17 69.88 69.94 69.07 72.40 73.70 74.05 73.46 72.22 69.41 68.81 68.90 69.98 69.91 69.29 69.16 69.04 68.95 68.90
74.77 75.60 74.70 74.05 73.73 73.62 72.03 72.10 72.86 71.00 66.72 62.45 64.64 67.78 67.65 66.37 58.86 58.50 64.54 63.92 65.06 64.72 66.31 68.57 69.95 69.83 69.22 66.94 71.00 71.17 71.48 70.24 70.75 70.16 68.78 68.33 68.72 68.78 67.91 68.17 68.57 68.83 68.91
73.79 76.23 74.87 75.03 73.80 74.08 72.90 72.64 73.26 70.75 70.13 67.77 63.36 64.33 65.16 65.55 65.21 61.32 59.13 62.52 64.75 64.39 66.00 65.68 68.13 69.70 67.16 66.60 65.80 67.96 70.44 70.25 70.29 71.01 70.78 69.79 68.68 68.24 67.84 67.57 68.03 69.91 70.40
74.20 75.15 75.43 75.12 74.37 74.41 73.44 73.45 73.71 72.28 71.15 71.28 67.77 65.95 62.72 62.17 62.81 61.99 62.49 63.02 61.76 64.01 65.19 65.76 66.05 66.77 67.41 65.33 67.59 69.25 70.49 69.95 69.76 69.69 69.83 70.37 70.79 69.83 68.74 68.52 68.58 68.75 69.32
73.55 74.47 75.00 74.60 74.86 74.80 75.06 73.81 74.25 73.90 72.34 71.32 69.98 66.96 67.52 64.90 66.86 64.44 63.48 61.78 61.71 63.82 64.42 65.06 66.45 66.40 68.38 65.23 64.32 68.80 70.29 68.97 68.28 67.86 67.89 68.64 69.49 69.83 70.32 69.99 69.34 69.05 69.30
73.88 74.30 75.55 75.14 74.77 74.67 74.42 75.18 74.47 74.56 73.50 71.80 71.99 69.55 66.97 67.98 66.42 64.55 62.77 63.20 60.03 60.62 63.45 62.34 65.57 66.53 66.42 68.38 67.09 69.77 67.05 67.66 67.41 66.46 66.59 67.05 67.65 68.00 68.42 68.88 69.34 69.42 68.90
73.08 74.76 75.20 75.95 75.15 74.87 74.40 74.79 75.45 74.07 74.08 73.05 71.56 71.58 69.33 67.66 68.20 66.36 65.12 64.51 62.21 58.81 60.52 63.63 63.21 66.18 66.47 67.81 68.39 66.45 64.72 67.56 66.91 66.14 65.72 65.77 66.20 66.77 67.14 67.37 67.75 67.98 68.21
71.63 74.12 74.95 75.46 75.33 75.19 75.15 75.03 74.69 74.92 73.88 73.98 72.75 71.54 70.32 68.60 67.46 67.12 66.31 65.08 64.06 61.67 59.00 64.08 64.09 65.74 67.52 68.28 69.04 65.30 64.89 66.99 66.86 66.34 65.65 65.08 65.67 66.53 66.93 67.14 67.18 67.18 66.92
73.72 73.38 75.02 75.09 74.95 75.16 75.78 75.20 74.04 73.87 74.16 73.49 72.54 71.48 70.43 69.37 66.80 66.93 66.34 65.73 64.49 63.29 60.13 61.68 64.68 66.39 66.00 66.12 67.11 67.35 68.34 67.53 65.56 65.79 65.56 65.50 65.44 65.93 66.50 66.59 66.48 66.27 66.08
73.86 75.37 75.82 75.20 75.39 75.09 74.82 75.30 74.23 74.61 73.21 73.32 72.82 70.75 70.81 71.26 68.10 68.07 69.10 64.81 64.56 65.40 62.53 60.47 64.62 65.89 65.39 65.32 64.94 65.36 67.44 68.75 66.96 66.96 65.89 65.64 65.20 64.96 64.78 64.87 65.14 64.98 64.49
75.74 74.26 75.85 75.50 75.25 75.41 75.20 75.11 75.28 74.58 73.58 74.47 73.97 72.09 70.97 70.66 69.01 68.43 67.83 67.30 66.49 65.39 66.62 63.71 63.74 66.42 66.80 67.05 66.86 67.22 66.45 65.70 67.08 68.47 65.24 65.00 64.76 64.27 63.57 62.60 62.29 61.44 60.68
75.17 76.50 74.57 75.63 75.74 75.79 75.52 75.67 75.30 75.02 74.64 73.73 74.53 74.03 72.81 71.61 70.57 69.32 67.81 66.82 66.56 65.47 64.02 63.99 62.78 62.49 64.16 67.36 65.98 65.14 65.00 67.01 66.14 68.43 66.84 65.59 64.65 64.68 63.94 62.21 61.42 61.11 58.78
75.96 75.46 75.83 75.56 76.14 75.69 75.99 75.31 75.49 75.21 74.81 74.80 73.61 75.13 74.59 73.46 71.11 69.80 69.88 67.90 66.51 65.86 64.63 62.93 62.80 63.43 63.23 64.80 66.08 65.84 64.79 65.23 66.05 66.14 64.90 62.42 62.27 63.73 63.94 63.31 63.87 64.23 61.39
74.77 75.31 75.26 75.41 75.66 76.42 70.94 69.27 73.97 75.11 75.13 74.93 74.48 73.63 75.29 72.79 71.44 67.77 67.55 68.07 68.94 66.24 65.30 65.61 64.10 62.88 64.40 64.80 65.31 66.12 65.40 62.26 61.77 66.62 64.94 62.89 63.87 62.82 63.99 62.70 64.25 63.82 61.51
76.09 75.21 75.17 75.69 75.31 75.93 67.64 66.98 69.31 75.53 74.99 75.22 75.11 74.80 73.74 75.37 72.12 73.63 67.34 66.79 67.00 66.59 66.36 66.23 65.53 64.90 64.20 65.80 66.21 65.40 64.54 62.85 62.24 65.11 63.65 61.82 63.37 63.78 64.80 64.80 63.67 62.34 60.60
75.87 75.95 75.85 75.73 76.08 76.13 67.22 65.20 67.22 75.04 75.22 75.08 75.71 75.51 74.87 74.66 74.47 73.95 73.48 70.41 69.86 69.46 68.36 67.64 66.65 66.50 67.31 68.43 68.59 67.92 66.19 65.41 65.67 65.76 65.54 61.41 63.58 62.62 62.68 60.05 61.56 61.58 60.31
75.72 75.97 76.56 76.31 75.97 76.18 65.07 64.09 65.20 73.71 74.83 74.83 75.33 75.52 75.75 75.09 71.06 65.38 73.78 72.06 70.63 70.25 66.47 63.74 65.04 65.69 64.76 65.73 68.77 68.47 65.59 64.46 63.04 64.44 66.25 63.28 62.72 62.17 59.86 58.47 59.22 60.60 58.55
76.02 76.40 76.06 76.77 73.55 76.51 66.67 61.89 64.69 74.22 74.08 74.24 74.66 74.82 67.78 72.68 66.13 62.48 72.56 73.26 70.96 70.56 70.30 69.21 66.47 63.83 65.16 66.35 65.85 68.87 66.67 63.90 62.81 62.45 65.15 64.10 62.19 60.48 55.21 56.55 57.26 57.60 55.66

GFSMA_sfc_wetblb_042.txt.gz
Wetbulb
70.45 71.32 72.04 72.08 71.54 71.74 70.95 70.93 71.04 71.41 70.69 68.85 68.34 70.42 70.52 69.14 71.06 72.80 72.95 76.34 76.69 76.14 75.23 74.47 73.40 72.77 73.04 73.53 73.80 73.80 73.80 73.43 73.39 73.32 73.18 72.98 72.93 72.65 71.90 71.68 71.25 71.22 71.94
71.24 71.51 71.36 70.63 70.83 70.99 70.87 70.31 71.26 70.72 68.76 68.57 67.46 70.04 68.63 68.87 70.18 71.88 72.06 74.01 76.47 76.87 76.17 74.90 74.73 74.16 74.16 73.64 73.40 73.10 72.27 72.88 73.35 73.44 72.72 73.18 73.29 73.06 72.88 72.76 72.41 72.08 72.12
72.26 71.76 71.97 71.89 71.28 71.31 70.39 69.95 69.32 69.51 67.40 68.15 67.40 67.79 67.94 67.84 69.60 70.86 72.09 71.31 74.31 76.79 76.65 75.93 75.56 75.17 74.80 74.91 74.57 73.76 73.99 72.86 72.45 72.78 73.19 73.25 73.23 73.29 73.29 73.65 73.60 73.53 73.11
72.70 72.05 72.29 71.94 72.21 72.66 72.10 71.45 70.56 67.81 68.40 68.30 66.63 65.72 66.91 67.91 68.23 69.17 70.47 71.12 71.94 73.39 75.98 76.16 75.47 75.66 74.92 75.07 74.67 74.68 74.63 74.38 74.87 74.62 74.40 73.88 73.58 73.47 74.00 73.76 73.11 73.19 73.76
73.87 71.91 71.51 72.40 71.83 71.83 71.78 69.54 70.99 68.64 67.83 69.25 67.08 65.37 66.03 66.77 67.99 69.53 68.86 69.76 70.44 71.40 71.84 75.18 74.58 75.48 74.74 74.85 74.75 74.49 74.39 74.81 74.58 74.55 74.50 74.10 74.08 74.01 73.96 73.76 73.54 73.66 73.19
74.36 73.12 71.65 70.87 71.96 71.00 70.43 70.01 67.68 68.41 68.44 66.94 66.77 66.43 64.40 65.93 67.90 68.13 68.74 70.14 69.57 69.78 70.12 71.61 71.77 72.79 74.40 75.18 74.49 74.87 74.03 74.11 73.87 74.14 74.73 74.41 74.23 74.18 73.88 73.61 73.01 72.42 72.47
73.63 73.16 72.65 73.09 72.34 71.55 71.20 69.32 68.58 67.98 65.85 64.06 63.11 62.79 62.38 65.24 65.72 67.55 68.65 68.66 68.76 68.76 69.54 70.06 70.79 70.67 71.92 74.63 74.68 74.60 73.31 73.31 73.39 73.23 73.13 73.43 73.33 73.18 72.62 72.42 72.22 72.03 71.50
73.90 73.41 72.43 71.70 71.91 71.68 70.98 70.47 69.11 67.47 65.90 63.92 64.41 61.15 57.63 60.10 63.38 65.21 67.14 68.52 67.66 68.20 68.56 69.30 69.48 69.68 70.69 70.23 70.66 74.37 74.80 74.67 73.81 73.02 72.52 72.15 71.68 70.99 70.47 70.63 70.46 69.93 69.13
74.03 73.51 73.14 72.32 72.16 71.05 70.85 70.50 69.84 67.74 62.16 64.98 65.29 62.96 58.07 56.45 59.05 63.02 63.55 66.47 66.77 66.50 67.26 68.87 69.14 69.67 69.99 68.98 72.19 73.33 74.15 73.65 73.10 71.12 69.41 68.58 69.17 68.63 68.06 68.65 68.76 68.61 68.54
73.90 73.92 73.45 72.85 72.79 71.61 70.53 71.00 71.15 69.41 62.25 62.47 63.36 66.97 65.80 63.45 57.06 56.95 61.89 62.18 64.39 64.97 65.40 68.79 68.87 69.01 69.06 68.08 71.11 72.32 73.38 72.06 71.03 69.82 68.59 67.94 67.77 67.66 67.13 67.22 68.32 68.63 68.78
73.34 74.13 73.39 72.79 72.48 72.59 71.43 71.11 71.69 70.17 66.59 62.59 61.07 63.71 63.42 64.06 62.68 58.71 57.57 60.27 63.44 62.74 65.42 68.47 68.97 68.24 68.19 66.18 67.80 69.70 72.13 70.25 70.15 70.80 70.71 69.46 68.32 68.13 67.94 67.43 67.40 68.72 69.59
72.05 73.45 73.73 73.01 73.08 72.80 71.97 71.25 71.90 70.18 70.28 66.43 65.90 63.93 61.94 61.30 60.91 60.83 60.05 59.95 59.97 61.73 63.87 64.54 67.24 68.29 67.37 64.78 67.76 69.35 71.01 69.98 69.66 70.03 69.96 70.46 70.73 69.84 68.91 68.74 68.42 68.67 69.15
70.23 72.17 74.05 73.02 73.10 72.97 72.31 71.94 72.15 71.70 69.65 70.04 68.01 65.27 64.34 62.04 63.76 61.92 61.59 60.67 60.71 62.18 62.61 63.86 64.87 66.90 68.06 64.36 66.26 69.20 70.57 69.23 68.61 68.11 68.41 68.97 69.81 70.30 70.89 69.90 69.12 69.15 68.93
71.50 72.49 74.13 74.13 73.90 73.58 73.35 72.58 72.19 72.74 71.52 70.34 69.91 67.23 65.99 66.89 65.41 62.97 61.21 61.42 58.14 59.48 61.20 62.49 64.09 64.74 66.58 65.35 66.00 70.01 66.41 68.05 67.38 66.53 66.46 66.94 67.82 68.62 68.91 69.30 69.32 69.15 68.60
73.23 72.71 74.18 73.91 73.98 73.56 73.60 73.30 72.66 72.20 72.75 70.72 69.61 70.33 67.35 66.09 66.50 65.87 62.83 63.11 60.40 57.95 58.50 61.95 61.88 64.72 65.83 66.57 66.01 66.70 63.80 67.15 66.84 66.05 65.22 65.26 65.80 66.75 67.33 67.59 67.34 67.38 67.87
72.00 73.18 73.31 74.83 73.81 73.69 73.16 72.78 73.53 72.62 72.84 72.00 71.22 69.28 69.29 68.48 66.42 65.85 65.35 62.52 62.11 59.87 57.59 61.29 63.49 63.51 65.35 66.93 67.98 66.28 63.80 66.70 66.68 65.91 65.05 64.53 64.92 65.65 66.08 66.44 66.78 66.88 67.07
69.83 71.75 73.23 73.88 74.33 73.71 73.21 72.48 72.90 74.01 72.56 72.59 72.27 70.81 69.52 68.82 67.84 65.39 64.79 64.10 62.16 60.93 58.79 59.27 62.48 63.01 64.20 64.65 65.54 64.73 64.21 63.54 63.68 65.59 65.10 64.51 63.99 64.41 65.22 65.62 65.76 65.97 66.07
72.02 70.30 73.39 73.39 74.03 73.98 73.81 73.37 72.84 73.98 73.72 72.79 72.61 71.34 71.07 70.97 68.14 66.24 65.06 65.07 63.12 62.37 60.20 58.39 60.36 64.86 63.91 64.45 64.41 65.34 65.21 66.49 65.23 65.91 64.87 64.06 63.73 63.39 63.63 64.00 64.15 64.01 63.72
72.41 72.35 73.66 73.43 73.88 74.03 74.03 74.16 73.64 73.25 73.28 73.68 73.33 72.35 71.83 70.67 69.91 68.22 65.48 65.76 65.35 63.47 62.95 60.46 60.19 63.56 64.18 64.38 63.43 63.82 64.36 64.86 66.58 67.44 64.79 63.89 63.85 63.63 63.10 62.43 61.79 60.78 60.27
71.31 72.51 74.08 74.30 74.33 74.21 74.12 74.17 74.56 74.12 73.48 73.26 73.57 73.36 72.74 71.14 70.74 68.97 66.57 65.94 65.39 65.11 63.16 63.36 61.41 63.20 63.93 65.33 64.11 63.39 63.56 65.03 64.35 67.32 67.60 65.81 65.14 65.13 64.13 61.67 61.35 60.77 58.40
74.21 72.64 73.74 74.13 74.76 74.58 75.00 74.25 73.91 73.83 74.01 73.50 73.02 74.02 73.72 72.69 70.60 69.79 69.73 67.86 65.23 64.77 63.56 62.24 61.69 61.08 61.04 63.78 64.07 63.56 64.18 65.20 65.86 65.14 64.54 63.63 62.89 63.12 64.05 63.30 63.88 63.78 60.28
72.76 74.31 73.73 74.18 74.10 75.32 69.92 68.83 73.21 74.09 73.85 73.41 72.96 73.13 73.46 71.91 70.59 67.46 66.89 67.55 67.86 66.28 65.02 64.66 64.59 63.26 63.66 62.35 64.42 65.13 64.65 61.67 61.68 65.30 64.73 65.14 62.48 62.35 63.16 63.42 63.59 62.40 60.87
73.35 72.24 73.51 74.27 73.93 74.75 67.01 66.70 68.62 74.38 74.18 73.90 73.72 73.63 73.51 74.17 71.41 73.02 67.22 65.72 65.98 65.42 66.91 66.41 64.73 64.98 64.21 64.52 64.30 63.73 64.38 62.87 63.58 64.15 64.75 64.31 63.63 63.40 64.26 64.18 62.12 61.46 60.34
74.23 73.83 73.02 73.50 74.22 74.41 65.93 64.68 67.01 73.65 74.29 74.24 74.25 74.15 73.93 73.86 73.32 73.17 73.62 71.10 69.40 69.54 67.89 67.84 67.99 66.93 66.88 66.64 65.59 66.23 65.85 65.55 63.90 63.92 64.22 62.60 62.54 62.38 63.34 63.71 62.10 61.74 59.91
74.19 74.62 74.86 74.35 73.46 74.03 64.35 63.11 64.99 72.47 73.75 74.30 74.67 74.51 74.67 74.39 69.95 64.59 72.81 72.61 72.02 71.23 68.08 63.77 64.85 64.05 61.67 61.72 64.49 64.83 64.04 63.35 62.86 63.40 64.58 63.31 62.62 63.04 61.83 60.78 60.54 61.23 59.11
74.59 74.83 74.71 75.38 72.29 74.87 64.75 61.82 64.22 73.39 73.23 73.67 74.68 75.02 67.46 71.97 65.35 62.15 70.46 72.59 71.90 72.56 71.96 71.55 68.03 64.97 62.42 62.99 62.79 67.57 66.50 64.15 63.98 62.80 65.21 63.64 62.47 61.95 58.50 58.06 58.87 59.41 58.80

GFSMA_sfc_wetblb_045.txt.gz
Wetbulb
69.79 70.54 70.92 71.06 70.96 71.07 70.04 70.41 69.79 70.09 69.22 67.66 68.80 70.71 70.04 69.43 70.80 72.14 72.65 75.55 75.51 75.48 73.71 72.86 72.94 73.41 73.50 73.83 73.64 73.84 73.51 73.18 72.96 72.88 72.80 72.81 72.62 72.10 71.56 71.78 72.09 71.62 72.09
70.47 70.43 70.60 69.87 70.13 70.38 70.02 69.83 70.22 69.81 68.18 67.62 67.20 70.29 68.31 69.69 70.89 72.18 72.46 73.63 76.06 76.06 75.15 74.07 73.26 72.83 73.01 72.76 72.77 72.24 72.78 73.02 73.12 73.05 72.66 72.99 72.80 72.75 72.84 72.97 72.75 72.75 72.89
71.10 71.28 70.60 70.47 69.91 70.27 70.18 68.81 67.95 68.64 66.74 66.78 66.73 67.41 67.68 68.40 69.97 71.42 71.93 71.65 74.15 75.45 75.06 74.86 74.66 74.18 74.38 74.25 73.74 73.48 72.97 71.73 71.73 72.28 72.71 72.57 73.05 73.04 73.14 73.31 73.07 73.04 73.40
71.75 71.33 71.13 71.09 70.57 70.96 70.85 70.91 69.58 66.92 66.81 65.87 65.25 65.96 66.31 67.23 68.49 69.93 70.38 70.66 72.18 73.50 75.36 75.54 75.23 74.95 74.77 74.57 74.62 74.31 74.05 74.07 73.85 74.18 73.99 73.75 73.57 73.56 73.49 73.54 73.19 73.02 72.87
72.71 71.37 71.41 71.67 71.39 70.62 70.34 71.48 69.68 67.78 68.09 66.96 65.42 64.68 65.54 66.31 66.79 69.16 68.86 69.77 70.66 71.31 72.30 74.54 75.24 75.17 74.85 74.10 74.02 73.83 74.20 74.82 74.47 74.16 74.01 74.12 73.59 73.47 73.64 73.42 73.20 73.00 72.85
73.11 71.03 70.85 70.94 71.05 70.91 69.90 69.46 68.84 66.98 66.44 66.18 66.31 64.84 64.55 66.19 67.00 67.39 67.55 69.07 69.22 70.19 70.46 71.14 71.27 71.92 74.11 74.49 75.01 74.29 73.88 73.80 73.92 73.75 73.74 73.47 73.55 72.88 72.90 72.56 72.13 72.01 72.13
73.31 71.84 70.95 70.93 71.60 69.86 70.19 68.18 67.62 65.24 63.54 63.12 62.69 61.62 61.62 63.28 65.27 66.74 67.27 67.75 68.38 68.28 68.59 69.95 70.34 70.22 70.95 74.44 74.45 74.36 73.41 73.11 73.09 73.05 73.00 73.05 73.00 72.84 72.34 71.89 71.64 71.46 71.07
72.95 72.53 71.75 71.40 71.38 70.57 69.88 69.55 67.81 66.50 63.68 63.11 61.57 58.51 57.36 59.56 62.63 64.29 66.73 68.20 67.22 67.90 68.29 69.15 69.28 69.14 69.85 70.00 70.21 73.75 73.78 73.49 73.73 72.87 72.28 71.94 71.34 70.73 69.90 69.58 69.43 68.52 68.10
73.05 72.54 71.96 71.08 71.33 70.53 70.09 69.44 68.78 66.27 61.25 63.76 64.28 61.04 56.84 55.69 58.54 61.94 63.59 66.26 66.86 66.29 66.70 67.74 68.15 68.75 69.40 69.01 70.84 72.14 74.11 73.88 73.17 72.31 70.29 68.86 68.36 68.03 67.54 67.83 68.30 68.06 68.25
72.55 73.21 72.25 71.44 71.36 70.61 69.19 70.03 69.92 68.01 61.88 62.23 62.46 66.59 63.35 60.42 56.94 58.07 60.53 62.29 64.15 65.58 65.44 66.87 67.80 68.33 69.03 68.25 70.44 71.70 73.29 72.62 72.97 70.05 68.59 68.24 68.02 67.61 67.27 67.25 67.73 68.07 68.62
72.51 73.26 72.47 71.74 71.71 71.40 70.30 70.36 69.74 68.75 62.00 61.62 60.49 63.26 62.72 63.15 59.77 57.24 55.81 59.53 62.50 63.03 63.29 65.59 67.89 67.76 67.95 67.65 67.26 69.03 72.62 72.12 70.56 70.93 70.72 69.36 68.48 68.19 68.19 67.99 67.81 67.87 68.22
71.55 72.39 72.80 71.78 71.56 71.66 71.12 70.27 70.40 69.37 67.41 64.17 62.15 62.63 61.68 61.46 60.85 59.35 58.27 58.16 59.39 61.24 62.50 65.03 66.70 68.06 67.61 66.45 68.22 70.02 71.81 71.25 69.45 70.02 70.19 70.55 70.66 69.63 69.16 69.11 69.26 68.96 69.28
69.06 71.19 72.17 71.75 71.48 71.65 71.97 71.16 70.39 70.58 69.41 67.07 65.15 64.71 62.11 60.91 61.70 60.50 59.99 59.55 59.19 60.18 62.11 62.85 64.80 67.19 68.16 65.83 65.49 70.26 70.88 69.93 68.64 68.27 68.54 69.32 69.97 70.93 71.28 71.02 70.15 69.38 69.27
70.09 71.35 72.41 72.39 72.04 72.41 72.20 71.23 70.93 71.18 69.56 69.73 68.53 65.10 65.61 64.16 63.70 62.74 61.53 60.33 57.47 58.11 60.23 61.28 62.97 64.79 66.64 66.14 66.43 69.04 66.08 68.39 67.77 66.95 66.78 67.33 68.12 68.84 69.65 70.19 70.19 69.94 69.09
70.38 70.43 71.71 73.13 72.71 72.47 72.47 71.68 70.86 71.21 71.49 69.80 69.08 68.74 65.78 65.00 65.79 64.16 61.30 61.41 59.68 56.84 57.38 60.94 61.43 63.44 65.03 66.14 66.94 66.01 66.22 66.12 67.45 66.53 65.75 65.56 66.17 66.86 67.90 68.24 68.09 67.69 67.83
70.62 70.96 71.43 72.02 72.37 72.79 72.67 72.36 71.44 71.09 71.40 71.18 69.78 68.27 68.41 67.48 65.41 65.23 64.61 61.91 60.72 59.14 57.33 59.97 61.65 62.13 63.95 65.65 67.19 66.30 66.02 66.82 66.83 66.37 65.36 64.81 65.05 65.86 66.32 66.71 66.64 66.81 66.75
69.98 71.20 71.41 72.21 72.43 72.38 72.46 72.18 72.53 72.47 71.21 71.28 71.17 70.00 68.65 67.71 67.39 65.49 64.14 63.54 61.52 59.67 57.79 58.94 61.07 61.93 62.76 63.14 64.93 66.92 65.59 63.92 63.63 65.70 65.45 64.64 64.07 64.60 65.21 65.45 65.37 65.55 66.15
68.93 70.52 71.38 71.74 72.97 72.91 72.63 72.30 71.69 72.70 72.61 71.42 71.81 71.20 70.91 70.57 67.42 66.14 64.38 63.44 62.87 61.36 59.75 58.19 58.67 62.11 62.22 63.25 63.86 65.14 65.76 65.31 63.30 64.58 64.87 64.32 63.75 63.42 63.29 63.27 63.09 63.71 63.85
70.03 69.62 70.77 71.83 72.33 73.11 72.97 72.58 72.29 72.07 72.56 73.03 72.54 71.99 71.95 70.54 69.69 68.23 65.98 64.53 63.71 63.25 61.10 59.38 59.03 60.81 63.44 62.93 62.44 63.54 63.49 63.26 64.42 66.02 63.93 63.66 63.51 63.22 62.44 61.69 61.37 60.80 60.46
70.48 70.80 71.07 71.81 72.45 72.85 73.23 73.13 72.99 72.50 72.18 72.72 73.25 73.07 72.66 71.72 71.53 70.87 68.45 66.88 64.98 63.91 62.33 61.65 60.98 60.65 62.41 63.53 62.84 61.66 61.83 62.69 63.85 65.76 66.93 65.63 65.12 64.76 63.71 61.77 61.50 61.26 58.89
72.26 71.73 71.46 72.57 72.79 72.92 73.37 73.04 73.18 72.90 72.38 72.08 72.58 72.90 73.10 72.98 70.90 70.60 71.05 69.41 66.23 65.30 64.06 63.40 62.74 60.55 61.07 62.33 62.23 62.09 62.91 63.82 63.38 64.09 64.36 64.37 64.63 64.21 64.26 63.91 64.88 64.39 60.63
73.11 71.98 71.24 71.64 72.56 73.70 69.34 68.27 72.10 72.92 72.88 72.67 72.09 72.27 72.96 71.61 70.80 67.72 67.50 68.37 69.16 67.64 66.30 65.00 65.20 63.46 63.51 63.31 63.64 64.38 62.99 59.87 60.12 64.17 64.40 64.08 64.02 63.99 64.40 63.75 64.34 62.88 60.97
71.74 72.63 72.61 71.94 71.88 72.78 66.58 66.66 68.52 73.28 72.68 72.56 72.46 72.48 72.55 73.22 71.11 72.91 68.09 66.32 66.29 65.49 67.76 69.94 66.14 66.76 65.42 65.20 64.51 62.89 64.15 63.53 63.32 63.20 65.03 63.79 63.71 64.22 65.70 64.45 62.21 61.50 60.47
71.72 71.63 71.63 72.69 72.83 73.20 65.90 64.47 67.03 72.94 73.56 73.44 73.30 73.09 72.82 72.81 72.80 72.18 72.37 71.89 69.65 69.84 68.69 67.88 69.98 70.80 69.48 68.19 65.70 65.60 65.08 64.86 65.05 62.55 64.81 62.81 63.02 64.34 66.10 64.32 62.07 61.89 59.96
72.89 72.49 72.51 71.64 71.49 72.68 63.58 63.72 64.97 71.75 72.82 73.13 73.68 73.74 73.79 73.44 69.29 64.61 71.64 71.79 71.98 72.42 67.90 64.17 64.56 65.12 64.14 62.41 65.34 64.99 62.33 62.03 62.21 63.44 63.99 64.56 63.15 62.79 61.43 62.71 64.11 62.55 60.00
73.30 73.82 73.72 73.74 70.05 72.21 64.10 61.46 64.12 72.45 72.23 72.67 73.50 73.96 67.09 71.13 64.96 62.33 70.17 71.77 71.03 72.04 72.90 72.76 70.46 65.96 64.17 66.13 61.21 65.80 67.67 63.28 63.21 61.62 64.62 63.73 63.02 61.76 59.91 60.36 62.41 62.05 61.44

GFSMA_sfc_wetblb_048.txt.gz
Wetbulb
71.36 72.27 72.04 71.64 72.26 72.36 71.65 72.19 72.65 71.99 70.88 69.79 71.80 72.18 72.03 71.34 72.19 72.98 74.10 74.51 75.27 74.44 72.93 73.55 73.73 73.63 73.48 73.20 73.04 73.20 72.96 72.93 72.68 72.73 72.54 72.73 72.51 72.35 72.04 72.66 72.81 72.50 72.48
71.04 71.92 71.47 72.06 71.48 72.25 71.88 72.03 72.81 71.38 69.90 69.17 70.44 72.13 71.30 71.44 72.29 73.33 73.95 75.45 75.52 75.74 73.65 72.85 72.57 72.68 72.83 73.05 72.74 72.39 72.77 72.85 72.96 73.29 72.83 72.90 73.06 73.22 73.06 73.21 73.22 73.14 73.25
71.41 72.55 72.42 72.09 71.54 72.41 71.91 71.80 69.90 70.29 69.24 69.06 69.92 70.88 70.53 71.48 72.22 73.10 73.94 74.23 75.01 74.82 74.90 74.60 73.97 73.35 73.31 73.02 73.06 73.08 72.43 71.87 71.90 71.95 72.41 72.55 72.96 72.92 72.99 73.07 73.12 72.99 73.00
71.39 72.74 72.94 72.66 72.21 72.57 72.74 72.44 71.97 69.77 69.02 68.82 68.80 69.27 69.61 70.32 71.60 72.54 72.96 73.31 74.61 75.10 75.33 74.40 73.91 74.38 74.40 74.52 74.82 74.00 73.82 73.75 73.63 73.58 73.48 73.28 73.33 73.35 73.06 73.21 72.90 72.85 72.73
72.84 72.92 72.66 73.22 73.47 73.27 72.68 72.73 71.59 70.58 69.71 68.90 67.48 68.12 68.34 68.76 69.66 71.02 71.52 72.09 72.98 73.75 74.20 74.50 75.00 74.95 74.35 74.03 74.12 73.97 73.81 73.99 73.75 73.80 73.82 73.43 73.15 72.80 72.98 72.76 72.46 72.22 72.24
73.50 72.42 72.80 72.66 72.91 73.00 72.69 71.34 70.84 68.92 69.55 67.71 67.02 66.41 67.59 68.80 69.06 69.87 69.82 70.98 71.45 72.56 73.05 73.48 73.75 73.67 74.45 74.34 75.22 74.59 74.12 73.65 73.69 73.43 73.36 72.98 72.53 72.26 72.51 72.19 72.19 72.29 71.92
73.93 72.11 72.35 72.20 73.29 72.19 72.37 71.23 69.99 68.00 66.27 66.73 66.10 65.18 64.92 66.09 68.28 69.51 69.78 69.93 70.08 71.30 71.32 72.06 72.59 72.73 72.84 73.78 74.50 74.25 73.80 73.11 72.98 72.97 72.71 72.81 72.70 72.50 71.78 71.46 71.20 70.47 69.04
74.23 73.25 72.42 72.52 73.20 72.23 71.25 71.39 70.79 69.26 66.00 66.46 64.81 63.81 62.23 64.80 65.69 67.03 69.41 69.90 69.87 70.49 70.71 70.91 71.60 71.87 71.99 72.86 72.73 72.94 73.38 72.90 73.41 72.78 72.14 71.65 71.35 70.64 69.24 69.17 69.05 68.57 68.05
74.10 74.09 73.26 72.90 72.66 72.18 71.33 71.57 71.02 69.55 65.23 67.13 67.23 64.53 61.52 61.16 62.30 65.30 67.15 69.02 69.83 69.68 69.90 70.24 70.47 70.95 71.48 72.37 71.97 72.91 74.02 73.98 73.10 72.17 70.47 69.24 68.45 67.88 67.36 67.76 68.28 68.26 68.26
73.04 73.85 73.56 72.78 72.93 72.17 72.18 72.40 71.68 70.25 66.58 66.72 66.50 68.28 66.28 64.65 62.88 63.50 65.11 66.09 67.88 68.63 69.51 69.60 70.20 70.54 71.27 71.77 70.96 71.69 72.55 72.70 73.25 70.78 68.31 67.64 67.58 67.15 67.10 67.13 67.64 68.30 68.38
72.94 73.79 73.72 73.08 72.67 73.07 72.31 72.27 71.95 70.91 66.36 66.32 66.07 66.82 66.42 65.33 63.41 62.75 62.43 64.54 65.88 67.47 68.61 68.90 69.68 70.68 71.07 71.15 70.78 70.17 71.54 72.33 71.97 70.92 70.57 69.24 68.07 67.96 67.91 67.82 67.77 67.88 68.04
72.02 73.31 73.85 73.30 73.21 73.45 72.97 71.96 72.55 71.45 69.08 66.78 65.97 67.22 66.66 66.71 64.99 63.32 62.36 62.59 63.56 66.33 66.80 67.12 68.17 69.79 71.01 71.00 70.75 70.34 70.58 71.84 70.90 69.59 70.17 70.63 70.67 69.35 69.06 68.93 68.98 69.10 69.50
70.87 71.89 73.19 73.03 72.69 73.08 73.57 73.09 72.42 72.57 71.45 69.08 67.47 67.03 66.39 66.12 65.90 64.98 64.53 63.68 63.24 64.42 66.05 66.90 67.72 69.24 70.34 71.01 70.53 71.28 71.15 70.22 69.99 68.21 68.44 69.18 69.90 70.89 71.49 71.35 70.80 70.25 70.04
70.69 72.40 72.59 73.36 73.39 73.48 73.59 73.46 72.72 72.55 72.35 71.79 70.99 68.52 68.15 66.34 66.47 66.28 66.14 65.02 63.73 63.25 64.36 67.30 67.35 67.65 69.73 70.85 70.91 69.78 70.22 68.54 68.37 67.03 66.77 67.51 68.10 69.06 69.77 70.51 71.01 70.89 70.14
70.84 72.00 72.64 73.19 73.29 73.64 73.73 73.40 72.44 72.60 73.29 72.02 71.97 71.53 68.98 68.48 67.91 67.10 65.76 66.12 65.18 62.85 63.30 66.60 66.10 68.14 68.55 69.60 70.76 70.98 70.46 68.38 67.36 66.95 65.80 65.76 66.38 67.16 68.12 68.50 68.41 68.43 68.27
71.03 71.46 71.81 73.03 73.42 73.79 73.59 73.57 73.00 72.90 72.99 73.13 72.11 71.34 71.21 70.51 68.59 68.31 67.74 65.82 64.86 64.99 63.30 64.72 66.60 67.50 67.77 67.96 69.22 70.58 69.70 68.38 67.05 66.29 65.72 64.93 65.39 66.11 66.71 66.89 67.11 66.90 66.96
70.38 71.25 71.69 72.18 72.51 73.17 73.81 73.61 73.50 73.40 72.46 72.75 73.06 72.27 71.39 71.18 70.76 69.36 67.72 67.41 65.79 64.28 63.59 65.71 64.51 67.39 67.98 68.04 68.66 69.73 69.61 69.05 69.04 65.68 65.48 65.07 64.52 64.91 65.35 65.66 65.75 65.81 66.01
70.22 71.37 72.12 72.22 72.65 72.93 73.47 73.25 73.13 73.87 73.01 72.62 72.74 72.79 72.79 71.92 71.09 70.81 68.99 68.04 66.99 65.95 65.10 64.77 66.03 66.00 67.14 68.56 68.58 68.35 68.44 68.20 68.57 66.55 64.60 64.48 64.00 63.58 63.38 63.47 63.36 63.58 63.45
70.22 70.75 71.87 72.00 72.30 73.18 73.48 73.33 73.37 73.39 73.74 73.86 73.69 73.30 73.29 73.16 72.72 71.84 70.76 69.31 67.67 67.11 65.87 64.30 65.57 65.37 66.70 67.47 67.44 67.22 67.98 68.73 68.44 66.98 63.76 63.38 63.49 63.43 62.55 61.77 61.17 60.37 59.67
71.35 70.97 71.08 71.83 72.55 73.04 73.81 73.88 73.58 73.35 73.25 73.72 74.22 74.01 73.92 73.71 73.34 73.33 72.07 71.69 71.14 68.64 67.04 65.67 65.54 65.36 65.72 67.98 66.77 66.50 66.38 66.56 67.11 67.99 67.48 66.02 65.04 64.52 63.60 61.76 61.30 60.74 58.32
70.99 71.59 71.42 71.71 72.45 72.91 73.37 73.78 73.96 73.55 73.27 73.25 73.58 74.14 74.35 73.77 71.32 71.85 73.46 72.90 71.99 70.26 69.97 68.13 67.49 67.63 65.47 65.91 65.73 67.88 65.67 67.44 67.91 68.11 67.58 67.87 67.97 67.81 68.07 64.18 65.73 63.82 60.69
72.23 71.97 71.55 71.83 71.68 72.25 68.02 67.65 72.16 73.65 73.63 73.30 72.82 73.39 74.03 71.79 71.32 68.07 67.49 68.49 71.72 71.05 70.24 69.12 68.80 68.48 68.65 68.31 68.09 66.57 66.36 65.69 64.79 66.70 66.84 66.84 68.07 67.65 68.07 68.55 66.01 64.15 61.58
72.54 72.38 72.08 72.09 71.99 72.90 65.88 65.77 68.01 73.62 73.60 73.59 73.71 73.67 73.50 73.76 71.57 74.10 68.81 66.66 67.00 65.99 68.19 72.54 70.46 69.97 69.74 70.88 70.04 67.62 66.58 66.94 66.52 69.03 67.39 65.88 68.45 66.44 68.52 67.42 63.40 62.47 61.13
71.04 72.25 72.59 72.29 71.96 72.29 64.97 64.05 66.53 72.85 73.78 73.95 73.95 74.05 73.92 73.95 73.98 73.54 73.81 73.59 73.00 72.45 70.68 69.86 71.61 72.89 73.72 74.18 72.84 70.81 69.31 68.34 68.44 68.74 68.59 64.63 68.47 66.70 68.08 68.71 62.68 62.13 60.34
71.88 71.58 72.29 72.90 72.81 72.81 62.95 62.75 65.05 72.32 73.07 73.47 74.38 74.65 74.33 74.10 69.19 64.16 73.21 73.10 73.36 73.70 68.98 64.74 65.06 65.19 64.00 63.27 66.29 71.18 67.09 63.70 64.21 66.36 67.72 65.95 67.64 66.63 68.08 67.51 67.40 61.49 59.78
73.01 72.88 72.60 72.75 69.72 72.88 64.12 61.33 63.99 72.32 72.15 72.61 73.98 74.37 66.86 71.55 64.89 61.70 71.87 73.22 72.49 73.58 74.35 74.77 74.13 68.17 65.32 67.97 63.07 66.76 69.06 67.60 66.01 65.04 68.45 64.41 65.20 64.57 62.47 66.15 66.37 64.57 62.41

GFSMA_sfc_wetblb_051.txt.gz
Wetbulb
75.74 75.99 75.81 75.54 76.49 76.91 76.46 76.37 76.35 75.29 75.14 75.09 74.86 75.16 74.97 75.34 74.72 74.45 74.53 74.35 74.11 73.11 73.03 74.12 74.38 73.82 73.67 73.54 73.13 72.93 73.05 72.74 72.65 72.89 72.82 72.99 72.60 72.79 73.02 73.27 73.11 73.11 73.04
75.85 76.24 76.56 76.30 76.10 76.65 76.60 77.21 76.38 74.56 74.28 74.22 74.83 74.84 74.93 75.03 74.63 74.46 74.47 74.75 73.98 74.16 72.76 72.15 72.43 72.48 72.77 73.08 73.01 72.76 72.99 72.85 73.11 73.32 72.72 72.38 72.62 72.90 73.23 73.18 73.38 73.11 72.96
75.78 76.61 76.27 75.80 75.63 76.06 76.29 76.18 75.04 74.36 73.38 73.98 75.06 75.06 75.07 75.00 74.09 74.32 75.23 75.81 75.51 74.13 74.11 73.32 72.83 72.72 72.80 72.75 72.66 72.70 72.23 71.88 71.67 71.75 72.33 73.48 73.47 73.31 73.24 73.36 73.12 72.99 72.67
76.05 76.88 76.02 75.91 76.19 76.19 76.50 75.58 74.56 73.01 73.10 72.93 73.52 73.97 74.68 74.82 73.98 74.36 75.31 75.92 76.46 75.84 74.86 74.06 74.00 74.35 74.19 74.56 74.11 74.11 73.84 73.65 73.78 73.68 73.69 73.54 73.09 73.13 73.16 73.07 73.03 72.88 72.54
75.77 77.10 77.27 76.71 76.96 76.69 76.17 76.09 75.28 74.06 72.45 72.52 72.52 73.31 73.56 73.13 73.52 73.62 74.41 74.99 75.60 75.29 76.19 74.92 74.82 74.45 74.13 73.93 73.85 73.57 73.66 73.77 73.81 73.45 73.25 73.75 73.42 72.93 72.62 72.45 72.09 72.35 72.44
76.10 76.77 77.61 76.99 76.76 76.88 75.93 75.25 75.57 71.77 74.41 73.20 71.05 71.64 72.97 73.82 73.83 74.67 74.28 74.00 74.77 75.35 75.72 75.59 75.83 75.25 73.76 74.24 74.65 74.72 74.32 73.88 73.59 73.54 73.15 72.80 72.53 72.31 72.54 72.42 72.44 72.03 71.41
76.77 77.29 77.06 77.16 76.67 77.95 77.34 75.37 73.54 72.68 70.66 72.08 70.66 70.23 67.99 69.94 72.93 73.67 75.07 74.73 73.75 74.60 74.78 75.22 75.06 75.05 74.60 72.79 73.96 73.71 73.52 73.25 73.04 73.12 72.57 72.72 72.77 72.47 71.97 71.31 70.70 68.91 68.14
77.41 77.18 76.63 76.27 77.12 76.73 76.01 75.54 74.99 71.40 71.40 71.71 70.63 69.76 67.37 68.66 71.67 72.32 73.60 73.72 74.30 75.15 74.98 74.45 74.69 75.04 74.89 75.02 73.95 72.73 72.77 72.52 73.41 72.70 72.12 71.58 71.11 70.57 68.97 68.30 68.43 68.04 67.83
77.58 77.98 77.17 76.60 77.45 78.57 75.47 75.99 75.18 73.73 69.81 71.70 71.89 70.24 66.13 65.39 69.01 71.40 71.71 73.12 73.79 73.91 74.57 74.41 73.81 74.31 74.76 75.10 73.43 72.66 72.86 74.06 73.10 72.01 70.58 69.51 68.39 67.35 66.95 66.95 67.11 67.23 67.31
77.07 78.00 78.15 77.42 77.16 77.10 77.08 76.21 75.82 74.93 72.82 70.59 71.68 72.77 71.21 70.55 67.06 66.27 70.48 71.47 72.62 72.98 73.51 73.83 73.71 73.90 74.39 74.40 72.66 71.85 71.93 72.93 72.89 71.22 68.54 67.62 67.44 67.17 67.07 67.14 66.99 66.77 66.86
77.08 76.96 77.63 77.39 76.87 76.49 77.30 76.65 76.50 75.83 73.30 71.84 71.21 71.81 72.56 70.88 70.43 68.70 66.72 69.08 71.02 72.15 73.08 73.25 73.00 73.47 74.34 74.37 73.93 72.71 71.67 72.60 72.39 71.89 70.29 69.05 68.19 68.00 67.90 68.00 67.83 68.19 68.45
75.84 76.71 77.10 77.27 77.47 77.02 76.85 76.65 76.93 76.51 74.59 72.20 71.72 72.59 71.53 70.89 69.49 68.45 67.41 69.33 68.35 71.35 72.11 72.93 72.78 72.87 73.69 74.37 74.55 72.92 71.38 71.45 71.70 70.77 70.42 71.03 70.76 69.59 69.49 69.46 69.40 69.46 69.72
74.62 75.79 76.87 77.11 76.74 77.63 77.51 77.47 77.16 76.42 75.53 73.91 72.95 70.66 71.79 71.74 72.23 71.39 69.15 68.95 68.19 71.16 71.07 71.86 72.52 73.11 72.93 73.87 74.54 73.10 72.45 70.37 70.40 69.49 68.78 69.53 70.40 71.21 71.52 71.40 70.90 70.62 70.54
74.19 76.63 76.74 77.10 77.41 77.69 77.47 77.66 76.73 76.45 76.43 75.35 75.31 73.80 72.39 72.03 71.49 71.20 70.03 68.88 67.33 69.20 70.75 71.80 72.89 72.74 72.95 73.53 74.49 72.72 73.25 69.46 68.91 68.14 67.26 67.61 68.47 69.30 70.12 70.99 71.53 71.85 71.40
73.77 75.64 76.67 76.74 77.13 77.30 77.46 77.83 76.44 76.75 76.87 76.78 76.29 76.26 74.42 73.81 73.09 71.91 71.18 70.57 68.89 66.04 66.84 70.62 70.84 74.10 73.57 73.55 74.09 74.50 74.75 70.94 68.24 67.50 66.54 65.97 66.70 67.56 68.44 68.85 69.22 69.29 69.30
74.71 74.72 75.88 76.43 76.74 76.96 77.35 77.62 76.63 77.24 76.93 76.36 76.03 76.32 76.20 75.25 74.23 73.46 72.56 71.81 70.82 69.06 66.85 70.99 70.84 72.64 73.66 72.67 73.43 73.45 73.89 71.03 68.81 66.99 66.15 65.42 65.55 66.15 66.96 67.47 67.63 67.67 67.70
75.07 75.29 76.01 76.24 76.38 76.43 76.93 76.95 76.89 76.82 76.67 76.86 76.78 76.31 76.53 76.88 75.01 74.28 73.44 72.77 71.50 70.69 68.41 70.19 71.55 72.91 73.11 73.65 73.78 73.74 73.41 73.65 72.86 66.94 66.20 65.53 64.96 65.02 65.58 66.07 66.13 66.24 66.39
75.10 75.32 75.91 76.24 76.07 76.24 76.49 76.45 75.95 75.76 76.20 76.45 76.55 76.38 76.09 75.93 76.17 76.21 74.74 74.42 73.42 73.33 70.49 71.47 72.42 71.66 73.29 74.89 74.40 74.16 73.18 72.43 72.94 69.62 65.84 64.99 64.50 64.26 63.97 63.99 64.01 63.99 63.95
75.36 74.92 75.18 75.67 75.91 76.04 76.15 76.23 76.34 76.18 76.35 76.35 77.08 76.95 76.62 76.53 76.20 75.86 75.97 75.06 74.82 74.13 72.81 70.46 70.44 71.97 72.21 72.39 72.96 74.20 73.20 73.97 72.85 69.77 65.77 64.30 63.95 63.84 63.16 62.20 61.69 61.08 60.25
75.34 75.20 75.43 75.63 76.21 76.17 76.31 76.37 76.27 76.34 76.54 76.51 77.10 77.47 77.41 76.96 76.81 76.89 76.40 76.43 76.12 75.18 75.13 73.25 72.40 72.43 72.79 74.37 72.33 70.64 70.63 72.47 71.85 72.41 70.41 68.08 67.24 65.33 63.84 62.02 61.58 61.08 58.89
75.97 75.95 75.50 75.40 75.74 75.51 75.16 75.82 76.24 76.21 76.22 76.46 76.85 77.13 77.47 76.33 72.52 73.83 76.38 77.62 77.08 75.16 73.95 72.87 72.10 72.23 72.12 72.34 72.30 72.64 71.62 72.48 73.59 73.51 72.11 72.57 72.30 71.34 70.32 64.14 66.05 63.79 60.84
75.80 76.38 75.58 75.39 75.18 74.61 68.44 67.39 73.85 75.86 76.65 76.43 76.14 76.88 77.44 73.84 73.18 68.40 67.73 68.51 73.75 76.73 75.09 73.89 73.35 73.10 75.75 74.71 74.59 73.73 73.17 71.86 71.25 75.93 73.19 70.99 72.61 71.53 72.04 72.30 67.90 64.36 61.60
75.56 75.61 75.22 75.36 75.72 76.22 65.58 65.30 68.03 75.48 76.29 76.66 76.95 76.71 76.18 75.97 73.98 76.63 70.82 66.77 67.17 66.03 68.47 76.07 75.71 75.95 76.12 77.09 77.27 75.27 75.45 74.20 73.18 74.27 74.00 71.55 73.37 72.07 72.45 72.88 64.92 63.45 62.18
75.98 75.34 75.31 76.03 76.04 76.04 65.34 63.71 65.68 74.31 76.55 77.24 77.52 77.41 77.51 77.58 77.32 76.32 76.77 76.57 76.88 77.35 75.58 73.59 74.74 76.28 77.56 78.51 78.21 77.43 77.03 74.93 73.54 74.08 74.49 69.80 73.12 73.19 74.42 74.10 65.90 63.16 61.92
74.55 75.25 75.64 76.09 76.00 76.41 63.51 62.88 65.77 74.58 75.05 76.61 77.24 77.47 77.69 77.57 71.33 65.29 75.74 75.94 76.92 77.41 71.67 66.03 67.10 66.79 64.99 63.53 67.57 73.75 71.44 70.73 68.80 70.35 73.92 72.03 72.31 71.94 73.01 73.90 73.42 62.92 61.62
74.96 74.43 74.45 76.08 72.32 76.42 65.02 61.10 64.83 73.98 74.65 74.15 76.76 77.61 67.53 72.89 65.21 62.16 74.94 75.44 75.64 75.84 76.43 77.38 77.88 71.10 66.64 71.49 64.14 68.08 70.90 68.88 70.40 70.15 75.38 72.49 72.21 72.04 68.46 71.83 72.59 72.37 69.70

GFSMA_sfc_wetblb_057.txt.gz
Wetbulb
74.92 75.93 76.93 73.95 74.27 74.75 74.55 74.14 76.41 76.18 74.75 74.92 74.83 74.94 73.27 73.81 73.41 74.22 73.54 74.41 74.02 74.65 75.33 75.43 74.37 74.45 73.99 73.41 73.03 73.22 73.05 73.02 73.27 73.35 73.31 72.94 72.72 72.55 73.00 72.89 73.04 73.08 72.95
76.42 76.49 76.89 74.93 76.94 76.46 76.36 76.27 76.91 75.19 75.29 74.02 74.88 74.84 73.54 73.98 75.11 74.60 73.69 74.63 74.37 73.42 73.14 73.31 73.03 72.87 72.90 73.09 72.51 72.68 72.18 72.53 72.41 71.96 71.74 72.08 72.96 73.55 73.30 73.30 73.50 73.43 73.10
77.83 77.28 75.87 75.13 76.49 77.00 77.45 75.92 74.62 73.99 72.29 73.89 74.20 75.32 73.81 75.24 74.42 75.06 74.57 74.77 75.05 74.61 74.05 73.61 73.12 72.70 72.76 72.76 72.76 72.73 72.64 72.44 71.93 72.04 72.91 73.73 73.35 73.09 73.33 73.21 73.26 73.22 72.91
78.29 78.21 76.61 75.62 75.95 77.02 75.30 72.35 74.28 74.33 72.21 74.10 72.71 73.73 73.73 73.99 74.37 74.61 74.34 75.19 74.78 75.46 74.63 74.83 74.71 74.30 73.89 73.89 73.86 73.83 74.09 73.49 73.69 73.62 73.78 73.54 73.84 73.48 73.13 72.85 72.64 72.53 72.45
77.83 77.65 76.88 76.66 77.53 76.00 74.09 75.18 76.06 73.83 71.52 72.20 71.82 73.22 74.41 72.88 74.43 72.44 73.57 74.95 74.38 73.96 75.05 75.54 75.30 74.60 74.32 74.16 74.11 74.07 73.65 73.86 73.86 73.82 73.54 73.28 73.48 73.05 72.38 72.08 72.35 72.66 71.84
77.36 77.80 76.77 76.90 77.41 76.02 74.17 75.49 74.73 74.97 73.24 71.58 70.40 71.58 73.53 73.04 73.12 73.11 72.27 72.83 73.06 73.82 74.67 75.52 74.62 73.88 75.24 74.38 74.33 74.54 74.42 74.03 73.58 73.39 73.17 72.44 72.35 72.38 72.43 72.31 71.69 70.30 67.98
77.83 78.21 76.68 76.87 76.91 76.33 72.24 75.97 73.24 74.00 71.46 72.15 70.16 70.25 71.11 71.96 72.32 72.52 72.55 72.63 72.73 73.17 73.03 73.64 74.57 75.48 74.71 75.50 73.93 73.74 73.50 73.33 73.21 72.93 72.44 72.07 72.28 72.09 71.82 71.09 68.93 67.73 67.60
78.44 77.57 76.78 76.86 77.11 76.38 76.75 75.96 76.07 71.54 72.49 72.77 70.49 70.53 67.57 69.00 70.78 71.87 72.10 71.83 72.57 73.45 72.99 73.15 73.45 73.88 73.60 74.61 75.71 73.59 72.95 72.54 73.53 72.93 71.90 71.37 71.34 70.59 69.48 68.15 67.84 67.73 67.80
78.14 78.78 77.84 77.97 77.52 77.55 75.07 76.37 75.96 77.78 71.94 71.73 74.30 71.91 67.35 64.63 69.04 70.58 71.71 72.47 73.33 73.39 73.58 73.87 73.54 73.62 74.18 74.41 73.02 73.40 73.47 73.18 73.44 72.46 71.29 70.26 69.71 67.98 67.11 67.31 67.65 67.96 68.07
78.21 78.26 78.41 77.90 78.70 77.35 78.36 76.97 76.44 76.57 76.21 71.62 71.32 71.47 75.02 72.16 68.11 67.79 70.71 71.62 72.64 72.45 73.60 73.52 73.86 73.68 74.43 74.21 73.33 73.93 73.29 74.25 73.87 72.51 70.90 69.38 68.43 68.11 67.84 67.98 68.05 68.28 68.25
78.65 77.90 78.83 78.19 78.16 76.63 77.75 76.79 77.18 77.75 75.13 74.40 71.28 70.90 73.23 70.61 73.77 70.27 67.81 69.13 71.52 72.23 72.83 73.71 73.07 73.82 75.08 74.50 74.36 74.06 72.77 72.86 73.43 74.08 72.82 71.29 69.76 68.78 68.86 68.89 69.08 68.98 69.16
77.31 78.68 78.48 79.59 78.73 78.16 77.68 77.71 78.15 77.47 78.25 76.72 74.94 73.88 71.04 70.61 69.55 68.99 67.79 69.98 68.81 71.10 72.20 72.70 73.08 73.11 73.69 74.67 75.47 72.96 72.20 71.99 72.09 72.48 72.56 72.13 71.72 70.96 70.03 70.06 70.03 70.16 70.12
74.59 79.17 80.24 79.44 78.38 79.07 78.50 78.30 78.59 78.06 77.66 75.87 76.83 72.63 72.83 72.20 72.30 71.43 70.06 69.27 69.41 71.53 71.71 72.88 73.23 73.83 73.44 74.13 74.54 74.52 72.76 70.81 70.51 70.20 70.42 70.72 71.08 71.62 71.74 71.89 72.11 71.62 71.30
74.96 80.75 78.80 78.49 78.89 78.86 78.54 79.29 77.39 77.00 79.25 76.69 76.99 77.66 73.37 72.51 72.49 72.19 71.38 70.51 69.05 70.26 72.12 73.59 73.82 74.25 74.58 74.83 75.97 73.21 73.97 69.58 69.14 68.61 68.50 68.92 69.05 69.87 70.52 71.23 71.54 72.03 72.36
75.74 76.62 78.52 78.35 78.39 78.33 79.11 79.96 76.69 78.69 78.54 77.99 78.01 77.89 75.73 73.80 73.99 73.26 72.88 72.24 70.31 67.85 69.18 73.77 70.61 76.31 74.26 74.23 75.57 76.07 77.11 71.96 69.17 68.02 67.03 67.17 67.50 67.87 68.66 69.42 69.82 70.18 70.83
79.36 77.83 77.93 77.62 78.09 78.89 79.12 80.53 78.70 79.05 79.27 77.51 75.99 79.16 78.53 75.40 75.73 74.52 73.69 73.36 72.61 70.55 68.06 71.25 71.96 75.52 75.93 74.42 75.52 75.83 75.63 72.50 69.45 68.31 67.36 66.33 66.42 66.98 66.99 67.33 67.82 68.32 68.75
80.14 79.56 79.12 78.22 77.87 77.97 78.89 80.34 80.00 79.15 77.90 78.92 78.70 78.09 79.05 80.26 76.32 75.05 74.48 73.80 73.05 72.48 69.96 71.42 72.60 76.40 79.57 78.88 78.06 78.02 76.55 77.39 75.59 68.09 67.54 66.82 66.11 66.23 66.40 66.21 66.17 66.30 66.83
79.59 80.26 79.52 79.03 77.96 77.51 79.11 79.54 77.63 77.64 77.64 77.58 78.16 78.98 77.22 76.69 79.59 79.69 76.37 79.51 76.03 77.37 72.58 74.69 74.63 74.21 77.17 78.60 78.83 78.96 76.11 76.17 76.55 72.54 66.91 66.41 65.70 65.26 65.17 64.93 64.39 64.16 63.94
80.04 78.03 79.48 79.42 78.75 77.84 79.10 79.56 79.50 78.64 78.25 78.31 78.31 78.57 78.32 78.85 79.31 77.23 78.97 75.92 75.02 76.07 75.89 74.20 74.05 75.62 76.03 76.39 77.28 79.02 78.97 78.38 77.35 73.13 69.17 66.21 65.28 65.10 64.42 63.74 63.10 62.02 60.95
79.79 79.59 79.89 79.74 79.40 78.66 78.38 78.28 78.76 78.90 78.83 78.06 78.83 78.99 78.92 79.12 79.65 80.07 78.61 79.88 78.53 77.39 76.16 74.76 74.55 75.02 75.80 78.39 76.81 75.01 75.42 76.96 76.83 76.95 74.76 71.48 70.43 67.24 65.30 63.21 62.82 62.53 60.08
79.69 80.02 80.11 80.11 79.95 78.37 76.97 78.31 78.86 78.88 79.08 78.37 78.92 79.27 79.05 78.09 73.44 76.10 77.74 79.17 79.21 77.78 75.63 75.26 74.48 74.31 74.02 74.29 75.30 75.91 75.23 76.86 78.69 78.01 77.29 78.21 78.47 79.15 78.09 65.75 67.23 65.08 62.28
79.85 80.00 79.66 79.75 79.54 77.08 69.92 68.04 75.09 77.86 78.91 78.72 78.74 79.23 79.81 74.88 74.51 69.31 68.53 68.95 72.95 77.91 78.68 75.67 74.52 73.91 76.52 76.63 76.81 76.04 76.29 75.05 74.52 78.55 78.92 78.76 80.05 78.86 79.40 79.66 71.42 65.33 62.64
79.91 79.85 79.69 79.89 79.53 79.92 66.41 65.77 68.03 77.10 78.15 78.49 79.08 79.29 78.47 76.37 75.80 79.47 71.45 68.55 69.15 67.49 68.45 76.37 75.90 76.18 76.55 78.24 79.02 78.35 76.30 76.71 77.21 78.64 77.80 76.49 78.41 77.53 79.29 78.39 69.53 66.85 62.69
79.34 79.57 79.68 80.04 80.03 79.87 66.47 63.23 66.19 76.87 76.98 78.09 79.43 79.53 79.56 79.42 79.46 78.69 79.60 78.86 78.40 78.76 78.11 75.85 76.46 77.38 78.98 79.61 79.58 78.87 78.32 78.17 78.70 78.76 78.75 75.01 78.19 77.58 79.88 80.02 69.63 67.05 64.71
79.51 79.55 80.00 80.16 80.11 80.01 64.93 62.80 66.11 76.33 76.06 77.59 78.39 78.68 79.36 79.89 73.03 66.55 77.97 77.65 78.49 79.02 72.59 64.77 66.69 67.47 66.27 65.15 68.77 74.07 74.21 75.40 74.96 75.69 78.28 77.05 77.42 76.87 76.63 76.22 76.97 67.94 64.60
79.59 78.79 79.23 80.47 76.19 80.61 66.00 61.56 66.10 76.14 76.14 75.49 78.13 78.94 68.47 74.10 66.97 62.97 77.43 77.83 77.16 78.08 78.51 78.15 78.48 74.94 68.05 72.41 64.31 73.06 77.27 74.41 74.80 74.64 78.21 75.76 75.52 74.59 72.07 75.77 76.54 77.45 75.95

GFSMA_sfc_wetblb_060.txt.gz
Wetbulb
73.36 73.42 74.12 73.13 73.22 74.93 73.14 72.96 73.40 74.70 72.06 73.54 74.21 73.33 72.73 73.46 71.54 71.91 73.30 76.28 76.39 76.23 75.59 74.59 74.47 74.30 74.14 73.22 73.11 73.06 72.89 72.93 73.19 73.06 72.35 71.92 72.32 73.29 73.41 73.15 73.38 73.50 73.41
74.86 74.87 74.09 73.97 71.94 73.61 75.98 75.67 73.55 74.13 71.27 73.37 71.78 73.72 72.26 73.73 73.03 72.15 72.20 73.52 75.40 75.70 75.77 74.29 73.69 73.36 73.08 72.73 72.51 73.13 72.04 71.91 72.01 71.88 71.85 72.91 73.73 73.46 73.41 73.51 73.50 73.56 73.47
76.58 77.90 74.43 77.32 76.95 71.59 77.24 74.46 75.50 74.28 73.22 73.17 73.36 72.72 74.93 74.42 73.46 74.04 72.29 72.94 73.68 75.15 74.98 74.47 73.95 73.41 73.19 72.67 72.48 72.59 72.66 72.86 72.48 72.54 73.40 73.86 73.56 73.64 73.54 73.52 73.26 72.89 72.78
78.59 74.26 73.47 71.67 74.98 77.66 71.48 71.18 74.13 71.87 72.54 71.11 72.18 70.60 71.95 73.83 73.99 74.28 74.73 73.91 73.92 73.42 74.93 75.22 74.99 74.41 73.57 74.03 73.91 74.10 74.08 74.18 73.97 73.93 73.85 73.66 73.46 73.80 73.27 72.91 72.60 72.64 72.62
79.57 73.52 71.54 73.28 78.35 73.54 75.80 72.78 74.99 74.24 68.97 72.39 70.28 71.05 72.43 73.20 71.57 73.13 74.23 75.10 75.10 73.01 73.54 75.65 75.82 75.71 74.57 74.40 74.32 74.39 74.08 74.08 74.82 74.45 73.90 73.49 73.40 73.03 72.41 72.16 72.49 71.98 70.11
79.04 77.94 77.02 78.64 79.08 72.75 74.56 75.98 71.98 73.92 72.64 70.10 69.99 70.16 70.06 73.04 72.49 73.22 72.20 73.70 74.07 74.52 74.34 73.31 74.19 73.90 75.46 75.26 75.13 74.99 74.78 74.34 74.11 73.66 73.09 72.50 72.18 72.18 72.37 72.13 71.18 69.24 68.28
79.36 79.82 78.61 77.66 76.24 71.17 74.21 75.89 75.23 72.21 71.49 72.35 70.31 71.41 71.16 71.76 71.40 72.88 72.36 72.05 72.17 73.66 73.91 74.60 73.59 73.94 72.88 75.90 75.24 75.19 74.75 73.71 74.04 72.87 72.45 71.95 72.09 72.03 71.83 71.39 70.25 68.97 67.90
79.14 79.09 78.73 78.47 74.90 74.06 75.78 75.83 71.32 71.36 74.21 73.08 71.09 69.05 66.63 68.30 71.16 68.52 72.48 72.12 72.33 72.14 72.12 73.00 73.46 73.80 74.22 72.89 73.57 74.91 74.23 74.35 73.31 73.12 72.41 71.59 71.51 71.37 70.91 70.07 69.24 69.12 69.01
78.61 79.73 79.26 79.25 78.53 77.45 76.53 76.15 73.74 75.39 72.84 71.42 73.58 70.74 67.01 63.05 67.90 70.88 70.68 71.95 72.23 70.58 72.81 73.08 73.06 72.99 72.87 73.93 74.83 73.88 73.77 72.97 74.26 73.23 72.19 71.48 71.63 70.68 69.65 69.25 69.42 69.33 69.63
78.80 78.95 79.43 79.76 79.52 74.58 77.83 77.24 77.08 75.99 70.40 72.10 73.18 72.90 72.43 70.78 66.56 65.17 71.27 71.67 72.04 72.01 72.60 73.74 72.34 72.72 73.55 73.52 74.26 73.59 73.01 72.35 74.36 73.95 72.76 71.60 71.44 70.52 69.88 69.96 70.04 69.91 69.99
79.64 78.52 78.72 79.56 78.08 78.19 78.49 78.13 77.28 77.32 76.61 72.14 73.13 71.81 72.49 72.17 72.66 68.37 65.94 69.11 71.30 72.42 73.22 72.93 72.99 72.62 73.43 73.21 72.74 72.31 72.12 72.45 73.46 74.07 73.53 72.64 71.70 69.62 69.30 69.37 70.29 70.51 70.44
78.25 79.45 78.56 79.29 79.91 78.28 77.40 78.30 78.82 78.26 77.83 77.27 74.21 74.51 71.16 69.92 70.19 69.79 68.23 68.68 69.14 70.56 72.25 73.07 72.29 72.32 73.74 73.66 75.37 74.24 72.27 71.73 72.02 72.25 72.74 72.67 72.38 71.97 70.54 70.30 70.43 70.42 70.18
75.65 77.65 79.18 78.59 78.40 79.90 79.39 78.58 78.75 78.65 78.79 77.72 77.19 75.47 72.52 69.83 69.81 72.67 70.10 70.64 68.78 71.06 71.11 72.16 73.29 73.50 73.56 74.07 73.97 72.97 72.37 70.84 70.45 70.05 70.29 71.16 71.56 71.66 72.11 72.19 72.42 72.26 71.83
75.21 77.63 78.72 78.11 78.79 78.98 78.87 78.81 78.48 78.05 77.90 77.76 77.52 77.60 75.64 74.42 73.24 72.86 72.04 70.77 68.62 70.47 72.51 71.65 73.93 74.09 74.06 73.94 75.98 73.17 71.93 69.67 69.00 68.51 68.49 68.94 69.42 69.84 70.60 71.12 71.21 71.68 72.26
77.39 77.74 78.33 79.03 78.55 78.93 78.79 78.44 76.90 77.04 77.48 78.24 77.39 78.10 77.08 75.08 74.02 73.46 73.82 73.06 71.35 67.28 68.21 72.75 72.01 75.13 73.89 74.64 75.60 73.13 73.31 71.01 68.38 67.67 66.88 66.89 67.37 68.23 68.62 68.83 69.48 69.68 70.15
77.72 77.77 78.33 78.11 78.44 79.08 79.41 78.94 77.54 77.96 77.33 76.53 77.17 76.77 77.25 75.53 75.40 75.79 74.57 74.46 73.69 71.07 68.21 71.47 73.06 74.74 74.48 73.50 75.50 75.46 75.24 73.18 69.63 67.96 66.75 65.83 66.28 66.89 67.35 67.54 67.55 67.74 68.36
80.36 78.92 79.79 78.58 78.02 77.99 79.21 78.77 77.81 78.24 77.30 77.22 78.25 78.14 76.95 77.29 76.87 76.75 76.41 74.48 73.45 73.71 70.40 71.36 74.28 74.21 76.07 76.01 75.60 75.76 76.43 75.42 74.66 68.29 67.29 66.66 65.88 66.02 66.43 66.70 66.56 66.38 66.63
77.74 79.44 78.60 79.70 77.99 77.91 78.17 77.93 77.40 75.76 77.04 76.86 77.61 77.28 77.61 77.49 78.18 77.89 76.71 76.18 76.37 76.94 74.15 71.68 73.38 72.70 73.26 74.34 76.03 76.69 76.73 75.63 74.42 72.97 67.76 66.16 65.65 65.47 65.24 65.22 65.08 64.90 64.50
78.37 77.62 78.72 77.62 78.02 77.46 77.24 77.57 77.89 77.05 77.01 77.57 77.43 77.47 76.94 77.56 77.31 77.49 77.54 75.71 74.81 75.30 74.53 73.07 72.29 75.28 75.44 75.77 74.50 76.11 76.79 76.12 76.32 73.50 69.60 67.38 65.90 65.23 64.44 63.66 63.35 62.54 61.35
76.51 77.26 77.63 78.14 77.99 77.40 76.91 76.93 77.93 77.59 77.18 76.93 77.78 77.17 77.85 77.81 77.35 77.93 77.19 76.76 76.84 76.28 75.35 74.69 73.32 73.10 73.92 75.18 76.20 74.18 73.44 74.76 73.61 76.90 74.60 71.67 70.24 67.78 65.57 63.50 63.04 62.57 59.80
76.96 77.51 77.50 78.02 78.04 77.74 77.10 76.18 76.82 77.37 77.29 77.03 77.01 77.70 77.63 77.10 73.75 75.11 77.12 77.36 77.07 76.47 75.39 74.69 74.00 74.08 72.97 72.97 72.74 73.78 73.82 74.83 75.13 75.89 75.45 76.85 77.77 77.58 77.14 69.22 67.54 65.72 62.73
76.67 77.29 77.48 77.44 77.64 77.75 70.98 68.84 74.21 75.96 77.47 76.92 76.35 77.01 78.25 73.61 73.18 69.49 68.40 69.04 73.23 76.09 74.83 75.06 74.83 73.64 73.31 73.91 74.83 73.85 73.71 72.97 71.38 76.23 77.30 75.83 77.41 76.96 77.51 77.73 72.41 66.95 64.11
77.00 76.89 77.08 77.55 77.41 77.90 67.57 66.30 68.98 75.90 75.85 76.61 76.81 76.80 77.07 76.79 73.76 77.24 70.74 67.60 68.01 67.34 68.79 74.19 73.31 73.39 73.31 73.99 74.84 75.06 74.73 74.41 74.01 75.61 75.80 74.96 77.00 76.45 77.52 78.10 67.54 66.41 64.81
76.63 76.87 77.00 77.34 77.64 77.91 68.01 63.88 66.41 74.41 75.52 76.37 76.51 76.77 77.12 76.62 76.41 76.96 76.95 76.67 75.90 75.71 74.66 72.88 73.04 74.36 75.30 76.30 76.84 76.65 76.09 76.01 75.04 75.87 77.25 73.64 75.97 75.60 77.19 76.01 68.89 67.79 64.58
76.81 76.85 77.36 77.42 77.42 77.66 65.95 64.74 64.94 72.77 74.02 74.66 75.40 76.53 77.57 77.11 71.66 67.50 74.58 74.83 75.56 76.59 72.10 67.20 68.45 68.22 67.86 66.64 69.78 74.39 73.04 71.13 71.71 74.60 77.07 74.73 74.93 74.66 74.10 73.39 74.64 67.80 63.77
76.84 77.26 77.16 77.68 74.46 77.70 66.49 62.93 64.98 74.61 73.44 74.10 75.14 75.82 67.47 72.14 66.61 62.56 73.89 75.48 74.34 74.84 75.78 76.31 76.92 73.09 65.09 69.34 63.35 67.82 72.34 72.75 74.52 73.47 76.86 73.67 73.68 72.50 70.08 73.69 71.61 72.11 72.50

GFSMA_sfc_wetblb_063.txt.gz
Wetbulb
70.22 71.25 72.49 71.44 71.29 72.34 71.84 70.43 71.39 71.40 69.98 70.58 71.45 71.38 70.25 70.49 71.49 72.56 72.52 76.38 76.46 75.88 75.23 75.22 74.54 74.76 74.14 73.34 72.91 72.72 72.55 73.01 73.13 72.95 72.08 72.02 73.12 73.51 73.51 73.39 73.34 73.70 73.44
70.91 71.55 71.75 72.17 71.35 70.64 71.60 70.23 71.20 72.46 70.88 70.72 69.93 71.26 69.62 69.74 70.51 71.25 72.07 73.80 76.52 76.33 75.37 74.28 74.46 73.91 73.27 72.81 73.34 73.45 71.88 71.52 71.36 71.52 71.75 72.97 73.60 73.29 73.14 73.47 73.30 73.06 72.95
70.60 72.55 72.61 71.54 71.37 72.52 73.57 70.32 72.31 70.50 69.83 70.55 70.21 70.38 71.22 70.19 70.05 70.68 70.68 71.06 73.11 76.14 75.55 74.46 74.58 74.30 73.33 73.11 72.62 72.27 72.25 72.83 72.85 73.11 73.46 73.95 73.57 73.43 73.33 73.00 72.86 72.48 72.34
72.64 72.06 70.22 71.79 71.76 72.41 70.42 68.56 71.17 69.56 70.58 69.33 69.59 70.52 70.62 71.16 71.28 70.71 70.80 71.18 71.28 71.48 74.72 75.41 75.25 74.89 73.75 73.82 74.35 74.19 74.06 75.00 74.29 74.07 74.03 73.55 73.29 73.38 73.03 72.34 72.13 72.26 71.37
73.05 70.75 68.96 70.74 73.12 70.12 69.85 70.92 69.31 70.38 67.09 67.61 68.48 68.44 68.59 70.64 71.61 71.65 71.67 71.92 71.15 71.35 71.27 74.81 75.29 75.09 74.02 74.46 74.25 74.21 74.21 74.78 74.78 74.76 74.59 74.16 73.29 72.77 72.20 72.16 71.97 71.23 68.37
73.66 72.40 71.46 69.34 71.95 70.42 70.43 71.89 67.56 68.97 68.68 68.44 69.80 68.98 68.20 68.96 69.33 69.66 70.73 73.12 72.15 71.26 71.25 71.64 73.25 73.86 75.62 75.24 75.49 75.55 74.99 75.30 75.07 74.50 74.06 73.18 72.60 72.23 72.16 72.11 71.18 69.28 67.79
75.05 72.74 73.06 72.86 72.08 69.07 69.07 71.94 69.70 69.29 67.47 68.59 66.53 67.61 67.26 68.14 69.02 68.81 68.86 69.90 71.15 71.87 71.64 70.61 71.80 71.32 72.18 75.45 75.44 75.48 74.65 74.22 74.19 73.82 72.99 72.61 72.21 72.31 72.40 71.88 70.83 68.95 68.54
74.79 73.94 72.06 72.94 72.43 70.26 70.16 69.61 69.45 66.85 69.70 67.45 66.12 65.64 63.35 63.44 66.91 66.50 68.20 68.28 67.93 71.56 71.91 72.13 71.62 71.05 70.07 71.04 72.74 75.22 75.24 74.63 73.61 73.30 73.00 72.53 72.21 72.04 71.89 71.25 69.51 69.32 69.44
74.77 75.05 73.63 73.17 71.13 72.54 71.52 70.49 70.85 71.11 67.66 68.18 66.78 67.08 63.50 61.08 64.78 66.77 65.09 66.66 66.45 68.32 68.39 69.27 71.76 70.67 70.93 70.43 72.68 74.08 74.47 72.73 74.19 73.54 72.99 72.36 72.36 72.29 71.35 70.69 69.58 69.58 69.70
74.70 75.07 74.83 73.90 72.81 71.08 72.20 71.20 72.59 70.75 67.88 66.09 68.16 67.63 67.46 65.99 63.44 60.65 65.77 67.30 66.99 68.19 68.10 68.55 69.21 68.92 69.36 70.75 73.85 72.90 73.16 72.26 72.93 74.48 73.51 72.94 72.57 71.71 70.66 70.39 69.92 69.95 70.00
74.88 74.87 74.50 74.60 73.53 71.94 72.35 72.31 71.42 72.56 71.80 70.48 68.16 66.47 66.48 65.33 67.42 63.47 61.09 64.96 66.62 67.00 68.02 68.80 68.68 68.89 69.30 70.04 69.12 71.13 72.58 71.89 71.77 73.92 74.30 74.09 73.28 71.22 70.19 70.02 70.50 70.45 70.21
74.42 75.70 74.75 74.45 73.69 73.59 72.86 72.74 73.44 71.92 71.25 72.27 71.47 70.07 65.20 64.39 64.68 64.61 63.79 63.67 63.56 65.68 68.17 68.69 67.97 69.36 69.81 69.40 72.31 72.96 73.38 71.42 71.12 72.05 72.45 72.98 73.40 72.99 71.25 70.77 70.52 70.51 70.21
73.16 74.06 74.20 74.58 74.31 73.37 74.03 73.84 72.78 73.59 72.53 72.32 71.50 70.54 70.23 69.30 66.11 68.82 65.46 64.73 63.65 65.25 65.41 67.61 69.02 67.79 70.64 70.20 70.74 73.11 73.25 70.45 70.01 69.60 69.80 70.81 71.66 72.34 72.43 72.62 72.70 72.77 72.46
73.53 73.66 74.69 74.35 74.20 75.04 74.07 74.17 73.28 73.66 72.64 73.56 71.53 72.19 71.13 71.07 69.78 66.40 65.72 64.68 62.81 64.48 67.00 65.60 68.97 68.91 68.73 69.86 72.04 73.02 70.19 69.21 68.49 67.90 67.81 68.65 69.19 70.12 70.58 71.13 71.45 71.56 72.19
73.47 74.20 75.71 74.61 74.62 74.74 74.49 73.91 72.97 73.70 73.30 73.17 72.34 72.23 72.15 71.21 70.34 69.77 67.11 66.99 65.25 61.62 62.66 67.46 68.32 69.85 69.62 70.12 71.35 71.12 69.34 69.79 68.31 67.69 66.59 66.59 67.06 67.99 68.72 69.24 69.32 69.54 69.79
73.13 74.15 75.64 74.76 75.32 74.75 74.05 73.82 72.14 73.39 72.86 71.96 72.11 72.62 71.61 71.32 70.40 72.31 69.27 68.70 68.15 65.27 62.65 66.49 67.45 69.18 71.45 71.80 72.43 71.67 70.49 71.14 69.85 67.70 66.66 65.89 66.13 66.75 67.22 67.66 67.73 67.77 68.06
73.60 75.34 74.99 75.02 75.07 74.77 74.81 74.51 72.71 73.64 72.77 72.34 72.77 72.68 72.27 72.43 70.80 72.04 73.69 71.82 68.31 67.97 65.02 66.21 69.19 69.94 69.67 70.16 70.91 71.63 71.90 71.67 71.41 68.57 67.45 66.54 65.92 66.00 66.45 66.57 66.68 66.81 66.86
72.51 74.82 75.41 75.25 74.40 73.87 74.79 74.18 73.28 73.15 73.18 72.84 73.07 72.68 73.21 74.38 72.39 72.25 72.76 71.76 71.48 71.64 69.39 66.25 68.12 68.34 68.93 70.56 70.63 70.87 73.20 75.21 73.13 72.07 68.91 67.35 65.88 65.25 64.77 64.81 64.70 64.59 64.42
71.41 74.72 74.57 74.69 74.54 74.50 73.90 74.23 74.31 73.74 72.87 73.34 73.50 73.68 72.72 73.08 72.68 73.87 73.06 72.10 71.44 71.54 71.27 69.40 68.66 70.72 71.92 72.31 71.69 71.30 72.28 73.50 74.82 72.81 68.96 67.80 66.85 65.79 64.80 63.45 62.43 61.78 60.56
74.64 72.96 74.90 74.34 74.64 73.88 73.78 73.95 74.30 74.40 73.78 73.47 74.79 74.17 74.27 73.69 73.16 73.10 73.59 73.03 72.91 72.35 71.71 70.88 70.68 70.13 70.40 72.05 71.77 71.16 69.89 70.62 71.56 75.44 73.42 71.43 69.98 70.14 68.51 64.68 63.32 62.96 60.08
72.68 74.55 73.73 74.82 74.73 74.97 74.72 73.25 74.05 74.67 74.32 73.69 73.47 74.27 74.12 74.15 72.95 73.03 74.82 74.00 73.83 72.82 72.38 71.81 71.09 70.88 70.49 69.92 69.82 71.05 70.36 70.83 71.41 72.07 72.14 73.13 75.43 75.85 75.97 72.24 71.06 67.93 63.93
73.89 72.82 73.55 73.92 74.66 75.60 70.61 69.17 72.32 73.97 74.90 74.36 73.82 73.63 74.50 72.95 72.13 69.42 68.73 69.94 73.56 73.57 72.61 71.93 71.05 70.55 70.18 70.23 70.92 70.57 70.56 69.72 68.89 72.96 73.48 74.07 75.01 75.46 76.22 75.87 69.58 66.26 64.00
71.92 73.82 73.74 74.08 74.22 75.27 67.91 67.14 69.00 73.36 72.92 74.50 74.39 74.22 74.17 75.56 72.25 73.85 69.59 67.24 67.21 66.64 68.37 72.15 70.41 70.70 70.47 72.01 71.33 71.04 71.44 71.89 71.81 73.82 72.66 72.26 74.96 73.67 75.16 76.13 68.87 65.62 63.76
71.55 71.99 73.37 74.35 74.66 75.11 67.42 65.34 67.31 72.47 73.13 73.41 74.75 74.54 74.24 74.11 72.93 72.59 73.01 73.37 72.57 71.64 70.47 70.02 69.93 72.06 72.72 73.52 72.89 73.21 72.83 72.89 73.98 73.83 71.98 71.87 74.07 73.04 74.25 74.23 67.66 65.23 61.52
73.52 73.02 74.06 74.28 74.50 75.05 65.57 64.42 64.72 69.90 72.09 72.74 73.52 73.90 74.42 74.42 70.13 66.65 71.72 72.35 73.16 74.06 71.33 66.10 66.41 66.36 66.05 65.33 68.41 71.13 71.51 71.27 70.63 70.22 73.84 72.87 72.35 72.17 71.61 70.61 69.55 64.97 61.66
73.56 74.46 73.83 74.77 72.39 74.94 65.95 63.30 64.09 71.85 69.66 71.32 72.26 72.65 66.97 72.26 66.87 64.57 71.32 72.16 70.54 71.01 71.23 71.87 71.78 67.98 65.15 68.01 64.36 68.61 72.04 69.59 69.06 71.99 73.75 71.78 71.09 69.94 68.10 69.91 68.28 66.59 65.51

GFSMA_sfc_wetblb_066.txt.gz
Wetbulb
69.19 71.15 71.21 70.78 70.70 71.42 70.45 68.58 69.61 70.55 70.53 69.90 70.76 70.76 71.58 71.23 71.78 72.64 72.49 75.28 75.83 75.71 74.84 74.70 74.37 74.25 73.69 73.37 72.81 72.14 72.32 72.76 72.39 72.37 71.45 72.11 73.28 73.01 72.88 73.23 73.03 73.49 73.05
70.05 71.07 70.34 70.36 70.41 70.45 70.82 69.85 70.38 70.88 70.24 69.95 68.86 69.38 69.24 70.83 71.66 71.87 72.05 73.14 76.24 76.13 75.03 74.53 74.12 74.13 73.55 72.72 73.56 73.21 72.06 71.59 71.32 71.51 71.73 73.03 73.54 73.36 73.26 73.26 72.99 72.75 72.73
70.89 71.91 69.60 70.08 69.93 70.18 70.98 69.12 70.44 70.96 69.35 69.39 70.17 68.40 68.13 68.50 70.17 71.24 71.52 71.97 74.23 75.76 75.37 74.23 74.11 73.86 73.21 73.16 72.56 72.05 72.01 72.61 73.14 73.50 73.63 73.51 73.54 73.29 73.47 72.80 72.43 72.34 72.01
71.22 71.17 70.42 70.75 71.22 71.59 70.20 68.44 69.87 68.22 68.33 68.72 69.00 69.13 68.73 68.70 68.30 69.44 69.97 70.25 70.85 72.58 75.27 75.40 75.03 74.23 73.50 73.30 73.43 74.07 74.41 74.11 74.15 73.19 73.61 73.69 73.26 73.37 73.05 72.51 72.19 71.91 69.84
73.04 69.44 69.69 70.19 71.89 70.23 68.50 68.16 68.70 69.01 67.53 67.53 67.64 67.99 68.59 69.54 68.78 70.04 69.46 69.75 69.78 70.13 70.12 74.02 75.17 75.07 73.76 73.91 74.40 74.37 74.19 74.23 74.61 74.16 74.02 73.70 73.20 72.41 72.28 71.77 71.74 70.91 67.60
71.42 70.89 68.81 69.89 69.98 68.75 69.24 70.12 66.11 67.83 67.24 66.93 68.66 67.88 67.03 68.29 69.43 68.79 69.87 71.02 70.14 70.78 70.04 70.29 72.18 72.76 75.04 74.83 75.18 74.74 74.73 74.98 74.86 74.29 73.59 72.95 72.43 72.04 72.04 71.74 71.03 69.47 67.00
73.36 71.89 71.80 71.19 70.19 68.17 69.01 69.31 68.08 68.97 66.95 66.93 65.39 65.42 65.84 67.53 67.20 68.02 69.39 69.89 70.88 71.13 70.32 70.56 70.83 71.73 71.95 75.57 75.62 75.72 74.68 74.35 74.24 73.91 73.74 72.93 71.99 72.06 72.06 71.87 71.02 69.09 68.11
73.67 72.56 71.61 71.40 70.54 67.82 70.04 68.01 66.64 66.47 67.94 65.99 64.26 63.76 60.60 61.42 64.75 66.56 67.22 68.50 68.38 71.00 70.93 70.78 70.14 70.37 69.78 70.19 71.95 75.17 75.47 74.61 73.85 73.68 73.45 73.10 72.16 72.06 71.93 71.84 70.92 69.68 69.43
74.07 72.72 72.53 71.98 70.35 69.86 69.49 68.80 68.47 68.45 65.88 66.80 65.36 66.01 60.68 58.55 62.15 64.31 64.70 65.73 66.78 68.38 70.19 70.63 71.10 70.48 70.06 69.29 70.92 73.42 74.67 73.67 74.23 73.39 73.50 73.70 72.93 72.11 71.60 71.66 70.75 69.63 69.75
73.50 74.07 73.23 72.26 71.10 70.37 70.33 69.86 72.06 68.68 66.24 64.82 66.50 66.26 65.50 63.86 59.66 59.31 63.42 65.59 65.17 67.39 67.43 67.19 69.58 70.54 69.90 70.22 71.47 72.53 73.17 72.99 72.91 73.78 74.06 74.06 73.55 72.26 71.33 71.44 70.78 69.90 69.85
73.05 73.75 73.74 72.73 71.06 70.31 70.71 70.82 70.12 70.64 69.84 68.81 66.93 66.59 64.72 64.04 64.36 61.67 59.99 63.38 65.20 65.68 66.64 66.64 67.17 67.76 67.47 69.64 69.64 71.80 73.18 72.29 72.28 72.58 73.64 74.69 74.44 72.86 71.57 71.06 71.42 71.04 70.38
72.79 73.08 73.20 73.18 71.91 71.05 71.44 71.56 71.44 70.77 70.19 70.50 69.55 68.74 65.54 63.89 62.93 63.40 61.52 62.11 62.43 63.92 66.21 66.81 66.96 67.51 67.83 67.73 71.30 72.86 72.61 72.07 71.55 70.97 71.23 72.90 73.82 74.26 73.09 72.06 71.68 71.26 70.90
72.24 73.10 72.48 72.80 71.88 71.98 72.33 72.00 72.08 72.21 70.47 70.65 70.57 68.77 68.75 67.42 64.50 65.92 63.44 63.18 62.17 64.08 64.52 66.62 67.51 67.08 68.98 68.07 68.88 73.14 73.23 71.53 70.82 69.40 69.22 70.38 71.56 72.43 73.20 73.51 72.98 72.91 72.81
73.08 73.24 73.25 73.12 73.28 72.42 72.89 72.64 71.46 71.95 71.52 71.76 71.06 70.73 69.99 68.33 68.50 65.56 63.68 62.75 61.15 62.47 64.59 65.56 67.03 67.20 66.83 68.31 70.08 72.04 71.41 69.85 69.53 68.43 67.73 68.05 68.85 69.80 70.60 71.42 71.73 71.99 72.19
72.45 72.94 73.43 72.97 73.12 73.59 72.22 72.30 71.85 71.77 72.22 71.37 71.76 70.46 70.83 70.26 68.73 68.25 66.80 64.97 62.87 60.17 60.78 64.49 66.11 68.29 68.68 67.70 69.64 69.62 70.46 69.95 69.03 68.43 67.19 66.40 66.95 67.68 68.37 69.28 69.81 69.65 70.02
71.94 72.32 74.05 73.30 72.82 73.17 72.91 72.00 71.24 71.82 71.99 71.13 71.19 70.75 70.15 70.20 69.07 69.89 70.70 66.95 66.03 63.28 61.49 64.49 65.43 67.20 70.62 70.32 71.11 70.82 70.00 69.97 69.07 67.97 67.07 66.23 66.22 66.83 67.26 67.48 67.81 68.07 68.16
71.74 71.84 73.95 73.40 73.10 73.16 72.19 72.44 70.99 70.94 71.77 71.10 70.58 70.29 71.06 70.50 70.05 69.51 71.13 71.13 69.20 66.41 63.53 65.02 66.23 68.96 68.87 68.53 69.37 69.16 70.95 70.34 71.05 68.52 67.95 67.27 66.43 66.22 66.51 66.88 66.79 66.60 67.01
71.65 72.95 73.77 73.87 73.43 73.47 73.15 72.67 71.65 72.12 72.00 71.16 70.79 70.97 71.66 73.35 71.33 70.58 70.66 70.71 69.87 69.33 67.24 66.10 65.96 67.47 68.14 70.46 70.88 71.03 72.78 74.13 73.09 72.05 68.51 66.98 66.28 65.86 65.31 64.79 64.39 64.15 63.74
70.45 73.51 73.63 73.80 73.77 73.68 73.49 73.53 73.32 72.15 71.43 72.08 72.00 71.46 71.65 71.46 71.75 71.02 71.24 71.21 70.91 70.94 69.70 68.02 68.88 69.18 70.86 70.76 70.17 70.49 70.95 71.79 73.31 72.23 69.31 67.81 67.15 66.26 65.32 64.83 63.57 61.96 59.82
69.64 72.01 73.63 73.70 73.49 73.74 73.72 73.87 73.68 72.67 72.06 71.95 72.46 72.36 72.72 72.12 71.23 71.63 71.93 71.74 71.80 70.99 70.31 69.40 68.70 69.04 69.71 71.04 70.61 70.42 69.67 69.83 71.18 73.01 72.21 70.21 69.01 70.08 68.99 67.43 67.36 66.41 62.69
70.51 70.62 72.37 73.42 73.87 73.62 73.56 72.78 73.10 72.83 72.25 72.02 72.24 72.91 73.35 73.08 71.39 70.72 72.40 71.80 71.74 71.04 70.71 70.26 69.63 69.56 70.03 70.34 69.64 70.07 69.22 69.63 70.10 71.09 71.13 72.17 74.23 74.03 74.60 71.88 72.31 66.67 61.97
70.40 70.88 71.93 72.73 72.81 74.28 69.05 68.35 71.88 72.98 72.86 72.40 71.87 72.09 72.56 71.75 71.02 68.83 68.42 69.55 72.10 72.24 71.66 70.77 71.07 71.07 70.45 69.28 69.38 68.99 68.32 67.35 67.66 71.69 71.69 73.08 73.53 73.17 74.88 74.46 66.43 62.73 61.07
68.49 70.51 71.03 72.61 73.04 73.65 66.56 66.38 68.61 72.63 73.04 73.10 72.93 72.95 72.76 74.53 71.46 72.99 68.41 66.57 66.75 67.40 69.40 72.73 71.39 70.89 69.58 70.64 69.84 68.97 69.19 68.34 69.17 72.44 72.05 72.61 71.94 72.64 73.91 74.12 63.34 61.26 60.04
69.05 68.73 71.33 71.11 72.45 73.43 66.41 64.79 66.89 72.26 71.79 72.53 73.80 73.90 73.38 73.45 72.57 72.21 72.31 72.05 71.79 71.25 69.00 68.45 69.47 71.23 71.65 72.16 71.50 71.96 71.10 70.00 71.83 73.64 73.35 69.24 72.66 72.26 73.25 70.89 62.68 61.01 59.40
71.31 69.47 70.77 72.67 71.92 72.12 64.17 63.74 65.34 71.79 72.30 71.81 72.35 72.94 73.80 73.35 68.88 64.89 71.97 71.19 71.54 72.19 69.55 64.32 65.16 64.70 63.95 63.46 66.71 69.62 70.27 69.15 69.29 70.04 70.82 71.75 71.63 70.84 70.34 69.15 66.34 60.79 58.46
72.46 72.22 71.09 71.14 70.33 73.39 64.92 62.49 64.20 72.74 72.04 71.88 71.84 72.41 66.29 71.19 65.10 62.85 70.72 71.78 70.90 71.52 70.70 70.57 70.62 66.43 63.98 67.37 63.99 68.20 71.22 69.47 69.40 68.99 72.32 72.41 70.21 69.33 67.87 68.41 63.81 61.73 60.32

GFSMA_sfc_wetblb_069.txt.gz
Wetbulb
68.84 69.88 70.64 70.84 70.25 70.95 70.04 69.23 68.96 69.76 69.65 69.91 69.71 69.28 70.03 70.33 71.09 71.90 71.94 74.68 75.72 74.75 74.17 74.13 73.76 73.64 73.55 73.11 72.77 71.81 72.07 72.52 72.16 72.12 71.69 72.18 73.40 73.30 73.23 73.35 73.25 73.09 72.92
69.38 70.42 70.05 69.82 69.91 69.53 70.72 69.25 68.89 69.48 69.89 69.69 68.76 69.78 70.12 70.44 71.31 71.77 71.89 72.24 74.98 75.32 74.70 74.63 74.06 74.28 73.27 72.45 73.32 73.16 72.39 71.86 71.32 71.79 72.16 73.33 73.71 73.23 73.43 73.23 72.84 72.45 72.35
69.73 70.24 69.56 68.93 69.06 69.22 70.11 69.52 68.95 70.16 69.99 68.93 68.23 68.38 68.81 69.80 70.79 71.29 71.51 71.61 73.04 75.28 74.92 74.07 73.98 73.77 73.34 72.79 72.76 72.51 72.09 72.57 73.47 73.90 73.73 73.58 73.51 73.16 73.34 72.74 72.20 72.00 70.37
71.11 70.90 68.75 69.33 70.17 70.24 69.87 69.26 68.24 68.71 67.88 67.33 67.09 66.66 66.86 68.02 68.96 70.07 70.35 70.69 71.38 72.77 74.63 75.50 74.99 73.94 73.20 73.22 73.22 73.57 74.25 74.25 73.94 73.69 73.47 73.63 73.53 73.34 72.67 72.20 71.85 71.55 68.07
71.49 70.94 69.49 69.82 70.31 70.13 69.49 67.06 68.40 67.22 66.89 67.08 67.46 67.82 67.46 67.40 67.10 68.81 68.84 69.08 69.38 70.10 69.63 72.60 75.53 74.96 73.63 73.75 73.94 74.36 74.35 74.40 74.43 73.88 74.01 73.58 73.24 72.27 71.83 71.48 71.38 70.43 67.27
71.83 68.64 69.32 69.94 69.80 68.33 68.09 68.19 66.34 66.83 66.65 66.67 68.01 67.55 66.80 68.05 68.89 67.90 68.12 69.32 68.98 69.27 69.21 69.23 69.68 72.02 74.51 74.19 74.91 74.86 74.43 74.66 75.12 74.60 74.08 73.34 72.55 71.90 71.80 71.60 71.09 69.94 67.29
71.09 69.54 68.75 69.57 69.02 68.05 68.83 68.09 66.49 66.69 65.57 65.59 64.80 64.40 65.10 66.10 66.82 68.15 68.29 69.02 69.94 70.21 70.05 69.70 69.17 70.18 70.89 73.89 75.41 75.26 74.84 74.23 74.16 74.45 74.66 73.78 72.47 71.85 71.85 71.84 71.40 70.11 68.05
72.36 71.49 71.05 70.97 67.95 67.67 67.92 67.04 65.63 66.63 65.97 65.46 63.23 62.30 59.85 60.46 63.16 66.33 66.75 67.85 68.61 70.08 70.32 70.28 69.81 70.00 69.77 69.57 70.72 73.86 75.28 74.87 73.80 73.94 74.55 74.31 73.21 72.50 72.29 72.27 71.77 70.70 69.76
72.86 72.23 71.27 71.28 70.16 68.09 67.67 66.12 67.00 66.68 64.11 65.57 64.59 63.70 59.63 57.59 60.86 62.71 63.71 65.21 66.49 66.79 69.03 69.93 70.19 69.99 69.21 68.69 70.74 71.66 74.46 74.27 74.00 73.54 74.29 74.55 74.11 73.16 72.40 72.39 71.81 70.86 70.01
73.04 71.82 71.99 71.00 70.22 69.60 69.33 69.26 70.29 67.37 64.91 63.76 65.27 65.36 64.37 62.53 59.28 58.51 61.67 64.07 64.79 64.83 66.23 67.86 68.97 69.87 70.15 69.44 71.32 72.29 72.50 73.01 73.91 73.89 73.81 74.55 74.71 74.19 72.74 72.50 72.37 71.23 70.33
72.70 73.45 72.39 71.23 70.46 69.60 69.65 69.62 69.79 69.15 68.53 66.67 65.70 65.95 63.58 63.13 62.86 60.26 58.81 61.46 64.35 65.16 65.69 66.53 66.80 67.17 68.46 68.44 68.88 70.19 72.50 72.89 73.09 73.49 73.56 73.77 74.59 74.82 73.35 72.60 72.78 72.55 71.63
71.96 71.89 72.98 71.83 70.79 69.85 70.07 70.04 69.81 69.86 69.52 69.48 68.14 67.58 64.53 62.30 61.75 62.67 60.52 60.76 61.62 63.64 64.59 66.06 65.86 66.50 66.99 66.89 69.56 72.53 72.97 72.71 72.43 72.37 72.18 72.44 72.79 74.20 73.89 73.87 73.09 73.30 73.42
71.23 71.77 71.67 71.85 70.91 70.51 70.58 70.98 70.90 70.28 69.43 69.68 69.32 67.60 67.73 66.07 63.52 64.21 62.40 62.33 61.77 63.31 63.99 65.09 66.25 66.22 67.44 67.17 67.57 71.35 72.37 71.67 70.88 70.11 70.12 70.50 71.21 71.88 72.89 73.79 74.37 73.95 74.22
72.31 72.19 72.04 71.80 71.75 71.17 71.49 71.09 70.96 71.20 70.98 70.31 69.89 70.09 68.90 67.53 67.61 64.83 62.99 61.79 60.45 61.08 63.00 65.29 66.67 66.48 66.75 66.92 68.57 71.29 69.62 69.57 69.40 68.74 68.48 68.84 69.25 69.86 70.49 71.47 72.12 72.24 72.72
72.42 72.02 72.78 71.95 72.29 71.93 71.51 71.29 70.89 70.27 70.88 70.16 70.65 69.90 69.40 69.56 68.02 67.07 65.89 63.74 61.90 59.08 60.12 63.42 64.77 67.18 68.59 67.71 68.50 67.81 67.98 69.17 69.11 68.53 67.67 67.18 67.53 68.09 68.47 68.96 69.61 69.89 69.98
71.07 71.71 72.72 71.63 72.02 72.42 72.07 70.90 70.64 70.83 70.77 70.78 70.84 70.45 69.39 69.20 68.64 67.89 69.33 66.20 64.57 62.17 60.79 63.00 64.83 65.81 68.96 70.40 70.48 70.11 70.30 70.43 69.39 68.31 67.48 66.88 67.13 67.69 67.85 68.07 67.92 67.98 68.26
70.89 70.92 72.42 72.44 71.99 71.91 72.17 71.18 70.47 70.51 70.63 70.41 69.77 69.49 69.45 69.52 69.45 68.59 69.31 69.88 67.65 65.11 63.30 65.02 64.85 68.38 68.14 67.74 70.33 70.41 71.26 71.09 71.01 69.31 68.59 67.95 67.23 66.90 67.13 67.17 66.86 66.84 66.95
69.99 71.05 71.26 72.62 72.30 72.19 71.70 71.35 71.04 71.20 69.97 70.13 70.60 69.30 69.61 71.32 70.00 69.76 69.09 69.07 68.86 67.92 66.49 65.31 65.71 67.35 68.09 69.97 70.60 70.76 72.31 72.76 71.90 71.46 68.66 67.26 66.60 66.21 65.57 65.17 64.66 64.23 63.10
69.24 70.72 71.51 72.23 72.38 72.50 72.25 71.87 71.73 71.08 70.80 70.87 71.19 70.32 70.05 70.19 70.16 70.19 69.54 69.61 70.10 70.49 68.53 67.27 68.69 68.60 69.77 69.97 70.14 70.76 70.76 71.18 71.95 71.29 68.72 68.41 67.76 67.23 66.67 64.79 63.19 60.82 59.52
68.76 69.51 72.10 72.37 72.92 72.64 72.76 72.54 72.37 71.85 71.37 71.33 71.29 71.38 71.53 71.15 70.39 70.43 70.44 70.72 70.57 69.99 69.47 68.66 67.94 67.92 68.62 70.23 69.92 69.61 70.62 69.93 70.16 72.31 71.48 70.27 68.79 69.77 68.72 65.26 63.11 61.93 59.28
69.04 68.77 70.28 72.48 72.66 72.92 73.31 72.50 72.54 72.39 72.07 71.68 71.38 71.72 71.86 71.94 70.72 70.20 71.13 70.16 69.98 69.45 69.14 68.71 68.39 68.37 68.64 69.12 69.20 69.07 68.30 69.25 70.10 70.21 70.81 72.55 72.85 73.77 72.89 67.67 64.88 63.16 60.38
68.74 68.29 68.84 70.08 72.04 73.39 68.85 67.80 71.62 72.49 72.30 71.63 71.17 71.21 71.95 71.27 70.50 68.14 67.58 68.13 70.72 70.48 69.49 68.91 69.48 69.41 69.67 69.16 68.75 68.24 67.27 66.45 67.11 70.13 70.94 72.20 73.28 72.43 73.10 64.59 63.07 61.10 59.43
68.23 67.73 68.68 69.51 70.16 71.88 66.41 66.14 68.13 72.48 71.87 71.80 71.48 71.38 71.15 73.03 70.50 72.11 68.54 66.69 66.78 66.60 68.16 71.29 70.72 70.30 70.23 70.01 68.75 67.43 67.43 67.42 67.47 70.81 71.50 71.84 71.12 70.90 72.07 63.06 61.39 60.12 58.71
67.83 67.43 67.48 68.03 69.98 70.85 65.51 64.58 66.55 71.46 72.14 72.15 72.05 71.93 71.57 71.70 71.35 71.71 71.78 71.46 70.97 70.83 69.15 69.27 70.53 72.52 72.00 72.25 70.06 70.50 69.46 69.05 70.13 71.86 73.20 71.22 70.71 72.06 68.69 62.72 61.04 59.75 58.07
68.95 68.68 68.30 67.93 68.40 69.54 63.74 63.50 64.75 70.79 71.41 71.26 71.80 72.22 72.49 72.35 68.41 64.64 71.43 70.93 70.86 71.41 68.63 63.93 64.69 64.53 63.60 63.18 64.57 69.00 68.21 67.85 67.78 69.50 70.24 70.64 71.77 71.95 69.57 66.20 62.05 59.49 56.92
70.98 70.56 69.83 69.03 66.99 69.73 62.51 61.83 64.24 71.85 71.13 71.61 72.03 71.75 65.62 69.89 64.50 61.97 69.64 71.20 70.21 71.04 71.05 70.42 69.74 66.23 63.94 66.48 62.75 67.25 69.65 69.03 68.39 67.38 70.44 71.69 71.42 70.10 67.54 66.97 61.56 59.41 57.79

GFSMA_sfc_wetblb_072.txt.gz
Wetbulb
70.92 71.32 71.77 72.24 71.76 72.49 71.79 70.34 71.46 71.18 71.23 71.25 71.31 71.32 71.39 71.94 72.34 73.15 74.09 74.24 74.71 73.70 73.55 73.61 73.12 73.28 73.16 73.02 72.62 71.86 72.04 72.19 72.25 71.80 71.82 72.45 73.68 73.51 73.76 73.76 73.17 72.50 71.69
70.65 71.50 71.67 71.47 71.97 71.40 72.15 71.14 71.07 71.04 71.58 70.86 71.03 71.12 71.42 71.84 72.65 72.94 73.72 73.95 74.68 74.96 74.32 74.26 73.68 73.93 73.40 72.61 72.76 73.53 72.99 72.17 71.86 72.67 73.35 73.74 73.52 73.44 73.36 73.15 72.40 71.89 69.96
70.78 71.69 71.37 71.10 71.27 71.58 71.99 71.67 71.00 71.66 71.25 70.45 70.58 70.81 71.51 71.62 72.19 72.68 73.20 73.53 74.01 74.54 74.70 74.51 74.01 73.84 73.67 73.19 72.81 72.91 72.69 73.10 73.98 74.10 73.70 73.36 73.52 73.22 73.10 72.56 71.62 71.35 68.01
71.64 71.83 71.07 71.01 71.27 71.58 71.60 71.52 70.05 70.87 70.02 69.83 69.53 69.29 69.80 70.53 71.47 72.09 72.38 72.43 72.86 73.97 74.45 75.46 74.89 74.04 73.57 73.36 73.33 73.56 74.19 74.43 74.17 73.88 73.68 73.97 73.72 73.10 72.18 71.72 71.45 70.81 67.25
72.33 71.69 70.77 71.49 72.22 72.42 71.40 70.16 70.31 70.13 69.38 69.51 69.68 69.53 69.43 69.26 69.78 70.15 70.70 71.40 71.71 72.57 72.12 72.29 74.05 75.09 74.04 74.13 74.07 74.03 74.35 74.99 75.32 74.77 74.19 73.99 73.15 72.31 71.59 71.50 71.30 70.56 67.74
72.08 71.73 71.14 71.85 72.40 71.04 70.18 69.92 70.18 69.35 69.65 69.38 69.31 69.73 69.63 70.17 70.73 69.92 69.58 70.35 70.52 71.02 71.09 71.30 71.46 71.63 73.70 74.21 74.22 74.62 74.91 74.51 75.25 75.06 75.12 74.35 73.23 72.19 71.42 71.69 71.54 70.54 68.40
72.57 70.39 70.98 71.36 71.18 70.73 70.91 70.68 69.48 70.05 68.58 68.70 68.63 68.17 68.48 68.89 69.20 70.46 70.96 70.60 71.17 71.70 71.99 72.11 71.93 71.82 71.95 72.78 73.82 74.51 74.71 74.87 74.68 74.79 74.97 74.79 73.82 72.63 72.21 72.03 71.83 70.88 69.53
72.00 71.36 70.87 72.30 70.62 70.55 70.62 70.31 70.15 69.15 68.44 68.43 67.03 65.40 64.19 65.35 65.85 67.72 69.50 69.97 70.43 71.55 72.16 72.78 72.64 72.66 72.51 72.50 72.34 73.18 74.20 74.61 74.66 74.18 74.73 74.79 74.64 73.69 72.78 72.37 72.11 71.36 70.90
73.47 72.50 72.62 72.64 70.47 71.04 69.76 69.46 69.77 69.78 67.59 67.94 68.39 67.50 64.25 62.74 63.73 66.57 67.76 67.87 69.06 69.41 70.47 71.58 72.58 72.73 72.75 72.55 72.25 72.37 73.45 73.53 74.49 74.84 74.51 74.80 74.70 74.56 73.84 72.82 72.32 72.09 71.41
73.64 73.89 72.43 72.26 71.84 70.84 70.95 70.56 71.53 70.47 69.05 67.77 68.49 67.70 67.60 66.54 64.58 63.88 66.40 67.19 68.33 68.16 69.00 69.65 70.63 71.88 72.87 72.61 72.78 73.25 72.86 72.74 73.36 74.15 74.97 74.99 74.38 74.87 75.09 74.22 73.15 72.47 71.88
73.88 73.42 73.10 72.58 72.02 71.45 72.10 72.47 72.16 71.30 70.97 68.57 68.88 69.02 67.39 66.48 66.00 64.74 64.11 65.73 68.30 68.97 69.37 69.49 70.55 70.79 71.44 71.72 71.85 72.05 72.07 72.44 72.74 73.77 74.24 74.97 74.99 74.72 74.89 75.33 74.77 73.70 73.50
73.19 73.61 73.83 73.55 72.78 72.08 71.86 71.97 72.48 72.41 72.47 72.04 70.50 70.12 68.71 67.44 66.69 66.56 64.71 65.27 65.22 68.58 68.58 69.44 69.66 70.09 70.53 70.73 71.05 72.04 72.48 72.45 72.08 72.41 72.65 73.30 74.02 74.34 74.22 74.85 75.58 75.00 74.72
72.24 73.00 73.32 73.55 72.13 72.44 72.56 72.71 72.63 72.64 71.88 71.96 72.72 70.80 70.07 69.40 67.42 67.48 66.17 66.25 65.98 67.91 68.88 70.15 70.19 70.65 70.56 71.25 71.09 71.46 72.16 70.80 70.22 69.71 69.79 70.48 71.49 72.35 73.07 73.85 74.29 74.62 75.32
72.28 73.72 73.42 73.27 73.64 72.64 72.62 72.98 72.35 73.01 73.05 72.04 72.46 72.75 71.53 70.76 70.31 68.58 67.30 66.89 66.43 65.80 67.00 69.88 71.59 71.69 72.13 72.13 71.58 71.69 72.46 69.48 68.86 68.23 68.04 68.27 68.82 69.71 70.44 71.18 71.68 72.27 72.72
72.93 73.76 73.89 73.42 73.42 73.14 72.93 72.87 72.37 72.61 73.31 72.80 72.94 72.82 71.99 72.43 71.03 70.17 70.33 67.61 67.51 65.59 65.99 68.88 69.61 71.83 72.84 73.70 73.21 73.88 73.86 71.00 69.12 68.76 67.73 67.66 67.81 68.41 69.01 69.30 69.37 69.43 69.82
72.59 73.51 73.59 73.63 73.47 73.30 73.63 73.24 72.84 72.90 72.71 72.86 72.71 72.85 72.62 71.95 71.79 70.63 71.66 69.73 68.36 67.32 66.45 67.76 69.71 70.38 72.75 73.31 74.15 75.15 74.66 70.82 70.18 68.72 68.09 67.57 67.53 68.12 68.63 68.57 68.42 68.49 68.56
72.25 72.59 73.58 73.83 73.28 72.93 73.38 72.30 72.51 72.90 72.72 72.84 72.63 72.55 72.38 72.37 71.81 71.42 71.46 72.33 70.77 68.80 68.50 70.41 69.07 72.14 72.94 74.10 75.61 75.57 75.66 76.05 75.78 70.11 68.73 67.82 66.74 66.99 67.26 67.25 66.83 66.62 66.04
72.03 72.49 72.77 73.68 73.75 73.52 73.35 73.45 72.95 73.07 72.16 71.93 72.57 72.31 72.15 72.03 72.56 72.74 71.84 72.10 72.04 71.64 70.38 70.06 71.06 71.89 73.10 74.68 74.74 75.32 75.42 75.90 75.65 71.89 68.17 67.09 66.67 66.64 65.66 64.98 63.65 62.60 62.13
71.05 71.74 72.54 72.61 73.43 73.67 73.43 73.49 73.42 73.22 72.95 72.55 72.66 72.53 72.64 72.46 72.44 72.86 72.94 72.24 72.17 72.70 72.02 70.96 71.63 72.68 73.10 73.56 74.63 75.48 75.56 76.08 74.70 71.74 68.99 68.26 68.00 66.93 65.14 62.02 60.94 59.47 58.02
70.63 70.62 71.72 72.36 73.25 73.73 73.63 73.71 73.28 73.28 73.08 72.99 73.28 73.36 73.51 73.01 73.02 73.25 72.87 73.29 73.29 73.09 73.17 72.27 71.81 71.85 72.31 74.05 73.62 72.82 73.84 75.27 73.50 74.79 72.97 70.67 68.84 69.21 64.25 62.01 61.87 60.47 57.86
70.35 70.67 70.96 72.19 73.24 73.74 73.57 73.60 73.63 73.31 73.10 73.03 73.48 73.51 73.47 73.16 70.63 71.59 73.50 73.95 73.44 72.45 72.20 72.08 72.08 72.08 72.73 73.19 73.23 74.00 72.49 72.43 74.12 74.10 74.41 75.92 76.03 76.71 72.68 64.58 63.91 61.45 59.45
70.22 69.99 70.01 71.09 72.28 72.92 68.73 67.85 72.13 73.44 73.50 73.42 72.97 73.42 74.04 71.62 71.13 67.76 67.18 67.83 72.11 73.61 73.08 72.84 72.94 71.90 73.32 72.98 74.04 72.84 72.06 71.88 70.78 74.80 74.10 74.32 76.33 75.62 72.97 67.47 61.45 60.22 59.10
69.52 69.74 69.47 70.04 70.53 72.33 65.97 66.31 68.05 73.80 73.50 73.41 73.42 73.61 73.08 73.57 71.44 73.95 68.97 66.42 66.69 65.84 68.46 74.48 73.12 73.47 73.40 74.64 74.51 73.53 72.73 71.33 71.59 73.82 74.02 73.00 75.78 74.50 69.26 64.73 60.65 59.73 58.24
68.22 68.52 69.04 69.61 69.80 70.49 64.58 64.13 66.71 72.70 73.53 73.55 73.48 73.24 73.24 73.60 73.34 73.42 73.57 73.55 73.70 73.80 72.63 71.32 72.24 73.87 75.22 75.70 74.96 74.72 73.55 72.84 73.42 74.09 74.86 72.02 75.09 74.05 67.56 65.77 60.29 59.00 57.81
68.71 68.38 68.95 68.66 69.11 69.82 62.27 62.42 65.02 71.81 72.21 72.75 73.58 73.75 73.67 73.30 68.37 64.41 73.29 73.07 73.41 73.84 69.65 64.19 65.40 65.60 64.61 63.52 67.50 72.44 71.29 70.80 71.29 72.53 74.77 73.65 74.03 74.62 71.20 68.45 64.89 59.16 56.72
70.65 69.96 69.60 69.58 66.62 68.65 61.99 60.31 63.26 71.11 70.44 71.01 72.76 73.18 65.71 71.13 63.96 61.56 71.91 73.10 72.35 72.85 73.90 74.27 73.32 68.32 64.82 68.51 62.07 69.97 72.29 71.06 72.11 71.44 74.89 73.25 75.22 73.61 72.64 72.17 67.67 65.44 63.60

GFSMA_sfc_wetblb_075.txt.gz
Wetbulb
74.64 75.18 75.02 75.21 75.55 76.21 75.40 74.42 75.24 75.19 75.35 75.01 75.08 75.01 74.95 73.98 73.52 74.68 75.45 74.28 74.36 73.94 73.93 73.62 73.18 73.54 73.26 73.30 73.01 72.91 72.67 72.71 72.27 72.23 72.90 73.44 73.92 73.75 73.51 73.05 72.66 72.20 69.28
75.06 74.43 74.70 75.03 76.22 76.41 75.66 75.59 75.27 75.13 75.32 74.79 74.52 74.68 74.44 73.77 74.29 74.66 75.21 75.37 74.12 74.91 74.47 74.61 74.04 73.99 73.92 73.24 72.84 73.15 73.48 72.92 73.02 73.88 74.35 73.57 73.68 73.63 73.31 73.01 71.97 71.63 68.14
75.38 76.34 76.01 75.62 76.02 76.28 76.53 76.61 75.84 76.39 74.82 74.60 74.33 74.66 75.32 74.83 74.13 74.48 74.96 75.37 75.91 74.40 74.79 74.79 74.31 74.03 73.89 73.70 73.49 73.63 73.60 73.98 74.41 74.21 73.99 73.53 73.78 73.51 73.29 72.48 71.71 71.32 67.76
75.31 76.11 75.87 75.62 75.95 76.29 76.50 76.30 75.71 74.98 74.07 73.92 73.85 74.22 75.04 74.70 74.10 74.39 74.92 74.59 74.77 74.63 75.07 75.16 75.58 74.83 74.10 73.79 73.77 74.06 74.23 74.58 74.46 74.40 74.21 74.11 73.81 73.26 72.54 72.15 71.66 71.32 68.25
75.74 76.07 76.13 75.77 76.80 76.67 76.24 75.29 74.91 75.29 73.45 73.80 73.94 74.91 74.71 74.60 74.64 73.89 74.28 73.95 74.48 74.42 74.81 74.78 73.21 73.83 74.57 74.28 74.25 74.51 74.74 75.21 75.02 74.80 74.88 74.47 73.84 72.99 72.17 71.81 71.84 71.27 69.61
75.74 76.40 75.78 76.16 76.80 76.23 75.76 74.51 75.52 74.59 74.51 74.13 73.01 73.66 74.95 74.89 75.23 74.90 74.65 74.31 74.60 74.51 74.85 75.32 75.14 75.30 72.79 73.87 74.41 74.56 74.82 75.01 75.60 75.43 75.34 75.09 74.17 73.27 72.18 71.64 71.84 71.49 70.60
75.74 75.78 75.39 75.69 76.07 75.70 75.54 74.93 74.42 74.38 73.91 74.89 73.79 73.14 73.26 74.03 73.77 74.08 74.90 74.79 74.74 74.96 75.18 75.66 75.96 75.70 75.69 73.73 73.69 74.04 74.28 74.80 75.00 75.51 75.43 75.22 75.02 74.12 73.10 72.36 72.18 71.91 71.25
76.62 75.53 74.87 75.55 75.78 74.89 75.75 75.19 74.99 73.69 73.82 73.97 72.23 71.78 68.45 70.44 72.53 73.10 73.86 73.82 74.47 74.81 74.78 75.33 75.96 76.19 76.32 75.87 75.84 73.78 74.21 74.71 75.07 75.17 75.80 75.09 75.17 75.14 74.34 73.02 72.52 72.45 72.23
76.68 76.48 75.76 76.39 75.86 75.80 74.47 74.95 74.29 74.23 72.13 73.28 72.68 71.11 68.54 66.41 69.42 72.76 73.14 74.01 73.84 73.91 74.32 74.77 75.08 76.01 76.34 76.19 75.96 75.83 74.27 73.25 73.84 74.80 75.56 76.17 75.19 74.84 74.97 74.21 73.01 72.37 72.37
77.00 76.85 76.93 76.60 76.25 75.58 75.06 74.44 75.07 75.13 74.09 71.96 72.95 73.13 73.19 71.80 67.84 67.40 72.75 73.12 74.11 73.41 74.67 74.46 74.19 74.90 75.77 75.76 76.29 75.04 73.62 73.00 73.84 74.34 75.08 75.89 76.20 75.59 74.99 75.07 74.58 73.45 72.56
77.23 77.25 76.86 76.93 76.58 75.57 76.24 76.44 75.82 75.15 74.77 72.85 72.75 73.85 73.51 72.51 72.17 69.93 68.16 70.87 74.01 74.87 75.25 74.83 74.62 74.92 75.25 75.69 75.35 75.04 73.40 72.66 72.58 73.46 73.97 74.62 75.19 75.44 76.09 76.11 75.49 75.24 74.91
76.76 77.36 77.25 77.34 76.66 76.36 75.69 76.08 76.85 76.12 76.56 76.02 75.26 75.22 74.20 71.57 71.09 71.07 70.52 71.75 70.95 73.64 74.44 74.95 75.31 75.49 75.64 75.61 75.77 73.41 73.08 72.35 71.79 72.00 71.88 72.26 72.70 73.57 74.22 74.98 75.33 75.71 76.08
75.05 76.64 77.50 77.82 77.92 76.80 76.55 76.58 76.51 76.45 76.25 75.74 76.50 75.27 75.42 74.95 74.26 73.38 71.85 70.78 70.60 73.41 74.01 75.73 75.61 76.24 75.95 76.91 76.38 72.52 73.87 71.20 70.22 69.36 69.43 70.25 71.26 71.92 72.39 72.92 73.67 74.07 74.34
75.50 77.24 77.50 77.39 77.54 77.14 76.72 76.59 75.89 75.75 76.61 75.89 75.79 76.80 76.09 75.74 75.49 74.92 73.65 71.23 69.46 71.46 73.10 73.17 76.68 75.60 76.39 77.07 76.31 73.64 77.32 71.45 69.92 68.75 68.45 69.00 69.67 70.34 71.00 71.46 71.63 71.72 71.90
75.52 76.76 77.19 77.45 77.39 77.33 77.12 77.00 75.46 76.76 77.54 76.87 76.47 76.30 75.77 76.31 75.93 75.67 75.52 74.73 71.69 68.02 69.02 72.89 72.68 76.16 76.68 77.44 76.99 78.56 78.30 72.51 70.19 69.34 68.68 68.01 68.42 68.98 69.69 70.28 70.10 69.96 70.00
76.61 76.47 77.00 77.31 77.53 77.53 77.40 77.15 76.06 76.50 76.43 76.20 75.79 76.45 76.35 75.67 75.65 75.55 74.89 74.98 74.37 72.68 69.19 74.11 74.22 75.70 77.26 77.54 77.21 78.57 78.46 73.27 72.26 70.14 68.89 67.76 67.55 68.20 68.87 69.17 68.66 68.25 68.05
76.92 76.77 76.97 77.09 77.17 77.03 77.49 77.11 76.97 76.67 76.23 76.50 76.58 76.34 76.34 77.16 74.94 74.95 74.95 75.08 74.68 74.06 71.05 72.14 75.17 76.72 77.53 78.07 78.30 79.17 78.06 78.23 77.22 70.76 68.95 67.42 66.69 67.14 67.63 67.16 66.20 65.89 65.56
76.70 76.83 77.19 77.10 77.09 77.25 77.27 76.84 76.30 76.01 75.86 75.43 75.75 76.22 75.74 75.57 76.38 76.59 75.61 76.09 75.24 75.98 73.83 73.47 75.63 75.36 76.61 77.94 78.48 78.68 77.68 77.24 78.48 72.71 68.69 67.19 66.84 66.38 65.28 63.73 62.97 62.02 61.32
75.94 75.94 76.61 76.73 76.94 77.09 77.02 77.16 77.22 76.80 76.64 76.39 76.05 76.00 75.83 76.25 76.05 75.71 76.22 75.71 75.59 76.01 75.95 74.72 74.24 75.87 76.28 77.01 77.09 78.17 78.15 78.50 77.55 72.86 69.70 69.26 68.44 66.51 63.28 61.71 60.44 58.78 57.73
75.08 75.31 75.81 76.25 76.67 77.28 77.28 77.28 77.03 77.00 77.05 76.75 76.78 76.44 76.44 76.22 76.26 76.84 76.61 76.87 76.55 76.00 75.95 75.17 74.08 74.18 75.17 76.94 76.75 74.67 74.32 76.13 76.27 77.46 75.10 72.12 70.15 66.40 63.33 61.56 61.29 60.09 57.75
74.45 74.92 75.17 75.31 75.91 75.89 75.87 76.69 77.03 76.89 76.82 76.67 76.94 76.78 76.77 75.67 72.11 73.26 75.59 76.72 76.82 75.56 74.80 74.38 73.64 73.82 73.66 73.72 73.95 74.66 73.98 75.17 76.95 77.58 76.85 76.17 76.87 78.47 73.29 64.49 64.04 61.13 59.05
74.27 74.46 74.11 74.70 74.95 74.32 68.46 67.70 73.68 76.41 76.84 76.66 76.38 76.81 77.11 73.30 72.49 68.09 67.65 68.44 72.88 75.97 75.22 73.72 72.82 72.76 75.16 75.30 74.64 74.38 74.06 73.48 71.83 76.98 76.24 74.95 77.06 77.60 78.89 76.37 61.11 59.87 58.42
74.33 73.86 73.61 73.86 74.59 75.64 65.91 65.40 68.27 75.44 76.22 76.58 76.91 76.81 76.50 76.01 74.19 77.03 69.46 66.56 66.96 66.00 68.32 75.86 74.98 74.76 75.26 76.08 76.55 75.96 75.63 75.00 74.11 75.20 76.47 74.03 76.58 76.97 79.53 68.86 60.53 59.45 57.90
73.64 73.55 73.47 74.23 74.52 74.39 65.40 63.63 66.29 74.85 76.33 76.82 77.08 77.11 77.00 77.23 76.87 76.42 76.73 76.35 76.45 76.82 75.66 74.03 75.02 76.00 76.95 77.64 77.91 77.50 76.80 76.43 76.28 76.09 78.27 73.18 75.97 76.63 79.15 74.41 60.25 59.60 58.02
72.87 72.77 73.28 73.86 74.10 74.49 62.91 62.66 65.49 73.68 74.04 76.16 77.03 77.08 77.45 77.23 71.20 65.47 75.52 75.61 76.03 76.18 70.84 65.91 66.29 65.69 65.71 64.68 68.93 75.72 74.45 73.54 72.19 73.16 76.12 74.98 75.52 76.57 77.89 77.13 70.06 59.19 57.51
73.56 73.45 73.04 73.56 69.94 73.94 64.78 60.34 63.77 72.02 73.30 72.90 75.47 76.60 66.88 73.34 65.68 62.02 74.15 75.30 74.82 75.20 75.52 75.44 76.05 71.36 66.96 71.83 62.84 73.40 75.39 73.38 72.91 71.98 75.77 74.51 74.53 75.76 74.19 78.28 75.77 70.07 67.78

GFSMA_sfc_wetblb_078.txt.gz
Wetbulb
75.27 75.55 75.98 76.07 76.36 77.27 75.83 76.09 76.47 76.74 77.15 76.18 76.01 75.54 74.16 73.05 73.35 74.12 74.54 74.02 74.12 73.78 73.85 73.69 73.33 73.67 73.30 73.37 72.92 73.66 73.47 73.57 72.90 73.57 74.51 74.41 73.94 73.90 73.40 73.53 72.60 71.90 67.87
75.79 75.48 76.00 75.90 76.40 76.94 76.39 76.70 76.62 76.44 75.76 76.02 75.87 75.84 74.67 74.32 74.65 75.76 75.38 75.28 74.52 74.75 74.30 74.36 74.11 73.66 73.82 73.61 73.39 73.36 73.65 73.58 74.00 74.69 74.18 73.93 73.93 73.98 73.63 73.23 72.21 71.52 68.17
77.09 77.71 76.19 77.11 76.48 77.11 77.72 77.56 77.66 76.88 75.04 74.98 75.38 75.36 75.35 74.68 74.80 75.02 76.24 75.27 75.27 74.16 74.80 74.63 74.13 73.75 73.81 73.79 73.82 73.82 74.13 74.48 74.72 74.53 74.35 74.08 74.13 73.70 73.31 72.61 72.07 71.27 69.27
77.51 77.60 77.14 77.07 76.69 77.26 77.43 76.45 77.03 74.40 74.51 74.05 74.01 74.24 74.44 75.02 75.47 75.47 75.72 75.93 75.47 75.49 75.14 74.99 75.25 75.30 74.75 74.17 74.29 74.48 74.63 74.63 74.80 74.61 74.76 74.84 74.28 73.63 72.87 72.25 72.00 71.63 70.89
77.72 78.62 77.97 76.47 77.61 77.29 76.53 76.75 75.41 75.32 73.84 73.42 73.02 73.73 74.46 75.12 75.72 74.79 76.06 76.76 76.04 76.10 75.01 75.09 73.51 73.95 74.10 74.62 74.79 74.75 74.81 75.09 75.26 74.84 74.65 74.60 74.62 74.02 73.16 72.16 72.07 71.87 71.13
77.90 78.12 76.62 77.44 77.57 76.48 75.41 75.69 76.33 75.77 75.03 74.18 72.56 72.83 75.17 75.54 76.56 76.29 75.96 75.71 76.11 76.99 76.76 77.26 76.74 75.65 74.43 73.67 74.09 74.59 74.86 75.17 75.49 75.68 75.90 75.78 75.16 74.43 73.75 72.60 72.14 72.19 71.85
77.70 77.85 76.92 77.25 77.48 77.04 76.40 77.16 75.94 75.53 72.98 75.32 71.65 72.01 72.14 73.20 73.66 75.35 75.96 75.99 75.13 76.10 77.14 77.64 76.93 76.21 75.94 75.40 74.85 74.69 74.63 74.97 75.32 75.62 76.15 76.24 75.51 75.46 75.13 74.01 72.62 71.93 72.60
78.09 77.62 77.58 76.89 77.58 76.18 77.45 77.46 76.69 74.13 73.59 75.00 71.48 71.07 68.79 69.89 71.79 73.15 74.50 74.60 75.03 75.99 76.29 76.19 76.71 77.63 77.38 76.50 76.57 75.22 75.11 74.96 75.23 75.43 76.24 76.41 76.06 75.41 75.11 74.67 73.65 72.59 72.32
77.55 78.03 77.39 77.64 77.60 77.07 74.65 77.04 76.32 75.59 71.66 75.32 75.08 72.09 68.85 66.44 70.58 72.22 73.46 73.79 74.93 75.03 75.79 76.42 76.38 77.18 78.12 77.15 77.24 77.65 76.00 74.41 74.50 75.13 75.65 76.38 76.26 76.19 75.54 74.93 74.33 73.78 72.96
77.55 77.53 77.89 77.86 77.94 76.95 76.88 76.52 76.64 76.63 76.06 71.99 73.88 74.73 74.90 73.56 68.57 68.10 71.54 72.20 73.27 72.87 74.16 75.51 75.50 75.63 77.60 76.69 78.31 76.12 74.63 73.84 73.91 73.80 74.38 74.83 75.58 75.71 76.11 76.19 75.56 74.73 74.27
77.36 77.46 77.70 78.03 77.96 76.89 77.84 77.55 77.35 77.17 75.58 73.49 73.25 73.87 75.03 74.18 74.30 70.85 67.65 68.93 71.35 73.31 74.53 76.01 75.32 76.46 77.49 77.62 77.22 76.09 73.80 72.92 72.89 73.49 73.81 73.84 74.38 74.88 75.40 75.96 76.14 76.04 75.94
76.89 77.77 77.20 77.65 78.07 77.48 77.83 77.11 77.17 77.38 77.00 76.52 74.68 74.09 72.56 71.13 71.25 71.78 70.84 71.10 70.87 72.92 75.07 75.55 75.84 76.31 77.00 77.44 76.85 74.25 74.25 73.19 72.38 71.99 71.63 72.38 73.21 73.81 74.66 75.35 75.51 75.58 75.71
75.73 77.90 78.32 77.13 76.82 78.19 78.26 78.18 78.42 77.11 76.55 74.93 76.18 74.23 75.35 75.18 75.59 74.82 72.53 71.13 71.41 73.06 74.16 75.28 76.11 77.10 76.81 77.77 77.89 75.18 75.66 72.52 71.24 70.17 70.26 70.98 71.83 72.19 73.13 73.98 74.44 74.56 74.64
76.02 78.03 78.62 77.45 77.33 77.71 77.87 78.57 76.08 75.51 76.88 74.98 75.89 76.79 74.89 75.72 76.52 76.30 73.79 72.06 70.93 71.84 73.05 74.33 77.47 77.09 77.26 78.01 77.36 75.73 77.62 72.42 71.19 69.98 69.20 69.25 69.92 70.48 71.44 72.01 72.09 72.04 71.92
76.29 77.58 78.43 77.96 77.61 77.68 77.66 78.26 76.21 76.43 76.80 76.68 76.53 76.22 75.44 75.07 75.88 76.71 76.14 75.03 72.07 69.29 71.21 74.07 73.69 77.27 77.12 77.49 77.13 78.61 78.89 73.39 72.04 70.89 69.29 68.37 68.57 69.45 70.30 70.84 70.50 69.76 69.68
77.62 77.08 78.16 78.32 77.77 78.15 78.46 78.62 77.03 77.26 77.03 76.20 75.92 76.54 76.97 75.27 75.79 75.76 75.39 75.22 74.80 72.51 69.76 73.10 74.84 76.42 78.49 78.30 78.05 79.03 78.61 74.05 74.72 71.82 69.16 68.14 68.36 69.03 69.52 69.32 68.53 68.13 67.26
77.39 77.92 78.54 78.25 77.88 77.65 78.21 78.58 78.13 77.17 77.09 76.79 77.12 76.93 77.15 77.79 75.64 74.67 75.18 74.75 74.25 74.19 71.79 72.59 74.51 76.63 78.50 78.66 78.87 79.69 78.72 78.30 76.44 70.99 69.75 68.22 68.01 67.93 68.16 67.48 66.36 65.36 64.46
77.46 78.08 78.65 78.48 77.33 77.46 78.15 78.60 77.40 76.79 76.57 76.28 76.68 77.11 76.59 75.94 77.20 77.14 75.47 76.85 76.62 76.26 73.96 74.39 76.55 74.84 77.44 78.68 78.90 79.17 77.67 77.35 78.06 72.71 69.90 68.77 68.02 67.64 65.08 64.35 63.15 62.17 61.14
76.85 76.83 77.74 78.42 78.03 77.26 77.89 78.34 78.48 78.00 77.17 76.91 76.73 76.96 76.71 76.80 76.64 75.73 76.56 75.36 75.47 75.71 75.65 74.13 73.64 74.82 75.94 77.25 77.80 79.17 78.44 78.97 76.63 72.90 69.56 68.78 68.31 66.21 63.65 61.74 60.53 59.10 57.77
76.69 76.39 76.95 77.61 77.95 77.83 77.87 78.23 78.60 78.47 77.80 77.32 77.96 77.96 77.71 76.63 76.82 77.40 77.17 77.48 77.29 76.41 76.63 74.40 73.83 74.07 74.89 77.49 77.04 74.71 73.42 74.66 75.03 76.45 75.32 72.44 69.56 65.94 63.21 61.11 60.81 59.84 57.66
76.66 76.93 76.36 76.72 77.33 77.29 77.15 78.36 78.44 78.25 78.05 78.17 78.22 78.54 78.28 76.63 72.40 73.42 75.73 78.54 78.47 76.12 74.78 73.80 73.36 73.89 73.62 73.79 75.15 74.08 73.29 73.88 76.33 75.87 75.87 76.19 75.48 76.16 68.97 63.49 64.48 60.89 58.62
76.76 76.90 76.30 76.11 75.71 74.86 68.89 67.40 73.62 77.69 78.06 78.15 77.61 78.12 78.70 74.45 73.75 68.91 68.60 68.81 72.42 76.66 75.86 73.18 71.91 72.50 76.45 75.42 74.73 73.55 73.31 72.43 71.10 75.57 75.87 73.81 75.54 75.04 78.47 79.86 62.99 60.14 58.40
76.36 76.40 76.30 76.30 76.58 76.87 65.98 64.94 67.68 75.56 76.07 77.20 77.88 77.55 77.10 76.59 75.41 77.90 70.19 67.50 67.77 66.37 67.99 76.32 75.58 75.64 76.35 76.84 77.61 76.33 77.39 75.29 74.45 75.19 75.93 73.50 75.78 74.93 78.10 66.80 60.82 59.67 58.11
75.82 75.57 75.80 76.82 76.71 76.97 65.64 64.34 66.08 75.37 75.93 77.13 77.90 78.12 78.35 78.41 77.39 76.75 77.33 77.04 77.56 77.60 76.55 75.34 75.72 76.43 77.89 78.46 78.56 78.43 78.11 77.78 77.31 76.66 78.93 72.46 75.37 74.41 77.82 74.46 60.92 60.11 58.77
75.55 75.59 75.95 76.10 76.50 76.99 63.75 62.88 66.45 74.53 74.20 76.32 77.45 78.48 79.02 78.99 72.26 65.41 76.84 77.41 77.18 77.52 70.85 66.63 67.32 66.50 64.77 64.19 68.97 76.03 74.03 73.03 71.48 72.15 75.13 72.96 73.54 74.10 76.26 77.45 67.43 60.21 58.40
74.88 75.39 75.61 76.29 72.22 76.30 66.30 60.58 65.00 73.97 73.88 73.93 76.72 78.04 67.92 74.42 66.33 63.11 76.77 77.57 76.47 76.93 75.20 75.45 76.19 72.44 68.63 73.51 64.59 74.88 75.84 73.34 72.36 71.14 75.88 73.43 73.03 73.40 72.77 76.95 78.62 66.75 66.85

GFSMA_sfc_wetblb_081.txt.gz
Wetbulb
75.57 76.12 75.31 74.35 76.30 76.21 75.26 75.81 76.62 75.88 75.05 75.12 74.68 73.95 72.16 72.80 73.34 73.72 72.64 74.79 74.55 73.58 73.70 73.59 73.17 73.58 73.74 73.20 73.09 73.36 73.92 74.02 73.84 74.48 74.49 74.06 73.90 73.78 73.48 73.28 72.80 71.56 68.16
76.57 75.88 76.07 76.40 75.80 77.70 76.08 77.36 74.94 78.16 75.31 74.58 75.26 74.57 73.80 74.15 74.85 75.50 75.21 74.70 76.04 75.11 74.11 74.12 74.04 73.36 73.20 73.50 73.72 73.93 73.98 74.12 74.64 74.44 74.24 74.13 73.99 73.78 73.52 73.10 72.72 71.46 69.54
77.88 80.19 76.21 74.37 76.08 76.85 77.66 76.78 76.95 77.76 74.97 74.37 74.89 74.56 74.07 74.90 74.29 74.91 75.40 75.73 75.27 75.42 74.82 74.30 73.74 73.44 73.41 73.66 73.77 73.93 74.11 74.42 74.52 74.52 74.50 74.72 74.29 73.85 73.26 72.72 72.39 72.06 70.90
77.29 78.26 75.67 75.07 76.22 78.22 75.73 76.57 77.77 76.42 74.26 74.07 73.70 74.54 73.51 74.16 74.52 74.34 74.32 75.39 74.49 75.84 75.52 75.39 75.17 74.88 74.80 74.34 74.16 74.59 74.71 74.84 75.08 74.77 74.44 74.59 74.42 74.17 73.52 72.74 72.12 72.19 71.71
77.34 77.61 75.93 76.02 77.59 76.21 75.33 73.59 75.04 74.96 74.00 73.40 73.23 72.94 73.45 73.35 74.64 73.60 74.48 74.96 74.19 74.82 74.99 76.24 75.77 75.23 74.83 74.82 74.85 74.86 74.82 74.92 75.12 75.28 75.15 74.83 74.63 74.56 74.30 73.61 72.65 72.25 72.09
77.95 77.87 76.08 76.63 76.20 75.59 74.51 74.69 77.31 74.33 72.13 73.92 70.61 71.55 73.06 73.49 73.93 73.55 74.08 74.43 74.54 75.43 75.19 75.84 76.55 75.78 75.65 75.34 74.79 74.75 74.95 75.29 75.70 76.09 76.54 76.55 76.25 75.73 75.45 75.03 73.48 72.73 72.64
78.03 77.90 76.90 76.78 76.29 74.83 74.60 76.15 75.23 74.94 74.23 73.37 72.71 71.53 71.12 72.44 73.02 73.00 74.29 74.20 74.08 74.67 74.42 75.28 76.17 75.64 75.40 76.60 76.31 75.46 75.59 75.52 75.58 76.31 76.83 76.66 76.48 76.18 75.38 75.22 74.60 73.95 73.08
78.25 77.60 78.15 77.10 77.55 74.36 77.04 76.40 75.56 74.89 70.85 74.46 71.33 70.22 69.07 69.67 70.99 71.85 72.70 72.72 73.12 74.14 73.74 74.96 74.83 76.13 76.64 76.21 77.51 77.13 76.86 76.05 75.92 76.16 76.69 76.55 76.36 76.25 76.07 75.29 74.94 74.56 73.58
77.69 77.96 77.55 77.89 77.67 77.20 75.04 76.66 75.99 72.89 72.34 72.64 76.09 71.53 68.33 67.20 69.44 71.85 72.71 72.16 73.08 72.79 73.79 74.11 74.56 75.86 76.84 76.54 77.24 78.06 76.79 75.57 75.47 75.43 75.53 76.05 75.88 75.93 75.83 75.89 75.63 75.00 74.16
77.66 77.38 77.82 77.92 78.21 76.12 76.49 76.73 75.12 77.67 77.02 72.31 73.28 73.28 75.16 74.15 70.09 68.78 70.41 70.87 72.08 72.44 73.43 73.74 74.14 74.77 76.15 76.72 76.81 76.19 75.06 73.85 73.94 74.31 74.58 75.24 75.95 76.05 76.38 76.13 75.99 75.47 74.81
77.70 76.86 78.16 78.09 77.67 76.62 78.96 77.55 76.88 77.48 74.85 73.80 72.88 72.55 73.51 72.17 73.13 70.48 66.95 68.32 70.86 72.32 73.48 74.45 74.24 74.94 76.10 77.14 76.71 75.32 75.25 73.63 73.30 73.45 73.88 74.35 74.90 75.57 76.04 76.73 76.76 76.40 76.35
76.49 77.69 77.32 77.97 78.21 77.71 77.93 77.38 77.74 77.36 77.20 77.86 75.76 74.14 71.69 68.98 70.55 71.91 69.43 71.42 70.04 72.72 73.71 74.42 74.90 75.64 76.06 77.08 77.25 76.02 75.05 73.82 72.66 72.39 72.24 73.09 73.75 74.45 75.35 76.30 76.48 76.48 76.13
75.04 77.85 78.18 78.10 77.01 78.13 77.81 78.45 78.20 77.42 76.94 75.40 77.13 74.59 74.85 73.68 72.71 73.71 72.72 70.66 70.12 72.10 73.70 74.48 74.98 76.13 75.91 76.96 77.96 76.47 77.86 73.90 72.23 70.89 70.88 71.65 72.09 72.55 73.37 74.65 74.89 74.72 74.45
75.40 79.21 78.00 77.70 77.71 77.83 77.62 78.21 76.64 76.38 78.61 75.96 75.99 78.32 75.34 74.03 73.81 73.61 75.00 71.92 70.69 70.35 72.53 74.58 75.85 75.88 76.37 77.09 76.88 76.17 77.17 73.53 72.59 70.98 70.36 70.59 70.35 70.83 71.80 72.46 71.95 71.75 71.52
75.06 77.91 77.64 77.46 77.54 77.64 77.97 78.86 76.48 77.77 77.35 77.17 76.98 77.05 75.91 74.82 73.65 74.13 73.95 73.38 72.26 69.68 71.64 74.03 72.67 77.93 77.28 77.28 77.00 78.77 79.19 74.06 72.42 72.26 70.30 69.63 69.21 70.04 70.85 71.13 69.92 69.78 68.79
77.72 74.14 77.42 78.23 77.86 77.47 77.84 78.72 78.33 78.41 77.10 76.26 74.88 78.71 78.11 74.85 75.24 74.17 74.13 73.99 73.62 71.98 69.73 72.94 73.74 76.57 78.08 78.21 78.21 79.15 78.63 74.44 73.97 73.70 70.05 70.13 69.81 70.08 70.14 69.38 68.43 67.51 66.21
77.79 77.62 78.30 78.76 77.90 78.09 78.06 79.42 79.04 77.19 77.28 76.92 77.35 77.24 77.50 79.57 75.42 74.39 74.04 73.67 73.33 73.41 71.23 72.70 74.76 77.28 80.01 80.30 79.99 80.33 79.04 79.92 77.25 72.28 69.93 69.96 69.67 69.36 68.52 67.84 66.16 65.09 63.75
77.65 78.25 78.80 78.04 78.05 77.36 78.64 78.44 77.25 76.57 76.43 76.43 76.44 77.37 76.16 75.48 78.77 78.94 75.65 79.35 76.52 77.81 74.01 75.77 75.97 74.47 78.24 80.92 81.21 81.65 78.70 77.47 78.29 73.01 70.05 69.27 69.19 68.39 66.16 64.98 63.83 62.69 61.03
78.25 76.74 77.90 78.44 77.90 77.01 78.50 78.66 78.38 77.98 77.39 77.17 77.17 76.95 76.57 77.23 78.46 76.49 78.16 75.44 74.83 75.74 76.02 74.40 73.88 74.68 75.49 76.30 77.63 80.36 80.94 79.57 77.27 72.48 70.62 69.18 68.83 67.41 64.35 62.54 61.21 59.70 58.40
78.26 77.81 78.22 78.92 78.28 77.45 77.36 77.67 78.38 78.17 78.05 77.73 77.85 78.34 77.83 77.58 78.43 78.69 77.32 78.85 77.47 76.15 75.54 73.52 72.77 73.80 75.03 78.51 76.67 75.43 74.63 75.10 74.87 74.87 75.03 73.68 71.90 67.18 63.51 61.40 60.72 59.74 57.67
78.77 78.66 78.68 78.31 78.70 77.28 76.78 78.06 78.30 78.13 77.96 78.54 78.31 78.78 79.08 77.10 73.02 74.74 75.53 78.02 79.20 76.87 74.11 72.77 72.48 73.16 73.23 73.93 75.31 74.79 73.84 74.31 76.60 74.91 73.97 74.82 74.37 73.69 68.48 62.66 64.67 62.34 59.69
79.27 79.61 78.50 78.48 77.91 75.62 69.20 68.14 74.47 78.49 79.21 79.63 78.13 78.79 79.41 75.01 74.21 69.04 68.52 68.85 72.69 77.40 78.34 73.92 72.49 72.02 77.02 75.27 73.93 72.97 73.51 72.16 70.93 76.35 75.07 74.01 75.47 74.64 75.75 73.52 67.80 61.92 59.70
77.46 79.03 78.62 78.56 78.63 78.71 67.51 65.03 68.44 76.13 77.64 79.05 79.32 79.09 78.08 76.01 75.60 79.05 70.61 68.30 68.75 67.08 68.02 76.46 76.80 76.80 76.49 78.47 79.09 78.88 76.94 76.38 74.35 75.47 76.02 73.31 75.64 74.44 75.79 70.17 61.89 60.38 59.40
76.54 76.93 78.10 78.97 79.10 78.74 66.92 64.22 65.70 76.42 76.98 77.80 78.31 79.62 79.68 79.08 79.08 78.25 78.98 78.34 77.62 78.00 77.21 74.75 75.50 76.82 78.39 79.40 79.43 78.62 79.39 79.24 78.13 78.11 79.00 73.27 75.08 74.36 75.75 74.95 61.42 60.27 59.13
75.43 75.31 75.82 77.68 77.86 78.86 65.51 63.19 66.10 75.38 74.70 76.11 77.58 78.21 78.23 79.07 73.15 67.34 77.71 78.08 78.62 78.67 71.41 68.07 69.29 68.89 68.41 66.77 69.88 75.27 73.29 72.66 71.56 72.26 75.05 72.89 73.54 74.00 74.86 75.24 66.96 60.21 58.32
75.53 77.18 75.66 76.86 72.87 77.83 68.00 62.33 64.73 75.08 75.36 75.01 77.16 77.59 68.34 73.33 66.82 63.66 77.08 77.57 76.85 77.49 78.79 77.12 75.83 72.39 68.77 73.18 64.89 73.79 74.79 72.08 71.67 71.47 74.73 72.71 72.63 73.45 72.11 74.94 73.40 66.03 63.83

GFSMA_sfc_wetblb_087.txt.gz
Wetbulb
71.48 70.37 70.65 72.25 71.59 70.31 70.58 68.09 69.66 71.24 70.01 71.60 67.79 67.76 69.49 69.55 70.66 72.08 71.80 75.65 76.48 76.03 74.03 73.57 73.77 74.02 73.56 73.04 73.08 73.30 73.62 73.85 74.03 74.35 74.10 73.96 73.60 73.43 72.87 72.16 71.83 70.64 68.29
71.89 71.52 71.20 71.80 70.51 71.89 70.84 67.76 69.50 71.76 69.77 69.92 69.94 68.41 69.34 70.06 69.72 70.41 71.31 72.78 76.28 76.29 75.35 74.62 74.24 73.64 73.21 73.31 73.52 73.68 73.67 73.94 74.32 74.34 74.36 74.41 74.37 74.22 73.30 72.30 71.57 71.43 70.54
70.32 70.71 68.27 69.71 71.07 72.84 71.38 71.48 71.20 73.04 70.48 71.42 69.47 69.50 69.82 69.88 69.95 69.97 70.90 71.89 73.74 75.92 75.52 75.60 75.92 75.03 73.98 73.91 74.07 74.17 74.74 75.46 74.99 75.10 75.68 75.41 75.28 75.15 74.49 73.66 72.53 71.90 71.83
72.02 70.94 70.19 70.87 71.84 70.11 72.00 69.89 70.23 69.25 68.82 69.61 68.32 68.73 70.04 69.69 69.54 70.67 71.48 71.68 72.45 72.92 75.62 76.41 76.23 75.90 74.81 74.72 74.88 75.11 75.95 76.10 76.03 76.16 76.19 76.31 76.14 75.91 75.66 75.31 74.28 73.03 72.62
73.59 73.15 71.79 70.98 73.17 71.01 71.34 71.14 69.91 70.49 69.32 68.65 69.00 69.95 69.53 68.83 69.65 72.06 70.74 71.80 71.41 71.84 71.63 74.56 76.26 76.05 75.68 76.01 75.77 76.59 76.91 76.60 76.28 76.31 76.64 76.59 76.74 76.49 76.31 75.84 75.43 74.93 73.86
73.96 72.50 73.90 71.46 71.90 71.29 71.16 69.47 69.65 69.31 70.15 67.67 68.29 68.81 68.71 69.61 69.76 69.52 69.82 70.75 71.07 71.86 71.83 71.72 73.36 74.11 75.92 76.77 77.50 77.20 77.24 76.88 76.55 76.43 76.46 76.34 76.41 76.51 76.38 76.07 75.71 75.42 74.87
74.80 73.84 73.29 70.77 71.49 71.26 69.46 72.37 71.33 71.09 70.82 70.92 69.25 67.64 67.94 66.39 66.65 69.48 69.80 69.99 69.79 71.71 72.04 72.23 72.29 72.15 72.71 76.03 76.35 76.90 77.38 77.48 77.52 77.23 76.84 76.59 76.33 75.95 75.71 75.63 75.54 75.84 75.63
73.97 74.30 72.99 72.25 71.67 70.97 72.16 70.65 68.54 69.80 69.39 69.08 67.14 65.71 62.91 65.50 67.70 67.35 68.39 69.68 68.83 70.09 71.03 71.35 71.86 72.42 71.48 71.95 73.04 76.13 76.63 77.06 77.93 77.75 77.11 76.11 75.63 75.63 75.49 75.27 75.06 75.34 75.43
74.73 73.91 73.46 73.27 70.40 70.90 69.51 70.46 72.00 68.91 67.23 69.69 69.51 66.31 63.84 61.98 65.98 66.74 65.90 66.86 65.94 68.53 69.32 69.83 71.34 71.12 71.40 72.60 75.07 75.82 76.59 75.66 76.38 76.42 76.27 76.16 75.91 75.60 75.92 75.87 75.58 75.42 75.11
75.21 74.74 74.01 73.66 73.67 70.56 69.04 70.28 73.49 71.10 68.01 67.33 68.03 69.91 68.76 66.24 64.06 62.83 66.00 65.29 66.84 68.28 67.81 68.55 70.10 71.08 71.67 71.68 76.03 76.02 76.36 75.16 74.21 74.88 75.74 76.21 75.96 75.96 76.36 76.69 76.34 75.85 75.57
75.51 74.41 74.06 73.25 72.54 72.12 71.27 71.70 72.10 71.71 71.15 71.27 71.05 69.60 68.99 68.88 69.62 65.17 62.89 62.68 66.15 67.10 67.48 68.70 70.18 70.39 70.97 72.96 71.47 72.05 74.78 73.11 73.06 74.23 74.71 74.96 75.06 75.33 76.31 76.87 77.13 76.40 76.11
72.87 73.04 74.97 73.64 73.40 70.97 69.03 69.32 72.31 72.10 72.42 71.84 72.71 70.29 69.19 65.77 64.64 67.04 65.15 65.38 63.15 66.89 67.50 69.56 67.55 70.50 71.41 72.53 75.02 75.21 75.05 73.53 72.75 73.11 73.12 73.52 73.76 74.06 75.31 76.19 75.94 75.33 74.73
70.47 71.21 73.73 73.79 73.12 72.26 70.62 70.93 72.90 72.07 73.13 70.74 71.34 71.33 71.32 70.60 69.79 68.67 66.62 66.71 65.25 67.18 68.57 69.03 69.52 70.09 72.24 72.95 72.51 75.06 76.09 74.41 72.47 71.65 71.50 71.84 72.26 72.34 73.47 74.32 73.84 73.53 72.30
70.82 71.92 73.41 73.65 74.43 73.21 73.44 73.56 73.02 72.77 72.25 72.07 70.66 70.19 70.84 71.40 71.04 69.37 69.48 66.68 64.87 66.91 68.25 68.73 70.83 70.31 72.31 72.91 74.33 75.44 74.95 73.66 72.59 71.28 70.81 70.48 70.86 70.96 72.19 72.32 71.88 70.86 69.40
72.99 73.70 72.70 73.63 73.73 74.04 73.07 73.67 72.74 72.92 72.93 71.92 71.33 71.52 71.10 71.44 70.40 70.53 71.80 67.27 66.54 62.79 64.03 67.66 70.21 72.52 72.65 73.89 74.89 73.93 74.90 74.47 72.76 72.56 73.17 70.75 70.13 69.95 71.25 70.79 69.82 68.71 68.03
72.03 71.99 72.36 71.85 73.19 74.16 74.01 73.23 72.09 72.79 72.41 72.65 73.16 71.19 71.52 71.90 71.21 71.60 71.55 70.52 69.32 66.80 64.02 68.95 69.60 73.12 74.01 74.24 74.87 72.91 75.54 73.84 73.11 73.27 71.77 71.68 70.10 69.92 70.71 69.99 68.77 67.34 66.39
71.87 71.37 70.58 68.66 71.11 73.28 73.71 73.20 72.59 72.32 73.40 71.91 71.51 72.20 70.87 72.22 71.21 71.74 72.22 71.16 70.59 69.56 67.38 69.52 71.63 72.12 70.62 70.00 71.59 73.10 75.70 75.25 75.00 72.27 70.83 70.56 69.76 69.16 69.32 68.91 67.63 65.97 64.99
72.08 70.49 67.28 66.92 69.92 72.49 73.89 73.22 72.72 72.89 72.28 71.57 71.83 72.03 71.43 73.32 71.70 72.48 71.80 70.73 70.38 69.75 68.84 66.19 68.57 69.33 69.81 71.72 72.38 73.15 76.21 76.96 75.01 74.83 69.74 69.45 69.40 67.74 67.32 66.70 65.58 64.31 62.50
73.52 73.26 72.03 71.54 72.85 73.32 73.37 73.59 73.40 72.97 73.18 72.19 72.37 72.22 72.17 71.78 71.95 71.40 70.26 72.30 71.49 71.95 71.80 70.20 69.77 70.78 71.14 70.17 69.87 70.92 72.23 74.65 74.99 73.98 69.50 68.64 68.23 67.01 65.77 64.45 63.28 61.61 59.68
74.46 73.76 73.93 73.22 74.16 74.14 74.53 74.49 74.05 73.02 72.98 73.89 73.29 73.83 72.82 71.36 71.73 72.00 71.33 70.74 71.49 71.05 70.69 69.82 69.28 68.84 68.89 70.45 71.07 71.60 68.46 69.62 70.97 72.99 71.73 70.12 68.73 67.67 66.11 63.74 62.64 61.29 57.78
74.74 74.84 74.34 74.33 75.00 74.37 74.93 74.19 74.31 74.03 73.31 72.94 73.26 73.94 74.46 74.56 73.26 72.59 72.92 71.54 71.44 70.64 70.46 70.44 69.45 69.33 69.47 69.56 68.70 70.54 69.76 70.54 69.61 69.01 70.45 70.97 69.59 68.56 67.34 64.43 65.12 64.08 59.54
73.03 74.03 74.52 74.45 73.96 75.24 70.75 69.31 72.37 72.73 74.34 72.92 72.25 73.35 74.16 73.81 72.49 69.40 68.73 69.67 72.32 71.61 70.47 70.60 70.51 70.04 69.38 69.00 71.22 71.22 70.74 69.28 68.20 71.85 71.13 72.09 71.58 71.95 70.45 66.93 65.73 63.66 60.80
72.84 72.43 72.71 73.23 73.87 73.99 67.60 66.47 66.79 70.31 72.35 73.33 73.64 73.24 73.33 74.78 72.03 73.53 69.77 67.27 66.85 66.56 67.99 69.25 68.08 68.09 68.82 69.94 70.55 70.38 69.59 69.93 69.62 72.00 71.65 72.05 72.47 71.95 74.61 70.65 64.81 62.98 60.98
68.92 70.84 72.18 73.07 73.09 74.23 66.90 64.24 66.25 68.28 69.64 70.84 72.57 73.87 73.88 73.82 72.91 72.57 73.51 73.44 71.89 71.62 70.62 68.96 69.39 70.63 70.09 70.64 70.11 70.86 70.65 70.93 71.65 73.14 73.75 70.89 71.89 71.80 72.98 70.55 64.29 63.23 60.86
68.42 68.85 69.70 71.39 71.47 72.55 67.08 63.36 64.12 69.03 70.12 70.79 71.61 72.32 72.80 72.88 70.33 66.56 71.48 71.30 71.73 73.89 71.17 66.08 66.93 66.69 65.78 65.38 67.41 70.41 69.89 68.74 68.98 69.50 68.32 67.63 69.17 66.19 67.36 69.68 65.19 62.09 59.95
68.15 70.05 69.79 70.53 69.18 71.84 67.28 61.75 63.58 70.22 71.20 72.19 72.19 72.00 65.94 69.23 64.51 63.08 69.48 71.04 70.70 71.72 72.25 72.34 70.87 67.54 66.03 68.74 64.78 68.16 70.69 68.34 68.53 68.69 69.98 67.75 67.42 66.63 66.30 68.90 65.00 60.71 58.66

GFSMA_sfc_wetblb_090.txt.gz
Wetbulb
70.55 70.65 70.27 70.69 70.01 67.73 69.77 67.52 68.61 70.11 69.47 69.26 67.91 70.34 68.83 69.98 70.66 71.53 72.10 74.99 76.04 74.61 73.44 73.51 73.66 73.54 73.53 73.29 73.53 73.58 73.66 73.62 73.79 73.97 74.05 73.91 73.98 73.63 73.28 72.78 72.25 71.52 68.58
70.25 68.32 70.03 70.41 70.17 70.55 69.88 68.67 68.36 69.83 70.00 67.98 66.82 68.82 68.78 69.54 70.69 70.85 71.00 72.28 75.70 75.95 74.48 73.95 73.75 73.91 73.83 73.78 73.55 73.64 73.83 73.86 74.23 74.47 74.25 74.37 74.21 74.39 74.08 73.30 72.58 72.14 70.80
70.12 69.94 69.12 69.66 70.65 72.28 70.94 69.88 70.26 71.00 70.04 69.19 68.44 68.21 68.23 68.18 68.61 69.54 70.19 70.95 72.80 75.55 74.81 74.84 75.35 75.00 74.14 74.13 74.00 74.03 74.49 75.11 74.96 74.93 75.59 75.39 75.42 74.84 74.53 74.23 73.38 72.46 72.13
70.30 69.90 68.11 69.04 70.87 71.03 70.64 69.16 69.50 68.92 68.00 68.19 67.14 67.73 68.38 68.64 68.16 68.72 69.45 70.41 71.36 72.26 74.14 75.88 76.54 75.90 74.77 74.91 74.91 75.28 76.04 76.42 76.42 76.37 76.32 76.42 76.50 76.55 76.15 75.77 74.92 73.89 72.74
72.38 71.82 70.10 70.56 70.38 69.94 69.96 70.00 69.59 68.78 68.39 67.36 67.79 69.09 68.97 67.88 68.11 70.54 69.90 70.04 70.23 71.51 70.88 73.45 76.22 76.22 75.48 75.74 76.27 76.94 77.23 77.02 76.50 76.25 76.35 76.40 76.50 76.60 76.60 76.29 76.06 75.34 74.54
73.52 72.22 71.34 71.34 71.22 70.63 70.05 69.42 68.67 68.98 68.19 65.80 67.39 67.96 67.06 68.70 68.28 68.82 69.86 71.16 70.59 70.70 69.97 70.44 71.55 73.75 76.02 76.42 77.43 77.81 77.73 77.36 76.89 76.64 76.70 76.52 76.52 76.34 75.96 75.90 75.79 75.96 75.37
73.57 72.93 72.37 69.63 70.26 68.37 68.69 70.73 70.18 69.36 69.61 69.06 66.25 66.61 65.87 65.41 67.28 68.13 68.68 68.44 69.00 71.13 70.78 70.76 70.50 71.63 71.84 75.87 76.27 76.72 77.35 77.68 77.67 77.65 77.20 76.52 75.84 75.66 75.39 75.33 75.10 75.32 75.60
73.70 73.13 72.23 70.31 70.44 70.26 71.15 70.13 68.12 68.29 67.69 68.06 66.01 63.02 61.92 63.21 65.66 66.49 68.13 68.80 67.67 69.40 70.47 71.19 70.95 71.52 71.15 71.17 72.18 75.23 76.44 77.00 77.38 77.95 77.02 76.12 75.84 75.58 75.30 75.28 75.27 75.42 75.39
73.67 73.62 72.43 71.74 69.46 69.42 68.65 69.41 70.43 67.55 66.64 67.99 68.41 64.74 62.18 60.31 63.91 65.08 64.25 66.84 66.26 66.58 68.55 69.92 70.27 70.92 71.19 70.80 73.63 74.62 76.02 75.23 76.60 77.11 76.76 76.32 75.72 75.51 75.86 75.77 75.78 75.41 75.06
73.35 73.29 73.13 72.33 71.79 69.42 68.35 68.62 72.16 69.37 67.01 67.74 67.62 69.63 66.93 64.43 63.10 61.43 63.97 64.78 64.07 65.87 66.97 67.62 68.56 69.91 70.02 70.16 73.34 75.33 74.52 74.87 75.63 75.58 76.00 76.29 75.90 75.84 76.57 76.56 76.26 75.65 75.31
74.49 74.16 72.98 71.65 71.29 69.95 68.46 70.07 70.91 70.33 70.70 70.18 69.50 68.85 67.75 65.97 65.67 63.61 61.73 61.64 63.86 65.25 66.03 66.77 67.48 68.56 69.72 70.41 71.18 71.93 74.19 74.24 73.20 73.85 74.77 74.92 75.22 75.36 76.17 76.95 76.32 75.71 75.34
71.20 72.47 73.20 72.16 71.38 70.62 69.33 69.03 71.68 71.54 70.83 70.34 70.73 69.45 67.94 66.06 66.24 65.45 63.74 63.77 61.89 63.95 66.50 67.11 67.27 68.50 68.88 70.22 73.80 73.68 74.01 73.62 72.63 72.53 73.07 73.44 74.04 74.12 75.22 76.15 75.01 74.53 73.28
70.25 71.05 72.73 72.09 71.67 70.18 69.00 67.95 71.28 71.35 70.91 69.70 69.56 69.63 69.59 69.65 69.69 67.73 65.31 64.71 64.64 65.99 67.45 68.28 67.80 68.77 71.00 71.55 72.27 73.88 74.11 73.10 72.10 70.70 70.74 71.54 72.35 72.45 73.29 74.16 73.32 72.38 70.85
69.41 71.18 72.87 72.97 72.66 72.30 71.88 72.25 71.30 71.31 70.95 70.89 69.53 69.32 68.41 69.70 69.62 68.46 67.96 64.48 63.13 64.00 65.72 67.05 69.32 69.53 71.46 72.31 73.03 74.00 73.30 72.36 71.42 69.97 69.49 69.96 70.51 70.86 71.84 72.43 72.09 70.98 68.90
70.67 71.53 72.08 72.77 73.08 72.77 71.57 72.17 71.37 71.52 71.32 70.77 70.16 69.63 69.52 70.07 69.40 69.73 68.96 67.76 64.84 61.45 62.12 66.70 68.85 72.18 72.10 72.81 73.00 73.10 72.13 72.28 71.66 70.40 69.43 69.43 69.36 69.67 70.72 71.25 70.05 68.88 68.16
71.16 72.09 71.86 72.39 72.46 72.74 72.35 71.88 71.42 71.01 71.45 71.09 71.54 70.73 69.62 70.62 70.53 70.80 70.37 69.78 68.39 65.09 62.87 66.85 69.03 72.20 72.16 71.35 72.31 72.41 72.37 72.20 71.58 70.43 69.73 68.92 68.78 68.77 69.53 70.12 69.03 67.95 66.86
71.00 70.75 70.72 71.71 71.14 72.25 72.78 71.94 71.08 71.10 71.02 71.08 70.80 70.58 70.31 70.15 69.74 69.73 70.92 69.59 68.75 68.64 65.27 67.19 70.64 71.31 69.69 69.49 71.27 71.06 71.91 73.09 74.56 70.87 69.53 68.56 67.70 67.69 68.51 68.70 67.86 67.05 66.26
70.60 70.24 70.24 68.55 68.71 70.72 72.22 72.13 71.55 72.23 71.07 70.71 70.58 70.21 70.74 71.64 69.58 70.61 71.08 68.89 69.79 69.00 68.53 66.90 67.76 68.98 69.57 70.50 69.43 69.36 72.04 74.39 74.19 72.22 67.88 67.10 66.97 66.84 66.30 66.50 65.72 64.90 63.60
70.49 70.63 68.70 66.86 66.21 69.28 71.22 72.68 72.18 71.48 71.85 71.68 70.88 70.40 70.86 70.35 69.56 69.64 69.87 69.20 69.94 70.44 70.27 69.08 68.31 69.67 69.87 68.55 69.55 70.02 71.05 70.93 72.07 71.47 68.82 67.93 66.90 66.50 65.16 64.43 63.62 62.20 60.28
71.18 71.08 71.19 70.58 70.91 71.87 72.22 72.42 72.87 70.93 71.51 72.10 72.45 72.14 72.04 71.50 69.97 69.62 69.97 69.73 69.46 69.21 68.83 68.19 67.69 67.91 68.15 69.43 69.41 68.91 69.38 69.58 70.34 72.52 70.28 68.86 68.28 67.94 65.84 63.83 63.57 62.82 59.44
73.13 73.02 72.64 72.86 72.76 73.15 73.60 72.57 73.22 72.97 71.94 71.54 72.66 72.86 72.75 73.06 70.97 69.93 71.90 70.81 69.71 69.07 68.54 68.03 68.14 68.01 68.79 68.90 68.28 69.54 69.40 69.53 69.17 68.18 69.77 70.00 69.60 70.16 69.49 65.88 66.80 66.01 61.83
71.57 72.21 72.87 72.50 72.08 74.26 68.52 67.27 70.68 72.57 73.12 72.37 71.73 71.74 72.29 71.83 71.17 68.81 68.18 68.46 69.43 69.90 68.89 68.84 68.39 67.83 67.80 68.27 68.84 69.40 68.34 67.24 65.61 69.44 70.00 70.31 71.43 72.11 71.67 70.31 67.09 64.88 62.33
68.98 70.13 70.16 71.32 72.17 72.30 67.96 65.61 66.59 69.07 70.48 71.09 72.19 71.81 72.14 74.14 71.39 73.13 69.90 66.81 66.33 66.28 68.31 69.94 68.27 67.66 67.19 68.04 68.27 66.91 66.62 67.13 66.93 69.44 69.82 69.75 71.20 71.38 72.63 71.51 66.12 63.79 62.03
67.53 68.12 69.40 69.63 69.65 72.07 66.76 64.65 65.72 68.72 69.02 69.46 70.90 72.35 72.55 72.69 72.11 71.95 71.71 71.41 71.66 71.23 68.50 68.18 68.98 70.53 69.48 70.52 68.04 69.37 67.77 67.73 69.34 70.32 71.46 68.99 69.11 68.21 69.82 69.24 66.17 63.61 61.24
66.61 67.40 68.84 68.37 69.33 70.61 63.58 61.77 64.01 69.15 69.38 69.98 70.70 70.81 71.20 71.60 68.37 64.94 69.89 70.66 70.77 71.31 69.93 64.57 65.10 64.66 64.00 63.36 65.68 69.06 67.89 67.53 68.64 68.84 69.22 67.97 69.27 66.34 66.28 66.73 67.92 62.29 60.02
65.18 66.79 66.88 68.75 66.68 71.10 58.31 58.14 62.13 68.30 69.11 70.22 71.44 71.53 65.57 67.43 61.83 58.58 67.58 70.39 70.12 70.47 70.66 70.75 71.13 67.00 64.23 66.81 63.34 67.73 70.40 68.65 68.20 67.58 69.11 66.92 66.79 65.94 64.64 67.05 67.51 63.05 60.90

GFSMA_sfc_wetblb_093.txt.gz
Wetbulb
69.45 70.17 69.93 69.85 68.98 67.67 69.25 67.83 68.25 68.96 69.69 67.88 70.01 71.19 69.38 69.35 69.82 70.50 70.60 74.59 75.00 73.97 73.28 73.23 73.30 73.48 73.65 73.78 73.78 73.86 73.81 73.83 73.85 73.94 73.98 74.13 73.88 73.92 73.60 73.24 72.86 72.37 69.90
69.63 68.45 69.36 69.68 69.61 69.69 69.49 68.37 67.42 69.63 69.48 66.24 67.73 68.31 68.18 69.08 69.77 69.94 70.91 71.38 75.13 75.04 74.70 73.62 73.74 73.85 73.95 73.91 73.77 73.84 73.83 74.08 74.14 74.42 74.61 74.43 74.49 74.19 74.27 74.22 73.41 73.00 72.54
68.89 68.53 69.38 69.15 69.68 71.26 70.25 69.26 69.59 69.70 67.93 68.08 66.77 67.32 67.57 68.18 68.45 69.12 69.49 69.70 71.35 74.99 75.14 74.91 74.78 75.02 74.95 74.60 74.61 74.64 75.25 75.71 75.17 75.43 76.03 75.86 75.63 75.35 74.80 74.45 74.22 73.54 72.89
70.00 68.40 67.34 68.13 70.33 70.46 70.31 68.30 68.46 68.33 67.53 67.47 66.54 66.66 67.25 67.63 67.59 67.96 68.16 69.11 69.63 70.98 72.45 75.33 76.07 75.82 75.34 75.01 75.39 75.73 76.53 76.83 76.74 76.67 76.64 76.51 76.57 76.26 75.96 76.04 75.66 75.01 73.88
70.70 69.63 68.03 69.46 69.75 69.74 68.97 69.37 68.67 67.49 67.53 66.73 66.59 67.91 67.77 67.72 67.38 68.99 67.85 68.69 68.78 70.44 70.19 71.95 74.96 76.06 75.77 75.91 76.60 77.60 77.73 77.42 77.09 76.77 76.69 76.79 76.82 76.79 76.68 75.74 75.65 75.95 75.13
72.22 71.70 70.35 69.75 70.19 69.86 69.13 69.47 68.47 67.88 67.00 65.55 66.67 67.93 66.22 67.53 67.48 67.29 68.67 70.14 69.52 69.57 69.51 69.46 69.21 70.67 74.61 75.81 76.90 77.43 77.77 77.84 77.49 77.42 77.27 77.07 76.41 76.16 75.84 75.60 75.40 75.32 75.68
72.95 71.81 71.69 69.59 69.25 67.38 68.14 69.97 69.01 67.78 68.33 67.95 65.69 65.53 64.33 65.29 66.53 67.33 67.81 68.18 68.71 70.15 69.94 70.10 69.50 70.25 70.94 74.11 75.46 76.69 76.86 77.67 77.96 77.77 77.52 76.51 75.93 75.72 75.41 75.35 74.87 74.33 75.32
72.90 72.42 70.74 68.53 69.38 69.76 69.72 69.80 69.06 66.60 66.66 67.58 65.49 62.00 61.14 62.08 65.26 65.78 66.30 67.77 67.30 67.47 69.40 70.49 70.26 70.58 70.52 70.67 71.98 75.52 76.20 76.71 76.82 77.94 77.52 76.26 76.01 75.57 75.54 75.50 75.58 75.17 75.34
72.82 72.92 71.82 70.40 69.27 69.01 68.04 68.61 70.02 68.07 65.71 67.00 67.58 64.42 61.06 59.26 62.18 63.57 63.38 65.79 66.68 66.20 66.86 67.98 69.48 69.86 70.33 70.43 71.99 72.82 74.72 74.55 76.39 77.41 77.31 76.44 75.84 75.56 76.00 75.98 75.70 75.29 74.99
72.78 72.20 71.91 71.40 69.85 68.23 67.73 68.08 71.51 68.20 66.98 67.28 67.51 68.81 66.19 63.69 62.85 60.76 62.74 64.16 64.24 64.47 64.93 66.65 68.19 68.68 69.26 69.25 71.86 73.67 73.66 74.13 75.14 76.26 76.19 76.63 76.09 75.81 76.64 76.85 75.60 75.09 74.99
73.19 72.37 72.23 71.24 70.27 68.86 67.50 68.90 70.43 69.64 70.02 69.07 68.26 67.49 66.58 64.50 64.95 62.65 61.08 61.45 62.87 63.75 65.39 65.74 66.17 66.56 67.44 68.57 68.96 71.57 73.39 72.94 73.39 74.06 74.86 75.46 75.73 75.75 76.33 76.92 75.93 75.22 74.57
71.10 72.19 72.26 71.05 70.44 69.97 68.97 68.98 70.74 70.16 69.91 69.57 69.34 68.48 67.22 65.99 66.18 65.07 63.13 63.11 62.61 63.82 65.45 65.98 66.87 67.07 68.44 68.26 72.52 74.52 74.05 73.59 73.03 72.93 72.83 73.56 74.11 74.48 75.14 75.89 74.79 73.73 71.86
70.13 70.66 71.95 71.18 70.63 70.39 69.25 67.62 69.96 69.80 70.08 69.26 68.83 68.52 69.31 68.89 68.59 67.00 64.52 63.06 63.75 65.60 67.01 67.85 68.38 68.64 70.43 70.58 71.20 73.83 73.83 71.97 71.77 70.84 70.82 71.29 72.22 73.05 73.07 74.13 73.23 72.06 70.46
70.11 70.71 71.74 72.16 71.40 71.33 70.52 68.75 70.45 70.27 69.99 70.10 69.15 68.52 67.69 68.79 68.97 68.05 67.00 63.96 62.71 62.77 63.92 66.04 69.30 69.10 70.98 71.87 72.75 74.01 72.59 70.71 70.67 70.03 69.46 69.93 70.12 71.27 71.56 72.84 72.37 71.63 69.56
70.58 70.01 71.12 71.67 71.01 71.01 70.77 70.83 70.64 70.14 70.71 70.13 69.28 68.73 68.68 69.42 68.94 69.22 68.16 67.43 64.34 61.45 61.53 65.53 67.89 71.11 71.10 71.02 71.95 71.74 71.29 70.55 70.06 69.72 68.95 68.61 68.79 69.67 70.20 71.12 70.96 69.86 68.79
70.47 69.67 71.12 71.28 71.89 72.17 71.84 70.34 70.63 70.31 69.72 70.10 70.21 69.96 68.90 69.54 69.82 69.85 69.42 68.72 67.49 64.36 62.71 65.61 68.20 69.91 71.14 70.78 71.82 71.30 70.59 70.82 70.72 69.62 68.58 67.23 67.60 68.71 69.28 69.77 69.72 68.99 68.12
70.13 70.66 71.18 70.88 70.99 71.20 71.73 70.90 70.45 70.63 70.05 70.01 69.61 69.70 69.38 69.06 68.90 68.51 70.04 68.82 68.19 67.40 65.03 66.97 68.73 69.89 69.23 69.47 70.19 70.25 71.46 71.92 72.54 69.68 68.25 66.85 66.27 67.61 67.99 68.30 68.40 67.82 67.53
69.84 70.09 70.23 70.57 70.25 70.36 71.14 71.46 71.08 71.48 70.50 69.95 69.77 69.21 69.14 71.29 68.98 68.87 70.04 67.97 68.68 68.59 67.63 65.76 67.32 68.36 68.96 69.49 69.11 69.13 71.20 72.83 71.02 70.65 67.95 66.19 65.94 66.47 66.05 65.71 65.71 65.43 64.58
70.13 69.93 69.49 68.88 68.09 67.79 69.18 71.30 71.87 70.53 70.77 70.58 70.66 70.03 69.19 69.35 68.97 68.84 68.48 68.46 68.67 69.53 68.83 68.04 67.32 68.36 68.59 68.36 68.95 69.40 70.48 69.86 71.74 71.13 68.28 67.66 67.54 66.47 65.62 63.79 63.01 62.75 60.92
71.21 70.03 69.74 68.64 67.56 67.47 68.12 70.13 71.58 71.03 70.69 71.02 71.11 71.23 70.69 70.69 69.93 69.13 68.78 68.75 68.85 68.17 67.70 67.10 66.58 66.87 67.66 68.92 68.73 67.81 68.57 69.27 69.76 71.37 69.35 68.53 68.01 67.89 66.88 64.74 63.68 63.42 60.78
72.06 71.09 70.41 70.82 70.81 71.34 72.08 71.38 71.57 71.94 71.29 70.54 70.93 71.20 71.84 71.82 70.36 69.41 71.15 70.42 69.65 68.63 67.93 67.03 66.80 66.76 67.19 66.90 66.67 67.84 67.86 67.91 67.86 67.64 67.61 69.29 68.86 69.95 70.77 67.99 68.12 67.09 63.81
69.17 70.23 70.66 70.76 70.27 72.88 69.52 67.52 70.50 71.49 71.87 71.77 71.30 71.46 71.50 70.85 70.27 68.12 67.17 67.93 70.22 69.90 68.65 67.25 67.52 66.98 67.32 67.28 67.52 67.61 67.05 65.39 64.07 67.48 68.49 68.86 69.45 70.07 70.95 70.79 68.32 65.98 64.00
67.55 67.84 69.19 70.12 70.77 70.43 65.60 64.71 66.72 70.01 70.18 70.24 70.82 71.05 71.51 73.02 70.45 71.82 69.32 66.29 66.45 65.75 67.48 70.01 68.44 68.31 67.61 67.39 67.30 66.27 65.69 65.64 65.44 67.75 68.51 68.86 69.14 69.19 69.92 69.50 66.06 65.00 62.84
65.65 66.62 67.66 67.84 68.02 69.51 62.83 62.67 65.03 67.61 68.78 68.91 69.22 70.13 70.80 71.31 71.56 71.38 71.43 70.69 70.69 70.79 69.33 68.23 68.92 70.58 70.05 70.38 68.50 69.37 67.75 66.34 66.78 68.47 69.64 67.34 67.98 67.93 68.31 68.44 65.20 63.48 61.83
63.26 64.23 66.65 67.25 67.48 68.31 59.14 59.52 65.08 68.24 68.63 69.12 69.57 69.93 70.00 70.07 65.79 61.36 68.31 69.46 70.10 70.67 68.90 64.16 64.24 64.25 63.66 62.79 65.29 67.70 67.05 66.28 68.54 69.32 69.40 68.24 68.82 66.23 66.40 66.88 67.22 61.88 60.17
61.90 62.98 64.83 67.09 64.67 64.98 58.17 59.82 63.54 66.49 64.81 65.58 67.23 68.76 60.97 62.17 57.57 56.26 64.06 64.60 65.49 67.87 68.63 68.23 68.75 68.23 63.90 66.32 63.02 66.67 69.86 68.11 68.56 67.05 69.03 67.77 66.11 66.25 64.65 65.92 66.93 67.60 65.02

GFSMA_sfc_wetblb_096.txt.gz
Wetbulb
71.24 71.86 71.35 71.11 70.97 71.24 70.83 70.22 70.46 70.92 71.89 69.27 70.91 72.70 71.83 71.19 71.63 71.78 71.45 73.36 74.49 74.84 73.57 73.48 73.51 73.72 73.90 74.32 74.40 74.30 74.12 74.06 74.15 74.27 74.29 74.51 74.37 74.26 74.32 74.37 73.91 73.26 72.69
71.11 70.99 71.08 71.26 71.40 71.63 72.10 70.62 69.99 71.67 71.00 68.60 70.35 70.92 70.90 70.96 71.19 71.14 71.62 72.23 74.62 74.97 75.11 74.68 74.20 74.20 74.37 74.54 74.40 74.51 74.53 74.64 74.74 75.00 75.64 75.74 75.49 75.05 74.70 74.44 74.62 73.88 73.16
70.80 70.99 70.98 70.94 71.51 73.08 72.28 71.24 71.41 71.13 70.21 69.91 70.29 70.11 70.27 70.79 70.68 70.90 71.06 71.34 71.92 73.60 75.01 75.07 74.97 75.25 75.56 75.31 75.19 75.50 76.34 76.71 76.41 76.34 76.70 76.70 76.42 75.80 75.97 75.97 75.21 74.63 74.34
71.55 71.20 70.20 70.83 71.28 72.09 71.45 71.60 70.83 70.85 69.92 70.16 69.82 70.12 70.06 69.98 70.38 70.51 70.18 70.20 71.20 71.31 72.04 73.17 74.64 75.84 75.86 75.88 76.08 77.14 77.43 77.48 77.61 77.35 77.20 76.98 77.10 76.90 76.05 76.20 75.80 75.62 74.69
71.67 71.53 70.30 71.57 72.78 71.77 71.49 71.26 71.09 70.09 70.12 69.28 68.95 70.11 70.37 70.46 70.23 70.36 70.56 70.49 70.88 71.76 72.03 72.09 73.34 74.11 74.74 76.08 76.72 77.67 77.95 77.80 77.86 77.58 77.51 77.56 77.18 76.52 75.99 75.39 75.34 75.48 75.38
72.80 72.89 71.95 72.04 72.15 71.82 71.12 72.35 71.67 71.30 70.68 70.23 69.84 69.80 70.08 70.01 70.69 70.06 70.58 71.40 71.96 72.21 72.18 72.35 72.39 72.43 73.19 74.84 75.60 76.14 77.02 78.02 77.68 77.78 77.68 77.10 76.35 76.24 75.90 75.77 74.40 74.80 75.44
73.85 73.37 72.75 72.23 71.51 70.96 71.61 71.39 70.56 71.20 70.29 69.81 69.53 68.87 67.85 68.41 68.60 70.24 70.35 70.61 71.10 71.68 72.25 72.88 72.62 72.76 72.92 73.77 74.72 74.98 75.82 77.42 77.95 77.96 77.43 76.57 76.04 75.71 75.65 75.76 74.78 74.80 75.66
73.98 73.43 72.18 71.16 71.75 72.16 72.53 72.20 70.54 69.71 69.52 70.17 68.73 65.62 65.33 66.74 69.00 69.42 68.96 70.04 70.69 70.73 70.73 71.71 72.55 73.41 73.45 73.48 73.99 75.66 75.93 76.03 76.90 78.02 77.49 76.50 75.80 75.54 75.95 75.83 75.51 75.64 75.54
73.62 72.83 71.77 71.66 71.85 71.85 71.03 71.75 72.32 70.75 69.29 70.25 69.67 68.23 65.53 64.48 65.12 67.64 68.75 68.76 69.71 70.21 70.77 70.59 71.02 72.31 73.07 72.91 73.16 73.59 74.12 74.22 76.09 77.44 77.37 76.62 76.05 75.57 76.44 76.23 75.20 75.11 75.10
73.95 74.22 73.47 72.05 71.79 71.18 71.56 71.79 72.93 70.34 71.12 69.93 70.38 70.04 68.91 67.80 66.84 65.99 68.17 68.01 68.13 68.91 69.75 69.53 70.07 71.25 71.90 71.72 72.75 73.44 72.48 73.56 74.37 75.89 76.38 76.54 76.19 75.92 76.97 76.46 75.20 74.63 74.60
73.60 72.93 73.63 72.93 72.90 71.39 71.45 71.81 73.18 72.72 73.32 72.19 70.50 69.90 70.11 68.36 68.20 66.55 65.97 67.75 69.74 67.83 68.75 69.64 69.95 70.65 71.54 72.42 72.20 72.97 73.55 73.37 73.47 74.54 75.14 75.52 75.66 75.20 76.20 76.30 75.39 74.52 73.55
73.20 73.84 73.81 72.67 72.69 72.28 71.53 71.86 73.21 73.18 72.65 72.16 71.61 71.11 70.11 69.73 69.01 68.48 66.97 66.92 67.36 69.24 70.18 71.36 70.83 71.53 72.45 73.63 73.94 74.18 74.35 73.08 72.60 72.68 72.90 73.53 73.99 74.36 74.44 75.58 74.55 73.23 71.50
71.94 72.57 73.62 72.44 72.22 72.31 72.19 71.46 72.88 73.02 73.18 72.39 71.90 71.44 70.99 70.99 70.82 69.83 67.95 67.07 66.91 69.16 70.63 72.68 73.85 73.07 74.48 75.59 75.14 74.04 74.56 71.85 71.09 70.20 70.48 71.46 72.06 72.92 73.70 74.67 73.68 72.64 70.78
71.89 72.93 73.29 73.57 73.00 72.64 71.60 71.00 72.32 72.57 72.59 72.47 72.10 71.80 71.22 71.52 71.20 71.10 70.51 69.16 68.16 68.20 67.97 70.41 73.33 74.59 75.09 75.21 74.74 73.47 74.50 70.46 69.46 68.96 68.89 69.08 69.47 70.65 72.10 72.83 73.11 72.28 70.35
72.33 72.29 72.74 73.51 72.99 72.69 73.06 72.95 72.88 72.89 73.45 72.86 72.12 71.82 71.63 72.08 71.86 71.86 71.27 70.54 69.41 66.69 68.32 70.45 71.75 74.86 76.93 75.96 74.98 75.37 74.61 70.88 69.92 69.50 68.20 67.17 67.78 69.42 70.22 70.90 71.72 70.75 69.49
72.37 72.10 71.51 72.03 73.01 73.17 73.41 72.57 72.92 73.03 72.66 72.31 72.20 72.64 72.27 72.20 72.70 72.63 72.18 71.59 70.51 68.90 67.73 69.36 71.89 73.76 74.98 74.01 74.54 74.87 74.95 71.72 70.94 68.64 67.41 66.60 67.10 68.55 69.27 69.43 69.84 69.97 69.18
71.94 71.04 71.58 72.07 72.36 72.59 73.38 73.19 72.72 72.56 72.36 72.49 72.68 72.48 72.65 72.49 71.77 71.49 72.28 72.09 71.15 70.17 69.12 71.18 71.22 73.85 73.94 74.23 74.75 75.16 74.65 75.95 74.91 69.13 67.89 66.77 66.67 67.07 67.96 68.09 67.69 68.35 68.30
72.19 70.76 71.89 72.28 72.59 72.01 72.88 72.95 72.54 73.08 71.45 71.95 72.19 72.04 71.48 72.15 72.48 72.16 72.02 72.59 71.50 72.07 70.58 69.96 71.24 71.78 72.78 74.04 73.83 73.69 74.35 74.87 74.90 71.49 67.79 66.38 67.30 66.55 65.83 65.37 64.86 65.02 65.24
72.70 71.68 71.28 71.28 70.20 70.76 71.48 72.58 72.69 72.86 72.43 72.37 71.68 72.13 71.80 71.82 72.32 71.95 72.02 71.61 71.24 71.84 71.56 71.03 70.82 71.54 71.89 72.29 73.16 74.27 74.27 74.62 73.84 71.22 68.09 67.13 67.22 67.03 65.79 64.53 63.71 62.00 60.93
73.10 71.88 71.37 71.27 70.79 70.80 70.09 70.01 71.94 73.05 73.05 73.03 72.71 72.86 72.73 72.32 71.86 72.68 72.27 72.42 71.71 71.35 71.39 70.84 70.42 70.19 70.87 72.98 72.38 71.22 71.74 73.19 72.75 73.73 71.07 68.43 68.34 68.31 66.90 64.81 64.37 64.14 60.99
71.50 72.48 72.04 71.72 71.46 70.57 70.60 71.41 72.24 72.59 73.21 73.22 73.64 73.53 73.53 72.98 70.53 70.70 73.86 74.10 73.12 72.11 71.57 70.96 70.36 70.42 70.82 71.08 71.37 72.02 71.14 71.71 72.91 71.91 71.94 73.69 73.37 74.09 74.26 70.06 70.29 67.84 64.23
68.75 69.54 70.73 71.41 71.56 72.25 66.66 66.57 71.28 73.28 73.77 73.56 73.86 74.32 74.21 71.85 71.58 67.56 66.75 67.04 70.94 73.27 72.79 71.25 72.11 71.25 72.27 71.47 71.95 71.47 71.30 71.05 69.77 73.00 72.16 72.66 73.81 73.83 74.43 74.67 68.85 65.57 63.38
67.20 67.99 68.57 68.75 68.82 70.22 62.80 63.54 65.93 71.24 72.88 73.03 72.91 73.02 72.78 73.65 71.65 73.60 69.56 66.93 66.71 65.31 67.96 74.08 72.33 72.75 72.35 73.52 72.89 72.12 72.02 70.59 70.96 72.92 71.91 71.89 74.44 73.58 74.37 73.68 66.20 64.29 62.26
64.83 65.59 66.95 67.99 68.91 67.33 59.84 60.81 64.28 69.69 71.01 70.51 70.97 71.15 71.40 71.85 67.92 67.78 71.04 72.63 73.25 73.62 73.09 70.76 71.27 72.92 73.95 74.17 73.24 73.52 72.86 71.56 71.41 72.35 72.65 70.34 74.01 72.88 74.21 73.93 66.54 63.80 62.55
61.77 62.59 65.21 68.12 64.21 61.63 57.39 59.88 65.13 68.91 67.94 68.25 69.54 68.48 68.53 65.98 60.56 59.55 67.37 68.49 69.33 70.90 68.70 64.97 63.40 63.53 62.73 62.38 64.97 70.49 70.83 70.41 70.19 72.01 73.37 71.98 72.66 72.02 72.66 72.70 73.43 64.22 61.18
62.10 63.88 65.31 65.25 61.39 61.38 53.71 55.56 59.92 62.31 62.01 63.81 65.53 66.37 62.07 61.28 59.15 58.97 62.13 62.75 64.06 67.82 68.75 68.39 69.40 69.64 67.59 69.75 63.43 68.57 71.15 69.99 70.49 70.24 73.61 71.37 72.03 71.27 70.55 73.37 72.54 74.02 73.99

GFSMA_sfc_wetblb_099.txt.gz
Wetbulb
74.64 75.26 75.14 74.86 75.61 75.80 74.79 74.58 75.41 75.53 74.74 73.38 75.36 76.26 76.00 75.53 74.65 74.07 73.66 72.18 74.08 74.37 74.52 73.96 74.02 74.13 74.21 74.43 74.51 74.48 74.48 74.59 74.68 74.81 75.13 75.19 75.23 75.27 74.80 74.62 74.54 74.14 73.06
75.69 75.04 75.18 74.95 75.49 76.44 76.27 75.95 75.74 75.24 74.23 74.36 74.42 74.83 75.57 75.57 74.92 74.12 74.18 74.68 73.16 74.79 74.71 75.11 75.07 75.00 75.16 75.57 75.42 75.34 75.57 75.60 75.75 75.99 76.60 76.79 76.89 76.36 75.60 75.42 74.93 74.21 73.48
75.41 75.66 75.13 75.20 76.23 77.19 76.49 76.75 76.42 75.53 74.59 74.59 74.22 75.22 75.29 75.33 75.40 74.68 75.20 75.15 75.28 72.72 73.87 74.72 75.09 75.38 75.68 75.97 76.22 76.61 77.34 77.36 77.18 77.44 77.60 76.54 76.74 76.97 76.92 76.64 76.01 75.36 74.55
75.88 75.64 75.01 75.26 75.69 76.72 76.09 75.88 74.95 74.79 74.70 74.75 74.92 75.38 75.26 75.02 75.23 75.19 75.54 75.32 75.64 75.43 74.54 72.70 73.97 74.60 75.03 75.80 76.90 77.81 77.96 77.81 77.71 77.67 77.80 76.99 76.81 76.64 76.14 75.93 75.76 76.01 75.61
75.05 75.96 75.03 75.53 76.97 75.85 75.97 75.84 74.64 75.05 74.97 75.06 74.67 75.07 75.41 75.14 75.54 74.92 75.21 75.62 76.15 76.01 76.01 76.64 73.65 73.99 74.75 75.79 76.47 76.72 77.60 77.62 77.85 77.92 77.90 77.67 76.92 76.51 76.16 75.96 75.20 75.33 75.18
76.02 77.53 75.82 76.27 76.58 76.29 75.47 76.15 75.73 76.22 75.28 74.30 73.27 73.88 75.54 75.88 76.15 76.30 75.74 75.51 76.60 76.34 76.41 76.46 76.49 76.47 74.80 74.79 75.52 75.74 76.22 77.75 78.07 78.15 77.85 76.94 76.51 76.23 76.15 76.14 75.61 75.71 75.60
77.03 77.59 76.50 76.57 76.31 76.04 76.14 75.70 75.84 74.82 74.26 75.08 73.95 73.73 73.89 74.10 74.37 75.42 76.25 76.11 75.18 75.66 75.48 76.00 76.28 76.23 76.04 75.46 75.38 76.00 76.26 77.10 78.07 78.03 77.78 76.61 76.29 75.78 76.27 76.33 75.92 76.23 76.11
77.02 77.48 77.18 76.02 76.08 76.06 76.38 76.52 76.13 74.58 74.55 74.76 72.75 72.73 69.27 71.17 73.73 74.00 74.97 74.90 74.77 75.44 75.59 75.26 75.61 75.98 76.56 76.56 76.77 75.49 75.66 75.26 76.48 78.02 77.77 76.69 76.21 75.86 76.65 75.76 75.35 75.77 75.56
76.71 77.30 76.54 76.65 76.95 76.66 75.47 76.44 76.10 75.22 73.29 74.46 75.11 72.56 69.96 67.97 71.48 73.71 73.29 73.97 74.58 75.12 75.64 75.35 74.70 75.96 76.58 76.38 76.46 76.67 75.07 73.56 75.72 77.50 77.48 76.98 76.53 76.08 76.76 75.71 75.02 75.10 75.07
76.56 76.69 77.22 76.65 76.81 76.34 76.02 76.42 76.94 76.12 75.89 73.29 75.14 74.23 74.34 73.56 70.52 68.92 73.78 73.82 74.70 73.14 73.86 74.09 74.63 75.09 76.58 76.80 77.10 75.17 73.14 74.28 74.73 76.22 76.92 76.42 76.18 75.34 76.56 75.48 74.58 74.36 74.25
77.53 76.72 77.12 77.00 76.86 75.85 76.03 76.22 77.33 76.94 76.01 74.34 73.23 74.80 75.30 74.65 74.50 72.01 69.15 71.41 74.01 74.21 75.73 75.44 74.79 75.57 76.86 78.14 77.47 76.41 74.41 74.16 73.83 74.48 74.73 75.16 75.08 75.37 76.09 75.95 74.72 73.29 72.05
76.54 77.31 77.08 77.00 76.88 76.69 75.78 75.82 77.52 76.83 76.47 75.48 74.77 74.32 72.75 72.36 72.32 72.67 71.77 72.33 71.97 74.10 75.97 76.99 76.73 76.63 78.59 78.15 77.60 75.28 75.34 73.70 72.48 72.11 72.45 73.42 73.64 74.54 75.39 76.23 75.07 73.39 71.88
76.85 76.57 77.41 77.27 76.42 76.67 76.61 76.13 77.15 77.21 77.08 76.31 76.35 74.55 74.74 73.98 74.87 74.70 73.48 72.05 71.51 73.54 75.18 77.24 76.61 78.00 77.13 77.74 78.18 74.80 75.39 72.12 70.81 69.92 70.48 70.83 71.73 72.54 74.76 75.57 75.07 73.84 72.28
75.31 76.75 76.83 77.61 76.95 76.76 76.11 75.99 75.75 76.38 77.22 76.62 75.80 76.55 75.53 75.72 75.69 75.47 73.58 72.73 71.32 72.92 74.30 74.44 78.29 77.57 77.42 78.06 77.14 74.62 77.35 71.34 70.13 69.49 68.88 68.49 69.65 71.20 72.75 73.63 74.38 73.84 72.80
75.70 76.05 76.42 76.66 77.25 76.84 76.98 76.39 74.74 76.03 76.72 77.03 76.83 76.53 75.94 76.35 76.51 76.67 76.09 74.71 72.62 68.86 69.87 74.12 74.21 77.94 77.58 77.47 76.99 77.58 78.21 71.47 70.76 69.51 67.80 67.59 68.41 70.21 71.15 71.77 72.06 72.05 71.14
75.85 76.08 75.90 76.05 76.45 76.83 77.00 76.85 76.10 76.64 76.39 76.19 75.69 76.34 76.52 76.12 76.17 76.57 75.87 75.65 74.64 72.26 69.38 74.20 74.11 76.44 77.30 76.18 75.78 77.51 77.87 72.44 71.83 69.42 67.98 67.14 67.79 68.90 69.76 70.27 70.29 70.58 70.55
76.17 76.10 75.97 75.19 75.17 75.48 76.66 77.08 76.90 75.85 75.90 76.02 76.29 76.12 75.99 76.92 75.33 75.15 75.50 75.51 74.74 74.23 71.10 72.37 74.84 75.93 76.85 76.96 76.99 77.94 77.41 77.89 76.43 70.47 68.77 67.74 67.02 67.69 68.08 67.94 67.96 68.11 68.78
76.51 76.17 75.98 76.04 76.26 75.86 76.35 76.53 76.15 76.10 75.74 75.23 75.39 75.77 75.45 75.19 76.34 76.32 74.89 75.76 75.20 75.68 73.45 72.98 75.19 75.05 76.19 77.53 77.65 77.80 76.47 76.73 77.63 72.81 68.53 67.12 66.74 66.90 66.64 66.22 65.47 65.01 64.66
76.56 76.30 76.03 75.93 75.97 75.24 75.06 75.80 75.95 76.05 76.24 76.04 75.94 75.51 75.41 75.71 76.08 75.69 76.32 77.56 74.95 75.04 75.40 73.91 73.89 75.65 75.98 76.54 76.62 77.56 77.66 78.13 77.24 72.33 69.14 68.37 67.57 67.47 66.40 64.76 64.16 62.95 61.46
75.87 76.31 76.02 75.90 75.97 74.92 74.68 74.80 74.91 75.68 76.26 75.89 76.22 76.47 76.05 75.93 76.05 76.34 75.52 76.63 75.77 75.91 75.64 74.02 73.70 73.94 74.91 76.69 76.19 75.15 74.58 75.64 75.31 76.57 73.73 70.64 68.47 69.61 67.88 65.56 65.25 64.82 62.21
75.15 75.84 75.91 75.95 75.53 75.17 74.08 74.58 74.80 74.70 74.80 76.21 76.81 76.41 76.79 75.40 71.46 72.05 76.34 77.75 77.29 75.63 75.73 72.75 72.67 73.32 73.42 73.58 73.97 74.77 73.92 74.42 76.09 76.34 75.64 75.92 75.76 76.74 76.60 71.67 72.00 68.89 65.03
73.24 73.73 73.63 73.66 73.28 73.95 62.78 64.51 70.29 75.66 76.48 76.55 76.32 77.06 77.25 73.61 72.87 67.09 66.71 67.07 70.62 75.76 76.16 73.29 72.75 73.04 75.23 75.50 75.32 74.68 73.99 73.05 71.48 76.41 75.57 74.71 76.36 76.10 77.02 77.00 68.37 65.80 63.10
71.21 71.46 71.88 72.64 70.48 66.74 60.56 61.53 65.65 75.21 75.98 76.44 76.12 75.86 75.52 75.52 71.93 74.13 71.43 67.79 67.64 65.34 67.12 74.98 74.57 74.91 74.92 76.07 76.39 75.44 75.14 74.55 73.75 75.34 75.76 73.44 76.13 75.53 77.31 76.83 68.50 65.23 63.12
69.00 69.98 71.53 67.56 65.24 61.77 58.06 59.87 64.89 73.96 74.13 73.13 71.49 70.95 69.51 65.78 63.51 64.69 72.07 74.46 75.47 76.10 76.44 75.55 75.68 75.95 76.55 76.85 76.52 76.28 75.63 75.19 75.47 75.85 78.06 73.07 75.67 75.15 76.89 77.33 68.68 65.45 64.04
67.72 70.45 66.77 65.56 61.93 59.17 54.64 57.53 64.87 66.55 67.25 66.70 66.85 63.90 64.27 63.26 60.55 60.60 65.17 67.10 69.65 72.53 69.08 64.96 63.95 62.76 62.40 61.65 65.25 72.81 73.34 72.94 72.68 73.55 76.56 74.94 74.96 75.02 75.91 76.25 76.80 67.07 63.42
67.06 64.76 60.12 58.47 54.91 55.52 51.89 52.60 59.80 64.67 64.27 64.58 65.13 65.21 57.86 58.55 54.52 55.41 63.44 64.38 64.64 65.66 65.97 66.75 67.96 68.11 68.31 70.91 64.34 73.02 74.03 72.23 72.54 71.68 76.00 74.17 74.30 74.46 72.59 75.63 76.48 77.03 77.42

GFSMA_sfc_wetblb_102.txt.gz
Wetbulb
75.80 75.91 76.54 76.75 77.08 77.13 75.95 76.40 76.63 75.90 75.58 75.15 75.49 75.46 75.04 75.19 74.35 73.41 72.47 73.11 73.88 74.06 74.12 74.05 74.09 74.34 74.77 75.15 75.41 75.53 75.64 75.88 75.83 75.83 76.15 76.11 76.32 76.31 76.20 75.55 74.86 74.32 73.71
77.09 75.88 76.33 76.15 76.78 77.07 76.80 77.05 76.79 75.44 74.94 74.68 75.08 75.13 75.08 75.06 75.47 75.47 74.16 74.56 73.79 74.44 74.57 74.82 75.00 74.96 75.07 75.64 76.06 76.38 76.61 77.15 77.45 77.35 77.46 77.22 77.20 76.80 76.91 76.50 75.58 74.93 74.16
77.45 77.93 76.22 76.56 76.74 77.81 78.60 77.93 77.29 76.66 74.44 74.59 75.29 75.45 75.65 75.21 74.72 75.07 75.36 75.28 74.89 73.46 73.75 74.30 74.57 74.90 75.41 76.10 76.90 77.45 78.49 78.43 78.48 78.23 77.47 77.47 77.60 77.43 76.62 76.31 76.23 76.21 75.44
77.59 77.63 76.26 76.17 77.57 77.68 77.90 76.10 76.04 74.30 75.08 75.09 74.97 75.51 75.32 75.41 75.44 75.52 75.69 76.76 76.56 76.42 75.00 74.53 74.07 74.89 75.39 76.00 76.85 77.65 78.11 78.23 78.39 78.49 78.44 78.16 77.45 76.79 76.62 76.30 76.25 75.54 75.34
76.89 77.94 77.19 77.00 78.37 77.18 76.70 76.61 75.36 75.70 74.79 75.00 74.17 75.00 74.94 75.36 75.40 74.32 75.32 76.68 75.99 77.36 77.21 75.49 74.93 75.03 75.43 76.14 76.48 76.77 77.00 77.94 78.23 78.36 78.20 77.70 77.17 76.44 76.65 76.59 76.16 75.95 75.29
76.97 77.81 76.73 77.76 77.60 76.59 76.30 76.23 77.19 76.14 75.02 74.45 73.00 73.06 73.93 74.80 75.53 75.43 74.96 75.28 75.92 76.48 76.71 78.03 78.33 77.67 76.44 75.95 76.47 76.02 76.95 77.71 77.86 78.37 77.95 77.03 76.62 76.55 76.70 76.61 76.31 76.39 76.05
77.14 77.81 77.61 77.42 77.67 76.74 77.04 77.90 77.01 75.61 73.78 75.72 73.02 72.25 72.44 73.96 74.12 74.69 75.24 75.77 74.95 75.88 76.90 77.43 78.05 77.27 77.46 76.95 77.00 76.61 76.21 76.30 77.69 78.59 78.35 77.05 76.50 76.27 76.87 76.04 76.11 75.96 75.99
76.99 77.28 78.39 77.45 77.99 76.02 77.91 77.78 77.27 74.70 74.84 76.22 72.14 72.38 69.32 70.42 72.66 73.34 74.97 74.79 75.14 76.34 76.26 76.96 77.88 77.67 78.06 77.69 78.04 76.72 75.93 74.91 76.79 78.29 78.35 77.44 76.09 75.97 76.93 75.59 75.48 75.53 75.34
77.14 77.34 77.59 78.15 77.88 77.16 75.48 78.01 77.02 77.00 72.77 75.66 76.79 73.30 68.82 68.93 70.65 72.53 73.22 73.79 75.03 75.80 76.93 77.07 77.12 77.60 78.19 78.53 78.55 77.56 75.04 74.62 76.30 77.24 77.97 77.51 76.23 75.35 76.57 75.15 74.64 74.67 74.50
76.84 77.10 77.53 77.62 78.53 77.94 77.88 77.78 77.44 77.52 77.29 73.66 75.33 75.90 77.12 76.29 70.33 68.35 71.72 73.09 73.51 73.70 75.38 76.03 76.80 76.83 78.84 78.03 78.16 74.82 74.94 75.12 75.42 75.69 76.16 76.71 76.37 75.92 76.66 75.17 73.92 73.13 73.16
77.30 77.23 77.49 78.33 78.21 76.73 77.62 78.00 78.13 77.10 77.23 75.13 74.35 76.09 76.15 76.30 76.15 71.51 69.33 71.32 72.32 75.32 77.03 77.38 76.79 76.95 78.47 78.77 77.87 76.85 75.85 74.77 73.97 74.10 74.45 75.16 75.73 76.41 76.64 76.46 74.65 72.53 71.55
75.79 76.40 76.60 77.20 78.14 78.10 77.73 76.89 77.94 76.32 78.23 76.94 75.77 75.51 73.65 72.98 72.68 72.59 72.11 72.81 72.06 74.58 77.05 78.36 78.48 77.61 78.70 78.03 78.10 76.20 76.33 74.05 72.57 72.41 72.93 72.71 73.62 75.60 76.68 77.08 76.07 74.18 72.09
74.94 75.74 77.00 77.00 76.75 77.46 77.86 77.53 78.29 77.34 77.21 77.51 77.31 75.37 75.62 74.54 75.17 74.75 73.39 72.47 72.28 74.31 75.97 77.61 78.16 79.14 77.46 78.25 77.96 75.42 75.49 72.45 71.62 70.60 70.68 70.94 71.90 73.15 75.39 76.61 76.47 75.64 73.96
75.54 78.00 76.79 77.08 77.43 77.21 77.68 78.04 76.97 76.05 77.00 76.05 76.07 77.12 75.38 76.49 75.82 74.93 73.78 72.51 70.87 72.26 74.09 74.68 78.59 78.01 77.74 77.87 76.77 75.36 76.56 71.61 71.08 69.67 68.93 69.33 70.61 72.32 73.30 74.69 75.52 75.50 74.91
77.35 77.86 77.78 77.02 77.40 77.37 77.76 77.93 75.98 76.79 77.65 77.36 76.74 76.48 75.81 75.76 75.91 75.98 75.36 74.23 72.19 68.90 69.76 74.92 73.77 76.94 76.93 76.39 76.29 77.06 77.09 72.21 72.16 70.84 69.54 68.68 69.23 70.62 71.88 72.60 72.61 72.81 72.89
78.09 77.77 77.77 77.53 76.86 76.99 77.04 77.48 76.69 76.89 77.18 76.08 75.80 76.86 76.67 75.22 75.69 75.50 74.88 74.51 74.04 72.07 69.44 72.41 73.42 75.95 77.45 77.34 76.88 77.34 76.80 74.12 75.20 71.99 70.04 68.63 68.92 69.86 70.19 70.62 70.96 70.75 70.95
77.56 77.57 78.34 77.87 77.62 76.91 77.43 77.79 77.39 76.64 76.48 76.06 76.56 76.38 76.68 78.05 75.30 74.64 74.49 74.41 73.93 73.52 70.97 71.66 73.53 75.47 77.80 77.66 77.91 78.67 77.48 76.58 75.75 70.92 69.90 69.10 68.70 68.65 69.20 69.12 68.95 68.64 68.92
77.60 77.21 77.57 78.06 77.36 76.38 77.32 77.38 76.45 75.85 76.01 75.02 75.15 75.69 75.68 75.22 76.83 77.16 75.24 76.16 75.57 75.90 73.38 73.45 75.89 74.61 76.38 77.80 78.07 78.45 77.31 76.53 77.01 73.04 70.20 68.94 68.26 67.69 67.35 66.92 66.17 66.26 65.53
76.50 76.72 77.19 76.89 76.35 76.81 77.00 76.80 76.63 76.50 76.41 75.82 75.47 75.33 75.10 75.62 75.59 75.12 76.00 75.27 74.36 74.99 76.01 73.98 73.02 74.39 75.31 76.25 76.71 78.35 77.70 78.08 76.20 72.62 69.74 68.47 69.36 67.95 67.33 66.08 64.84 63.71 62.21
75.60 76.07 76.57 77.09 76.89 76.54 76.81 77.20 76.63 76.50 76.40 75.90 76.64 76.09 76.04 75.78 75.93 76.27 75.49 76.52 75.78 75.77 75.38 73.88 73.17 73.01 73.86 76.74 75.98 73.90 72.96 74.49 74.48 75.26 74.55 71.83 71.27 70.70 68.73 66.43 65.77 65.64 63.82
76.25 77.11 76.68 77.18 77.41 76.86 75.58 77.20 77.24 76.53 76.87 76.37 76.65 76.67 76.70 75.16 71.62 72.20 76.05 77.15 76.31 75.55 73.67 73.04 72.36 72.60 72.58 74.59 74.28 74.15 73.02 73.59 75.92 75.53 74.81 75.86 75.71 75.99 76.34 70.51 72.36 69.80 66.24
76.78 77.01 76.59 76.75 77.02 76.20 62.30 63.79 70.59 76.68 77.24 76.68 76.01 76.76 76.96 74.15 73.12 68.53 67.83 67.61 71.15 76.10 75.17 74.59 73.18 73.08 75.76 75.94 74.95 73.87 74.09 73.29 72.17 76.46 76.58 75.25 76.41 75.67 76.57 76.91 69.53 66.97 65.00
75.13 74.93 75.12 74.72 71.75 70.50 59.81 62.16 65.40 75.87 77.06 76.05 75.98 76.54 76.38 73.99 72.53 74.53 71.29 68.76 68.28 66.30 67.54 75.94 74.90 75.01 75.29 77.39 77.23 76.04 76.94 75.18 74.47 76.10 76.56 74.30 76.22 75.38 76.56 76.91 68.80 66.33 65.51
72.63 73.56 72.09 70.94 68.46 63.53 57.04 60.79 66.71 75.64 73.15 72.28 72.67 71.46 70.79 69.09 66.25 66.30 72.64 74.25 75.57 76.15 76.48 75.41 76.52 76.35 77.01 76.21 75.52 76.50 75.72 75.94 76.46 76.89 79.02 73.17 75.65 75.08 76.47 77.22 69.60 69.51 67.23
71.18 71.10 70.03 67.53 64.63 60.53 53.39 55.53 67.95 71.96 70.56 69.45 67.46 67.78 68.65 66.73 56.77 57.58 69.15 69.85 70.67 72.20 68.01 66.02 65.20 62.54 61.84 61.71 65.72 73.32 73.20 74.79 72.97 74.49 77.00 74.83 75.63 75.73 76.14 75.75 76.76 67.87 66.16
65.86 64.25 64.28 61.54 57.44 56.89 50.62 52.26 61.60 69.56 68.18 68.10 67.83 66.39 56.23 57.82 53.99 53.95 66.34 66.61 66.04 65.88 66.02 67.96 69.79 68.97 66.73 70.03 63.21 73.67 74.49 72.24 72.84 72.15 76.59 74.40 76.92 75.54 73.02 76.15 76.74 77.40 77.87

GFSMA_sfc_wetblb_108.txt.gz
Wetbulb
74.49 74.09 66.56 72.50 76.01 74.76 74.99 75.33 75.83 74.57 75.08 74.86 74.54 73.59 72.18 73.08 69.18 69.13 70.39 74.67 74.86 73.59 73.59 73.62 74.56 75.08 75.47 76.07 76.86 77.63 78.42 78.92 78.83 78.89 78.25 77.69 77.67 77.07 76.64 75.85 75.48 75.22 74.86
76.11 75.02 74.17 74.81 72.18 76.86 77.05 73.53 74.52 74.17 74.50 73.31 74.17 74.19 73.19 73.15 74.21 70.65 71.13 72.89 75.61 75.19 74.56 74.56 75.33 75.52 75.96 76.59 77.58 78.46 78.89 78.93 78.71 78.69 78.64 78.36 77.68 77.40 77.07 76.82 75.80 75.07 75.21
79.89 74.69 73.83 76.06 76.78 77.33 77.31 77.76 76.91 74.42 74.17 74.23 74.42 75.41 73.79 73.96 74.17 74.52 72.74 72.45 73.59 76.42 76.46 76.63 76.61 76.54 76.41 76.54 77.77 78.79 78.66 78.50 78.35 78.76 78.71 78.31 77.80 77.45 77.25 77.15 76.42 75.04 75.99
78.99 77.26 76.88 73.39 77.37 78.53 77.70 76.30 76.64 74.55 71.63 74.43 73.86 74.04 74.42 73.88 74.93 75.36 75.34 74.52 74.00 73.59 76.25 77.16 77.08 77.11 77.29 76.95 78.31 78.33 78.32 78.09 78.09 78.22 78.45 78.20 77.47 77.55 77.02 76.92 76.72 75.61 75.82
79.35 74.65 76.43 78.08 78.99 75.71 72.85 73.82 73.73 74.61 73.29 72.26 73.39 74.19 74.55 73.61 74.86 74.65 75.22 76.00 75.41 75.11 74.65 76.01 76.76 77.15 77.95 77.93 78.44 77.82 77.82 77.88 77.82 78.42 78.62 77.91 77.14 77.53 76.97 76.41 76.39 75.89 75.45
79.11 78.96 76.90 78.46 75.72 75.16 73.64 75.39 76.31 74.75 76.59 71.24 71.68 73.25 74.21 74.60 74.68 74.33 74.62 74.61 75.04 75.60 75.94 76.69 75.52 75.94 77.31 79.02 78.13 77.40 77.59 77.68 77.96 78.48 78.92 78.08 76.90 76.77 76.82 76.31 76.36 75.78 76.22
79.56 78.68 78.57 76.72 73.15 72.03 78.26 77.98 77.56 76.16 75.75 75.95 75.70 73.03 72.36 73.93 74.30 74.28 73.99 73.51 74.11 75.03 75.79 76.08 77.56 77.29 75.50 77.91 78.45 77.41 77.05 77.84 78.33 78.58 78.75 78.68 77.34 76.60 76.87 75.59 75.81 75.81 75.86
79.73 78.69 79.01 75.52 74.72 77.10 78.23 78.82 78.59 76.66 74.91 74.60 72.97 71.46 69.62 70.93 72.05 72.57 73.81 73.21 73.18 73.88 74.87 76.10 76.79 76.38 77.48 76.36 76.55 76.31 76.53 76.92 77.69 78.18 78.25 78.18 78.22 77.17 77.35 75.24 75.09 74.94 75.64
78.45 74.59 79.55 75.60 78.29 77.46 77.17 79.27 78.78 76.83 74.51 74.28 76.94 74.76 69.72 68.18 70.15 71.89 72.19 73.29 72.38 74.42 74.68 74.76 76.20 77.17 76.95 75.35 77.06 77.00 76.21 75.69 76.38 77.45 77.57 77.21 77.38 77.79 77.56 76.18 74.73 74.61 74.87
77.47 78.75 79.69 79.51 78.26 73.10 73.95 78.55 77.91 78.09 76.41 74.44 74.87 74.50 76.11 69.14 64.24 66.78 71.01 71.66 72.75 73.80 73.79 73.98 74.14 76.37 76.91 76.32 77.03 76.42 75.79 75.07 75.42 75.95 76.24 76.58 76.61 77.20 77.51 77.63 75.59 74.26 74.12
79.15 77.15 79.27 79.32 79.58 78.18 78.07 78.81 77.30 78.02 77.24 76.59 73.85 74.77 72.58 75.42 70.14 69.70 64.16 65.71 71.63 73.04 74.39 74.89 73.80 74.59 71.70 71.04 75.76 75.67 75.55 74.54 73.91 73.87 74.06 75.05 75.91 76.63 77.08 77.92 77.15 75.14 73.82
77.13 78.93 77.62 79.13 79.81 79.06 75.71 77.76 79.17 77.95 77.62 78.43 76.61 75.95 71.27 67.72 66.89 68.04 65.45 65.84 66.14 70.99 70.33 70.98 70.09 69.53 72.04 71.81 72.77 77.29 75.96 73.75 72.65 72.52 72.60 73.19 74.13 75.22 75.81 76.60 77.72 77.13 75.29
73.42 77.89 79.63 79.55 78.82 79.17 78.09 78.90 78.95 78.05 77.64 76.70 78.21 76.06 75.92 68.67 67.45 68.02 67.71 65.23 65.09 69.79 70.18 70.44 68.14 67.80 72.14 74.26 75.79 75.81 75.31 72.54 71.82 70.85 71.15 71.66 72.58 73.20 74.56 75.16 76.48 77.32 77.15
72.12 77.15 78.88 78.45 78.91 79.13 78.71 79.15 78.28 77.14 77.73 77.45 78.28 77.15 76.38 74.66 73.32 74.12 73.69 70.37 67.62 69.25 65.91 65.28 70.36 68.62 72.70 75.44 75.97 76.47 74.93 72.23 72.12 71.07 70.61 70.89 71.45 72.22 72.33 73.25 73.84 74.76 75.47
73.17 74.44 77.44 78.57 78.20 78.08 79.05 78.23 77.60 76.22 75.32 72.75 76.60 77.91 76.79 75.54 74.61 74.74 72.14 74.23 71.57 68.12 68.20 69.45 70.48 70.79 75.93 75.76 76.27 76.89 76.50 73.83 72.65 74.43 73.22 71.78 71.64 72.18 71.51 71.67 71.50 71.51 72.06
73.19 69.83 72.43 78.39 79.12 76.76 76.92 78.76 76.66 75.48 77.12 76.89 76.33 76.02 77.66 76.25 75.46 74.85 73.18 74.07 73.61 71.30 68.92 72.16 72.19 76.00 77.10 75.82 76.38 75.91 76.52 73.04 72.43 71.78 71.93 73.17 73.02 72.76 71.93 71.45 70.90 70.56 70.23
74.14 71.05 75.66 79.35 78.76 77.04 76.85 78.55 77.66 77.21 76.24 77.56 77.72 76.00 75.96 77.11 76.17 75.44 74.98 74.38 73.14 73.77 70.88 72.20 73.02 74.04 74.82 76.76 76.84 77.11 77.39 75.56 75.10 71.84 73.05 71.73 72.44 72.70 71.19 70.52 70.01 69.55 69.28
78.79 78.09 78.25 78.09 78.22 78.09 78.65 77.79 76.39 76.34 74.19 75.46 76.78 77.06 76.34 75.35 75.95 77.62 76.08 75.59 74.58 75.55 73.82 70.38 74.59 72.26 73.29 75.23 77.64 76.51 77.53 75.15 75.25 72.55 70.41 71.56 71.67 69.97 69.33 67.99 67.49 67.61 67.01
77.98 77.54 77.90 77.34 76.83 76.77 75.86 77.82 77.74 77.18 76.05 75.33 76.84 76.81 76.12 76.49 75.84 75.22 76.19 75.82 74.74 74.83 74.91 73.57 73.00 73.50 73.30 74.64 73.00 74.84 75.05 76.14 76.78 73.66 71.55 69.38 68.92 67.96 67.32 66.29 65.39 64.90 64.18
77.37 77.92 76.96 76.09 76.97 76.96 76.08 77.09 77.67 76.49 76.73 75.83 76.17 76.08 73.48 74.95 76.38 75.95 75.03 75.59 74.69 74.69 73.71 73.22 72.34 72.40 72.81 74.36 72.48 72.96 72.33 74.56 74.01 76.40 74.89 72.78 71.27 70.25 67.99 65.81 65.34 65.84 64.09
76.32 76.61 77.42 77.14 77.07 72.74 67.40 68.41 75.54 76.87 76.00 75.52 77.16 75.92 76.90 74.48 71.84 72.13 75.00 75.82 76.37 75.13 74.28 72.62 71.69 71.67 72.02 73.02 72.43 73.80 73.41 73.98 74.14 75.05 75.22 75.35 75.38 75.73 75.46 71.09 71.42 69.73 68.23
76.93 77.54 76.09 76.45 75.85 66.92 61.76 62.98 66.91 75.46 76.29 76.17 75.63 75.66 75.00 74.82 72.35 70.27 69.70 69.51 71.11 73.84 73.72 73.20 72.43 71.61 72.59 73.39 73.89 73.68 73.26 72.24 70.61 75.87 74.15 73.71 74.74 73.73 75.26 74.92 71.01 70.50 68.67
75.72 75.69 75.90 74.94 70.12 64.09 57.72 59.22 63.42 71.23 74.89 76.56 77.08 76.94 75.64 68.57 64.87 67.81 70.01 69.28 68.60 67.06 67.78 72.61 72.42 72.70 72.74 74.04 72.84 71.66 71.63 71.67 71.26 73.39 73.99 71.97 74.55 74.21 75.52 75.18 69.58 67.75 68.73
70.72 70.77 70.23 70.14 68.23 58.82 54.92 56.33 60.62 70.09 75.53 75.69 73.31 73.61 69.68 64.18 59.03 60.46 66.87 72.73 72.96 74.00 73.17 71.74 72.33 70.83 69.97 70.73 70.37 70.09 70.58 71.99 73.66 73.91 74.28 71.14 73.06 72.11 73.76 75.06 69.06 67.47 65.64
69.05 67.38 66.75 64.31 64.10 56.65 52.46 54.13 60.70 75.64 72.06 66.92 65.43 62.29 65.18 62.04 57.68 57.31 68.62 67.55 68.72 67.29 63.75 63.79 64.70 62.72 61.60 61.18 62.69 66.76 69.86 69.77 69.19 69.58 72.24 70.14 71.22 71.01 72.77 73.14 74.48 68.72 65.26
66.20 64.28 61.51 59.09 59.02 56.31 50.95 52.26 59.41 71.35 70.29 65.92 63.28 60.06 56.91 57.13 55.14 55.27 64.19 64.55 62.46 62.78 61.45 63.45 65.98 67.76 67.45 67.77 62.37 69.21 71.20 67.66 67.19 66.26 69.65 68.55 70.21 70.87 68.91 73.56 72.49 73.32 74.35

GFSMA_sfc_wetblb_111.txt.gz
Wetbulb
69.89 68.59 67.07 70.73 67.43 71.55 70.77 69.86 70.81 70.99 70.83 70.71 69.97 69.03 68.50 65.60 66.39 68.52 70.11 74.56 74.94 74.63 74.17 74.25 74.74 75.34 75.45 76.01 76.76 77.44 78.07 78.51 78.57 78.04 78.06 78.06 77.28 76.89 76.79 75.97 75.36 75.11 74.26
70.82 69.61 66.14 70.72 69.92 71.23 71.39 69.81 70.19 71.27 71.09 69.44 70.46 69.14 69.44 67.25 66.24 67.45 68.69 71.11 75.67 75.53 75.68 75.29 75.56 76.26 76.03 76.60 77.34 78.26 78.84 78.16 78.04 78.45 78.20 77.72 77.44 76.94 76.86 76.79 76.28 75.54 74.80
72.84 70.50 71.27 70.22 71.36 72.64 72.46 72.67 71.87 72.40 68.98 70.89 69.31 70.59 69.33 69.97 67.67 68.09 68.71 69.30 72.54 76.12 76.36 76.93 77.01 77.27 77.42 76.77 77.47 78.53 77.93 77.60 77.86 78.01 77.99 77.59 77.06 77.11 76.86 76.71 76.16 75.37 75.21
74.15 72.44 72.73 71.16 71.68 71.68 71.42 72.43 71.73 70.99 69.42 69.00 68.99 68.62 69.50 70.04 70.28 70.01 69.92 70.04 70.63 71.60 75.04 77.24 77.27 77.16 77.52 77.48 78.36 78.19 77.56 77.34 77.32 77.86 77.79 77.36 76.81 77.04 76.28 76.56 75.95 75.56 75.30
75.25 71.26 71.79 73.13 73.26 73.04 71.23 69.98 70.61 69.56 68.65 68.20 69.96 69.52 68.82 69.36 70.19 72.44 70.93 71.17 70.53 71.54 71.27 74.44 76.64 76.52 77.48 77.86 79.13 77.50 77.29 77.33 77.08 77.65 78.09 77.15 76.50 77.03 76.08 76.45 76.27 75.85 75.50
74.97 74.02 74.13 69.32 66.86 69.50 72.76 73.42 71.75 71.98 72.28 69.19 70.10 69.73 69.23 69.36 70.17 70.23 70.48 72.89 71.17 71.99 71.66 71.67 72.75 74.51 76.92 78.25 78.74 77.15 76.90 77.41 77.68 77.78 78.04 77.26 76.37 76.63 75.60 75.49 75.40 75.70 75.77
73.92 73.75 73.28 65.42 65.95 69.15 70.12 73.37 72.74 71.87 71.89 70.81 69.40 68.96 66.89 68.59 69.73 69.74 70.87 70.86 70.60 71.97 72.68 72.63 73.11 72.75 74.19 77.07 77.46 76.41 76.70 77.64 77.91 78.01 77.47 77.67 76.83 76.06 75.18 74.82 74.43 75.40 74.26
73.64 74.19 73.21 69.94 69.93 71.11 72.66 72.75 73.19 72.76 71.18 69.28 66.79 68.27 63.40 65.66 67.94 69.64 69.51 71.03 69.20 70.66 72.27 72.68 73.54 73.03 73.81 73.80 72.96 74.15 76.20 76.96 77.89 77.66 77.02 76.51 77.11 76.03 75.78 74.16 74.11 74.70 75.17
74.02 73.22 73.81 72.26 71.36 71.02 70.20 72.96 73.63 72.45 71.40 71.43 70.43 69.65 65.88 65.61 66.31 66.42 67.11 68.61 68.61 70.51 70.81 70.24 70.38 73.23 72.87 73.26 74.68 74.95 75.59 75.28 76.81 76.84 76.38 75.95 76.03 76.66 76.28 74.58 73.38 73.76 74.55
74.55 73.60 73.73 73.89 72.52 71.93 71.13 72.96 73.40 73.42 72.85 71.11 71.06 72.26 68.65 66.46 61.39 63.76 68.62 66.45 69.04 69.30 69.31 69.51 68.43 68.74 70.87 69.84 72.36 72.57 74.58 74.67 74.79 75.31 75.61 75.98 75.92 76.38 76.86 75.86 73.94 72.64 73.33
74.83 74.78 73.47 73.05 73.58 73.24 72.35 72.67 73.83 72.75 73.34 72.52 71.35 71.55 69.09 68.24 68.55 63.07 61.54 63.34 66.36 69.45 70.68 69.04 68.96 68.19 69.44 69.89 70.80 70.50 74.60 73.83 73.25 73.19 74.36 74.75 75.28 76.21 76.95 76.95 75.88 74.06 72.70
72.51 73.57 74.29 74.18 73.24 73.04 72.91 72.72 72.75 72.00 72.97 72.59 73.02 70.23 67.03 65.86 65.20 64.53 62.51 63.17 62.86 67.83 69.25 67.95 66.04 68.19 67.45 69.96 72.44 73.43 75.41 73.26 71.64 71.92 72.20 73.03 73.70 74.63 75.58 76.78 77.33 76.85 75.59
70.58 70.64 72.43 72.73 72.89 72.74 73.09 73.01 72.44 71.53 72.70 71.69 71.68 73.26 71.64 66.40 66.83 66.38 64.58 63.70 64.22 67.52 68.15 69.50 67.88 68.05 69.89 67.23 67.83 71.92 74.51 73.38 71.17 70.40 70.42 71.38 72.31 72.71 74.33 75.22 76.07 76.82 77.05
70.31 71.62 72.35 73.32 73.11 74.08 73.58 73.63 72.39 73.07 71.97 71.46 71.13 71.36 72.29 70.87 69.64 68.40 67.38 63.68 60.91 64.97 66.70 65.22 69.52 69.52 69.48 69.27 70.79 73.58 74.05 72.07 71.70 70.71 70.39 70.41 71.22 71.26 71.55 72.49 73.24 74.06 74.58
69.83 71.76 72.52 72.75 73.75 73.87 73.37 73.33 72.80 71.70 71.71 70.37 71.45 71.74 71.80 71.84 71.60 71.29 70.08 69.93 67.88 62.82 63.79 65.04 67.81 69.71 68.98 68.86 69.66 72.80 72.79 73.22 72.42 70.92 69.65 71.55 71.28 71.00 70.91 70.91 70.84 71.05 71.68
69.08 71.38 72.39 71.84 73.76 73.01 72.31 72.86 72.11 71.14 72.19 71.72 72.29 70.99 71.31 71.25 71.36 72.17 72.23 70.74 69.27 67.08 64.37 68.33 67.83 70.42 69.96 72.79 73.98 73.41 73.63 72.99 71.78 71.43 70.77 70.27 72.26 71.53 70.74 70.37 70.21 70.08 70.06
70.12 70.27 70.84 71.50 72.86 72.21 73.29 72.69 72.36 71.97 73.16 71.47 72.24 71.70 71.24 71.92 71.46 70.93 72.53 71.85 70.91 71.09 66.71 67.72 69.96 71.06 70.33 71.37 73.14 73.55 74.94 73.78 72.56 71.00 70.71 68.89 69.50 69.52 69.62 69.62 68.96 68.90 69.10
71.04 71.12 70.15 72.76 72.69 72.77 73.14 71.42 72.09 73.28 71.77 71.64 71.63 71.21 71.11 73.21 70.95 71.62 71.30 71.30 70.68 71.08 69.31 66.61 68.61 69.96 69.71 71.61 71.26 71.80 73.80 75.60 72.77 72.38 69.08 68.45 69.96 68.49 67.57 67.34 67.30 66.87 66.48
72.63 73.38 73.51 72.41 72.80 73.20 72.86 73.24 73.22 72.66 72.58 72.46 72.17 71.82 71.21 71.16 70.42 69.84 70.88 71.08 70.24 71.22 70.05 69.28 68.88 70.71 70.71 70.17 67.42 69.78 71.93 72.61 74.76 74.19 71.57 70.69 68.74 67.09 66.25 65.33 65.12 64.92 63.81
72.72 71.91 72.77 72.81 72.32 72.14 69.87 71.91 73.37 72.67 72.28 72.78 74.01 72.59 71.05 71.25 71.13 70.43 71.12 70.83 71.44 70.90 70.45 70.13 68.96 68.66 69.83 71.58 70.81 70.08 71.24 72.79 72.46 74.35 73.49 71.62 71.38 71.04 69.17 67.42 65.84 65.68 63.44
72.98 72.54 72.28 72.08 68.64 67.68 65.33 65.62 68.08 71.72 71.63 71.52 72.38 72.11 72.72 72.34 71.24 69.94 70.63 70.19 70.31 70.24 70.04 69.43 68.89 68.78 68.46 69.62 69.59 71.01 70.02 71.05 70.86 71.95 72.46 72.90 73.09 73.26 73.73 72.04 70.83 67.74 67.49
70.24 71.29 71.21 70.37 64.83 62.73 61.73 63.49 65.74 68.28 71.81 71.69 71.18 71.47 68.51 64.78 67.15 67.36 67.53 68.34 68.49 68.74 67.79 68.85 68.94 68.49 68.64 69.62 70.13 68.97 69.34 67.86 66.91 71.54 71.52 71.75 71.97 72.49 72.53 74.02 70.67 68.79 68.51
70.74 69.70 69.48 64.31 58.05 56.22 56.72 58.02 62.35 66.51 70.32 71.25 70.66 70.28 65.17 60.96 59.98 62.75 65.92 68.12 68.95 66.78 67.27 68.44 67.65 68.58 68.10 67.51 65.69 64.02 65.31 66.28 66.78 69.96 70.29 69.26 71.27 70.67 71.94 73.28 70.48 68.00 67.62
69.97 68.44 66.91 65.57 59.07 54.32 55.01 56.08 59.45 66.13 65.92 63.69 65.16 62.69 59.52 57.42 57.24 59.85 65.10 64.99 65.86 61.82 59.55 63.21 64.05 64.25 64.33 63.31 64.77 64.97 64.85 68.24 69.20 69.97 68.50 66.51 69.55 69.20 70.87 71.53 69.42 67.20 65.62
66.39 64.74 64.01 61.56 55.95 51.53 53.33 55.30 62.20 66.91 64.31 59.97 59.02 60.36 57.80 55.66 56.71 59.28 61.55 59.55 58.01 57.98 59.50 60.41 60.90 61.30 61.08 60.30 61.36 64.22 66.57 64.96 63.66 64.51 66.27 64.98 67.76 66.63 69.66 69.79 70.14 66.63 64.80
62.56 61.05 59.30 58.38 55.35 50.56 51.91 53.42 60.26 67.07 61.80 57.30 55.72 54.93 56.58 54.52 54.36 54.57 59.45 54.83 52.43 54.16 55.39 58.65 61.38 62.73 64.48 62.74 63.50 66.95 65.37 62.49 61.54 59.49 63.56 63.72 65.97 66.30 63.14 67.06 66.99 66.14 62.81

GFSMA_sfc_wetblb_114.txt.gz
Wetbulb
65.16 67.18 68.19 68.69 69.39 67.23 69.06 67.60 69.14 70.37 70.98 71.89 71.78 70.01 69.43 65.72 66.60 68.81 70.07 74.45 74.97 74.46 74.21 74.35 74.74 75.27 75.95 76.32 76.76 77.31 77.96 78.09 77.90 77.80 77.19 76.71 76.57 76.28 76.40 75.85 75.34 74.69 74.05
68.54 68.89 66.91 66.78 66.94 69.23 70.79 70.48 69.81 70.02 69.62 68.40 68.86 67.47 65.34 64.98 65.91 66.46 67.60 70.14 75.15 75.50 75.39 75.11 75.69 76.41 76.55 76.95 77.61 78.43 78.72 78.02 77.83 77.88 77.63 76.93 76.68 76.88 75.72 76.20 75.57 75.01 73.92
70.73 69.56 67.56 67.25 70.10 70.39 71.81 71.42 71.69 70.74 70.47 69.36 67.99 68.27 66.37 65.17 65.77 65.88 66.49 67.51 70.20 75.49 76.31 76.63 77.18 77.42 77.64 77.10 78.18 78.81 78.03 77.51 77.55 77.85 77.43 76.80 76.43 76.48 76.25 75.95 75.37 74.84 74.40
72.19 70.32 70.30 69.52 70.90 72.24 71.71 70.43 69.22 69.44 68.20 68.42 67.61 68.26 67.82 67.62 65.98 67.15 67.76 68.06 69.14 70.48 72.48 76.28 77.29 77.38 77.68 77.90 79.16 79.21 77.76 77.20 77.00 77.58 77.58 77.08 76.35 76.03 75.78 75.62 75.60 75.07 74.67
72.66 71.25 71.54 69.67 70.55 69.90 71.37 69.86 69.91 68.14 67.13 68.20 68.77 68.34 68.73 68.68 68.38 70.20 68.72 68.78 68.78 69.91 69.99 72.78 75.13 76.67 77.25 77.85 79.40 79.13 77.61 76.99 77.07 77.32 77.68 76.85 76.48 76.03 75.45 75.54 75.44 75.59 74.74
74.15 73.35 72.67 68.98 67.56 69.53 70.23 72.09 70.57 71.52 69.69 68.23 70.11 69.36 68.10 68.33 68.57 68.77 69.16 70.82 70.16 70.38 70.98 71.11 71.04 72.40 75.94 77.88 77.88 78.08 77.45 77.73 77.33 77.25 77.48 76.88 76.13 76.12 75.00 74.45 75.09 75.66 74.83
72.93 72.14 71.74 64.49 69.16 71.05 71.19 71.25 71.98 72.58 69.68 68.30 66.76 68.34 65.95 67.54 68.07 68.58 69.89 69.63 70.34 70.83 70.14 70.79 72.52 73.63 74.05 76.28 75.07 76.50 77.71 77.63 78.22 77.00 76.52 76.91 76.13 75.97 74.64 73.83 74.32 75.09 75.44
73.08 73.58 71.66 69.87 70.31 71.14 70.79 72.24 71.96 71.36 71.22 69.42 67.41 66.41 62.52 64.81 67.29 68.15 69.37 69.83 69.15 69.91 70.22 68.95 69.02 72.26 71.71 73.42 74.14 75.07 75.57 75.92 76.94 77.27 76.25 75.87 76.60 75.57 74.27 73.75 73.38 74.66 74.85
73.12 72.95 72.38 71.55 70.71 69.71 69.27 71.46 71.93 71.89 69.94 70.89 68.91 67.80 64.27 62.95 63.76 65.14 66.44 68.68 69.37 69.12 69.71 69.97 69.25 69.06 70.15 68.98 71.21 72.12 73.47 72.86 75.62 76.97 76.28 75.69 75.77 76.15 75.40 73.73 73.35 73.67 74.09
72.63 73.04 73.03 72.96 71.17 71.15 70.52 71.79 73.30 72.14 71.30 69.77 69.99 69.69 67.52 66.16 61.21 61.60 65.23 65.46 68.99 69.43 69.04 69.08 68.61 69.07 69.07 68.61 69.76 71.87 72.26 72.95 74.97 75.38 75.29 75.84 75.40 76.00 76.30 74.72 72.91 73.01 73.20
73.16 72.84 72.09 72.88 72.42 71.68 71.03 71.43 71.42 72.06 71.67 70.95 69.80 67.87 67.25 66.55 64.54 61.42 59.27 62.08 66.02 68.45 69.21 69.88 68.61 68.02 68.35 67.85 67.37 70.17 72.95 73.75 74.08 73.70 73.70 74.92 75.08 75.79 76.72 76.75 75.07 72.97 72.70
70.64 71.58 72.61 72.36 72.01 71.84 71.40 71.53 71.53 71.60 71.59 71.24 71.17 68.51 67.22 65.33 64.71 62.28 60.39 61.28 61.70 65.87 68.28 68.86 66.95 67.61 67.44 66.98 69.05 71.52 72.54 72.80 72.98 73.19 71.89 72.58 73.59 74.35 75.31 76.86 77.02 75.97 74.35
69.74 69.84 70.93 71.73 72.09 71.93 72.06 72.21 71.26 70.21 71.21 70.63 71.09 70.00 66.51 66.89 67.18 65.26 62.34 62.37 63.14 66.13 67.63 69.12 69.34 68.91 68.28 67.50 68.47 70.36 72.31 72.16 71.76 71.20 70.41 70.66 71.95 72.34 73.44 75.06 76.47 77.08 77.12
69.27 70.38 71.53 72.40 71.98 72.82 71.60 72.58 70.76 72.04 70.48 70.00 69.64 70.61 69.31 66.62 66.36 66.65 65.31 63.94 62.00 62.25 66.19 65.86 67.41 68.19 68.24 69.18 70.14 72.20 71.32 70.48 70.96 69.92 69.31 69.44 70.07 70.86 71.25 72.24 73.03 73.80 74.47
68.82 70.12 71.84 71.53 72.01 72.31 72.31 72.30 71.45 71.08 71.09 69.16 70.96 70.52 70.06 69.42 67.61 68.96 68.19 66.15 64.03 60.99 62.44 65.66 64.35 69.85 69.56 69.23 70.58 70.39 70.01 71.20 70.75 69.89 68.27 67.85 69.39 69.93 70.43 70.45 70.70 70.98 71.32
67.82 68.71 71.05 71.40 71.36 72.77 71.96 71.83 71.32 70.21 71.01 70.42 71.50 68.82 69.57 69.74 69.91 70.35 71.69 70.08 67.63 64.94 64.13 65.88 67.02 67.75 70.24 71.03 71.63 72.44 71.81 71.86 71.33 69.27 68.24 67.25 68.29 69.03 69.83 69.86 69.47 69.50 69.76
66.70 68.29 70.10 70.00 70.66 71.84 71.96 72.01 71.33 70.90 71.89 70.76 70.84 70.57 69.82 70.74 70.31 71.07 70.70 70.57 69.37 68.90 65.24 66.55 68.76 70.04 69.33 69.55 69.74 72.44 73.36 73.56 71.80 69.43 67.93 67.97 67.58 67.76 67.82 68.08 68.36 68.05 68.49
68.05 69.12 69.72 69.49 70.27 71.88 71.90 71.07 71.04 73.21 71.14 70.25 70.14 70.24 70.27 72.10 69.74 70.15 70.17 69.73 69.14 69.61 67.59 65.60 67.29 69.33 68.68 69.44 68.67 70.81 72.89 74.65 72.91 71.44 68.24 68.32 67.80 67.05 66.67 65.94 64.71 65.20 65.47
67.86 69.70 69.89 68.98 70.93 71.95 70.71 70.94 71.20 70.71 71.49 71.74 71.43 70.70 70.20 69.70 69.12 68.55 69.80 69.45 69.10 70.29 69.22 68.06 67.74 69.17 69.54 69.99 69.74 70.77 71.58 71.81 73.64 71.99 70.22 68.91 68.16 67.50 66.32 65.18 63.30 62.61 61.92
68.05 70.37 71.43 71.22 70.72 69.15 68.19 69.07 70.83 71.23 71.35 71.22 71.53 71.49 70.58 70.30 70.15 69.36 70.15 69.72 70.09 69.47 69.02 68.10 67.81 67.79 68.62 70.68 70.15 69.37 68.04 69.86 70.12 73.17 71.88 70.27 69.36 69.48 67.92 66.60 65.99 64.45 62.20
71.37 71.29 70.99 68.58 67.25 66.62 66.06 66.16 67.63 68.98 70.72 69.94 70.74 71.69 70.20 69.85 68.40 68.06 69.47 68.97 68.54 68.01 67.79 67.72 67.20 67.49 67.70 68.31 68.08 68.78 67.20 68.31 68.16 70.84 70.26 71.39 71.19 71.87 71.62 69.88 69.47 67.63 64.73
69.47 69.10 69.18 66.44 63.35 62.30 58.96 63.16 64.94 67.29 69.38 69.57 69.47 66.65 64.85 66.51 67.02 65.69 65.57 66.80 68.22 67.83 66.64 67.36 67.33 66.47 67.11 67.58 67.14 64.13 65.24 65.35 64.85 69.62 68.44 69.10 70.93 69.96 71.09 71.27 65.52 64.91 63.17
70.18 68.26 65.17 61.90 60.56 57.91 56.98 58.26 61.46 64.67 68.78 69.05 69.00 65.97 61.40 60.15 61.56 64.82 66.56 64.33 62.82 63.80 65.32 67.14 65.54 64.63 64.52 63.27 63.11 62.14 62.46 64.71 65.24 66.17 66.51 66.80 68.15 67.10 70.42 69.81 63.36 62.27 61.06
69.50 68.33 64.79 61.86 58.05 58.18 56.45 57.29 61.23 65.02 64.06 64.23 62.20 59.46 57.38 58.15 59.42 63.92 63.32 62.25 58.82 57.01 57.51 59.57 59.66 60.89 62.28 63.19 62.80 63.21 63.94 65.08 66.67 67.07 63.61 62.59 66.87 63.94 68.65 66.76 62.17 59.77 58.54
66.92 65.79 63.97 60.17 57.73 54.69 54.58 57.27 64.95 63.23 60.24 58.76 58.34 56.71 55.72 55.42 57.05 59.17 55.79 53.59 53.32 55.88 58.74 59.50 60.05 60.11 59.62 59.86 62.10 62.78 62.23 59.22 59.17 61.50 57.02 61.10 62.60 63.75 66.23 63.53 63.42 58.20 56.95
62.12 60.70 58.49 54.63 53.62 52.89 53.35 54.76 64.35 62.57 58.42 56.19 53.57 53.77 56.12 54.21 53.72 54.97 53.66 52.43 53.48 53.49 56.06 56.34 56.56 57.47 58.37 58.04 58.69 58.71 58.07 55.44 56.16 53.70 55.42 56.65 52.12 56.14 57.45 61.54 59.94 55.91 56.90

GFSMA_sfc_wetblb_117.txt.gz
Wetbulb
63.81 65.68 66.81 67.02 68.00 66.07 68.58 69.13 69.05 69.45 69.62 69.76 70.69 71.01 70.25 66.03 66.60 67.63 69.05 74.37 75.04 74.40 74.17 74.28 74.70 75.33 76.02 76.60 77.26 77.57 78.15 78.04 77.85 77.39 77.52 76.89 76.32 76.13 75.95 76.10 75.37 74.64 73.65
65.92 67.68 66.66 65.24 66.54 68.09 70.23 69.74 69.93 68.99 69.10 68.51 68.17 66.72 67.05 65.42 65.27 65.90 67.35 68.20 75.10 75.27 74.36 74.66 75.37 75.94 76.29 76.91 77.76 78.69 78.86 78.05 78.11 78.01 77.69 77.23 76.40 76.18 76.12 75.69 75.30 74.34 73.17
69.28 68.93 67.35 67.10 68.99 70.27 70.92 70.30 70.28 70.48 69.41 68.65 67.15 66.98 64.31 63.99 64.71 64.72 65.57 66.55 67.93 74.01 75.66 76.19 77.06 77.51 77.57 77.24 78.53 78.94 78.70 77.72 77.68 77.89 77.69 76.75 76.48 75.90 75.60 75.62 75.07 74.62 73.55
70.79 69.17 68.62 69.71 70.40 71.03 70.80 69.76 68.66 68.53 67.71 67.59 66.94 67.42 66.02 65.00 64.51 64.93 65.24 66.26 66.78 69.03 70.63 73.28 74.61 75.54 76.82 77.83 79.45 79.13 78.22 77.38 77.32 77.63 77.54 76.60 76.05 75.80 75.22 75.20 74.58 74.70 73.65
71.95 70.06 70.59 69.32 68.65 69.24 70.69 71.41 69.68 67.39 66.65 66.93 67.69 67.98 67.56 67.88 66.61 68.61 67.44 68.08 67.87 69.35 70.29 72.35 74.37 74.57 75.50 76.69 78.63 78.32 78.11 77.83 77.69 77.41 77.41 76.80 75.87 75.70 74.95 74.80 74.15 74.92 73.88
72.85 71.96 70.71 67.07 67.46 69.57 71.34 71.20 70.28 70.64 67.62 66.79 68.74 68.87 67.95 67.40 67.59 67.97 68.37 70.24 70.20 70.93 71.48 72.85 73.10 73.63 75.23 76.87 76.10 77.05 78.12 77.65 77.69 77.15 76.93 76.68 75.78 75.72 74.35 73.95 74.32 74.20 74.02
72.44 71.77 67.63 65.49 70.11 70.57 71.05 72.07 71.51 70.50 69.20 67.79 66.13 66.41 65.43 66.94 66.58 68.38 68.94 68.81 69.31 69.52 69.20 69.73 72.75 72.10 72.63 75.08 75.13 75.70 75.72 75.48 76.38 77.68 76.57 75.83 76.30 75.59 73.93 73.01 74.42 74.14 73.72
72.78 72.50 70.82 69.08 69.85 69.27 70.88 71.52 71.02 70.04 70.06 69.38 67.88 64.17 61.22 64.17 65.29 67.25 68.70 68.79 68.22 68.94 69.33 69.07 69.25 70.75 68.71 69.20 70.81 74.02 74.57 74.05 75.08 76.73 76.66 75.87 75.63 75.55 74.37 73.06 73.52 74.45 74.10
72.44 72.68 71.41 70.54 69.93 68.50 69.86 70.68 71.14 70.40 68.51 67.81 67.35 66.70 63.03 60.99 62.54 65.03 65.67 67.73 68.62 68.77 68.96 69.51 69.12 68.85 68.01 67.44 68.69 69.95 73.03 72.57 74.80 76.11 76.14 75.86 75.07 75.58 75.47 73.41 73.08 73.83 74.20
71.66 72.41 72.16 71.55 70.57 70.28 70.07 71.49 71.92 70.76 69.77 67.77 68.25 69.12 66.14 64.36 60.56 60.98 64.52 64.64 67.43 68.39 68.52 68.82 69.13 68.66 67.54 67.40 68.46 70.19 72.21 73.38 73.99 74.70 74.91 75.21 75.51 75.13 76.15 75.10 72.88 72.74 73.25
71.72 73.01 71.62 71.88 70.90 70.46 70.75 70.81 70.92 70.50 70.97 68.62 67.10 66.12 65.03 64.41 62.35 60.28 58.39 61.43 64.58 66.86 68.34 68.73 68.51 68.17 67.58 66.95 66.38 68.98 72.03 72.08 72.25 73.72 74.94 73.77 74.50 75.49 76.04 76.78 75.17 73.33 73.08
70.06 71.09 72.27 71.53 71.34 70.67 70.75 71.03 70.36 71.09 70.44 70.75 69.19 67.46 66.05 63.86 62.84 60.15 58.88 59.50 60.55 64.32 67.91 68.48 68.20 67.26 66.76 66.83 69.68 71.47 72.00 71.33 72.17 72.14 72.44 73.33 73.18 74.06 74.42 75.77 76.85 76.13 74.16
69.03 69.55 70.76 71.52 71.13 71.11 71.27 71.27 70.27 69.40 70.28 69.91 69.92 68.12 65.90 65.61 65.63 62.97 60.51 61.47 62.46 64.67 67.08 68.29 68.05 67.46 68.65 68.32 68.34 71.81 72.37 71.18 70.50 69.76 70.43 71.19 71.58 72.51 73.38 74.07 75.71 76.72 77.00
69.07 69.71 70.59 71.46 71.47 71.82 70.55 71.20 70.28 71.28 70.06 69.61 69.25 69.62 66.68 66.08 65.59 64.58 63.12 63.07 61.76 61.51 63.81 65.54 67.17 68.30 69.69 69.09 70.78 72.25 70.58 69.68 69.48 69.00 68.94 68.78 69.89 70.83 71.57 71.97 72.66 73.51 74.20
68.74 69.06 71.42 71.10 71.54 71.18 71.71 71.19 70.30 70.43 70.10 68.64 69.86 69.49 68.61 67.30 66.32 67.06 67.60 65.18 64.00 60.72 60.73 65.12 64.46 67.72 69.67 70.26 71.08 71.19 70.56 70.37 69.77 68.85 67.63 67.54 68.54 69.53 70.41 70.60 70.83 71.09 71.21
67.10 69.31 70.52 70.97 70.79 70.99 71.92 71.16 70.52 70.09 70.01 69.35 70.52 69.03 69.29 69.23 68.80 69.33 68.63 68.34 67.01 64.11 61.58 65.14 67.05 67.24 68.62 70.47 71.94 71.69 72.36 71.57 70.12 68.29 68.54 67.81 67.69 68.34 69.07 69.36 69.42 69.39 69.63
66.59 66.77 67.53 70.02 69.47 70.85 71.29 70.54 70.70 70.31 69.68 70.10 70.05 69.07 68.94 69.61 69.46 69.76 69.67 69.40 68.41 67.22 63.73 65.61 67.66 69.36 69.02 68.59 69.43 71.63 73.51 72.61 72.14 68.80 68.91 68.19 67.23 67.14 67.39 67.47 67.05 67.82 68.53
65.65 66.14 67.96 69.21 68.94 70.44 69.74 70.15 70.42 71.46 70.50 69.58 69.35 69.33 69.23 70.69 68.58 69.07 69.37 68.53 68.15 68.25 66.46 64.52 66.70 68.38 68.30 69.72 69.41 70.19 71.74 72.81 71.78 70.26 68.26 67.42 66.92 66.61 65.65 64.45 63.59 64.92 65.27
66.39 67.39 69.24 68.61 68.37 70.17 70.92 70.84 70.39 70.52 70.81 70.41 70.53 69.92 69.70 69.45 68.54 68.24 68.47 68.51 68.25 69.85 68.59 67.19 66.54 68.05 68.47 70.01 69.93 70.08 68.77 69.51 72.06 71.33 69.32 68.73 67.50 66.79 65.65 64.66 62.34 61.30 60.70
67.15 66.72 68.85 69.45 69.97 70.25 69.03 69.45 70.51 71.30 71.28 70.95 70.99 71.09 70.63 69.73 68.84 68.88 68.91 68.87 69.05 68.27 67.89 66.74 66.31 66.94 67.53 69.49 68.93 66.99 65.81 67.69 68.91 70.28 70.80 69.24 68.24 68.46 65.72 63.31 63.23 61.71 60.56
67.81 68.40 69.71 68.99 67.64 67.42 66.88 66.11 67.71 69.73 70.58 69.90 70.26 70.26 69.19 69.17 67.96 67.71 69.35 68.78 68.09 67.01 66.70 66.29 65.93 66.24 66.62 66.49 65.30 65.84 64.94 66.13 67.24 66.44 68.09 68.71 69.60 67.94 63.06 63.38 62.57 61.09 59.04
69.92 69.15 69.04 66.79 63.97 62.92 59.75 63.83 64.11 67.17 68.48 69.46 68.83 66.70 66.36 68.00 66.68 65.96 65.89 66.81 68.00 67.35 66.21 66.92 66.51 65.43 64.50 64.14 63.42 62.19 63.25 64.19 63.18 65.01 64.64 66.43 67.09 67.98 60.37 60.32 60.72 58.77 57.28
69.38 67.53 65.18 63.05 61.38 59.59 57.89 58.71 61.85 64.32 66.92 68.14 68.32 65.02 61.25 60.74 63.14 66.01 62.96 60.95 60.81 61.73 65.46 66.92 64.24 63.26 62.70 62.57 62.17 61.15 62.31 63.75 62.60 60.16 63.38 64.56 65.63 66.38 61.59 59.33 59.99 57.49 56.13
69.20 67.39 64.52 62.32 59.62 59.15 56.44 57.46 60.68 63.74 64.91 63.29 63.94 61.42 59.18 60.51 61.07 64.70 61.19 56.83 56.22 56.69 57.10 58.45 59.05 60.20 60.54 61.69 62.49 62.42 63.62 63.23 65.75 58.94 56.19 61.27 63.02 62.00 64.53 57.67 58.90 56.30 55.02
68.97 66.76 64.25 60.74 60.26 58.61 55.99 56.56 63.50 63.42 60.60 59.26 59.49 60.36 60.96 60.16 58.23 59.15 58.39 53.36 56.15 56.86 58.82 58.44 58.71 57.87 57.14 57.63 60.20 60.76 58.32 56.29 57.23 56.91 51.57 56.28 51.79 54.74 63.45 54.47 54.94 57.52 53.55
63.56 61.85 59.09 58.06 56.83 57.25 55.74 56.60 62.21 61.17 58.23 56.68 56.92 57.05 57.08 56.11 56.43 55.06 52.81 54.15 55.32 53.83 54.21 54.52 53.58 53.87 53.66 54.57 56.74 54.97 55.75 54.48 53.75 48.39 50.42 49.72 48.41 51.38 50.36 56.14 51.51 51.38 49.86

GFSMA_sfc_wetblb_120.txt.gz
Wetbulb
65.91 67.42 68.11 68.73 69.01 68.91 70.37 70.60 71.14 71.36 71.45 71.34 70.75 72.10 71.86 68.34 68.78 69.00 69.61 72.06 74.72 74.47 74.29 74.53 75.32 75.97 76.32 77.19 77.76 78.00 78.52 78.48 78.14 77.46 77.54 76.92 76.24 76.33 76.25 75.79 75.25 74.14 73.05
66.10 69.01 68.93 68.43 69.13 70.99 71.61 71.34 71.81 71.70 70.67 71.04 70.49 69.09 69.88 69.43 68.59 68.48 69.15 69.79 73.07 75.46 74.18 74.38 75.28 75.82 76.60 77.31 78.19 78.95 78.78 77.92 77.96 77.66 76.76 76.61 76.46 76.23 75.70 75.49 75.07 74.32 73.11
69.82 70.56 70.00 70.48 71.48 72.36 72.98 72.74 72.14 71.93 71.36 70.63 70.28 69.63 68.20 68.17 67.32 67.26 67.69 67.85 69.30 70.56 73.41 74.68 75.39 76.75 76.78 77.04 78.92 79.41 78.38 77.60 77.68 77.71 77.14 76.66 76.54 75.83 75.09 75.35 74.93 73.82 73.23
71.73 71.22 71.24 72.07 72.71 72.90 73.16 72.86 71.14 70.62 69.95 70.67 70.13 70.42 68.70 67.66 67.51 67.81 68.31 68.36 69.39 70.17 71.02 73.15 74.77 75.78 75.89 76.92 78.89 78.51 78.42 78.07 77.72 77.39 77.24 76.71 76.03 75.43 74.52 75.23 74.81 73.98 73.13
72.78 72.22 72.29 71.30 71.01 72.38 73.11 73.25 72.17 70.25 69.83 70.13 70.24 70.51 70.30 70.50 70.16 70.49 71.13 70.58 70.85 71.84 72.49 73.09 74.90 75.41 75.61 76.11 76.87 77.70 77.78 77.59 77.42 77.24 76.84 76.69 75.81 75.48 74.53 74.98 74.66 74.38 73.49
73.21 73.28 71.24 69.84 71.54 73.31 73.76 73.49 72.80 71.33 70.43 70.37 69.54 68.97 69.29 69.48 70.32 70.69 70.70 71.86 72.24 72.58 73.60 74.65 75.51 75.26 76.49 76.92 75.93 76.70 76.96 77.12 76.91 77.24 76.54 76.06 75.79 75.48 74.16 74.01 74.58 74.15 73.36
73.70 71.55 66.91 70.32 72.85 73.11 73.21 74.27 73.39 72.56 71.61 70.86 70.30 68.18 68.30 68.89 69.55 70.51 70.79 70.69 70.97 71.17 71.22 72.64 74.33 73.02 73.35 73.86 74.43 75.49 74.81 75.35 77.28 77.34 76.43 75.56 76.03 75.26 73.99 73.02 74.33 74.21 73.82
73.50 72.80 70.99 71.78 72.28 72.37 73.34 73.46 72.93 71.68 70.29 69.60 70.82 66.47 65.89 67.97 68.47 68.75 70.25 70.55 70.42 70.25 70.96 71.12 70.91 70.95 71.25 71.09 71.53 72.66 73.66 74.68 75.81 76.58 76.63 75.50 75.21 75.45 74.36 72.74 73.31 74.23 73.70
73.56 73.78 72.44 71.82 72.01 72.21 72.93 73.42 73.18 72.49 69.94 69.43 69.52 70.36 66.27 65.20 65.72 68.49 68.19 69.06 69.99 70.40 71.04 71.43 71.41 71.35 71.13 70.33 70.18 71.21 73.14 73.78 73.70 74.69 76.18 75.59 75.05 75.08 75.45 74.16 72.64 73.53 73.08
73.39 73.79 73.43 72.97 73.15 72.78 73.48 74.34 73.54 73.09 72.10 69.74 69.97 69.13 68.63 68.32 66.47 66.45 67.94 68.80 69.07 68.93 70.82 71.23 71.24 71.05 70.50 70.30 69.80 69.86 71.94 72.18 72.22 73.84 74.91 75.61 74.93 75.11 75.96 75.45 73.79 73.04 73.43
73.69 74.08 73.51 73.50 73.28 73.38 73.32 73.53 73.71 73.59 72.82 71.32 70.65 69.39 67.92 67.08 65.91 65.65 63.50 64.73 67.35 69.05 70.00 70.49 70.95 71.05 70.50 70.26 69.75 70.79 72.66 71.95 72.56 73.17 73.46 74.33 74.40 74.97 75.53 75.91 75.63 73.91 73.04
72.00 73.31 73.71 73.36 73.40 72.90 73.40 73.38 73.37 73.46 73.07 72.93 71.85 70.39 69.47 68.62 67.32 64.49 63.77 64.07 64.07 67.69 70.18 71.03 71.37 71.20 70.67 70.75 71.86 72.54 72.95 72.41 71.60 71.53 71.81 72.56 73.21 73.48 73.89 73.71 75.88 76.44 75.06
70.96 71.79 73.26 73.09 72.71 73.03 73.45 73.72 73.30 72.56 72.68 72.74 72.58 70.03 69.52 69.33 68.71 66.18 64.94 65.70 66.78 68.27 70.23 72.04 71.51 71.23 72.37 72.99 73.28 73.16 72.71 70.87 70.74 69.50 69.35 70.46 71.57 72.54 73.38 74.08 74.59 75.72 76.55
70.91 71.87 72.19 73.08 73.32 73.67 72.98 73.54 72.78 72.96 72.78 72.59 72.10 72.34 70.42 69.53 69.26 68.09 67.70 68.11 67.84 66.62 67.60 69.88 71.79 71.87 73.46 74.36 74.71 73.61 74.00 70.23 69.58 68.82 68.28 68.48 69.63 70.90 71.90 72.78 72.59 73.29 74.06
70.13 71.21 71.85 72.84 73.05 73.37 73.55 73.14 72.39 72.37 72.80 72.26 71.64 72.30 72.25 69.82 69.07 70.22 69.87 69.27 69.12 66.61 65.81 69.61 69.81 72.54 72.48 73.39 74.02 75.06 75.50 70.36 69.68 69.02 68.00 67.85 68.40 69.32 70.02 70.58 70.82 71.02 71.48
69.99 70.60 71.26 72.32 72.52 72.90 73.50 73.32 73.12 73.01 72.32 71.71 72.25 72.22 72.45 71.91 71.96 71.60 71.41 71.11 69.99 68.12 66.58 68.69 71.20 71.88 72.49 73.28 73.76 75.33 75.00 72.27 70.15 68.67 67.96 67.08 67.54 67.99 68.03 67.90 67.83 69.17 69.44
68.78 69.02 70.26 71.10 71.42 71.93 73.27 73.29 73.11 72.92 71.98 72.38 72.52 72.21 71.76 72.01 71.80 72.20 72.39 72.22 71.12 69.65 68.14 69.17 71.00 72.74 73.41 73.19 73.86 74.18 73.68 74.84 74.53 68.43 67.92 67.34 65.93 65.85 65.63 65.34 65.89 67.21 68.31
69.02 68.67 68.59 69.65 71.13 71.41 72.88 72.31 72.48 73.62 72.10 71.82 71.71 71.94 71.95 71.52 71.91 72.42 71.70 72.23 71.26 71.54 69.36 69.02 70.98 72.26 72.41 73.58 73.58 72.92 72.59 73.69 74.31 69.56 67.27 65.25 64.01 62.87 62.93 63.29 62.70 62.43 62.90
68.74 67.97 68.29 69.72 70.77 70.99 72.22 71.82 71.97 72.51 72.59 72.64 72.38 72.18 72.06 72.14 72.35 71.50 71.27 71.65 71.20 72.61 71.62 70.77 70.58 71.45 72.23 73.30 72.97 71.53 71.41 72.35 71.86 70.23 67.84 65.09 63.35 61.80 60.29 60.32 60.26 60.08 58.87
69.45 68.32 69.36 70.76 70.41 70.67 72.24 72.04 71.98 72.29 72.54 72.87 72.82 72.86 72.97 72.58 72.18 72.31 71.60 72.23 71.66 71.22 71.26 70.09 69.97 70.67 71.18 72.64 71.40 69.56 69.87 70.96 67.42 70.91 69.50 66.12 63.43 62.18 60.57 58.96 59.28 58.50 56.96
69.78 69.61 69.09 71.09 70.94 70.20 68.77 68.68 70.10 71.16 70.82 71.49 72.31 72.49 71.74 71.63 68.81 70.08 72.69 72.24 71.64 70.57 70.13 69.92 69.59 69.92 70.43 68.91 68.43 68.61 68.91 69.96 68.78 66.87 69.12 66.57 62.15 61.07 59.25 58.95 59.39 58.91 57.76
69.90 69.61 70.65 70.50 68.06 65.65 61.68 64.37 66.29 69.14 70.34 71.02 71.45 70.98 69.65 68.53 67.75 65.98 66.78 67.25 70.82 71.07 70.56 70.20 69.92 69.28 68.18 68.07 67.58 66.61 67.88 68.93 65.00 64.10 67.89 66.21 61.70 60.19 57.94 57.17 57.79 57.39 56.75
69.58 70.18 68.83 66.51 64.18 63.52 59.03 60.74 62.36 66.65 68.44 69.92 70.78 69.07 66.05 64.40 65.67 66.27 62.41 61.52 61.69 61.91 66.58 70.95 69.75 68.27 67.24 67.40 66.69 66.38 67.21 67.33 61.30 59.37 66.82 62.31 63.23 57.30 55.44 55.38 56.58 55.95 55.44
68.02 68.11 66.59 65.10 63.21 62.11 57.92 57.96 60.52 64.52 67.17 66.85 68.31 66.33 64.27 64.33 64.90 65.81 62.45 60.56 61.16 62.19 63.00 62.47 65.12 64.47 64.69 65.24 66.47 66.96 67.81 67.53 64.22 58.39 60.07 61.91 61.37 56.93 57.63 55.70 55.57 54.77 53.42
68.72 67.59 66.10 63.81 62.91 61.30 57.79 58.65 63.36 64.35 61.79 62.22 62.78 63.03 64.19 63.33 59.16 60.33 63.46 60.57 60.39 59.57 57.49 57.23 57.14 56.52 56.55 57.43 62.37 65.59 62.15 63.04 62.03 57.35 54.83 57.64 55.92 59.36 54.19 53.27 54.02 53.66 52.47
66.57 64.78 62.20 61.97 60.32 60.78 56.17 56.71 62.06 63.21 60.48 59.00 58.84 57.97 57.49 58.71 55.52 55.92 58.96 59.24 59.34 58.43 58.36 57.52 56.84 56.56 57.02 56.73 55.80 59.21 60.90 60.39 58.58 54.24 52.76 54.87 54.00 56.43 58.39 53.35 52.30 52.11 51.30

GFSMA_sfc_wetblb_123.txt.gz
Wetbulb
72.97 73.24 73.14 73.97 74.41 75.32 76.10 76.45 76.68 76.67 76.18 75.30 74.15 75.26 75.09 73.70 73.23 72.41 72.15 71.09 73.66 74.61 74.38 74.61 75.47 76.14 76.57 77.13 78.01 78.72 79.47 78.95 78.31 77.80 77.02 76.68 76.24 76.38 75.87 75.29 75.34 74.38 73.02
72.25 73.66 74.49 74.78 75.81 76.65 77.13 77.07 76.75 76.67 75.71 74.73 73.74 73.64 74.20 73.99 73.15 71.23 71.83 72.71 70.82 73.80 74.61 74.75 75.65 76.30 76.58 77.32 78.02 79.57 79.24 78.18 78.32 78.01 77.27 76.82 76.10 75.78 74.92 75.19 74.97 73.83 73.23
75.59 75.84 75.46 75.85 76.67 77.54 77.92 78.01 76.94 76.76 74.52 73.89 74.09 73.17 73.32 72.26 71.45 71.23 72.19 72.63 73.14 71.70 72.87 74.21 75.58 76.12 76.12 76.99 78.38 79.15 78.49 78.12 77.91 77.71 77.37 76.57 76.08 75.33 74.52 75.05 74.20 73.51 72.84
76.22 76.19 75.99 76.51 76.83 78.20 78.44 77.56 76.11 74.44 73.60 74.08 74.30 74.16 73.28 73.26 73.24 73.29 73.99 73.62 74.05 73.94 75.17 74.27 75.26 76.42 76.47 77.16 77.69 77.70 77.89 77.82 77.44 77.39 77.10 76.66 75.96 74.80 74.31 75.01 74.15 73.15 72.68
76.34 76.92 76.67 75.71 76.81 78.24 78.08 77.64 75.84 75.33 73.63 73.82 73.70 74.49 75.15 74.86 74.85 74.72 75.07 75.43 75.43 75.39 76.29 77.00 75.66 75.49 76.38 76.36 76.84 77.33 77.52 77.58 77.24 77.14 76.61 76.54 75.66 74.45 74.05 75.27 74.26 73.34 72.69
76.91 77.59 76.31 75.50 77.70 77.88 77.30 76.41 76.23 75.64 75.29 75.27 73.43 73.75 75.39 75.38 75.89 76.01 75.48 75.48 76.13 75.86 75.94 76.96 77.62 76.96 76.29 76.17 75.70 75.91 76.05 76.94 77.14 77.06 76.24 76.14 75.74 74.46 73.83 75.07 74.52 73.69 73.10
77.40 77.20 75.42 76.61 77.84 77.63 77.53 77.99 77.26 76.17 74.71 75.38 73.44 72.97 73.57 74.97 75.50 75.84 76.15 75.58 75.43 75.16 75.03 75.76 76.44 75.88 75.02 73.72 72.81 73.16 74.50 75.75 76.79 77.34 76.33 75.59 75.94 74.69 73.66 74.34 74.86 74.19 73.20
77.26 77.25 75.78 76.88 77.30 77.52 77.56 77.62 77.45 76.07 74.67 75.72 74.96 73.01 70.51 71.56 74.14 74.58 75.80 75.08 75.33 75.14 75.01 74.92 74.92 74.61 74.41 73.73 73.68 72.39 73.87 74.42 74.75 76.18 76.58 75.62 75.23 74.89 73.82 73.45 74.41 74.53 74.15
76.83 77.11 76.36 76.70 76.95 77.69 76.85 77.42 77.18 76.28 73.92 74.04 74.62 74.26 70.40 68.77 72.01 73.68 73.31 73.53 74.26 74.56 74.82 74.63 74.61 74.69 74.39 73.64 73.70 74.70 72.81 73.05 73.63 74.96 75.87 76.27 75.31 75.29 74.72 73.42 73.57 74.42 74.09
76.69 76.94 76.70 76.89 77.69 77.36 78.04 77.93 77.28 76.82 76.68 73.65 74.39 73.36 73.76 73.18 70.49 69.60 73.17 73.07 73.42 72.55 73.26 73.34 73.82 74.56 74.58 74.21 72.90 71.97 70.95 72.89 73.24 74.37 74.77 75.08 74.91 75.14 75.48 74.49 73.29 73.32 73.52
76.86 76.83 77.47 76.98 77.04 76.95 78.07 77.76 77.64 77.52 76.44 75.43 74.58 73.60 72.91 72.07 72.10 70.05 67.69 69.08 72.85 73.03 74.32 74.77 75.09 75.36 75.59 75.59 76.57 75.94 73.00 73.31 73.08 73.12 72.98 73.54 74.60 74.35 75.03 76.14 75.01 73.50 72.76
75.99 77.23 77.04 77.45 77.86 77.03 77.14 77.42 77.79 76.89 77.51 77.03 75.63 74.97 73.58 72.04 71.85 70.39 69.32 70.85 70.39 72.92 74.97 75.75 76.03 76.25 76.73 77.14 75.60 73.07 73.92 72.58 71.81 71.20 71.51 72.23 73.92 74.48 74.53 75.51 76.60 76.01 74.83
74.48 76.50 77.27 77.09 77.97 77.34 77.17 77.62 77.57 77.05 76.92 76.27 76.77 74.74 74.45 74.24 73.58 71.98 71.08 71.55 71.08 73.52 74.22 75.94 75.95 76.31 77.08 78.25 77.71 74.89 72.54 71.48 70.59 69.74 69.91 70.98 72.02 72.28 73.31 74.23 75.13 76.25 76.75
74.73 76.31 76.20 76.94 76.86 77.19 77.12 77.56 76.61 76.25 76.36 76.10 76.00 76.52 75.38 74.43 74.54 74.00 72.81 71.41 70.27 71.98 73.03 73.42 76.39 76.35 77.31 77.55 76.48 75.34 76.07 70.00 69.89 68.76 68.34 68.98 69.89 70.98 71.95 72.84 72.85 73.95 74.74
74.60 74.99 75.72 75.95 76.56 76.73 76.99 77.12 75.51 75.97 76.59 76.53 75.80 76.00 75.57 75.17 74.23 74.60 74.73 73.60 71.58 67.88 68.84 73.32 74.10 76.38 76.73 77.67 75.72 77.93 77.05 69.83 69.41 68.23 67.27 67.02 67.63 68.07 68.46 68.78 69.46 71.08 71.63
74.71 74.71 74.86 75.36 75.86 76.52 76.86 77.14 77.04 76.78 76.55 76.08 75.25 76.30 76.64 75.97 75.42 75.22 74.81 74.87 73.91 72.97 69.23 73.46 75.09 76.19 76.92 76.66 75.63 76.63 75.97 73.26 68.54 66.98 65.35 64.79 65.46 66.04 66.44 67.16 67.40 68.84 70.34
74.39 73.94 74.64 74.88 75.34 75.63 76.26 76.68 76.83 76.58 76.16 76.21 76.09 76.24 76.18 76.51 74.92 75.24 75.62 75.83 74.47 74.39 71.12 73.49 74.93 76.97 77.00 76.62 76.36 76.34 76.83 77.11 70.04 65.37 64.25 63.25 63.15 63.61 64.05 64.62 65.19 66.10 66.44
74.83 74.66 73.80 73.84 73.94 74.99 75.85 76.04 75.75 75.59 75.70 75.41 75.31 75.77 75.78 74.97 75.96 76.60 75.54 76.29 75.39 75.41 73.02 72.59 74.67 75.58 76.16 76.59 75.45 75.80 75.18 75.85 70.03 64.02 62.67 61.84 60.93 60.79 60.34 60.32 60.19 60.90 61.28
74.26 73.65 72.80 72.94 73.16 73.37 74.78 75.80 76.22 75.90 75.39 75.63 76.00 75.30 75.20 75.64 76.06 75.60 76.04 76.12 74.29 75.28 74.53 74.00 72.72 75.08 75.78 76.25 74.44 74.86 74.23 74.24 73.04 65.62 62.85 60.67 60.60 60.52 59.95 59.45 58.83 57.73 56.76
73.99 73.49 73.12 72.56 73.16 74.40 74.19 74.86 75.63 75.37 75.47 75.63 76.15 75.87 75.59 75.53 75.59 76.01 75.44 76.13 75.62 75.67 75.20 73.64 72.58 72.42 74.12 75.95 74.03 73.35 71.58 72.22 72.57 68.45 64.13 62.63 61.67 61.40 60.27 59.57 59.25 58.77 57.17
74.20 74.35 73.22 73.07 73.98 74.62 73.84 74.45 74.67 75.15 75.47 75.28 75.18 75.64 75.68 73.77 70.32 72.26 76.58 76.06 76.05 75.67 75.10 74.73 71.40 72.39 73.01 72.10 71.86 73.25 72.83 70.13 70.40 72.39 66.78 65.99 63.72 62.48 61.74 59.82 60.52 58.08 57.54
75.16 74.72 73.94 73.56 73.29 73.14 63.06 64.89 68.96 73.12 73.80 74.10 73.05 74.26 75.23 70.30 70.49 66.93 67.56 67.88 71.15 75.39 74.27 74.32 73.59 72.72 73.27 71.16 71.19 72.00 72.42 71.93 67.05 70.34 66.56 62.99 62.11 59.61 59.04 57.63 55.94 56.22 55.94
75.54 74.82 74.29 74.19 73.27 71.76 59.82 60.87 62.46 70.63 72.60 73.37 74.13 74.94 74.14 72.38 68.35 73.00 64.60 63.52 63.23 62.71 65.60 74.34 73.89 73.95 71.36 71.33 71.85 70.85 72.48 70.61 66.42 67.22 69.79 61.89 62.40 57.48 57.69 55.60 54.65 54.06 53.84
71.93 74.41 73.35 72.16 69.77 68.40 58.65 58.66 60.76 69.13 70.62 72.11 71.88 73.42 73.55 71.36 70.49 70.51 68.63 67.55 66.95 66.74 67.77 68.61 70.18 70.58 70.44 71.65 71.85 72.76 72.81 67.85 66.01 64.37 69.10 64.73 62.52 59.33 57.49 54.37 53.11 51.70 51.51
70.25 68.82 69.90 71.33 68.91 65.73 58.71 58.77 62.45 68.42 67.54 67.56 67.29 67.39 68.87 69.86 60.45 61.81 68.51 65.63 63.71 61.39 57.21 56.80 57.02 56.86 56.03 57.39 63.14 70.43 68.91 69.10 67.34 63.40 62.75 63.70 62.47 58.60 58.21 56.96 55.17 51.53 51.28
69.07 68.57 67.10 67.38 61.98 63.50 57.65 56.56 61.05 65.75 63.55 61.99 61.23 61.62 56.92 59.38 54.78 56.36 67.60 63.59 61.73 60.70 61.45 60.96 62.70 61.08 61.50 58.94 58.39 64.69 67.40 64.93 65.81 60.80 59.25 60.66 60.37 62.93 58.22 57.39 56.48 56.09 54.52

GFSMA_sfc_wetblb_126.txt.gz
Wetbulb
74.95 75.46 75.81 76.69 77.72 77.89 76.54 77.00 77.48 76.87 76.65 74.79 74.84 74.52 73.42 73.61 73.49 73.95 74.34 71.86 72.32 74.16 74.65 74.74 75.32 76.22 76.87 77.74 78.61 79.29 79.07 78.22 77.99 77.71 77.18 76.86 76.52 75.51 74.83 75.19 74.78 73.75 72.70
75.91 76.63 76.62 76.28 77.28 78.72 78.10 78.14 78.11 76.54 75.45 73.81 74.04 74.43 74.01 74.35 74.10 75.21 74.61 74.61 71.69 72.92 74.21 75.12 75.81 76.35 76.60 77.10 78.26 79.47 78.44 77.96 77.62 77.06 77.38 76.69 76.44 74.95 75.05 75.01 74.20 73.62 72.99
77.41 78.67 76.82 77.73 77.85 78.99 79.57 78.35 77.30 77.23 74.40 73.41 74.70 75.20 74.94 74.57 74.29 74.90 76.50 76.69 75.81 73.57 73.58 74.19 75.41 75.51 76.28 76.99 77.94 78.35 78.59 77.81 77.35 76.83 77.02 76.47 76.16 74.49 75.00 74.67 73.78 73.44 73.31
78.43 78.07 76.95 77.37 78.64 79.94 79.52 77.60 75.48 74.61 74.52 73.39 74.34 74.43 74.80 75.39 76.01 76.60 77.67 77.08 77.33 76.53 76.73 75.26 75.04 75.57 76.73 77.33 77.30 77.57 77.81 77.92 77.36 77.08 76.45 76.32 75.96 74.13 74.91 74.40 73.55 72.98 72.96
77.93 78.50 78.06 77.57 80.02 79.51 78.13 76.42 75.61 74.74 74.01 73.99 73.06 74.42 75.54 76.35 76.33 76.16 77.07 77.29 77.96 77.58 77.40 76.82 76.70 75.59 77.48 77.07 77.05 77.09 77.06 77.26 77.34 76.93 75.72 76.19 75.66 73.90 74.61 74.24 73.56 73.00 72.81
78.43 78.59 77.35 78.81 78.93 78.69 76.96 77.33 77.55 77.68 76.89 75.91 73.44 73.92 76.16 76.31 76.73 76.74 76.06 76.23 78.30 77.76 77.86 78.21 78.75 78.11 75.24 74.38 73.50 73.77 75.21 76.10 77.34 76.97 75.90 75.49 75.33 74.07 74.21 74.55 73.78 73.31 72.89
78.57 78.90 77.93 78.00 78.84 77.45 78.90 79.30 77.38 76.90 75.90 78.18 74.51 74.29 75.28 75.69 75.17 75.76 76.52 76.35 77.16 77.02 77.04 77.74 77.79 77.21 76.06 73.57 72.62 72.64 74.87 75.73 75.75 76.51 75.96 75.08 75.13 74.38 72.91 74.78 74.61 73.56 72.99
78.42 78.32 78.36 78.39 78.12 77.73 78.84 79.45 79.03 76.28 77.00 78.52 75.04 73.20 70.34 72.08 73.69 75.03 76.39 76.55 77.02 76.97 77.60 77.09 76.54 77.45 76.93 75.55 74.80 72.31 73.12 73.54 74.78 75.62 76.75 74.52 74.26 75.09 73.06 74.36 75.13 74.43 73.61
77.21 78.87 78.65 78.33 78.80 78.05 76.66 78.78 78.55 77.69 74.73 77.11 77.40 74.86 70.54 69.13 72.14 74.89 75.41 75.95 76.70 76.00 76.22 76.31 75.64 76.01 76.71 76.16 75.51 76.21 72.85 72.99 74.08 74.98 76.17 76.12 74.21 74.73 74.64 73.20 74.68 74.94 74.37
77.52 78.00 78.22 78.94 79.15 77.76 78.42 78.57 78.69 78.42 78.23 75.25 76.50 76.50 76.28 75.38 70.14 69.19 73.97 75.46 75.35 74.34 74.60 75.42 75.99 75.88 76.48 76.54 74.27 74.02 72.84 73.36 74.28 74.68 75.50 75.56 75.03 74.34 75.77 74.11 74.03 74.91 74.75
78.10 77.66 78.14 78.10 78.11 77.01 79.00 78.13 77.75 79.21 78.15 76.07 75.21 75.81 76.04 74.73 74.80 70.98 68.15 70.77 74.43 74.66 76.55 77.11 76.81 77.21 78.51 78.08 78.46 75.43 74.61 73.89 73.56 73.19 74.06 74.14 75.52 74.85 75.30 75.86 74.23 73.55 73.89
75.88 77.56 77.77 78.55 78.65 77.81 77.87 77.77 78.61 77.99 77.47 77.72 76.51 75.99 74.16 72.40 72.79 71.55 70.30 72.23 70.99 73.81 76.72 77.07 77.68 77.14 77.23 78.43 76.98 74.96 73.49 72.94 71.87 71.45 72.23 73.34 73.88 74.77 75.04 75.88 76.04 75.27 74.15
75.02 76.63 77.57 77.38 76.47 76.92 76.74 78.01 78.65 77.86 77.59 76.77 77.70 75.70 75.93 75.33 74.93 74.04 72.06 71.32 70.43 73.05 74.68 76.45 77.03 76.94 77.54 77.71 77.85 76.46 72.89 71.69 70.56 69.63 70.21 71.23 72.28 72.74 73.46 74.27 75.14 76.71 76.69
75.58 77.18 77.55 77.43 77.44 77.53 77.50 77.87 76.97 76.76 77.11 76.54 77.26 77.51 75.40 75.02 75.40 74.87 72.99 71.19 68.32 70.28 72.27 73.51 75.83 76.51 77.34 77.76 76.81 76.52 75.68 69.68 68.99 67.89 67.62 68.27 68.75 69.51 70.30 71.38 72.55 73.83 75.84
76.37 77.40 77.72 77.55 77.50 77.66 77.71 77.70 76.69 76.67 77.05 76.99 76.26 76.93 76.27 74.90 75.10 74.51 74.49 73.71 71.08 67.03 68.48 73.06 72.47 77.38 78.03 78.46 75.58 78.58 77.16 67.40 66.68 66.13 65.68 66.08 67.00 67.62 68.22 68.73 68.77 71.56 72.99
77.51 77.28 76.96 77.01 77.32 77.61 77.83 78.28 76.77 77.37 77.21 76.44 75.66 75.99 76.84 75.03 75.57 75.40 74.80 74.49 73.90 71.30 68.18 72.31 73.35 75.98 77.66 76.07 76.44 77.87 76.84 70.03 65.61 64.33 64.04 63.77 64.37 65.17 66.03 66.77 68.88 70.58 71.11
77.40 77.08 76.83 76.68 76.96 77.22 77.57 78.11 77.40 76.48 76.54 76.69 77.01 76.40 76.60 77.39 75.30 74.55 74.87 74.64 73.61 73.54 70.47 71.43 75.62 77.06 76.58 76.64 76.77 77.78 77.61 75.07 69.63 63.17 62.79 62.22 62.15 62.02 62.60 63.25 64.05 65.18 65.83
77.66 77.16 76.75 76.73 76.58 76.87 77.16 77.40 76.41 76.13 76.00 75.78 75.98 76.14 76.02 75.68 76.70 76.74 74.79 75.30 74.78 75.62 73.12 73.20 75.40 74.68 75.53 77.02 77.45 77.32 76.67 73.62 69.25 61.58 61.75 61.55 61.53 60.92 60.71 60.13 59.90 60.24 61.53
76.97 76.90 76.85 76.33 75.81 75.67 75.97 76.88 77.09 76.36 76.35 75.99 76.29 76.10 76.11 76.10 75.80 75.03 75.57 75.61 74.99 76.41 75.51 73.56 72.83 74.82 75.29 75.87 76.10 76.75 76.47 74.41 70.40 62.98 61.68 61.42 61.03 61.16 59.83 59.46 58.81 57.70 57.33
76.64 76.67 76.84 76.26 75.42 75.30 75.41 75.70 76.46 76.67 76.45 76.02 76.54 76.35 76.12 75.98 76.08 75.68 75.51 76.89 76.00 76.07 76.27 73.46 73.85 72.86 73.44 76.45 75.00 74.23 72.98 74.77 69.63 69.29 63.31 64.01 64.08 61.82 61.05 58.97 58.94 57.63 55.73
76.26 76.62 76.81 76.45 75.99 75.74 75.58 76.03 76.19 76.51 76.17 75.82 76.20 76.14 75.76 74.79 70.78 71.40 76.36 75.93 77.75 75.99 74.67 72.70 71.30 71.99 73.14 73.14 72.58 74.03 74.32 72.33 74.51 72.93 70.30 67.78 66.74 65.16 63.00 60.69 60.43 57.21 56.58
76.82 76.83 76.38 76.11 75.64 74.66 65.92 67.04 70.67 75.48 75.78 75.98 75.95 76.20 76.45 72.03 71.85 68.57 68.14 68.46 71.12 76.23 75.66 73.04 71.42 72.72 74.38 74.29 73.18 72.47 73.60 70.73 67.95 72.63 69.26 64.58 65.27 61.05 59.80 59.09 54.94 55.30 54.88
76.43 75.94 76.11 75.93 75.27 75.68 62.94 63.29 64.29 73.31 74.65 75.41 75.54 76.15 75.56 74.61 72.53 75.80 67.41 65.88 64.47 64.15 66.42 74.50 74.18 73.90 74.35 73.89 73.58 72.90 74.16 73.42 72.74 71.35 70.31 66.02 64.34 60.60 59.32 56.03 53.31 52.97 52.64
71.80 71.01 74.37 75.14 75.50 75.20 60.56 60.41 61.87 71.40 71.85 73.48 75.02 75.04 75.80 75.57 74.27 73.85 73.82 73.26 73.07 71.05 70.52 71.95 72.85 74.07 73.73 74.32 73.91 74.28 74.63 72.97 69.93 70.03 72.42 66.75 65.94 60.61 57.52 53.97 51.80 51.60 51.17
69.90 70.19 70.63 72.53 71.97 72.31 59.20 59.64 63.52 71.14 69.72 69.94 69.70 68.09 72.69 73.23 61.30 62.76 72.53 71.41 70.81 67.54 58.15 57.51 57.01 56.68 57.15 58.61 63.98 71.58 74.28 71.52 70.63 67.91 68.83 66.74 65.05 62.63 62.01 59.29 54.83 51.45 50.94
70.75 70.62 70.08 69.52 63.39 66.18 57.71 56.83 62.25 65.70 67.70 65.00 66.56 61.68 56.36 59.28 55.20 58.34 71.38 70.43 68.27 68.16 64.96 65.32 62.09 62.81 63.29 61.35 61.08 68.39 70.00 67.52 66.95 65.54 63.79 63.78 64.33 63.31 60.68 61.91 60.71 57.13 55.44